ECMWFFLT1_925_spd_000.txt.gz
Wind_Speed
12 14 15 14 15 15 15 17 21 24 26 27 29 31 32 33 34 35 35 37 38 38 37 36 37 37 37 37 36 35 35 34 34 31 29 28 27 26 26 25 24 22 22 21 20 18 16 15 15 14 13 12 10 9 8 7 7 7 7 7 7 8 8
12 13 13 13 14 15 16 19 23 25 26 28 29 30 32 33 34 36 38 38 39 40 39 36 37 38 38 37 36 36 36 35 34 31 29 28 27 25 25 24 23 22 22 21 20 18 17 16 15 15 14 14 13 12 10 9 8 8 8 9 9 9 9
12 12 14 14 15 15 16 18 22 25 27 28 29 30 32 35 37 39 40 39 39 40 39 37 39 39 38 37 36 36 36 35 33 31 29 28 25 24 23 22 22 21 21 20 19 18 18 17 16 15 15 15 13 13 12 11 10 10 10 10 11 11 11
13 15 15 15 15 15 15 16 21 26 28 31 33 34 36 39 41 41 40 40 39 39 40 40 40 38 37 37 35 34 34 33 32 31 29 27 24 22 22 22 22 20 19 20 19 18 17 16 16 15 15 14 14 13 13 12 12 11 11 12 12 12 12
14 14 13 13 14 14 13 15 20 25 28 31 34 36 38 40 40 38 38 39 39 40 42 40 37 36 36 35 34 34 33 34 34 32 30 28 25 23 23 23 22 20 18 19 18 17 16 16 16 16 15 15 14 14 13 13 13 12 12 13 13 13 13
12 12 12 13 13 14 15 16 21 27 30 32 35 37 38 38 37 38 39 39 39 40 40 36 35 36 36 35 35 35 35 36 36 35 33 31 28 26 25 24 21 19 18 19 18 17 16 17 16 16 15 15 15 15 15 15 14 13 13 14 14 13 13
11 12 12 13 14 15 16 16 21 28 31 33 35 36 36 35 35 38 39 38 39 39 38 37 36 37 37 36 35 36 37 38 37 36 34 32 29 27 25 23 20 18 18 19 18 17 17 17 17 16 16 16 16 16 16 15 15 14 14 14 14 13 13
12 13 13 14 15 15 14 14 19 25 28 29 30 30 32 33 35 36 37 38 39 39 38 39 39 39 39 36 36 38 39 39 39 37 36 33 30 28 27 24 21 19 19 19 19 18 18 18 18 17 17 17 17 17 16 16 15 14 14 14 14 14 13
12 12 13 14 13 13 13 14 19 23 26 27 29 30 33 34 35 37 38 40 39 39 40 42 41 40 38 36 37 39 40 41 40 39 37 35 34 32 28 25 23 21 21 21 20 20 19 19 19 18 18 18 18 17 17 16 15 14 14 14 14 14 13
10 10 11 12 12 12 11 12 16 18 20 24 27 30 32 34 36 37 37 38 38 39 41 42 40 37 35 36 39 40 40 41 41 41 40 39 37 33 28 26 25 23 23 23 22 22 22 20 19 19 19 19 18 17 17 16 16 15 14 15 14 14 14
8 8 9 10 11 11 11 12 12 13 17 22 25 28 30 33 34 34 34 35 36 38 40 41 39 36 36 38 39 38 39 39 40 40 40 38 36 33 29 28 27 25 24 24 24 25 24 22 20 20 20 19 17 16 16 16 16 16 15 15 14 14 15
7 8 10 12 12 12 12 11 11 13 16 21 25 27 29 30 31 32 33 34 37 38 39 40 39 38 38 39 39 38 38 38 37 36 36 36 34 31 29 28 28 26 25 25 25 26 25 23 21 21 20 18 16 16 18 18 18 18 17 16 16 16 16
7 7 9 10 10 10 11 11 12 14 16 20 24 27 28 29 30 31 32 34 38 39 39 39 39 39 40 39 37 35 33 34 34 35 37 36 32 29 29 29 29 26 24 24 25 26 26 24 22 21 19 18 17 18 19 20 20 19 18 17 17 17 17
7 8 8 8 9 10 11 12 13 13 14 19 23 25 27 28 29 31 33 35 37 38 39 39 39 40 40 38 36 35 38 41 41 40 38 32 28 27 28 28 27 23 21 24 27 26 25 24 22 20 19 17 17 18 19 20 20 19 19 19 18 18 19
9 10 11 11 11 11 11 12 13 12 13 17 20 23 24 25 27 29 31 33 35 37 39 39 38 39 39 37 36 36 38 39 35 29 24 19 18 18 17 18 21 21 22 25 28 26 24 22 20 18 17 17 17 18 19 20 20 20 19 19 19 19 20
11 13 14 13 11 11 12 12 12 11 11 13 18 22 23 25 28 30 32 35 35 37 39 39 37 36 32 30 29 29 29 26 21 17 16 17 15 11 7 9 14 18 21 24 27 26 22 21 19 17 16 17 18 19 20 21 22 21 20 19 19 20 21
14 15 13 11 10 10 11 10 9 9 9 12 17 21 23 26 28 29 31 32 34 37 39 37 33 30 28 28 27 26 23 17 14 13 15 19 21 19 15 14 17 17 16 18 22 22 20 20 18 16 17 19 19 20 21 23 23 21 20 20 21 22 22
15 14 11 10 11 11 11 10 10 10 11 13 18 21 23 25 25 26 30 32 34 37 34 30 29 28 29 29 26 24 21 17 16 14 13 17 24 27 26 25 22 18 16 16 17 16 17 18 18 17 20 22 22 22 23 24 23 22 22 23 23 23 24
13 12 12 12 12 11 11 11 10 11 13 15 18 20 21 22 23 26 29 29 29 27 24 26 29 27 24 23 23 24 24 22 20 19 16 17 24 28 28 26 20 17 19 19 16 16 18 19 19 21 25 25 24 24 25 24 23 22 23 24 24 24 25
9 9 9 9 10 10 10 8 6 7 10 11 13 13 14 18 22 24 23 22 21 20 22 26 27 23 20 22 24 26 26 24 23 21 18 22 28 28 24 20 16 16 18 19 17 16 19 22 22 25 27 27 26 26 26 25 23 23 24 26 27 26 26
7 8 8 8 8 7 6 5 4 4 8 11 12 13 16 21 24 23 20 20 21 22 24 26 24 21 22 25 26 27 27 26 25 24 24 26 27 23 19 16 15 16 17 18 18 16 19 23 25 25 26 27 27 26 27 26 24 24 26 27 29 29 29
8 8 8 8 8 8 8 10 11 12 13 14 16 19 21 22 22 21 20 21 22 23 24 24 22 21 23 27 29 31 31 30 29 28 26 21 16 14 15 14 15 18 19 19 19 19 22 25 25 24 25 26 27 26 27 27 26 25 25 26 29 30 30
8 7 7 7 7 9 12 14 15 14 13 13 15 19 19 18 18 19 19 20 22 23 23 22 21 22 25 29 32 32 30 29 27 24 18 10 7 9 12 15 18 20 22 21 22 23 23 21 20 21 22 23 23 23 24 23 21 19 20 23 26 27 27
4 5 5 5 6 9 10 11 11 10 10 11 13 15 14 13 16 18 19 21 22 23 22 22 23 25 27 28 29 29 28 28 26 21 13 11 14 16 19 25 26 23 22 24 25 23 17 14 15 17 18 20 20 18 15 13 11 11 15 18 20 23 26
6 7 7 7 9 13 14 12 11 10 8 8 9 9 9 11 15 18 19 21 22 23 23 23 24 27 28 29 31 33 31 30 27 21 16 15 15 16 21 24 22 17 16 18 18 14 11 11 12 13 15 16 15 10 7 8 9 10 13 16 19 24 25
6 6 7 10 14 19 19 14 12 12 9 6 6 7 9 13 17 18 18 19 21 22 21 22 25 27 31 33 35 34 31 30 28 24 20 16 11 13 17 16 11 6 5 6 7 7 8 8 7 9 9 8 8 7 6 11 14 16 18 22 25 25 21
10 12 13 13 16 19 19 14 12 12 9 4 5 8 11 14 17 17 18 19 20 19 17 20 24 27 30 33 35 33 31 31 29 25 22 13 3 3 8 9 8 5 5 4 3 5 7 6 5 2 4 7 8 7 8 13 16 18 22 26 24 20 15
14 16 16 17 18 16 16 16 13 11 9 4 6 9 11 14 16 17 17 18 16 14 17 22 26 29 32 33 34 34 33 31 26 21 18 10 2 4 2 6 7 5 4 2 4 6 5 2 1 2 7 9 10 11 14 18 18 18 20 21 19 15 11
12 11 12 14 16 13 12 13 11 11 10 6 6 9 12 15 15 14 14 13 13 15 21 26 29 32 34 35 36 35 34 29 23 18 16 11 5 1 3 4 7 6 4 3 4 9 8 5 5 8 13 16 17 19 22 21 19 19 19 17 15 12 10
10 10 10 12 12 11 11 11 12 13 12 7 8 11 15 17 16 15 15 15 16 20 25 28 32 34 34 35 35 34 31 28 23 20 17 13 9 4 3 5 6 7 6 8 12 11 8 7 10 16 20 21 22 25 25 21 18 17 16 15 12 10 10
8 9 12 13 14 16 15 13 13 13 10 8 10 14 17 18 19 19 19 19 21 24 27 30 33 33 32 32 31 30 29 28 25 20 17 14 12 11 10 10 10 13 14 15 15 13 11 12 16 20 21 22 23 23 23 20 18 16 14 12 11 10 10
6 8 11 12 14 16 16 14 12 11 11 11 12 14 17 18 20 21 22 23 23 25 27 30 32 30 29 30 29 26 26 26 24 18 13 11 11 12 12 14 17 20 21 19 17 16 18 19 19 19 21 21 21 21 20 19 17 14 12 11 10 10 11
5 5 7 9 11 14 14 13 11 10 10 11 12 15 17 18 20 21 22 24 24 25 27 29 30 28 27 28 26 23 22 23 22 17 13 13 14 14 12 11 14 18 21 20 20 21 22 21 20 19 19 20 20 19 18 17 16 13 12 12 12 12 12
6 6 5 6 8 10 10 10 9 10 11 13 14 16 17 18 19 20 21 22 24 26 27 27 27 27 27 27 26 24 23 23 22 20 18 18 17 15 12 11 13 16 18 18 20 23 24 23 21 19 19 20 20 18 17 16 15 13 13 14 14 14 13
8 9 8 5 5 5 6 8 10 12 14 16 17 18 18 19 20 20 21 22 25 27 27 26 27 28 28 29 28 27 26 26 25 24 23 22 19 18 16 15 16 19 19 18 20 23 23 20 19 19 19 20 20 19 18 16 14 13 13 15 14 13 12
7 7 6 4 3 2 1 4 9 13 16 17 19 19 19 19 20 21 23 24 26 28 28 28 28 27 28 28 28 28 29 29 26 24 24 22 21 21 18 13 13 17 19 17 19 20 18 16 17 19 19 20 20 19 16 14 13 13 13 14 14 13 11
7 6 5 3 1 2 3 6 10 14 16 18 20 20 20 20 21 22 24 26 28 28 28 30 29 26 24 24 25 26 28 27 23 20 18 17 17 18 16 12 10 12 14 15 16 18 18 19 20 20 19 19 19 17 15 14 13 13 13 13 13 12 11
6 5 4 3 4 5 7 10 13 15 17 19 21 21 21 21 22 24 26 28 29 29 29 30 30 27 23 22 23 24 24 23 20 16 13 15 16 16 16 14 12 8 7 9 11 13 14 15 16 16 16 17 17 16 16 15 15 14 12 10 11 11 11

ECMWFFLT1_925_spd_003.txt.gz
Wind_Speed
16 17 17 14 14 16 15 16 19 22 23 23 25 26 27 26 27 28 31 36 39 37 37 37 36 36 36 32 29 33 36 34 32 30 27 27 25 24 24 23 24 25 26 26 25 23 21 18 18 18 18 17 16 14 11 10 10 10 9 8 8 8 8
16 17 17 15 16 16 16 18 21 23 23 24 26 26 27 27 28 30 33 37 40 40 38 37 36 36 37 36 32 33 35 34 33 30 28 29 27 26 26 26 26 27 27 28 26 24 21 19 19 19 19 19 17 15 13 12 11 10 9 8 8 8 9
16 16 17 17 17 17 17 19 22 25 25 25 26 27 27 29 34 38 37 37 39 40 38 37 37 37 35 35 34 33 35 35 33 31 30 30 29 29 29 27 27 27 28 28 26 23 21 20 20 20 20 19 18 17 14 13 13 11 10 9 9 9 10
16 17 18 18 17 17 16 18 22 26 26 27 29 29 31 36 42 43 41 39 38 36 38 39 36 35 34 34 33 34 35 35 33 32 31 31 31 31 30 29 28 28 28 28 26 24 22 21 21 21 20 20 19 18 16 15 15 14 12 11 10 10 11
15 15 15 16 16 15 15 17 21 25 26 28 29 30 34 39 40 37 37 39 37 37 42 39 30 30 33 33 33 34 35 35 34 32 32 32 32 32 31 30 29 29 28 27 26 24 23 23 22 22 21 21 20 19 17 16 16 15 13 12 11 11 11
13 14 14 15 16 16 17 19 23 27 28 29 29 29 32 34 33 32 34 36 37 36 37 33 29 32 34 32 34 35 35 35 34 34 34 33 33 33 32 30 29 29 27 26 25 24 24 23 23 23 22 21 21 20 19 17 16 15 14 13 12 11 11
12 13 14 15 16 17 18 19 23 27 28 28 28 28 30 29 30 33 33 34 36 34 31 28 28 32 34 34 36 36 35 36 35 35 35 34 34 32 30 29 28 26 25 24 24 24 24 23 22 22 21 21 21 20 19 18 16 15 14 14 13 12 12
12 13 14 16 16 17 17 17 20 24 26 26 26 26 28 27 28 31 30 30 31 30 29 27 27 32 35 35 36 37 36 35 35 34 32 31 30 28 28 27 25 22 22 23 22 22 22 21 21 21 21 21 21 20 20 18 16 15 14 14 13 12 12
12 12 14 15 15 16 15 15 18 22 23 25 25 24 26 27 27 28 28 28 27 27 29 29 28 33 36 36 36 35 33 29 28 26 26 27 26 26 28 27 24 22 21 21 20 20 19 19 19 20 20 21 21 20 19 17 15 15 14 14 13 12 12
10 11 12 13 14 13 12 13 16 17 18 20 21 22 25 26 25 25 25 25 26 27 29 30 28 28 34 37 34 28 26 25 24 24 25 27 28 30 32 29 25 23 21 21 20 18 16 16 18 20 20 21 21 20 19 18 16 16 15 14 14 13 13
8 9 10 12 13 12 13 14 14 13 14 17 20 22 23 24 23 24 24 24 25 26 27 29 27 26 31 34 28 24 26 29 31 31 29 30 33 35 34 31 28 26 22 21 19 14 13 17 19 20 21 22 22 21 20 19 17 17 16 15 13 13 14
8 9 11 12 13 12 13 13 12 12 14 18 21 22 22 23 23 24 23 24 26 25 25 27 27 26 28 28 25 28 34 37 38 34 31 33 35 35 35 32 29 26 22 20 17 13 14 18 21 21 22 24 24 23 21 19 17 17 17 15 13 13 14
7 8 9 10 10 11 11 11 12 14 15 18 21 21 21 23 23 24 24 25 27 26 25 25 25 25 26 24 25 33 40 39 37 36 37 37 34 31 31 31 29 26 22 19 15 13 15 19 22 23 24 25 26 25 23 19 18 18 18 17 15 14 15
8 9 9 10 11 12 13 13 13 14 15 17 19 19 20 21 22 22 23 24 25 25 24 23 23 24 26 25 26 32 35 33 35 39 39 35 33 30 29 29 28 25 20 16 16 17 19 22 25 26 26 27 28 26 24 21 20 20 20 19 17 16 17
11 11 12 13 13 14 14 13 13 13 14 16 17 18 19 19 20 21 22 23 24 25 25 23 23 25 27 25 23 25 27 27 31 36 35 33 33 31 29 27 23 19 17 19 24 27 27 26 26 26 28 29 29 27 25 23 22 21 20 19 18 17 18
12 12 14 15 15 14 14 13 13 13 12 14 16 18 19 20 21 22 23 24 24 25 24 22 22 25 23 19 17 20 25 27 30 33 33 35 35 35 35 31 24 25 30 30 31 34 31 27 25 26 29 30 29 28 27 25 23 21 19 19 18 18 18
12 13 14 15 14 13 12 11 12 13 13 14 17 19 20 20 20 21 22 22 21 21 20 18 18 19 16 13 14 19 23 25 28 31 33 35 35 34 34 30 24 31 40 36 32 31 29 27 28 29 31 30 29 28 26 24 23 20 19 20 19 19 19
12 13 14 14 13 13 14 14 14 14 15 16 18 20 20 18 17 17 17 15 14 13 13 13 13 12 11 10 13 18 22 24 27 29 29 28 26 25 26 25 26 33 36 33 30 28 28 30 31 31 33 31 28 26 24 23 21 19 19 19 20 21 21
8 8 8 9 9 11 13 14 13 13 13 14 16 16 15 13 12 12 11 11 11 10 10 11 12 12 11 12 15 19 22 25 24 23 23 24 24 26 30 32 33 33 33 31 30 30 31 31 31 32 33 31 27 24 21 20 20 20 20 20 20 21 22
4 2 1 2 4 5 5 5 6 8 10 11 12 12 11 11 12 12 12 12 12 11 10 11 12 13 14 15 18 21 24 25 23 23 26 28 31 35 37 36 34 33 33 32 30 31 32 30 30 30 30 27 23 19 17 16 19 22 23 21 21 20 21
5 3 3 5 7 7 6 5 6 7 9 11 13 14 14 14 14 13 12 11 10 11 11 12 13 15 17 18 21 23 25 27 29 31 31 33 35 36 34 34 34 33 33 33 32 31 30 29 30 29 26 22 17 15 14 14 17 21 22 21 20 19 19
9 10 9 9 10 11 12 12 11 10 11 13 15 15 14 13 14 13 11 11 12 12 13 14 15 18 19 20 22 25 27 30 35 36 34 34 37 36 33 32 31 31 32 34 33 29 26 25 24 23 19 15 12 12 14 13 15 17 18 17 17 16 14
6 6 6 7 9 10 13 17 17 14 13 14 14 14 14 14 14 13 11 11 12 12 14 15 17 20 21 21 23 25 27 31 35 36 36 36 35 31 28 27 27 29 31 31 28 24 21 20 19 17 14 10 8 9 9 10 13 15 15 14 14 13 12
2 4 6 8 8 9 12 15 17 15 16 16 15 17 18 17 16 15 13 12 13 13 14 15 17 19 20 19 21 24 27 30 33 34 35 34 29 25 25 25 27 30 32 30 24 19 17 17 16 14 10 7 6 6 7 11 15 16 15 14 14 13 14
5 6 7 8 9 9 10 14 17 16 16 16 17 20 21 19 18 16 13 12 13 14 14 14 16 18 18 19 22 25 28 30 31 32 32 30 26 24 25 26 25 25 24 20 17 15 14 14 12 10 8 7 7 7 8 13 19 21 18 16 16 16 16
8 8 8 9 9 9 11 14 15 15 15 16 19 21 20 19 18 16 13 13 13 13 13 14 17 19 19 21 23 27 29 30 30 30 29 29 27 23 21 21 18 16 14 14 13 13 13 12 11 9 8 9 10 10 12 17 22 21 17 16 18 19 19
12 12 11 11 11 12 13 12 11 14 17 21 22 21 20 19 17 15 14 14 13 13 14 17 20 21 21 23 25 27 28 28 29 30 29 28 26 20 16 14 12 12 13 14 13 14 14 13 11 10 11 12 14 14 16 20 22 20 16 16 19 19 18
13 15 14 13 11 10 10 9 9 13 18 22 23 21 20 20 18 16 16 14 13 14 17 19 21 22 24 25 25 25 25 26 28 29 27 24 20 16 12 12 12 13 14 14 14 16 16 15 14 14 14 15 16 18 20 22 23 21 16 15 15 14 12
11 11 11 10 11 13 13 9 7 10 14 18 21 20 20 20 19 17 16 14 15 18 20 21 23 25 27 28 27 26 27 29 30 29 26 21 16 14 13 14 15 15 15 15 17 18 17 17 17 17 17 17 19 21 24 24 23 18 13 12 13 11 9
9 9 9 11 15 20 20 12 7 7 10 14 18 19 19 19 20 19 16 16 19 22 22 25 28 29 30 31 31 30 32 33 32 29 25 20 16 15 16 17 17 18 18 18 19 18 15 16 18 18 19 18 18 20 22 20 17 13 12 13 13 11 10
8 9 9 9 12 17 18 14 9 7 6 9 14 18 18 17 19 20 19 20 23 25 26 29 31 32 32 32 31 32 33 33 31 28 23 19 16 16 17 18 19 20 21 22 21 17 14 14 16 17 17 17 16 16 15 14 12 12 12 10 11 12 11
5 6 6 6 6 8 10 11 10 8 5 5 8 13 16 16 17 18 19 21 24 25 27 30 31 31 30 28 27 29 31 29 26 23 20 18 16 14 14 16 17 18 21 21 18 15 13 12 12 13 14 14 14 12 10 10 11 11 9 9 12 13 13
4 4 5 5 4 3 4 7 8 7 7 6 5 6 10 12 13 15 18 21 23 24 26 28 27 25 23 22 25 28 28 25 22 19 17 16 14 12 12 15 15 15 17 17 14 12 11 10 10 12 12 10 7 6 8 10 10 10 10 13 15 15 15
4 4 4 4 5 4 3 5 7 8 8 7 6 5 7 9 11 14 19 21 21 24 25 24 22 20 20 22 25 26 24 22 20 17 15 14 14 14 14 15 13 11 12 15 14 11 9 10 12 12 9 6 5 6 8 9 11 13 15 17 18 17 15
3 4 4 4 5 6 5 4 5 7 8 8 8 8 9 10 12 15 19 20 21 24 24 22 20 19 19 20 21 20 19 18 16 15 15 16 17 17 16 15 13 10 10 13 16 15 12 9 9 7 6 6 7 8 9 10 13 15 16 17 17 16 13
4 6 6 4 4 5 6 5 5 6 8 8 9 9 10 11 14 16 17 19 21 24 24 22 20 18 18 18 16 16 16 15 14 16 18 19 19 18 15 13 13 13 11 12 14 15 13 10 7 5 5 5 7 10 11 12 14 15 15 15 15 13 10
6 6 6 5 5 5 5 4 4 6 7 9 10 10 10 11 14 17 17 19 21 23 24 25 21 16 16 16 15 16 16 14 13 16 19 20 19 16 11 7 7 9 11 11 10 9 9 9 8 7 7 7 9 12 15 15 15 14 12 10 9 8 7
7 5 4 4 4 5 4 3 3 4 6 8 9 11 10 10 12 14 16 18 20 20 22 24 21 16 15 15 15 17 17 14 12 15 16 17 16 13 10 8 6 5 7 8 8 7 8 8 9 9 10 11 11 12 14 15 14 10 6 4 4 5 6

ECMWFFLT1_925_spd_009.txt.gz
Wind_Speed
17 16 16 16 19 21 21 22 22 24 28 31 31 33 34 32 31 30 29 30 30 30 30 29 28 27 27 26 25 24 23 22 21 19 18 17 16 15 15 14 13 12 11 11 10 10 10 10 11 11 10 10 9 9 9 9 8 7 7 6 6 5 5
15 14 14 17 20 21 22 22 22 25 29 30 32 33 34 33 33 31 30 30 31 31 31 30 29 28 27 26 25 24 24 23 22 20 18 17 17 16 15 14 14 13 12 12 11 11 12 12 12 12 12 11 11 11 10 10 10 9 8 8 7 6 6
14 15 17 20 20 20 21 21 22 27 30 31 32 34 34 35 34 33 32 31 31 31 31 31 30 29 27 26 26 25 25 24 23 22 20 19 18 18 17 15 15 14 14 13 12 12 13 14 13 13 13 12 12 12 12 11 11 10 10 9 9 8 7
13 15 17 20 21 20 20 21 22 26 30 32 34 34 35 35 35 34 33 32 32 32 32 31 30 29 28 27 26 26 26 25 24 23 21 20 20 19 18 17 16 16 15 14 13 13 13 14 14 14 14 13 13 13 13 13 12 12 11 11 10 9 9
13 12 13 17 20 19 19 21 22 26 31 32 33 33 34 35 34 34 33 32 32 32 32 31 30 29 28 27 27 26 26 26 25 24 23 22 21 21 20 19 18 17 15 14 13 13 14 14 14 14 14 14 14 14 15 14 14 14 13 12 11 10 9
12 12 13 16 17 17 20 22 24 29 33 33 34 33 33 35 34 34 34 33 32 31 30 30 30 28 28 28 27 26 26 27 26 26 25 24 23 22 21 19 18 17 15 14 13 14 15 15 14 15 15 15 16 16 16 17 16 16 15 15 13 11 10
12 12 14 16 16 18 20 21 23 29 32 32 33 33 33 35 35 34 33 33 33 32 30 31 31 29 28 28 27 27 27 27 28 28 26 25 24 22 20 19 18 17 17 16 15 15 16 15 15 16 17 17 18 18 19 19 19 19 18 18 16 14 13
13 12 13 15 16 18 19 19 21 25 29 30 31 33 34 35 34 34 34 33 34 33 32 32 31 30 29 28 28 28 28 28 29 28 26 25 23 21 20 19 19 19 18 18 17 17 17 17 17 18 20 21 20 20 20 20 20 20 20 20 19 18 15
13 11 10 13 16 16 16 17 18 20 25 28 30 31 33 34 33 34 34 33 33 33 33 32 31 30 29 28 29 29 29 29 28 27 27 25 23 22 21 20 20 21 22 21 20 20 20 21 22 24 25 24 22 22 21 20 20 19 19 19 20 20 17
9 7 9 11 14 14 14 15 16 16 18 21 25 29 32 33 33 33 33 33 32 32 34 32 30 30 30 29 29 29 29 29 28 28 27 25 23 23 23 22 21 23 25 25 23 23 25 26 28 29 29 27 25 24 23 22 21 20 19 19 19 19 18
7 6 7 10 13 13 14 14 13 13 13 15 21 27 30 31 32 32 32 33 32 31 31 31 30 30 30 30 30 30 30 30 29 28 28 26 24 25 25 25 26 27 28 27 26 29 31 33 34 34 32 30 27 26 25 23 22 21 20 19 19 18 17
8 7 8 11 13 12 12 11 12 13 11 14 21 26 27 29 32 32 31 32 32 30 30 31 30 30 31 30 29 30 31 30 29 28 28 28 28 29 29 30 31 31 29 28 30 35 38 39 38 35 32 31 29 28 28 27 24 21 19 19 18 17 16
8 9 10 11 12 11 12 11 12 14 13 15 22 26 26 29 31 31 30 31 31 30 29 30 30 31 31 29 29 30 30 30 29 30 32 32 32 33 33 33 33 33 32 32 35 40 42 40 37 34 33 33 32 31 31 27 23 20 19 19 19 18 17
10 11 11 12 12 12 12 12 12 14 15 17 21 25 26 27 29 29 30 31 31 30 29 28 29 30 30 29 28 27 28 29 30 34 38 38 37 36 34 33 35 35 35 37 40 44 44 41 39 36 35 35 34 32 29 25 22 21 21 21 20 19 18
13 13 13 13 13 12 12 13 13 14 15 16 19 23 24 25 26 26 28 29 30 30 28 27 27 28 28 28 27 25 27 29 30 34 39 38 37 38 36 37 39 40 40 42 45 46 44 41 40 38 36 34 33 30 26 24 22 22 22 22 21 20 19
15 15 13 10 11 12 12 13 14 14 15 15 18 21 23 23 24 26 26 28 29 29 28 27 26 27 27 27 26 25 27 29 29 31 33 34 39 42 42 42 45 45 44 46 46 45 42 39 36 35 34 34 31 27 25 24 23 23 24 24 22 20 19
17 14 11 8 8 10 12 13 14 15 16 16 18 21 23 23 24 26 26 26 28 29 28 27 26 26 27 26 25 26 26 26 28 28 30 34 40 44 44 45 46 46 45 44 42 40 38 36 33 30 29 29 27 24 24 23 23 24 26 26 24 22 19
15 13 11 8 6 8 11 14 15 17 18 18 19 22 23 23 24 25 25 26 27 28 28 27 26 25 26 24 24 24 24 26 29 29 32 38 41 42 43 44 44 43 39 35 31 30 30 30 30 27 25 24 24 24 23 22 22 25 26 27 28 26 21
13 15 12 8 8 10 13 15 15 17 18 18 21 24 24 24 25 25 25 25 26 27 28 27 26 25 25 25 26 25 25 29 31 29 31 36 38 39 40 40 39 37 30 23 21 23 23 22 24 24 23 22 22 23 23 21 22 25 26 26 28 29 26
16 17 12 7 8 12 13 13 13 15 18 20 23 25 25 24 24 25 26 26 25 26 27 26 26 26 26 26 27 26 26 30 31 28 28 30 31 32 32 31 30 28 23 18 17 19 20 20 20 22 22 21 21 21 21 20 21 24 25 24 26 29 28
16 16 12 9 10 12 13 14 14 15 18 22 24 25 25 25 24 24 26 26 26 26 26 26 26 26 26 26 27 27 26 28 28 26 25 25 26 26 26 24 23 22 20 19 18 17 18 19 20 20 20 20 19 18 18 19 20 21 22 23 25 27 27
18 16 13 12 13 14 14 15 16 17 19 22 24 25 26 26 25 25 26 26 26 26 26 26 25 25 26 26 27 27 25 26 26 23 22 24 25 24 23 22 21 20 19 19 18 17 16 17 18 19 19 19 18 18 18 18 19 21 21 21 23 24 23
18 16 14 13 14 14 15 17 19 20 22 24 25 26 26 26 27 27 26 26 26 25 26 25 25 25 26 26 27 27 25 25 25 22 21 24 25 24 22 21 20 19 19 19 19 19 18 18 18 18 18 19 20 21 21 18 19 22 23 21 21 21 22
16 15 13 13 13 14 16 18 19 21 24 25 26 26 26 26 27 27 25 25 24 24 24 24 23 25 26 25 25 25 24 25 25 22 21 23 25 23 21 19 19 19 19 19 19 19 19 19 18 18 19 20 20 21 20 18 19 23 24 23 22 22 23
13 13 12 12 14 15 16 18 19 22 24 24 25 27 27 26 27 26 24 24 24 23 23 23 23 24 25 25 24 24 24 25 25 24 22 23 23 22 20 19 18 17 17 16 16 16 16 16 15 15 16 17 17 18 18 18 20 23 26 25 23 23 24
12 12 11 12 14 16 17 18 19 20 23 24 24 26 27 27 26 24 23 24 24 23 23 23 23 24 24 25 25 25 25 26 26 25 24 23 22 20 19 18 17 15 14 14 14 13 13 13 14 13 13 13 14 16 18 19 20 23 26 26 24 26 25
10 11 11 11 13 16 18 18 19 19 21 23 24 25 26 27 25 24 23 23 23 23 23 24 25 25 25 24 24 25 26 25 26 24 22 22 21 19 17 16 15 14 14 13 13 13 12 12 12 12 12 13 14 14 16 18 18 17 21 24 25 25 24
10 10 12 13 16 18 17 17 18 20 20 22 23 24 25 26 25 24 23 23 22 23 24 25 26 26 25 24 24 24 24 24 25 23 19 19 19 17 16 16 16 15 14 12 12 12 12 12 12 12 11 12 13 13 12 14 16 15 16 20 22 22 23
10 11 12 13 16 19 19 16 18 20 22 23 25 24 24 24 23 21 21 22 23 24 25 25 26 26 26 25 24 24 24 24 25 24 21 19 18 18 17 16 14 12 10 9 9 10 10 10 11 10 10 10 11 12 10 10 14 15 15 17 20 21 23
10 11 13 14 17 20 20 18 18 22 24 24 24 23 22 21 20 19 19 20 21 23 23 23 23 24 24 24 24 24 24 25 26 25 23 22 21 20 17 15 12 11 10 10 9 9 9 9 9 10 10 11 12 12 11 10 11 15 17 17 19 20 20
11 12 14 15 18 21 22 22 22 24 25 24 23 22 20 19 19 19 18 19 20 21 21 21 22 22 22 22 23 23 24 26 25 24 24 25 24 20 16 15 14 12 12 11 9 9 9 9 10 10 10 11 12 12 11 10 10 13 16 16 16 17 18
13 14 15 16 18 21 23 24 23 23 22 22 21 20 18 17 17 17 17 17 19 20 20 21 22 21 21 22 23 23 24 25 24 23 23 23 22 19 16 16 15 13 12 10 9 9 9 10 11 11 10 10 10 10 11 12 11 11 13 14 16 17 17
14 14 15 17 18 20 20 19 18 18 19 19 20 19 18 17 16 16 17 18 19 20 21 21 21 20 21 22 22 22 22 21 21 21 21 21 20 19 18 17 15 13 11 11 10 10 10 10 10 11 10 10 9 8 10 11 11 12 13 15 16 16 16
14 13 14 16 18 18 17 16 16 17 17 17 18 19 18 16 15 16 18 18 19 20 20 21 21 21 22 22 21 21 20 19 19 19 20 20 18 17 17 17 15 13 12 10 10 10 11 11 11 10 9 9 9 8 9 10 11 12 14 15 16 16 15
13 14 14 16 16 15 15 15 16 17 16 15 15 16 16 15 15 16 16 17 18 19 19 20 21 21 21 20 19 18 18 18 18 19 19 19 16 14 15 15 12 12 12 9 8 7 7 8 7 7 7 8 9 9 10 10 11 13 14 15 15 16 16
12 13 14 16 17 16 16 16 15 15 15 14 14 15 16 15 15 15 15 15 16 17 18 18 18 18 18 17 16 17 17 17 18 18 18 17 15 14 16 14 11 12 13 11 9 8 6 5 4 2 1 2 5 9 10 10 11 13 15 15 14 15 16
12 12 14 16 16 15 15 15 15 14 14 13 13 14 14 14 14 14 15 15 15 15 16 16 15 15 15 14 14 16 16 16 17 17 17 16 14 13 14 14 13 13 13 12 11 10 8 8 7 4 4 6 8 11 11 8 9 12 15 17 16 16 17
15 15 15 16 15 14 14 14 13 13 13 12 12 12 13 13 13 13 15 15 14 14 14 13 12 13 13 13 15 16 16 16 16 16 16 15 14 13 13 12 12 11 9 9 10 10 9 10 11 8 5 6 8 11 11 9 9 11 15 19 20 20 19

ECMWFFLT1_925_spd_012.txt.gz
Wind_Speed
17 17 15 13 14 15 15 17 18 21 24 26 29 32 33 32 32 31 31 34 35 34 34 33 32 32 31 30 29 28 28 26 25 25 23 22 21 21 21 21 20 20 19 19 17 17 16 15 16 17 17 15 12 12 12 12 13 12 12 13 11 10 11
18 17 17 16 16 18 18 17 17 20 24 25 29 32 33 33 33 32 31 33 35 35 35 35 33 33 32 30 29 29 29 28 26 25 25 24 22 22 22 21 21 20 20 18 18 18 17 16 17 18 18 16 15 15 15 15 15 14 13 14 14 13 13
18 17 18 17 16 17 18 16 15 20 25 26 29 32 34 34 33 33 33 34 35 35 34 35 34 33 32 31 30 30 30 29 28 27 25 25 24 22 22 21 21 21 20 19 19 20 19 19 19 20 19 18 18 18 17 16 16 16 15 15 15 14 14
19 18 17 17 16 15 15 15 16 21 27 29 31 33 34 35 34 34 34 34 35 35 34 34 34 33 32 32 31 31 31 31 29 28 26 25 25 24 23 22 22 22 21 20 20 21 21 22 22 23 22 21 20 20 19 18 18 18 17 16 16 15 15
22 19 17 16 14 13 14 16 17 22 28 31 32 33 34 35 35 35 34 33 34 35 34 34 33 33 33 33 31 31 32 32 30 29 27 25 26 26 24 24 23 23 23 23 22 23 24 25 25 26 25 24 23 22 21 20 19 19 19 18 18 17 16
20 18 16 15 13 13 15 17 20 24 28 29 29 30 32 34 35 36 34 33 34 34 34 34 34 34 33 33 32 31 32 32 31 30 29 27 27 28 26 25 25 25 25 25 25 25 26 27 27 28 28 27 25 23 22 22 21 21 21 21 19 19 18
18 18 15 15 14 14 16 17 19 22 25 27 28 29 32 34 35 36 35 34 34 34 35 35 34 34 35 33 32 32 32 32 32 31 30 29 29 29 27 27 28 28 27 27 28 28 28 29 29 30 29 27 25 24 24 24 24 23 24 23 22 21 20
18 18 16 16 15 14 15 15 15 17 19 22 26 29 33 34 35 36 35 34 35 35 35 35 35 35 36 34 33 33 33 32 32 32 32 31 29 28 28 29 30 30 29 30 31 31 31 32 31 30 29 28 26 26 26 27 26 25 24 25 24 23 22
17 20 17 16 16 14 13 12 12 14 16 18 24 28 31 33 34 36 36 35 35 35 35 36 35 35 36 35 34 34 33 32 32 33 33 32 30 28 29 31 32 32 32 32 32 32 33 33 32 31 30 29 28 28 28 28 28 27 25 25 25 25 23
15 16 14 15 15 13 12 11 11 13 14 17 24 28 30 32 33 34 36 36 35 36 36 36 35 34 35 36 35 35 34 33 32 33 33 31 30 31 31 31 32 34 35 34 33 34 34 34 32 32 32 31 30 30 30 29 29 28 26 25 25 25 24
15 14 13 15 14 12 12 13 12 12 12 15 22 26 28 30 31 33 35 36 36 35 36 36 35 34 35 35 35 34 34 34 33 33 33 32 32 34 34 32 32 34 36 36 35 35 35 34 33 32 33 33 31 31 31 31 30 29 27 26 25 25 25
14 13 14 17 15 12 12 12 12 13 12 14 21 25 26 29 32 32 33 35 35 35 36 36 35 34 34 34 34 34 35 36 35 34 33 34 34 35 36 34 33 34 37 38 37 35 34 34 34 33 34 34 33 33 33 32 32 31 29 27 26 26 25
11 10 11 14 14 12 12 12 13 15 14 14 21 26 26 29 32 32 32 34 35 35 36 36 35 35 35 35 34 34 35 36 37 36 35 37 37 36 37 37 35 35 37 38 37 36 34 34 34 34 34 34 34 34 34 33 32 32 31 29 27 27 25
12 12 11 12 13 13 13 13 12 14 14 14 19 25 27 29 32 31 30 33 34 34 35 36 35 35 36 35 34 34 36 36 37 38 38 39 38 38 38 38 38 37 37 37 37 37 35 34 34 35 34 34 35 35 34 34 33 32 33 31 28 27 25
15 14 14 13 11 11 10 10 9 10 13 14 16 22 25 27 30 31 30 32 34 34 35 37 36 35 36 36 35 35 36 36 36 37 39 39 39 39 40 40 40 39 37 36 36 36 34 32 32 35 35 33 34 35 34 34 33 33 34 33 30 27 24
13 13 14 12 10 10 9 9 9 9 11 12 13 17 22 25 28 30 30 31 33 33 33 36 37 36 36 37 36 36 36 36 35 35 37 39 40 41 41 41 40 39 37 36 36 33 32 30 30 35 37 34 33 34 33 33 33 34 35 34 31 28 24
12 11 13 13 12 12 11 10 11 10 11 12 13 15 20 23 26 29 31 32 34 34 32 35 38 37 35 35 36 36 36 36 35 35 36 39 40 40 41 39 37 36 35 34 33 31 30 29 28 32 35 33 32 32 32 31 31 33 35 34 32 28 25
10 7 10 14 12 12 13 13 13 13 13 14 15 17 20 21 23 27 30 32 34 35 33 34 38 39 37 36 36 36 37 37 36 35 36 37 38 38 37 35 32 30 30 29 28 28 28 28 27 27 28 28 28 28 29 29 30 32 34 33 32 29 25
11 10 7 11 13 13 16 16 15 15 15 16 18 22 24 24 24 26 30 32 33 35 34 32 35 38 38 36 37 37 36 36 36 34 34 35 36 34 32 31 28 27 27 26 25 24 24 24 24 24 24 24 24 25 25 26 27 30 31 31 31 29 26
13 13 13 11 14 16 16 15 14 15 17 20 24 27 28 28 27 27 29 30 30 33 35 31 32 36 37 35 35 35 34 34 35 33 33 33 31 29 28 29 27 25 24 23 20 20 20 19 20 22 22 22 22 23 22 22 23 26 28 29 29 28 28
11 15 14 10 12 16 15 13 13 14 17 22 26 26 27 28 28 28 29 29 28 31 34 31 29 32 33 31 31 31 32 34 34 32 31 30 27 26 29 29 26 22 21 18 16 16 16 16 17 19 21 20 20 21 20 19 20 24 26 27 27 27 29
13 14 13 11 11 13 14 14 15 16 19 22 24 25 26 29 30 30 31 31 29 28 30 28 25 28 29 28 28 30 34 38 35 30 28 27 25 25 28 27 22 20 19 17 15 14 15 16 15 16 18 19 18 19 19 18 19 22 25 26 26 26 29
18 15 13 12 11 11 15 18 20 21 22 22 24 27 28 29 30 30 30 31 29 27 26 24 22 26 28 26 27 30 33 37 35 30 27 26 24 23 24 22 20 19 20 20 17 15 15 16 15 16 17 17 17 17 16 16 17 20 23 25 25 27 29
19 19 17 13 10 9 15 20 22 23 25 25 25 28 29 29 30 30 28 29 28 27 25 22 22 26 26 25 27 29 30 32 33 31 29 26 24 22 20 20 20 19 19 19 18 17 16 15 16 17 17 17 17 17 17 16 17 19 22 25 26 27 29
21 22 19 16 15 12 15 21 24 23 24 24 24 27 29 29 29 28 26 26 28 28 26 24 25 27 26 24 26 28 27 28 30 30 28 24 23 21 19 18 17 16 17 16 15 15 14 14 14 16 17 17 17 18 18 17 16 17 21 24 25 26 27
13 17 17 16 18 12 15 18 19 18 19 21 23 27 30 30 28 26 25 25 28 27 27 28 30 30 28 25 25 28 29 29 28 27 24 21 20 20 19 17 16 15 13 12 12 11 11 12 12 13 13 13 14 15 17 17 16 17 19 21 22 24 24
13 13 13 14 13 10 16 16 15 16 17 22 25 27 29 29 26 24 24 25 26 27 28 31 33 32 30 27 26 27 27 26 25 23 21 20 20 20 19 18 16 15 14 13 13 13 12 12 11 11 11 12 12 12 14 15 14 15 16 18 20 22 23
11 12 8 10 10 11 14 12 14 16 17 21 24 25 27 27 23 21 22 22 23 25 28 31 32 31 31 29 26 26 26 26 27 25 23 23 24 22 21 19 18 18 18 17 17 17 15 15 13 12 11 12 11 11 11 12 13 13 14 16 17 20 23
4 7 9 9 6 13 15 11 11 15 18 22 25 25 26 25 20 19 19 18 20 25 27 30 32 32 31 29 27 26 26 27 28 26 23 24 24 22 22 22 22 22 21 20 20 20 19 17 15 13 13 13 13 13 12 13 13 12 12 14 15 18 22
3 2 5 12 7 12 15 11 10 14 18 22 24 25 25 23 20 19 18 19 22 25 27 30 31 30 28 27 26 25 23 23 24 22 21 21 19 18 19 20 20 22 21 19 20 20 19 18 17 15 14 15 15 14 13 13 14 12 11 12 13 15 18
4 7 8 13 11 10 12 10 10 12 15 18 21 21 21 23 24 21 19 21 26 28 28 29 30 28 26 25 24 24 22 21 21 22 22 21 18 17 18 16 16 18 16 13 14 15 15 14 14 13 11 12 14 13 12 13 14 15 14 13 13 14 16
3 2 4 7 7 9 11 12 13 13 13 15 18 21 22 24 25 22 22 26 29 29 29 30 29 27 26 25 24 23 21 21 21 22 22 20 17 15 16 15 14 15 15 12 10 11 11 11 11 10 10 11 13 15 16 15 14 16 16 16 16 16 17
7 8 9 8 11 13 13 13 13 14 14 14 19 23 23 24 24 23 26 29 29 28 30 31 30 28 26 25 24 22 21 20 20 20 18 17 16 14 13 14 14 14 14 12 11 11 12 12 12 12 12 12 13 16 19 17 14 15 16 16 16 17 17
8 7 6 11 12 11 11 10 11 13 13 13 18 22 22 22 24 25 27 29 28 29 31 31 29 28 26 24 22 21 21 20 20 20 18 18 17 14 13 14 14 14 12 11 12 13 14 13 13 14 14 13 13 15 19 18 14 14 16 16 16 18 19
3 1 8 6 6 11 12 11 12 13 14 15 19 21 21 23 24 25 26 26 26 28 29 28 27 26 25 23 21 20 19 19 20 21 20 17 15 14 13 12 14 16 14 10 11 14 15 14 13 13 13 14 14 15 18 17 15 15 15 14 16 19 22
2 4 4 9 16 17 16 16 15 14 15 18 19 20 21 22 22 23 23 23 24 27 28 27 25 24 23 21 21 21 21 20 20 20 19 19 19 18 15 11 13 17 16 11 11 12 13 12 10 6 5 7 10 15 18 17 16 16 14 12 14 19 21
7 7 12 15 16 15 16 17 16 15 16 17 19 20 20 20 20 21 21 21 23 25 27 26 23 22 21 21 22 23 23 22 22 20 20 21 21 20 19 17 16 17 16 12 10 10 9 8 7 5 4 5 7 14 18 16 15 15 15 16 17 18 18
10 12 15 16 15 14 14 14 15 15 14 15 17 18 18 18 19 20 19 20 22 23 25 24 22 21 21 21 24 26 24 23 24 23 22 22 21 20 20 19 17 15 13 11 10 9 9 8 6 6 5 5 8 15 18 17 16 17 19 20 20 18 18

ECMWFFLT1_925_spd_015.txt.gz
Wind_Speed
16 15 14 12 13 14 15 17 18 21 26 29 32 35 36 35 36 35 35 37 38 37 38 38 37 37 37 37 37 36 35 34 34 33 33 32 31 31 32 32 32 31 31 31 30 31 32 30 31 29 27 26 26 26 22 19 21 21 17 15 18 19 17
16 14 13 12 12 13 15 16 17 21 25 28 31 34 35 35 36 36 35 37 38 38 38 38 38 37 37 37 37 37 36 35 35 34 33 33 32 32 32 33 33 33 32 32 31 32 32 31 32 30 28 27 27 26 23 20 22 24 21 18 19 19 16
16 14 14 13 13 14 16 15 16 21 25 27 29 33 35 36 36 36 36 37 38 38 38 38 38 37 37 36 36 36 37 36 35 35 34 34 33 32 32 34 34 33 33 33 32 32 32 32 33 31 29 29 28 25 24 23 24 24 23 22 21 19 17
16 15 15 16 17 16 16 15 15 19 24 28 31 34 36 37 36 36 36 37 38 38 38 39 39 38 37 37 36 36 37 36 36 37 36 35 34 33 32 34 35 34 33 33 33 33 31 33 35 33 31 31 29 26 24 25 25 25 23 23 23 22 20
17 17 16 15 16 15 14 15 16 19 25 28 31 33 35 36 36 35 35 36 38 39 39 40 39 38 38 38 37 35 37 37 37 37 37 35 35 34 33 35 36 35 34 33 34 34 33 33 35 34 33 33 31 28 26 25 25 25 24 23 23 23 23
17 16 16 15 15 15 15 16 18 22 28 30 31 33 34 37 37 36 36 35 37 38 38 38 38 38 38 38 36 35 35 37 38 38 37 36 36 36 35 36 36 35 35 35 35 35 35 35 35 34 35 35 33 30 29 27 26 25 26 25 23 24 24
18 16 17 16 16 16 16 16 18 23 28 30 31 33 35 37 38 37 37 36 36 37 37 38 39 39 38 37 36 35 36 38 39 38 37 36 37 37 37 37 38 37 36 36 36 36 37 37 35 35 36 36 34 33 32 30 28 27 27 27 25 24 24
19 17 17 17 17 17 16 16 17 20 25 28 29 31 35 37 37 37 37 36 36 37 38 39 39 39 38 36 36 37 37 39 40 38 36 36 37 39 38 38 38 38 37 37 37 37 38 38 36 36 36 36 35 34 33 32 30 29 29 29 28 26 25
19 18 18 19 18 17 16 16 16 18 23 26 28 30 34 35 35 37 37 36 36 37 38 39 39 39 38 37 37 37 38 40 40 38 37 37 38 40 40 39 38 38 39 39 38 37 38 38 38 37 37 37 35 35 35 34 32 31 30 31 31 29 28
19 19 20 19 17 15 14 13 13 15 17 20 23 27 31 34 34 35 36 36 37 37 39 39 38 38 38 38 37 37 39 40 39 38 38 38 39 41 42 40 39 40 40 39 38 38 37 37 38 38 38 38 37 36 36 35 34 33 32 32 32 32 31
17 19 18 18 15 12 12 12 13 14 14 16 21 25 29 32 33 35 36 37 36 36 38 39 38 37 38 38 38 38 39 40 39 39 39 40 40 42 42 40 39 41 41 40 39 38 38 38 38 38 39 39 39 38 37 37 36 36 35 34 33 33 33
16 18 16 17 15 12 13 13 14 14 13 15 20 24 26 29 32 33 35 36 36 36 37 37 37 37 37 38 38 39 40 40 39 40 41 42 42 42 41 40 40 40 41 41 39 38 38 38 39 39 40 40 40 39 39 38 38 38 36 35 34 33 33
15 16 15 16 15 13 15 15 14 15 13 15 21 24 26 29 31 32 34 36 36 36 37 37 36 36 37 38 39 39 40 41 41 41 42 43 44 42 40 40 40 40 41 42 40 39 39 39 40 40 40 39 39 39 39 38 38 38 37 36 35 34 34
14 16 15 15 14 14 15 15 14 14 13 14 20 23 26 29 32 34 35 36 37 37 37 37 36 36 36 38 39 40 41 42 42 43 44 45 45 42 41 41 41 41 41 41 41 41 41 41 40 39 38 38 38 38 38 38 38 38 38 37 36 35 34
13 14 13 13 13 13 14 14 13 13 12 13 17 20 23 27 31 33 34 36 38 37 37 37 37 37 37 38 40 41 42 42 42 42 44 44 44 43 43 42 42 41 40 40 41 41 40 39 39 38 37 37 37 37 37 38 38 39 39 38 36 35 34
12 15 16 15 15 15 15 15 14 13 13 13 14 18 21 24 29 32 34 36 38 37 37 38 38 37 37 39 41 42 42 42 42 42 43 44 44 44 44 43 42 40 39 39 40 39 38 36 35 36 36 35 35 36 36 37 38 38 39 39 38 36 34
10 12 13 13 13 12 12 13 14 13 14 14 16 20 23 25 29 33 34 35 38 38 38 38 38 38 39 39 41 41 42 42 42 42 43 44 44 43 43 42 41 39 37 37 36 36 35 34 33 33 34 34 34 34 35 36 37 37 38 39 38 36 35
11 12 11 11 11 12 13 14 14 14 14 15 17 22 25 27 29 31 33 35 38 39 39 38 38 39 40 40 40 41 41 42 42 42 43 43 42 41 41 40 38 36 34 32 32 33 32 32 32 32 32 33 33 34 35 35 35 36 37 38 38 37 34
13 14 16 15 14 14 15 14 13 14 15 15 19 24 30 31 30 31 35 38 39 39 38 37 38 40 40 40 41 42 42 42 42 42 42 41 41 40 39 37 35 33 32 30 29 29 30 30 30 31 31 32 32 33 34 34 34 34 35 37 38 36 34
13 14 17 18 16 15 14 12 12 14 17 20 26 30 33 34 34 36 38 38 38 39 40 38 37 39 41 41 42 43 42 42 41 40 39 40 39 38 36 35 33 32 31 29 27 27 29 30 30 30 31 31 32 32 33 33 33 33 33 34 36 36 34
11 12 15 16 17 17 17 16 16 14 16 23 28 30 31 33 36 36 36 36 37 39 41 40 36 37 40 41 41 42 42 41 40 39 38 38 38 36 34 33 32 30 29 29 29 29 29 30 29 29 29 30 31 31 30 30 30 30 30 31 33 34 35
8 8 11 13 15 17 16 15 16 16 19 23 26 25 27 31 34 34 34 36 37 38 41 40 36 35 38 40 41 41 42 42 40 38 38 37 36 34 33 32 30 29 29 29 29 28 28 29 29 28 28 28 29 29 27 26 27 27 28 29 31 34 36
7 7 9 10 12 16 19 20 22 23 24 25 24 25 27 30 32 32 33 34 36 36 38 38 35 34 37 40 42 42 41 41 40 38 37 36 35 32 31 31 31 31 31 29 27 27 27 28 28 28 27 27 27 27 26 25 25 26 27 29 31 34 36
9 9 9 8 9 12 16 21 24 26 27 26 25 28 31 31 31 31 30 31 33 34 34 34 34 35 37 40 43 42 41 41 40 38 37 35 34 33 32 32 32 32 31 29 27 27 26 26 26 26 26 26 25 26 25 25 24 25 25 27 30 32 34
8 6 6 7 9 11 15 19 21 22 23 24 26 31 33 33 33 31 28 30 33 32 30 32 36 37 38 41 43 40 39 39 39 38 37 36 35 34 34 32 31 31 29 28 27 25 25 24 24 23 24 24 23 23 24 24 23 23 24 25 27 30 33
6 1 2 2 4 10 20 25 22 18 19 22 27 33 35 35 33 29 28 31 32 30 30 34 39 41 39 39 39 38 38 39 40 40 39 38 36 34 33 32 30 29 28 27 24 23 23 23 23 23 23 23 22 23 23 22 23 23 24 25 26 29 32
6 4 3 2 2 5 15 22 21 21 25 30 34 36 36 35 31 29 30 30 28 30 35 38 38 37 35 35 36 38 39 40 41 41 39 37 36 33 31 31 29 28 26 25 23 22 21 22 23 23 23 23 22 22 21 22 22 22 24 25 27 29 32
8 8 9 8 6 3 10 16 19 23 29 34 36 36 36 33 28 26 28 26 27 34 36 33 31 31 33 35 36 36 38 39 39 39 37 35 35 33 30 28 27 26 24 23 23 22 21 21 23 24 24 24 23 22 22 22 21 21 22 24 26 30 32
11 8 8 8 7 3 3 8 12 18 24 29 31 30 31 30 26 25 24 24 30 35 31 29 32 34 33 33 33 33 35 37 38 38 37 35 34 32 29 27 25 24 24 23 23 22 21 21 22 22 22 23 23 22 22 21 20 19 20 22 24 27 31
13 12 10 8 6 5 4 3 4 10 16 23 28 32 34 31 25 22 22 25 29 31 31 34 36 36 34 33 33 33 35 36 36 36 35 34 33 31 29 27 26 25 24 23 23 22 21 20 20 19 19 20 21 20 20 18 18 17 18 20 22 25 28
11 11 13 12 10 6 3 4 2 1 1 5 11 19 28 33 31 23 20 27 32 33 36 39 38 36 36 35 33 34 35 34 34 34 34 33 33 32 30 28 27 26 23 23 24 23 21 19 18 18 18 19 19 18 18 17 17 16 15 17 20 22 25
10 11 12 12 14 14 6 6 6 6 7 10 13 11 10 16 27 29 25 29 36 38 39 40 38 35 35 34 34 35 36 34 33 32 31 31 30 30 29 28 28 26 24 23 25 25 23 21 20 18 18 18 18 18 19 18 18 18 17 17 19 20 22
10 10 10 10 14 17 11 6 8 8 8 11 14 13 14 19 14 24 32 34 36 39 39 37 35 32 31 30 31 32 33 34 33 31 30 29 29 29 28 28 28 27 24 24 26 25 24 23 22 20 19 19 19 20 21 22 21 21 20 19 20 20 21
10 10 11 13 13 11 7 6 7 8 8 9 11 11 3 12 12 4 19 26 30 33 33 32 31 31 30 29 29 28 29 32 33 31 29 29 29 29 29 29 29 27 25 26 28 27 26 24 23 22 21 21 22 22 21 22 22 22 21 21 22 21 22
11 11 11 15 15 10 5 6 7 8 9 9 10 11 11 10 12 15 21 29 35 38 36 34 34 32 30 29 28 27 27 30 31 30 30 31 30 29 28 29 29 28 26 25 26 26 25 23 21 21 20 20 21 23 22 21 22 22 21 20 21 21 22
10 10 12 17 16 10 7 7 9 11 11 11 11 11 11 15 20 23 25 30 34 34 32 31 31 29 27 27 27 27 28 28 28 30 33 34 33 30 27 26 27 28 26 24 23 22 21 20 19 18 18 18 20 23 24 23 22 21 19 18 19 19 20
11 11 12 15 16 9 5 9 13 13 12 12 11 10 10 13 18 24 28 30 31 32 32 30 28 26 25 25 26 28 28 27 28 30 32 32 32 32 30 27 25 24 23 24 25 23 21 19 18 16 15 16 18 23 25 25 22 20 18 17 16 16 18
13 13 14 12 15 14 7 7 13 14 13 14 13 10 9 13 18 22 27 31 34 35 34 31 27 25 24 24 26 28 26 26 28 30 30 29 30 31 31 29 25 21 19 20 23 23 21 19 18 16 13 11 16 23 26 24 20 18 17 15 14 14 16

ECMWFFLT1_925_spd_018.txt.gz
Wind_Speed
16 17 18 17 17 18 18 19 20 23 28 32 34 38 38 38 39 39 39 42 43 42 43 43 42 43 43 42 41 40 40 40 39 39 38 37 36 36 35 34 34 34 34 34 33 33 33 32 31 31 30 29 29 29 27 25 24 24 24 24 23 21 20
16 16 17 16 16 18 19 20 21 25 29 31 34 37 37 38 40 39 39 41 43 43 43 43 42 42 43 42 41 40 40 40 39 38 37 37 37 36 36 36 36 36 34 34 34 34 34 34 32 32 30 30 31 30 28 27 26 25 25 26 26 24 23
15 16 17 17 17 18 19 19 21 25 29 31 33 35 38 40 42 42 40 40 41 41 41 42 42 42 42 42 41 41 41 40 39 38 37 37 37 36 36 37 37 37 35 35 35 35 35 34 34 33 32 32 33 33 31 29 29 27 26 26 27 26 25
16 17 18 19 19 19 19 19 20 24 30 33 36 38 41 42 42 42 41 41 41 41 41 43 43 42 42 42 41 41 41 41 40 39 38 38 38 37 37 37 37 36 35 36 36 36 35 35 35 35 34 33 34 36 34 33 32 30 28 27 27 27 27
18 18 17 18 18 17 17 18 19 23 29 33 37 40 41 41 40 39 40 41 43 44 45 45 44 43 42 42 42 42 42 43 41 40 39 38 37 37 38 38 37 36 36 37 37 36 36 36 36 36 35 34 35 37 36 35 34 32 30 29 29 28 28
17 16 15 16 17 16 17 18 20 26 31 33 36 38 37 38 38 39 40 41 42 44 44 44 43 43 42 42 42 42 42 43 42 41 39 38 37 38 39 39 39 38 38 38 38 37 37 37 37 38 37 36 37 37 37 37 36 33 32 32 30 30 30
17 16 16 16 16 17 18 19 20 26 31 32 33 34 34 36 38 39 39 40 42 42 42 42 43 43 43 43 43 43 42 42 42 41 39 38 39 39 39 39 39 39 39 38 39 38 38 38 39 39 39 38 39 39 39 39 37 35 34 34 32 31 30
18 17 17 17 17 17 17 17 17 21 26 28 29 30 33 36 37 37 39 41 42 42 42 43 43 44 44 43 44 44 43 42 42 41 39 39 40 40 40 39 40 40 39 39 39 39 39 39 40 40 40 40 40 40 41 41 39 37 36 36 35 34 32
19 19 19 19 19 18 17 17 16 18 22 25 27 30 33 35 35 38 40 41 40 41 42 42 43 44 44 43 44 44 44 42 41 41 40 40 41 41 41 40 40 40 40 40 40 39 40 40 41 42 42 42 42 42 43 42 41 39 38 38 37 37 35
18 19 19 20 19 17 16 16 14 14 16 19 24 28 31 33 35 37 38 38 39 40 40 41 41 42 43 43 43 43 42 42 41 41 40 41 42 42 42 40 40 40 41 41 40 40 40 40 41 42 43 43 43 44 44 43 42 40 39 39 38 37 37
17 18 19 19 18 17 16 14 12 13 13 15 21 26 30 33 34 35 35 37 38 38 39 40 41 41 42 43 42 41 41 42 41 41 42 42 43 43 42 40 40 41 41 41 40 41 41 41 41 42 44 45 45 45 44 44 43 41 40 40 39 38 37
15 16 17 18 18 17 16 13 13 15 14 15 20 24 27 31 33 34 35 37 37 37 38 39 40 40 41 42 41 40 41 42 41 42 43 44 44 43 42 41 41 41 41 42 41 41 41 42 43 43 45 46 46 45 44 43 43 43 42 40 39 38 37
13 14 15 16 16 15 14 13 15 17 16 17 22 26 28 31 33 34 35 36 37 37 38 39 39 39 40 41 40 40 41 42 43 44 45 46 46 44 42 42 42 41 42 43 42 41 42 43 44 44 45 45 44 44 44 43 43 43 42 41 40 38 37
14 14 15 15 15 14 15 14 15 17 17 17 21 26 29 31 33 35 36 37 38 37 38 39 39 39 40 40 40 40 42 43 43 44 45 46 46 43 42 42 42 42 42 42 42 42 43 43 44 43 42 42 43 42 42 42 42 43 42 41 40 39 37
13 12 12 12 13 14 15 15 14 15 16 17 19 23 26 28 31 34 35 36 37 38 39 40 40 40 40 40 40 41 42 43 43 44 45 45 44 43 42 42 42 42 41 41 42 42 42 41 41 40 39 40 40 40 41 42 42 43 43 42 41 39 38
14 14 13 12 12 13 14 15 15 15 15 15 16 19 23 26 30 33 34 36 37 39 40 41 40 40 40 41 42 42 41 41 42 42 43 44 44 43 43 42 42 41 41 41 41 40 38 37 36 37 38 39 39 39 40 41 42 43 43 43 41 40 38
13 15 15 14 14 13 13 13 13 13 14 15 16 20 24 26 29 32 33 35 37 39 40 40 40 40 41 42 42 41 41 41 41 41 43 44 43 43 43 42 41 40 40 39 39 38 36 35 35 37 39 39 40 40 40 40 41 42 43 43 41 40 39
12 13 15 15 15 13 13 13 13 14 14 15 18 22 26 27 28 29 31 34 37 39 39 39 40 40 41 41 40 40 41 41 41 41 42 43 43 43 42 41 39 38 38 37 37 36 35 36 37 38 39 39 40 40 40 41 41 42 42 42 41 40 39
11 12 13 13 13 14 14 13 13 15 16 16 19 26 30 31 30 31 34 38 39 38 38 39 40 40 39 39 39 40 41 41 41 41 42 43 43 41 39 38 38 37 36 36 36 36 36 37 38 38 39 39 39 39 40 40 41 41 40 40 41 41 40
11 12 12 12 12 13 14 13 13 14 16 20 26 31 34 35 35 37 40 40 38 37 38 39 39 38 38 38 40 41 41 41 41 42 42 42 40 39 37 37 37 36 35 35 34 35 36 38 38 38 39 39 39 39 39 39 39 39 39 39 40 41 41
8 10 11 13 14 14 13 14 13 13 16 22 28 30 31 32 34 36 37 36 36 37 39 40 38 38 37 37 39 40 40 41 41 41 41 40 38 37 37 36 36 36 35 34 34 35 36 37 37 37 38 39 39 38 37 38 38 37 37 38 39 40 41
4 5 8 10 12 15 16 16 16 17 20 25 28 29 30 33 36 36 34 34 35 37 39 38 37 37 37 37 39 41 41 42 42 40 39 38 38 37 36 36 36 36 35 34 34 34 34 35 37 38 38 38 37 36 35 36 36 36 36 37 38 40 41
6 6 7 8 8 11 15 19 23 26 28 30 30 31 33 36 37 35 33 33 35 36 37 36 35 36 37 38 40 42 43 43 42 40 38 38 37 37 37 37 36 36 36 34 33 32 34 35 37 38 37 36 36 35 34 34 34 34 35 35 37 39 41
6 6 7 7 8 9 12 17 21 24 25 25 26 31 35 36 36 33 31 31 33 34 33 32 34 36 37 39 42 44 44 44 42 40 38 38 39 39 38 37 36 36 36 35 34 34 35 36 35 35 35 35 35 35 34 33 32 32 33 34 36 38 40
9 8 7 7 7 9 13 18 20 21 21 20 24 31 35 35 35 32 29 30 32 31 29 31 35 38 39 42 44 45 44 43 41 39 38 39 40 39 38 38 37 37 36 36 36 35 35 34 33 32 32 33 34 34 33 31 30 31 32 33 34 36 38
9 8 8 7 7 9 13 18 18 17 17 19 25 32 34 33 32 29 28 30 30 28 29 34 39 41 43 44 43 42 41 40 40 40 40 40 40 39 39 38 36 35 36 35 35 34 32 32 31 30 30 30 31 31 30 29 29 30 31 32 33 35 37
7 8 8 9 11 12 10 14 15 16 20 24 28 29 28 28 26 25 28 29 28 30 37 42 44 44 44 43 40 38 39 39 39 40 40 40 39 37 36 37 36 36 36 35 33 32 30 30 30 29 28 29 29 29 28 28 29 30 30 30 31 33 35
10 10 12 14 16 17 13 9 12 17 23 28 30 30 30 29 25 25 27 24 25 35 43 44 45 45 43 41 38 37 38 38 38 38 37 37 37 36 35 35 36 36 36 34 33 31 30 30 30 28 28 28 27 28 29 28 27 27 29 30 29 30 33
9 10 11 12 13 16 15 9 8 12 15 17 16 17 21 25 26 26 26 26 34 44 46 42 41 41 38 36 35 35 36 37 36 36 35 36 38 38 36 35 35 35 36 35 33 32 31 30 30 28 27 26 26 27 28 27 25 26 27 28 28 28 29
8 9 10 10 11 14 14 10 9 6 7 8 6 7 8 13 17 17 17 19 24 28 29 31 32 30 29 30 31 31 33 34 35 36 37 38 39 39 36 36 36 36 35 35 34 32 30 29 29 27 26 25 25 26 26 25 23 23 23 25 26 26 28
8 8 8 9 12 15 13 10 11 9 1 5 7 8 7 6 7 5 3 5 5 2 5 13 19 21 24 26 26 28 30 32 35 37 39 40 41 40 38 37 35 34 34 35 34 31 29 27 27 27 26 25 23 23 24 23 22 21 21 23 25 26 28
10 9 9 9 11 15 14 11 10 9 7 6 4 10 15 14 11 6 2 5 6 5 7 9 12 16 20 22 23 26 30 31 33 35 38 40 42 42 41 40 38 35 32 31 30 29 28 27 26 25 24 22 22 22 23 23 22 21 20 22 25 27 29
10 10 10 10 12 13 12 9 8 6 6 7 5 3 12 17 17 15 13 12 13 13 15 16 17 15 15 18 22 25 28 30 30 30 32 34 35 35 33 32 33 31 28 25 23 23 25 26 25 24 23 23 24 26 27 27 26 24 22 23 26 27 27
9 9 9 12 14 13 9 7 6 5 4 6 6 2 7 12 15 16 17 17 19 22 24 26 28 26 22 21 23 25 29 32 33 33 30 26 24 25 25 25 27 28 27 27 28 28 27 27 27 27 28 28 29 28 26 25 27 27 26 26 26 25 25
8 8 9 12 14 13 8 6 5 6 5 5 5 5 6 8 10 13 16 19 23 26 27 28 30 32 32 31 28 27 29 33 35 35 33 31 29 29 29 28 27 28 28 30 32 33 32 31 30 31 32 33 31 27 23 23 26 26 25 25 25 25 27
7 7 9 13 15 14 10 7 6 5 6 5 4 7 9 10 12 13 16 20 26 30 31 30 29 28 29 31 34 34 32 32 33 35 36 38 39 36 32 28 27 30 31 28 28 31 33 31 31 31 32 31 30 27 25 26 27 26 25 24 23 25 27
8 7 10 13 13 12 10 9 7 6 7 5 4 9 12 14 16 18 20 21 22 24 27 28 26 22 17 14 21 30 32 28 27 31 34 36 38 38 35 30 25 25 27 28 27 29 29 28 28 28 27 26 27 27 26 25 24 25 24 24 24 24 26
11 11 12 13 13 11 11 10 8 7 10 10 4 6 11 16 20 23 25 27 26 24 22 22 22 21 16 9 8 17 26 27 22 21 25 28 31 34 35 33 28 23 21 23 26 27 26 25 23 22 21 23 27 29 27 26 24 23 23 23 24 24 24

ECMWFFLT1_925_spd_021.txt.gz
Wind_Speed
17 17 17 16 16 17 18 18 19 22 27 30 33 37 38 39 40 39 39 42 43 42 43 44 44 45 46 47 47 46 44 43 41 39 39 38 37 35 34 35 35 35 35 35 35 35 34 33 31 30 29 28 27 26 26 28 28 26 25 26 25 24 24
16 17 17 16 16 18 19 19 19 23 27 31 34 36 37 39 40 40 40 41 42 43 44 44 44 45 46 46 46 45 44 43 41 39 38 37 36 35 35 36 36 36 36 36 36 35 34 32 31 30 29 29 28 27 28 30 29 27 26 26 26 26 26
15 16 16 17 17 18 19 18 19 24 28 30 32 34 37 40 42 42 41 41 42 43 42 44 45 45 45 45 44 45 45 43 42 40 39 38 37 36 35 36 36 36 35 36 36 35 34 33 32 31 30 30 29 29 31 31 30 28 27 27 28 28 27
16 18 18 18 19 18 18 18 19 24 29 32 35 37 40 43 43 43 43 42 43 43 43 44 45 44 44 44 44 45 45 44 43 42 41 40 38 36 36 36 36 36 35 35 35 35 34 33 32 31 30 31 31 32 33 33 31 30 29 29 29 29 28
16 17 16 16 17 16 17 18 19 23 29 33 36 38 41 42 41 40 41 42 43 44 46 46 46 45 45 45 45 44 45 45 44 43 42 40 38 37 37 37 37 36 35 35 35 34 34 33 33 32 32 33 33 33 34 34 33 32 31 31 31 30 30
15 16 15 15 16 16 18 19 20 26 31 34 37 39 38 37 37 39 40 40 41 43 43 44 44 45 44 45 44 42 42 43 43 42 41 40 38 38 39 39 38 37 36 35 34 35 35 34 34 34 34 34 34 35 35 35 34 33 33 33 32 32 31
15 15 16 16 16 17 19 19 20 27 34 36 37 36 34 34 37 38 38 39 40 41 41 42 44 44 44 44 43 41 40 41 41 41 40 39 38 38 39 39 39 38 36 35 35 35 35 35 35 35 35 35 36 36 36 36 36 35 35 35 34 32 32
16 15 16 17 17 17 18 19 19 24 30 31 29 28 30 34 36 37 37 39 40 40 41 44 44 44 44 42 41 41 41 40 40 40 40 39 38 39 40 39 39 38 37 36 35 36 36 36 36 36 36 36 37 37 37 37 36 36 37 36 35 34 33
16 16 17 17 17 16 17 18 18 20 24 25 26 28 31 34 34 36 39 40 39 40 43 44 44 44 43 41 41 42 41 40 40 40 40 39 39 40 41 40 39 38 37 37 36 36 37 37 37 37 37 37 38 38 38 37 37 38 38 38 37 36 35
15 16 16 15 15 14 15 16 15 15 16 18 23 27 30 32 35 37 38 38 39 42 44 43 42 41 41 41 41 40 41 41 40 40 40 41 41 41 41 40 39 38 38 37 36 36 37 37 37 38 38 38 38 38 39 38 38 38 39 39 38 37 36
13 14 14 14 14 14 15 14 13 13 13 15 20 26 29 32 34 35 36 38 40 42 42 41 40 40 41 41 40 40 41 41 40 40 41 41 41 42 41 40 39 38 38 38 37 37 37 37 37 37 38 39 39 39 39 39 39 39 39 40 39 38 37
12 13 14 15 15 15 15 14 13 14 13 14 20 25 28 30 32 33 36 39 40 40 40 40 40 40 40 40 40 40 41 41 41 42 42 42 42 41 40 40 39 38 38 38 38 37 37 37 38 38 39 40 40 40 40 39 39 39 39 40 39 39 38
12 12 13 14 14 14 14 13 14 16 15 16 21 25 27 30 32 34 35 37 39 39 38 38 39 40 40 40 40 41 41 42 43 42 42 43 42 40 39 39 39 39 39 38 37 37 37 37 37 38 39 39 39 40 40 39 40 40 40 40 39 39 39
11 11 11 11 12 13 13 14 15 16 16 16 20 25 28 30 33 35 36 37 38 37 37 38 39 40 40 40 40 41 42 43 43 43 43 42 41 39 38 38 39 39 38 37 37 38 38 37 37 37 38 38 39 39 39 39 40 41 41 40 39 39 39
10 11 12 13 14 14 14 15 15 16 16 16 17 21 25 28 31 33 34 34 36 38 39 40 40 40 40 39 40 42 42 42 41 41 41 40 39 39 39 38 38 38 37 37 38 38 37 37 36 36 36 37 38 38 39 40 41 42 42 41 40 39 38
12 13 14 15 15 14 15 16 16 15 15 15 15 19 23 26 29 32 33 34 35 38 39 40 40 40 39 40 42 42 41 40 40 40 40 40 40 39 39 38 37 36 37 37 37 37 36 36 36 36 36 37 37 38 39 41 42 43 43 42 41 39 38
11 13 14 16 16 15 15 16 15 14 14 15 16 20 24 27 29 32 33 33 35 37 38 39 39 38 39 41 41 40 39 39 39 39 40 41 40 39 38 37 36 36 36 36 35 36 35 35 36 36 37 37 38 39 40 42 42 41 42 43 42 40 38
12 12 13 14 14 14 15 16 15 15 16 16 18 22 26 28 28 29 30 32 35 37 37 38 38 38 40 40 38 37 39 39 39 39 40 40 40 39 37 36 35 35 35 35 35 36 36 36 36 37 38 38 38 39 41 41 41 40 41 42 42 41 39
11 12 12 12 11 12 13 13 14 17 18 17 20 26 31 31 29 29 33 36 37 36 35 37 38 38 38 37 35 37 39 38 38 39 39 40 40 38 36 35 35 36 36 36 36 35 36 37 37 38 39 39 39 40 41 40 39 40 41 42 42 41 40
7 7 7 7 9 11 12 12 12 14 16 21 27 32 34 33 32 34 36 36 34 34 36 37 37 37 37 36 36 38 38 38 38 39 39 39 38 36 35 36 37 37 37 35 35 36 37 38 38 38 39 40 40 40 40 38 38 40 41 41 41 41 41
4 5 5 4 6 8 10 12 13 12 14 21 28 30 30 32 34 35 34 33 33 35 37 38 37 37 37 36 37 38 38 39 39 39 38 37 36 36 36 37 37 37 36 35 36 38 38 38 38 39 40 40 40 39 38 38 38 39 40 40 40 40 41
3 3 4 4 5 7 7 8 10 14 19 25 27 28 29 32 34 33 31 32 35 36 37 37 36 36 36 36 37 39 40 40 40 38 37 36 36 36 37 38 38 37 37 37 38 38 37 38 39 40 40 39 39 38 38 38 38 39 40 39 39 39 40
5 4 4 4 4 4 6 8 9 10 15 22 26 28 31 33 33 31 30 31 32 33 34 33 33 34 36 36 38 39 40 40 39 38 36 36 36 38 38 39 39 38 38 38 37 37 38 39 40 40 39 39 39 39 38 37 37 39 39 39 38 38 39
5 5 6 7 8 8 5 7 11 11 11 14 20 27 31 31 31 29 27 27 29 30 30 31 32 35 36 37 39 40 40 41 40 38 36 37 38 39 40 40 39 40 40 40 39 39 40 40 39 38 39 39 40 41 39 37 37 38 38 38 38 38 39
8 8 7 8 9 10 12 10 7 14 14 12 17 23 24 25 27 26 24 26 28 28 27 29 33 36 38 40 42 42 41 40 39 38 37 38 40 40 40 40 40 40 40 40 40 39 39 38 36 36 38 39 40 41 39 37 37 37 37 37 37 37 39
9 9 9 9 11 11 13 15 8 6 13 15 19 22 20 20 21 22 23 25 26 26 28 33 38 40 40 41 39 38 38 38 39 40 40 40 41 41 40 40 38 38 39 39 39 37 35 36 36 36 36 37 38 38 38 37 36 36 36 36 36 36 38
7 8 8 10 13 16 15 14 12 6 6 12 16 18 20 21 19 19 21 22 22 26 33 39 40 39 38 37 34 34 36 38 40 41 42 42 40 39 39 39 38 38 39 38 36 34 33 34 35 34 34 35 35 35 36 37 37 36 35 35 34 35 37
9 10 12 13 17 19 16 12 11 11 9 9 10 13 19 22 20 19 19 18 21 31 38 39 37 36 34 33 32 33 35 37 39 41 41 41 40 39 39 40 39 39 38 36 34 33 33 33 33 32 30 30 31 33 34 35 36 35 34 33 32 33 36
10 10 12 13 16 18 17 12 11 12 13 9 5 11 17 19 19 19 17 18 26 33 33 31 31 31 31 31 32 32 34 36 38 39 38 39 40 41 40 39 38 37 36 35 34 33 32 31 30 28 25 25 27 29 31 33 34 32 31 31 31 31 34
10 10 10 10 13 16 15 11 11 16 18 15 8 5 12 18 20 17 16 22 30 30 25 24 25 27 28 30 31 32 34 36 37 38 38 39 40 39 37 37 37 36 35 35 33 31 29 28 27 25 23 22 21 21 23 27 30 29 28 29 29 29 33
8 9 10 11 13 16 15 11 10 14 17 17 14 9 7 12 16 16 18 27 31 28 25 25 24 25 28 30 31 32 34 35 36 38 39 39 39 38 36 35 34 33 33 33 32 29 25 24 23 22 20 19 18 17 18 22 26 28 26 27 28 29 31
7 8 10 10 12 15 16 13 10 10 11 15 16 13 11 10 10 13 20 27 29 26 25 25 25 26 28 29 31 34 35 35 36 38 39 40 40 39 36 34 33 32 30 29 29 27 25 23 24 24 24 24 22 23 24 23 26 28 27 27 29 29 29
7 7 8 9 11 15 14 11 9 8 8 12 16 17 16 14 13 14 16 20 26 27 27 26 27 28 30 31 33 34 35 36 37 38 39 39 39 37 36 36 37 35 33 31 30 28 28 29 30 30 30 29 27 27 26 25 26 28 29 30 30 29 28
6 6 7 8 10 11 10 7 7 8 8 9 14 18 19 18 17 16 16 16 20 24 26 28 30 30 31 33 34 35 36 37 36 35 34 33 34 35 36 39 40 38 38 40 39 35 32 32 33 33 32 31 30 29 28 28 30 31 31 31 31 31 32
7 7 8 10 11 11 10 7 6 7 8 11 14 17 18 20 20 17 16 15 17 18 20 25 29 30 31 33 33 34 37 38 37 35 32 30 31 33 35 39 43 43 43 45 47 46 44 42 39 37 36 34 35 35 32 30 34 36 34 33 33 35 35
7 7 9 12 13 12 12 11 9 8 9 11 13 14 15 18 19 18 16 15 15 16 17 19 20 22 25 28 29 31 32 32 33 35 35 34 35 34 33 34 38 41 42 44 48 50 50 48 45 44 41 38 39 41 39 37 38 36 33 32 33 33 31
8 8 10 13 13 12 13 14 12 11 10 10 10 10 11 13 14 14 14 12 11 12 15 17 17 17 19 20 23 27 30 30 31 33 35 37 39 38 33 28 25 27 31 36 42 44 42 40 40 43 43 41 40 40 37 35 35 33 32 31 29 27 27
10 10 11 13 13 12 12 13 14 13 11 11 11 9 7 8 9 9 9 8 6 4 6 8 9 11 14 18 21 23 23 24 24 23 21 21 25 30 33 31 25 21 21 26 33 39 39 37 37 40 41 41 40 37 33 30 31 32 30 28 26 25 26

ECMWFFLT1_925_spd_024.txt.gz
Wind_Speed
16 16 17 16 16 17 17 18 18 21 27 29 31 34 36 36 37 36 36 38 40 40 41 43 42 42 43 44 44 44 43 42 41 40 39 39 38 36 36 35 34 34 34 34 34 34 33 32 31 31 30 29 28 27 25 24 23 23 22 21 21 22 23
13 15 16 16 16 17 19 19 19 22 26 29 32 34 35 37 37 38 38 38 41 42 42 43 44 44 44 44 43 43 43 42 41 40 38 38 38 37 38 37 36 35 35 35 35 33 32 31 31 31 30 30 29 28 26 25 24 24 23 22 23 24 24
13 15 16 17 17 19 19 18 19 24 28 30 32 33 35 39 40 41 40 39 40 41 41 42 44 44 44 43 43 42 43 43 42 41 40 39 39 39 38 37 37 37 35 35 34 33 32 31 31 30 30 30 29 28 27 26 26 25 24 24 24 25 26
13 15 16 17 18 18 18 17 19 24 29 32 35 36 38 42 43 42 41 40 40 40 41 42 44 44 44 43 42 42 43 43 43 43 42 41 40 39 38 37 37 36 35 35 34 33 32 30 30 30 30 30 30 29 28 27 27 26 25 25 26 27 27
14 14 13 15 16 15 16 17 19 23 29 33 36 37 39 41 40 39 40 41 41 41 43 44 43 43 43 42 42 42 43 43 43 43 42 41 39 38 38 38 38 37 36 35 34 33 32 31 30 30 30 30 30 30 29 28 28 27 27 27 28 28 27
13 13 13 14 16 17 18 19 21 26 32 34 36 38 39 38 36 37 39 40 40 41 41 41 41 41 42 42 42 41 41 42 42 42 42 40 38 38 39 39 38 37 36 35 34 34 33 32 32 31 31 31 31 31 30 30 29 29 28 29 30 30 29
13 13 15 16 16 18 19 19 21 27 33 34 35 36 36 34 35 37 38 38 40 40 40 41 42 42 42 42 41 40 40 41 41 42 41 40 39 39 39 39 38 37 36 35 35 35 34 33 33 32 32 32 32 32 31 31 31 30 30 31 32 32 30
14 13 14 16 17 17 18 17 18 23 29 31 31 31 31 32 34 36 37 38 40 40 40 42 43 43 43 41 40 41 41 40 41 42 41 41 40 40 39 38 38 37 35 35 35 35 35 34 34 33 33 33 33 33 33 33 32 32 33 34 34 33 32
12 11 12 14 15 14 14 15 16 19 24 27 28 30 31 32 34 35 38 40 39 39 42 44 44 43 42 40 41 42 41 40 40 41 41 41 41 40 39 38 37 36 35 35 35 35 35 35 35 34 34 34 34 34 34 34 34 34 34 35 35 35 34
10 11 13 13 13 12 11 11 12 14 17 20 24 28 30 32 33 35 37 38 37 40 44 44 42 41 40 40 40 40 40 40 40 40 41 42 41 40 39 38 37 36 36 35 35 35 36 35 35 35 35 35 35 36 36 36 35 35 36 36 36 36 36
9 11 12 11 11 10 10 11 12 13 14 16 21 26 29 31 33 34 35 37 38 41 43 42 40 39 39 40 39 39 40 40 40 40 41 41 41 40 40 39 38 37 36 36 35 35 35 35 35 36 36 37 37 37 38 37 37 36 37 37 37 37 37
9 10 11 12 12 11 11 12 13 14 14 15 20 25 27 30 32 34 35 38 40 42 41 40 40 39 38 39 38 39 40 40 41 41 41 41 41 40 40 39 39 38 37 37 36 36 35 36 36 37 38 39 39 39 39 38 38 38 37 37 37 37 37
7 7 9 11 10 10 11 12 13 15 15 15 20 25 28 30 32 34 35 37 40 40 39 39 39 38 38 38 38 39 40 41 42 42 41 41 41 40 40 40 39 38 38 37 36 36 37 37 38 39 40 40 40 40 39 39 38 38 38 37 37 37 37
6 7 8 8 8 9 11 13 14 15 14 15 19 24 28 30 32 34 35 37 39 38 38 39 39 38 39 38 39 40 41 42 42 41 41 41 40 40 40 39 39 38 37 37 37 38 38 39 39 40 40 40 40 40 39 39 39 39 38 38 37 37 37
8 8 8 8 10 11 13 15 15 15 15 16 17 21 25 27 30 32 33 35 36 38 39 39 39 40 40 39 41 43 43 42 40 40 40 39 39 39 39 38 38 37 37 37 38 39 39 39 40 40 40 40 40 40 39 39 40 40 40 39 39 38 37
9 9 9 9 10 11 13 15 15 15 15 15 15 18 22 25 28 30 33 34 36 38 39 39 38 39 39 40 42 42 41 40 39 39 39 39 39 39 38 38 37 37 37 38 38 38 38 39 39 40 41 40 39 38 39 40 42 42 42 41 41 39 37
9 10 10 9 10 10 11 12 13 13 13 15 16 20 23 26 29 32 33 34 36 37 38 38 38 38 39 41 42 40 39 39 39 38 39 40 40 40 39 38 37 37 38 38 38 39 38 39 40 41 41 40 39 39 40 42 43 44 43 43 42 40 38
9 10 10 9 8 8 10 12 12 12 14 16 17 21 26 28 29 30 31 34 37 37 36 37 37 38 40 40 38 38 39 39 39 39 40 41 41 40 39 38 38 38 39 39 39 39 38 40 42 42 40 39 39 40 41 43 44 44 44 43 42 41 39
9 9 8 7 6 7 9 10 11 13 15 16 19 26 32 33 31 32 36 38 37 35 34 36 37 37 38 38 36 38 39 39 38 39 40 41 41 40 38 38 39 40 40 40 40 39 40 41 42 41 39 39 39 41 42 43 44 44 44 43 42 42 40
8 8 7 6 6 8 9 9 10 12 14 17 23 28 31 32 33 34 36 35 33 33 35 37 38 38 38 37 37 38 38 38 39 39 40 40 39 38 38 40 40 41 41 40 39 39 40 41 41 40 39 40 40 41 41 42 43 44 43 43 42 42 42
6 6 7 6 6 7 8 9 9 10 12 18 22 23 23 26 29 30 28 29 32 35 37 38 38 38 38 37 37 37 37 38 38 38 38 38 38 38 38 39 40 41 40 39 40 41 41 40 40 40 40 40 40 39 40 42 43 43 43 43 42 42 42
5 5 6 6 6 7 7 8 10 12 13 16 18 18 20 23 26 25 25 29 33 34 35 35 35 35 34 34 36 37 38 39 38 37 36 36 36 37 37 39 40 40 40 38 38 39 39 39 39 39 39 39 39 39 40 41 41 42 43 43 42 41 41
4 5 6 6 7 7 7 8 11 14 14 14 15 18 21 23 24 24 24 26 29 30 31 31 31 32 33 34 36 38 39 38 36 35 35 35 37 38 39 40 40 39 39 38 37 37 38 38 37 38 38 39 39 41 40 39 39 41 43 42 41 40 40
4 4 5 6 7 7 9 9 7 13 15 14 15 18 21 22 23 24 23 23 26 27 27 28 30 32 34 35 37 37 37 36 35 35 36 37 39 40 40 40 39 39 39 38 37 37 38 37 36 36 38 39 41 42 41 38 38 41 42 41 40 40 40
4 4 5 6 7 7 10 11 4 6 12 13 15 19 22 23 24 23 22 22 25 25 25 28 31 34 35 37 37 37 36 37 38 40 41 41 41 40 40 39 38 38 38 38 38 37 36 35 34 35 37 39 41 42 40 37 37 39 40 39 39 39 40
4 4 5 6 9 10 10 11 10 6 3 4 10 17 22 25 24 22 21 22 23 23 25 30 34 36 38 38 36 36 37 38 40 41 41 41 40 39 38 38 37 37 38 38 37 35 33 33 34 34 35 37 38 39 39 38 37 37 38 38 38 39 40
2 3 5 6 10 11 10 11 13 11 10 7 1 11 19 21 20 19 20 19 19 23 30 34 35 34 33 32 31 33 35 37 39 41 41 40 38 37 37 39 39 38 38 37 35 33 32 32 33 33 34 35 36 37 38 38 36 35 36 37 38 40 41
2 3 4 5 10 12 10 10 13 14 15 16 9 6 15 19 17 16 17 17 20 28 32 29 27 26 26 26 28 31 34 36 39 40 39 39 39 39 40 41 40 38 37 35 34 33 34 33 33 32 32 33 34 35 35 35 36 36 37 38 39 40 42
4 5 5 6 10 13 12 9 11 14 16 19 18 10 5 11 13 14 15 18 25 31 29 25 25 25 24 25 28 30 33 36 38 39 39 39 41 41 40 40 40 40 39 37 36 35 34 34 33 32 30 30 31 33 33 33 35 38 39 40 40 40 41
7 7 8 9 11 14 13 10 10 12 15 19 20 17 11 4 3 7 11 16 20 20 20 23 26 25 25 27 29 31 33 35 37 37 37 38 40 39 38 37 37 37 37 37 36 35 33 33 33 31 29 28 28 29 31 32 35 38 40 41 41 41 42
8 8 9 11 13 15 14 12 12 14 15 17 19 17 15 13 8 4 5 9 10 10 12 19 22 23 26 29 31 33 34 35 36 38 38 38 39 38 37 35 33 32 33 34 33 31 30 30 32 32 31 29 28 28 30 33 35 38 40 41 42 42 42
10 10 11 12 14 15 15 14 14 15 14 15 17 16 14 14 12 10 10 11 10 9 10 14 20 24 26 28 30 33 34 34 34 36 38 38 38 39 38 36 35 33 33 32 32 31 29 28 28 30 29 29 29 29 31 33 36 39 41 41 41 42 42
9 9 11 12 14 15 15 13 13 14 12 12 15 16 15 14 13 12 13 14 13 10 9 10 18 24 26 28 30 31 31 32 33 34 35 36 36 36 35 36 36 36 34 33 33 31 30 29 28 28 27 27 28 31 33 36 37 38 40 40 40 42 44
7 8 9 11 14 15 14 12 12 12 12 12 15 17 17 16 16 15 14 15 15 12 10 9 12 18 22 25 27 28 30 33 34 33 33 33 35 35 35 37 38 38 38 41 40 36 33 32 31 31 32 30 31 32 32 33 36 39 42 43 43 43 43
6 7 8 11 14 14 13 11 11 11 12 14 16 18 18 18 18 18 17 17 17 15 11 9 9 12 15 17 19 22 25 28 31 32 31 31 33 36 38 42 43 42 43 46 48 46 43 40 38 39 38 35 34 34 30 29 36 44 45 43 42 42 42
6 6 8 10 12 13 13 12 11 10 11 13 15 16 16 17 18 19 18 18 19 19 16 13 10 10 11 12 13 14 16 18 21 25 27 29 31 34 37 40 42 42 42 44 48 51 52 51 49 46 41 37 37 40 39 37 40 45 45 42 41 42 43
6 6 8 9 10 10 12 12 12 11 11 12 14 14 14 14 16 18 18 18 19 19 18 16 13 11 10 9 8 9 10 13 16 19 21 24 26 28 29 31 34 38 40 40 42 47 51 52 50 46 45 45 43 42 42 40 39 40 43 43 43 43 42
8 8 8 9 10 9 9 10 11 11 11 12 14 14 13 14 15 15 16 17 17 16 16 16 14 13 12 11 10 9 9 10 12 15 17 20 23 25 26 25 25 27 30 33 36 41 47 50 47 44 47 49 46 42 38 36 37 40 42 43 43 43 42

ECMWFFLT1_925_spd_027.txt.gz
Wind_Speed
18 18 19 18 17 18 19 19 19 22 25 25 27 31 33 32 32 31 29 33 35 32 33 36 36 35 36 38 41 42 40 37 36 37 34 33 32 32 34 35 32 31 30 29 31 32 31 31 30 28 24 20 18 17 16 17 16 18 20 20 19 19 19
16 17 18 18 18 19 20 19 19 22 25 26 28 31 32 32 33 33 32 34 39 39 37 39 39 37 38 40 41 42 42 39 37 37 34 33 36 37 37 36 35 35 35 33 33 34 33 31 31 30 28 24 21 18 17 17 17 20 22 21 18 18 20
14 16 17 18 19 20 20 19 19 23 26 27 29 31 32 33 35 38 36 35 39 40 38 40 42 41 39 39 39 41 43 39 37 37 35 34 37 36 33 35 36 36 36 35 35 34 33 32 32 31 30 28 25 22 18 16 17 18 21 23 21 21 22
15 17 17 19 20 18 17 18 19 24 28 30 32 33 35 38 39 40 40 37 38 39 39 40 42 42 40 39 39 39 40 39 37 37 35 33 34 33 31 34 36 34 34 35 35 34 33 33 31 29 30 27 26 25 20 17 17 16 19 24 25 24 23
14 15 15 16 17 16 16 18 20 25 30 32 34 33 35 39 38 37 38 38 37 39 40 39 38 38 38 39 38 38 40 42 41 38 35 32 32 34 34 35 35 34 33 35 35 35 34 34 30 28 28 23 24 26 21 17 17 16 18 23 26 26 24
12 13 13 14 16 17 19 21 24 29 32 33 34 34 34 35 34 35 37 36 36 36 35 35 34 34 37 38 37 36 38 42 43 41 39 36 35 36 37 36 35 34 33 34 36 35 35 35 32 31 28 23 23 26 23 18 17 17 18 21 26 27 26
11 12 13 15 16 18 20 22 24 30 33 32 32 31 32 32 32 34 34 34 37 36 33 35 36 35 37 38 36 36 37 39 41 42 40 38 37 38 37 37 37 36 34 35 37 36 36 35 34 33 31 27 25 27 26 21 18 17 17 20 26 28 27
11 9 12 15 16 17 18 18 20 25 28 28 28 28 31 31 30 32 33 34 36 36 35 37 36 35 37 39 37 38 39 37 38 40 40 37 35 36 36 36 38 39 37 36 36 37 37 36 36 35 33 31 28 28 29 24 19 19 18 21 27 30 29
10 7 8 12 13 14 14 15 17 19 21 24 26 27 30 31 30 32 35 35 34 34 36 37 36 35 38 41 39 38 38 36 35 37 38 37 34 33 33 33 36 40 40 37 35 37 39 38 37 36 36 36 30 26 29 26 20 20 20 24 30 31 31
8 7 7 8 10 11 11 12 12 14 15 19 24 26 27 29 30 31 33 32 33 36 37 37 34 32 36 40 38 36 36 36 35 35 36 36 34 33 33 32 33 37 40 37 33 35 39 39 39 38 38 38 33 28 29 27 22 21 22 27 31 31 33
7 7 6 8 9 10 11 12 12 13 14 16 21 25 27 28 29 30 31 32 34 35 35 35 33 31 34 37 36 34 35 36 36 35 35 35 33 33 34 33 31 33 36 35 32 33 38 40 40 40 39 40 38 34 31 27 23 23 25 29 31 32 34
5 5 7 9 8 9 10 10 11 13 14 15 20 24 27 28 29 30 31 32 34 34 33 33 33 32 33 35 35 34 35 36 37 36 35 35 34 34 35 34 32 31 33 35 33 33 35 39 41 41 41 41 40 39 36 29 24 25 29 32 32 33 35
5 5 7 7 6 6 8 8 10 14 15 15 19 24 26 28 29 30 30 31 34 33 31 32 33 32 32 34 35 34 35 37 37 36 35 36 36 35 35 35 34 32 33 34 34 33 34 38 42 42 42 42 40 40 39 32 26 29 34 35 34 35 36
6 7 7 6 6 8 10 10 11 13 13 14 18 23 25 27 29 30 30 32 33 32 31 31 32 32 32 33 34 35 36 37 36 36 36 36 36 36 34 34 35 34 33 34 34 34 35 39 42 42 42 41 41 41 38 31 30 36 38 37 36 37 37
7 8 8 7 8 9 10 11 10 11 11 13 16 20 23 25 27 28 29 30 30 32 33 31 31 33 32 32 35 36 35 35 35 36 38 37 36 36 35 34 35 35 33 35 36 36 36 39 41 42 41 39 40 41 35 28 32 40 41 39 39 39 38
7 7 8 8 8 8 10 11 11 11 10 11 13 17 21 24 26 29 31 31 30 32 32 30 33 36 34 33 37 36 36 39 38 37 40 40 38 39 38 36 37 38 37 39 39 37 36 38 39 38 37 37 38 37 32 28 30 38 42 42 41 40 40
5 5 6 6 6 7 8 9 10 10 11 12 14 18 21 23 25 28 31 31 31 33 33 31 34 38 37 36 36 35 37 42 41 37 40 41 39 39 39 36 36 38 40 39 38 36 37 38 38 35 32 34 36 34 32 30 31 36 43 44 42 41 41
5 6 5 4 4 7 8 9 11 12 13 14 16 19 23 24 24 26 29 31 33 34 33 32 34 37 38 35 34 36 40 41 39 37 38 39 38 37 36 35 35 36 37 37 36 36 37 37 37 36 33 32 34 34 33 32 32 37 43 45 44 42 40
7 7 6 4 5 7 8 9 10 12 13 14 17 22 26 27 25 27 30 31 30 30 31 32 33 36 36 32 32 39 41 38 37 36 35 36 36 34 34 34 34 35 35 35 35 36 36 36 36 36 35 34 34 35 35 33 34 38 43 44 45 44 41
7 6 6 5 5 6 7 7 8 10 13 16 20 23 25 26 27 28 28 25 23 25 28 30 31 33 35 33 35 39 40 38 37 35 34 34 34 33 34 35 35 35 35 34 34 35 36 36 36 36 36 36 35 35 35 34 35 40 43 44 45 45 43
5 5 5 5 5 5 5 5 7 9 11 16 19 20 21 25 27 26 24 23 23 26 30 30 30 31 31 32 33 35 36 36 35 32 31 32 32 33 35 35 35 35 34 34 35 36 36 36 36 37 37 36 34 34 34 34 36 40 43 44 45 44 44
3 3 4 4 5 6 6 6 8 9 11 13 16 18 21 25 26 24 24 24 25 28 30 29 27 27 25 25 28 30 30 30 28 27 27 28 30 31 33 33 34 34 34 34 34 35 35 35 36 37 37 36 36 36 35 34 36 41 43 44 45 43 43
2 2 3 4 5 7 7 8 9 10 12 13 15 19 21 22 23 23 22 23 24 26 27 25 24 25 26 27 27 26 27 27 28 28 28 29 31 33 34 35 35 35 35 35 35 35 36 35 36 37 37 37 37 37 37 35 36 41 43 44 45 44 43
2 2 3 4 6 7 7 8 8 9 11 12 15 17 17 18 20 21 19 20 23 23 23 23 24 26 29 29 28 29 33 36 35 34 32 33 35 36 36 36 35 35 36 36 36 36 36 35 36 38 38 38 39 38 37 35 36 41 43 43 45 45 45
2 2 3 4 5 7 8 8 6 5 7 10 11 12 14 17 19 20 18 18 20 20 20 24 27 29 31 30 29 34 40 40 35 33 32 33 35 35 33 32 31 31 33 35 34 34 34 34 36 37 38 38 38 39 39 34 34 39 42 43 44 44 45
4 4 4 5 6 8 8 7 4 3 2 3 4 7 12 17 19 19 17 15 17 20 22 25 27 25 24 23 24 30 36 34 30 31 33 33 33 31 29 30 29 29 32 34 34 33 33 34 36 37 38 37 37 39 40 37 35 38 42 44 44 44 44
5 5 6 6 8 9 7 6 7 8 7 5 3 2 9 14 15 14 13 13 15 19 20 19 20 19 18 19 21 25 29 30 30 32 33 32 30 29 29 29 29 29 31 33 33 32 34 36 37 36 36 36 36 38 40 38 37 39 42 43 44 44 44
6 6 7 6 8 8 6 6 9 10 10 10 8 3 5 11 11 9 11 11 12 14 13 13 18 21 22 23 24 23 26 29 31 31 30 28 28 28 28 29 29 28 29 30 31 32 33 34 33 33 34 35 35 36 37 38 39 42 44 43 44 46 46
6 7 7 6 7 8 6 6 8 10 11 11 11 9 3 7 8 8 8 7 4 5 8 11 16 21 22 24 26 25 26 30 34 33 30 28 30 31 29 28 28 28 28 29 31 32 31 30 31 31 31 31 32 35 37 38 40 45 47 46 45 46 47
5 5 6 6 7 7 6 6 8 10 11 12 12 12 9 5 6 8 7 4 4 1 3 7 12 17 19 22 24 25 24 26 31 33 30 29 31 31 28 28 29 28 28 29 31 32 30 30 31 30 29 29 30 34 38 39 40 46 50 49 47 47 48
5 4 5 6 6 6 5 6 8 9 11 13 13 12 12 11 10 11 8 6 4 2 2 4 9 13 16 18 21 23 22 22 24 27 27 27 29 28 27 28 27 28 29 30 32 33 33 32 32 32 30 30 31 33 36 38 39 43 48 48 48 48 47
6 6 6 7 7 6 5 7 8 10 12 12 12 12 12 12 12 11 8 6 5 4 2 1 5 10 13 15 17 19 21 20 20 22 23 25 26 26 26 26 27 28 31 32 32 34 34 33 34 34 32 31 31 31 30 32 33 36 41 46 47 47 47
7 7 8 8 8 7 6 6 7 9 11 12 13 13 13 13 13 11 8 8 8 6 4 3 1 4 8 10 12 14 16 17 18 20 21 23 25 26 26 26 28 29 30 31 33 34 34 33 32 31 30 31 31 30 29 30 31 30 34 42 47 48 48
7 7 8 9 9 7 6 7 8 9 10 11 13 14 14 14 14 12 11 11 10 9 8 7 5 2 1 4 6 7 9 12 14 16 17 19 23 25 26 26 28 29 30 33 35 33 32 32 31 31 32 32 31 28 26 29 31 31 35 43 48 49 51
7 7 8 10 10 9 8 8 8 10 11 12 13 14 14 14 14 13 13 13 12 11 11 10 9 7 5 3 1 3 4 7 10 13 15 16 18 21 24 25 27 28 29 33 37 38 36 34 32 34 36 35 32 28 25 27 35 42 45 47 49 52 54
7 7 9 11 11 12 12 11 10 11 12 12 13 13 13 13 13 13 14 13 12 13 12 12 11 11 9 8 6 4 3 3 5 8 10 13 14 17 21 25 28 30 31 32 37 41 42 40 38 36 34 34 36 37 37 40 46 48 48 49 52 55 57
8 8 9 11 12 12 13 13 13 13 13 12 11 11 11 12 12 12 12 12 12 13 13 12 12 11 10 8 8 7 6 4 4 5 6 9 12 14 16 19 24 30 35 37 38 39 41 45 47 45 39 37 38 40 44 48 48 44 45 50 53 53 53
11 10 10 12 13 13 13 14 15 15 15 15 14 13 13 13 12 10 10 10 10 10 12 12 13 12 10 8 7 7 6 4 3 4 5 6 9 11 13 14 16 21 28 35 39 40 41 44 47 50 49 48 45 41 42 45 45 42 45 50 53 53 52

ECMWFFLT1_925_spd_030.txt.gz
Wind_Speed
16 17 17 16 17 18 19 20 20 23 26 28 30 32 32 31 30 30 29 31 31 30 31 31 30 30 30 29 28 27 27 25 24 24 24 23 23 22 22 21 21 21 21 20 20 20 21 20 19 19 18 18 19 18 17 16 15 15 15 14 14 13 12
15 16 17 17 17 19 20 20 21 23 26 28 30 32 32 32 32 31 30 31 33 32 32 32 31 31 31 31 29 29 29 27 25 24 23 23 24 24 23 22 21 22 22 21 20 19 20 20 21 21 20 19 19 18 18 17 17 16 15 15 15 14 13
14 15 16 17 17 18 20 20 21 25 27 28 30 32 33 34 34 33 32 31 33 33 32 33 33 32 32 31 31 30 31 29 27 26 25 25 26 25 23 22 22 22 22 22 21 19 19 20 21 22 21 20 19 19 19 18 18 17 16 16 16 15 14
14 15 16 18 18 18 18 19 21 24 28 30 32 33 34 35 35 34 33 32 33 33 34 34 34 33 32 32 32 31 31 31 30 28 28 27 25 24 23 23 23 23 22 22 22 20 19 20 21 22 22 21 19 19 19 19 19 18 18 17 17 16 16
15 15 14 16 16 16 17 19 21 24 29 31 33 33 33 35 34 33 34 33 33 35 36 36 34 33 33 33 32 31 32 33 31 29 29 28 25 24 24 25 24 24 24 22 22 22 21 21 21 21 22 22 21 20 20 20 19 19 19 18 18 17 17
14 14 13 14 15 16 18 20 22 26 30 31 32 31 31 32 33 33 34 34 34 34 34 34 33 33 33 33 33 31 31 32 32 32 31 29 26 25 26 26 25 24 24 23 22 22 23 22 22 22 22 22 22 21 21 20 20 20 20 19 19 18 18
13 14 15 15 15 17 19 20 22 26 29 28 29 29 29 30 32 33 33 33 34 33 32 34 35 34 33 33 33 32 32 32 33 34 32 29 27 27 27 27 27 25 24 24 24 23 23 24 24 24 23 22 22 22 22 21 21 21 22 21 20 19 18
13 13 14 15 15 16 17 17 18 22 25 26 26 28 30 31 31 32 32 33 33 34 34 35 36 35 34 33 33 34 34 33 33 33 33 30 29 29 28 28 28 27 26 25 25 25 25 25 25 25 25 24 23 23 22 22 22 22 23 22 21 21 20
10 9 9 11 12 12 12 13 14 17 21 24 26 28 30 30 30 32 33 33 32 33 35 35 35 35 34 33 34 35 34 33 32 33 33 32 31 31 30 29 28 28 28 27 27 26 27 27 26 26 26 25 24 23 23 23 23 23 23 23 22 22 21
5 6 7 8 10 10 10 11 12 14 17 20 23 26 27 28 30 31 32 33 33 34 36 35 34 34 34 34 35 35 34 33 33 32 33 33 33 32 31 30 29 29 30 29 28 27 28 28 27 27 27 26 25 24 24 24 24 24 24 24 23 23 22
3 5 6 7 9 9 11 12 12 13 13 15 21 25 26 27 29 30 31 33 34 34 35 35 34 33 34 34 34 34 34 35 34 34 34 34 33 32 32 31 29 29 29 30 30 28 27 27 28 28 28 27 27 26 25 25 25 25 24 25 25 24 23
2 3 5 7 9 10 11 11 12 13 13 15 20 24 25 26 28 29 30 31 32 32 32 33 34 33 33 33 33 34 35 35 35 35 35 35 33 32 32 32 31 30 30 30 31 30 28 28 28 28 28 28 27 27 27 26 26 26 25 25 25 24 23
2 4 6 7 8 9 10 11 12 14 14 15 20 23 24 26 27 27 28 30 31 30 30 31 33 33 33 33 32 34 35 36 36 36 36 35 34 33 33 33 33 32 31 30 31 31 30 29 29 29 29 28 28 27 27 27 27 27 26 26 26 25 24
4 5 7 7 8 9 10 11 12 13 13 15 19 22 23 25 26 27 28 29 29 29 29 30 31 33 33 32 32 33 35 36 35 35 35 34 33 33 34 34 34 33 32 30 30 31 31 30 30 29 28 28 28 28 27 27 27 28 28 28 28 27 24
8 6 4 7 8 9 10 10 11 12 13 15 17 21 24 25 26 27 28 28 29 30 30 30 31 32 33 32 32 33 34 33 33 33 33 33 33 34 34 33 33 33 32 31 30 30 31 31 30 29 28 28 29 28 28 28 28 29 29 30 30 28 24
11 9 5 4 6 8 8 9 10 11 12 14 16 20 22 23 25 27 28 28 28 29 30 30 30 31 32 32 32 31 30 31 31 31 32 33 33 34 33 32 32 31 32 31 30 29 30 30 29 29 28 29 29 28 28 28 29 31 33 33 31 27 25
12 10 10 6 2 5 5 7 8 9 12 14 16 19 21 23 25 26 27 28 29 30 30 30 29 30 31 31 30 28 29 30 31 30 32 33 33 32 32 31 30 30 31 31 30 29 29 29 30 29 28 28 29 29 29 28 30 33 36 37 34 29 26
13 12 12 9 3 3 4 6 7 9 11 13 15 20 22 23 23 24 26 28 29 28 28 29 29 29 30 30 28 27 29 29 30 30 30 31 31 31 31 30 30 29 30 30 30 29 28 28 29 29 28 27 28 29 29 29 32 36 38 39 39 36 30
16 15 15 11 5 3 5 6 6 8 10 11 14 19 22 22 23 25 27 27 25 25 26 29 30 28 27 27 26 27 28 28 28 29 29 30 30 29 28 29 30 30 29 30 29 29 29 29 28 29 28 28 28 29 30 30 32 37 39 39 40 41 37
16 15 14 11 8 6 6 5 6 6 8 10 13 16 18 22 25 25 24 24 25 26 28 29 29 27 26 27 27 27 26 27 28 28 28 27 27 27 27 29 30 30 29 28 28 30 31 30 31 31 30 30 31 30 30 30 32 36 40 40 40 42 42
14 14 12 10 8 7 5 5 6 7 8 10 12 13 16 20 22 22 22 23 26 28 28 28 28 27 26 28 29 28 27 28 29 27 26 26 26 27 28 29 30 30 29 28 28 30 31 32 33 33 31 33 34 32 31 32 33 35 38 41 41 41 43
13 12 10 7 6 5 5 6 7 8 8 9 11 13 15 17 18 20 21 23 25 26 26 26 26 27 26 27 30 30 29 30 30 28 27 27 27 29 30 31 32 32 30 29 28 29 30 31 32 31 32 34 34 34 34 33 33 36 38 40 41 42 43
8 7 6 6 6 6 7 8 9 10 10 11 12 14 15 15 17 19 20 22 23 24 25 25 26 27 27 27 29 30 30 30 30 29 29 29 30 31 32 33 32 31 29 29 29 28 29 30 30 30 32 34 34 35 36 33 33 36 39 40 41 43 44
4 4 4 5 6 7 7 8 9 11 12 13 13 14 14 14 16 18 19 20 22 23 24 25 27 28 28 27 27 27 28 28 29 29 30 30 31 32 32 31 30 29 29 29 29 29 29 28 28 28 30 32 34 36 36 33 32 36 39 42 43 44 45
3 3 4 4 6 7 8 10 10 12 12 13 12 12 13 14 15 17 18 20 21 21 23 26 28 28 26 24 23 24 25 26 27 28 29 31 31 30 30 29 28 28 28 29 29 28 28 26 26 27 28 29 32 36 37 35 33 35 39 41 43 46 45
4 5 5 5 7 8 10 10 9 9 8 7 7 8 10 13 14 15 16 18 20 21 23 24 23 22 22 21 22 23 24 25 27 29 29 29 29 28 27 27 27 26 27 27 27 26 27 27 27 27 28 29 31 35 37 37 36 37 39 41 44 47 46
5 6 6 7 8 9 9 8 7 7 6 4 4 5 7 10 12 14 14 16 18 20 20 18 18 19 20 21 22 23 24 26 27 28 28 27 26 26 26 25 25 25 25 25 25 25 26 27 27 29 29 29 31 33 35 37 38 39 40 41 44 47 48
7 7 7 7 8 9 9 7 6 7 7 6 4 3 6 9 10 11 13 14 15 17 16 15 16 18 19 21 23 23 24 25 25 25 24 24 24 24 24 24 23 24 25 24 24 25 25 25 28 29 28 29 32 33 34 36 39 40 41 41 43 47 50
7 7 7 7 7 9 9 7 6 7 8 7 7 4 2 7 9 9 10 11 10 12 14 13 14 16 17 19 21 21 21 22 22 22 22 23 24 24 24 24 24 24 25 24 24 25 25 26 28 29 28 29 31 32 33 35 37 40 42 42 42 45 50
5 6 7 7 7 9 8 6 5 6 7 8 9 9 5 2 7 7 6 5 3 5 8 10 11 13 14 16 18 19 19 19 20 21 21 22 23 24 24 24 24 24 24 24 25 25 26 26 28 29 30 29 30 31 33 33 33 37 42 45 44 44 46
4 5 6 6 7 7 6 5 5 6 6 8 9 10 10 6 5 6 6 5 4 2 4 7 9 11 13 14 15 17 17 17 18 20 21 21 22 22 23 24 23 23 23 24 25 25 26 27 28 28 29 29 28 30 33 32 31 34 39 45 48 47 47
3 4 5 5 5 5 5 4 5 5 6 8 9 10 10 9 8 7 7 5 3 2 1 4 7 9 11 12 13 14 16 16 17 18 19 20 21 21 22 23 23 23 23 25 26 26 26 27 27 27 28 28 28 30 31 31 31 32 35 41 45 48 50
3 4 4 4 5 4 4 4 5 5 5 7 9 9 9 9 9 7 6 5 4 2 0 2 5 6 8 9 11 12 14 15 15 15 16 18 19 20 20 21 22 22 23 25 26 25 26 27 27 26 27 28 30 30 30 31 31 30 32 37 44 49 53
4 5 5 5 5 5 4 4 4 4 5 6 8 9 9 9 9 7 6 5 4 2 1 2 3 5 6 7 8 9 10 12 13 13 13 15 17 18 19 20 22 23 24 25 26 25 25 25 25 26 27 29 29 29 29 32 34 35 34 38 45 50 52
6 6 7 7 7 6 5 5 5 5 6 6 7 8 9 9 9 8 7 6 4 3 3 3 3 4 5 7 7 7 7 8 10 11 11 12 14 16 18 18 19 20 21 23 25 26 27 26 25 26 28 28 28 28 28 30 35 38 37 37 41 46 49
6 6 7 8 8 8 8 7 6 6 6 7 7 8 8 9 9 8 7 6 5 4 4 4 5 5 5 5 5 5 5 6 6 7 8 9 11 13 16 18 19 21 21 21 22 24 27 28 29 30 29 28 27 28 29 32 35 37 36 37 41 45 49
6 6 8 8 9 10 11 10 9 8 8 7 7 7 8 9 9 8 8 6 5 5 4 4 4 4 4 4 4 4 2 2 2 3 4 6 7 9 11 13 15 17 19 21 23 25 26 28 31 35 37 36 35 33 33 35 37 37 37 40 44 47 49
10 9 9 11 10 10 10 10 10 10 9 8 8 9 9 9 9 9 9 7 6 6 6 5 5 5 6 6 6 6 5 3 2 0 2 3 5 6 8 9 11 11 12 14 17 20 23 24 26 29 33 37 40 41 41 41 40 38 37 38 44 49 51

ECMWFFLT1_925_spd_033.txt.gz
Wind_Speed
15 16 16 15 16 18 19 20 20 22 27 30 32 34 35 34 33 32 32 34 35 34 34 33 32 32 32 32 30 29 27 26 25 26 26 25 24 24 23 22 21 21 21 20 20 21 21 20 20 20 20 20 19 19 18 18 17 16 15 15 14 14 14
15 16 15 15 16 18 20 21 20 23 27 30 32 34 35 35 35 34 33 34 36 36 36 35 34 33 33 32 30 29 29 27 26 26 25 25 25 25 24 23 22 22 22 21 20 20 20 21 21 21 21 21 20 20 20 19 19 18 16 16 16 15 15
16 16 15 16 16 18 20 20 21 25 28 30 32 34 35 36 37 37 35 35 36 35 35 35 35 33 33 32 31 31 30 29 28 27 27 27 27 26 25 24 23 22 22 22 21 20 20 20 22 22 22 21 21 21 21 20 20 19 18 17 17 16 16
19 18 16 17 18 18 19 20 21 24 29 31 33 34 36 37 37 37 36 36 37 36 36 36 36 34 33 33 32 31 32 31 30 29 28 27 27 26 25 25 24 23 22 23 22 21 20 20 21 23 23 22 21 21 21 21 21 20 19 18 17 17 17
22 20 16 15 16 16 17 20 21 24 29 32 34 34 34 35 35 35 35 36 37 38 38 38 36 35 34 33 32 32 33 33 32 30 29 27 26 26 26 26 25 25 24 23 22 22 22 21 21 22 23 23 22 22 22 22 21 21 20 19 18 18 18
19 17 14 14 13 14 18 21 23 27 30 32 33 33 33 34 35 35 35 35 36 37 37 37 35 34 34 35 33 32 33 33 32 31 30 28 27 27 27 27 26 25 25 24 23 23 23 23 22 22 23 23 23 22 22 22 22 21 21 20 19 19 19
16 16 14 13 14 17 20 21 22 27 29 29 30 31 32 34 35 35 35 35 36 36 36 37 36 36 36 35 34 33 33 33 33 33 31 29 28 28 27 27 27 26 25 24 24 24 24 24 24 23 23 23 23 23 23 23 23 22 21 21 20 19 19
16 17 15 16 17 18 19 18 20 23 25 26 28 30 32 33 34 35 35 35 36 36 36 38 38 37 36 35 35 35 34 34 33 33 32 31 30 29 28 27 27 27 26 25 25 25 25 25 25 24 24 23 23 23 23 23 23 22 22 22 21 20 20
16 17 17 19 19 17 14 14 15 18 22 25 26 29 31 32 32 34 35 35 35 36 37 38 38 37 36 35 35 35 35 34 33 33 33 32 31 31 30 28 28 28 28 27 26 26 26 26 25 25 25 25 23 23 23 24 24 23 23 23 23 22 22
14 15 16 16 15 13 13 13 13 15 18 19 22 25 29 30 31 33 34 35 35 37 38 38 37 36 35 35 35 35 35 34 34 33 34 34 33 33 32 30 29 29 29 29 28 27 27 26 26 26 26 26 25 24 25 25 25 25 24 24 24 24 23
8 9 10 9 9 9 13 14 13 13 13 14 20 24 27 28 30 30 32 34 35 36 37 37 36 35 35 35 35 35 35 36 35 35 36 36 35 35 34 33 31 30 30 30 30 29 27 27 27 27 27 27 27 26 26 26 26 26 26 25 25 25 24
8 7 6 7 8 9 10 11 12 13 12 14 20 24 24 26 29 29 30 33 34 33 34 35 35 34 34 34 34 35 36 36 36 36 37 37 36 35 35 35 33 31 31 31 31 30 29 28 28 29 29 29 29 28 28 28 27 28 27 26 25 26 25
6 6 6 7 8 8 8 8 10 13 13 14 19 22 23 25 27 27 28 30 32 31 32 33 34 34 34 33 33 34 35 36 36 36 36 37 36 35 35 35 35 33 31 31 31 31 31 30 30 30 30 30 29 29 29 29 29 28 28 28 26 26 26
5 8 8 7 7 8 8 8 9 11 12 14 18 21 22 24 26 27 27 28 30 30 30 32 33 33 34 33 32 33 34 35 35 36 36 36 36 35 35 35 35 34 32 31 30 31 31 31 31 30 29 29 29 30 29 30 29 29 29 29 28 28 27
3 8 12 10 8 9 9 9 9 10 12 13 15 19 21 23 24 25 26 26 28 29 30 30 32 33 33 32 32 33 33 33 32 33 35 34 34 35 34 34 34 33 32 31 30 30 30 30 30 30 29 29 29 29 30 30 30 30 31 30 30 29 28
3 3 10 12 11 10 9 10 11 11 12 12 13 16 19 20 21 23 25 25 27 28 29 29 30 32 32 32 33 32 31 32 31 30 32 33 34 34 33 33 32 32 33 32 30 29 29 29 29 29 29 30 30 30 30 30 31 33 34 34 32 30 29
4 3 1 6 9 9 9 10 11 11 12 13 14 16 18 19 21 22 23 24 26 28 28 28 29 31 32 32 31 30 30 31 31 30 30 32 32 31 31 31 31 31 33 32 30 29 28 28 29 29 29 29 30 30 31 31 32 35 38 38 36 33 30
5 4 4 3 3 4 6 8 10 12 13 13 14 17 18 19 20 22 23 24 25 26 27 29 29 30 31 31 29 28 29 30 30 30 30 30 31 30 29 30 29 29 29 30 31 30 28 28 30 30 30 29 30 31 31 31 32 36 40 41 42 39 33
6 6 5 5 5 4 3 3 5 7 8 9 12 16 18 19 21 22 22 22 22 24 26 29 30 29 30 30 29 29 30 30 30 30 30 30 30 29 28 28 29 29 29 29 30 30 30 30 31 31 31 30 30 30 31 30 32 36 40 42 44 44 39
6 6 6 6 7 6 4 3 2 2 3 5 8 11 14 18 19 19 20 21 22 24 25 27 28 27 28 30 30 30 30 29 30 30 29 29 29 29 28 29 31 31 30 30 30 31 32 31 31 32 32 32 31 30 31 31 32 35 40 43 44 46 45
7 7 7 6 4 4 5 4 3 3 4 5 7 7 8 13 16 17 19 21 23 25 25 25 26 26 26 28 30 30 29 29 30 29 29 29 29 30 31 32 33 33 32 30 30 32 32 31 31 32 32 32 31 30 30 31 32 34 38 42 44 46 48
10 9 7 5 5 6 5 5 5 5 5 6 7 7 8 10 13 16 19 21 23 24 25 25 25 25 26 28 30 30 29 28 28 28 28 29 30 32 32 33 32 32 31 29 29 29 30 30 31 31 31 33 33 32 32 32 33 36 38 41 44 45 48
8 7 7 7 7 7 6 6 6 5 6 7 8 9 10 10 12 14 17 19 21 23 24 25 26 27 26 27 28 29 28 27 27 27 28 28 30 31 31 31 30 29 29 29 29 29 30 30 30 30 31 33 33 34 33 32 34 37 37 39 43 44 48
7 9 9 8 8 8 7 7 7 7 8 9 10 11 11 11 11 12 15 17 19 21 24 25 26 28 27 26 27 28 28 27 27 27 28 28 30 30 29 29 28 28 29 29 29 29 29 28 28 29 30 32 33 33 33 31 32 35 37 39 41 43 48
10 9 9 8 8 8 9 9 9 9 10 10 10 10 10 11 12 12 13 16 18 20 23 25 26 27 27 26 26 27 27 28 28 28 28 29 29 28 28 27 27 26 27 28 28 28 27 26 27 28 28 30 31 33 34 33 32 34 37 39 40 43 48
9 9 9 8 8 9 10 9 8 8 8 7 6 7 7 8 11 12 12 14 17 19 22 23 23 23 25 25 25 25 27 27 28 28 28 28 27 26 25 25 25 25 26 26 26 26 26 27 27 27 27 28 29 32 35 35 34 35 37 40 40 43 47
8 8 9 9 9 9 9 8 7 6 7 7 6 6 7 7 9 11 11 12 16 18 18 19 20 21 22 24 25 25 25 26 26 27 26 25 25 24 24 24 24 25 25 25 24 24 25 26 26 26 26 27 27 29 32 34 35 35 37 40 41 44 47
8 8 9 8 8 7 7 7 6 6 6 6 6 5 6 7 8 9 10 11 13 15 14 15 18 20 20 22 24 24 24 24 24 24 24 24 24 24 24 24 23 24 25 24 23 24 24 24 25 25 25 26 26 28 29 31 33 35 36 39 41 44 48
7 7 7 8 7 6 6 6 6 6 7 7 7 7 6 6 8 7 8 10 10 12 13 13 14 17 19 20 21 22 22 22 23 23 22 22 23 23 22 22 22 22 23 22 22 22 23 23 23 23 24 24 25 26 28 29 31 34 37 39 40 42 47
8 7 7 7 7 7 6 5 5 5 6 6 6 8 9 4 5 7 5 5 4 6 10 12 12 13 15 17 18 19 19 19 20 21 20 20 21 21 21 21 21 21 21 21 21 20 21 22 23 23 23 23 24 26 26 27 28 31 35 39 41 43 45
8 7 7 7 6 7 6 5 4 4 4 6 6 7 10 7 3 5 3 2 2 1 4 8 10 11 12 13 14 15 16 16 17 18 17 17 18 19 19 19 20 19 19 20 21 20 21 21 22 22 22 23 24 25 25 25 26 28 31 36 40 43 45
8 7 8 7 6 7 7 5 3 3 3 5 6 7 9 8 4 3 3 2 1 1 1 3 7 9 10 11 11 12 14 14 15 16 16 16 16 17 18 18 19 19 19 20 20 20 20 20 20 21 22 22 23 24 24 25 26 27 29 31 37 42 45
7 6 7 7 6 6 6 4 3 3 3 4 6 6 7 7 5 3 2 1 1 2 2 3 5 7 8 9 9 10 11 12 12 13 14 15 14 15 15 17 17 17 17 19 19 19 19 19 19 19 20 21 22 22 22 23 24 26 27 26 29 36 41
6 6 6 6 6 5 4 3 2 2 4 5 6 7 6 6 5 4 2 2 1 1 2 4 5 6 6 6 6 7 8 9 10 10 11 13 14 14 14 15 17 17 18 18 18 17 17 18 19 20 20 20 20 19 20 22 23 25 26 24 22 26 33
6 5 5 5 5 4 3 3 2 3 5 6 6 6 6 6 6 6 5 5 4 3 2 3 4 5 6 6 6 7 7 7 8 9 9 10 11 12 13 13 14 13 14 16 16 17 17 16 16 17 18 18 19 19 18 20 21 21 22 22 21 22 27
5 4 5 6 5 4 4 4 3 4 5 6 6 6 7 7 7 7 7 6 6 5 4 3 3 4 6 5 3 3 5 7 9 9 8 9 9 11 12 13 13 10 9 10 11 13 14 13 12 13 13 14 17 19 19 20 21 21 21 20 20 20 22
5 5 6 7 7 7 7 7 6 6 6 6 7 7 8 8 8 8 8 8 7 6 5 4 3 3 3 3 6 8 5 0 2 4 3 2 2 3 5 6 7 7 7 8 8 8 10 12 14 16 17 18 20 23 26 27 28 29 30 29 27 26 25
6 7 7 7 7 7 8 8 8 8 7 8 8 8 9 10 10 9 9 9 9 8 7 6 5 6 6 5 7 9 8 6 6 6 3 3 4 4 5 4 3 2 3 5 8 10 11 12 13 15 18 20 22 24 27 30 31 32 33 33 33 32 32

ECMWFFLT1_925_spd_036.txt.gz
Wind_Speed
17 19 18 14 15 16 16 16 16 19 25 28 31 35 38 37 37 36 36 40 41 40 41 40 39 39 39 38 37 35 34 32 31 31 30 29 28 27 25 25 25 25 24 24 25 25 25 24 24 25 25 25 25 23 21 21 20 19 18 18 17 17 17
18 18 18 17 16 16 15 16 17 20 24 29 33 36 37 37 37 37 37 39 42 42 42 42 40 40 40 40 38 37 36 34 32 32 31 30 29 29 28 27 25 26 25 24 24 25 25 24 25 25 26 26 25 25 23 22 22 21 19 20 20 18 18
19 18 20 19 17 16 15 15 18 21 20 25 34 36 37 38 38 39 38 38 40 41 42 43 43 41 40 40 39 38 38 36 34 34 33 32 32 31 30 29 27 26 26 26 24 24 25 25 25 26 26 26 25 25 24 23 23 23 21 21 21 21 20
20 18 19 21 20 18 17 15 16 19 21 27 35 38 38 38 37 37 37 38 40 40 40 42 42 41 42 42 40 39 39 38 37 36 34 33 33 32 31 30 29 27 26 27 26 24 23 24 26 26 26 26 25 25 25 24 24 24 23 22 21 21 21
21 17 15 19 20 18 17 17 16 21 28 34 38 38 36 35 34 34 34 36 39 40 41 41 40 40 41 42 40 39 41 41 39 37 35 34 33 33 33 31 30 29 27 26 27 26 24 24 25 27 27 27 26 25 25 25 24 24 24 23 22 21 21
19 16 13 16 18 17 19 20 22 28 34 37 38 37 35 35 35 35 34 34 36 36 37 38 38 38 38 38 37 38 41 41 40 38 36 35 34 33 34 33 31 30 29 27 27 27 27 25 25 26 27 27 26 26 25 26 26 25 25 25 24 23 21
17 15 14 16 18 18 20 21 24 31 35 34 33 34 34 35 36 36 34 34 35 35 35 37 37 36 37 37 37 39 40 39 40 39 37 36 35 34 33 33 32 31 30 29 28 28 28 28 27 26 27 27 27 26 26 27 27 26 27 27 26 26 23
19 17 16 17 18 18 20 19 20 24 27 27 28 31 34 35 35 36 35 35 36 36 36 37 36 36 38 39 38 39 39 38 39 39 37 35 35 34 33 32 33 32 30 30 30 29 29 30 29 28 27 27 28 28 28 28 29 28 28 29 29 28 27
20 18 17 18 19 18 16 16 15 17 20 23 26 30 33 34 34 36 36 35 35 36 36 37 36 36 38 39 38 38 38 37 37 37 37 35 33 34 34 32 33 34 32 30 29 30 30 29 30 30 29 28 28 29 29 29 30 30 29 30 31 30 29
19 19 17 17 16 14 14 13 13 14 15 18 22 26 31 33 33 35 36 35 35 36 37 37 36 35 36 37 35 36 37 37 35 35 36 35 33 34 34 32 32 33 33 32 29 29 31 30 30 31 31 30 30 30 31 31 31 32 31 31 31 32 31
17 19 17 14 12 12 14 13 12 12 11 13 19 23 27 30 31 32 34 36 36 36 36 36 36 35 35 36 35 35 37 37 35 35 36 36 34 33 34 32 31 31 33 33 31 29 31 32 31 31 32 33 32 32 32 32 32 32 32 31 31 32 32
15 17 16 14 12 11 13 12 12 13 10 12 19 23 24 27 30 31 32 34 34 33 34 35 35 35 34 34 35 36 37 37 37 36 35 36 34 33 34 33 31 31 31 32 33 31 31 32 33 33 33 34 34 33 33 33 33 33 33 32 32 32 32
12 13 13 13 11 10 11 10 12 14 12 13 20 25 24 26 29 30 30 32 33 32 33 34 35 35 35 34 35 36 36 36 38 37 36 37 37 34 34 34 33 32 31 32 33 33 32 32 34 35 35 35 35 35 34 34 34 34 35 34 32 32 32
14 12 11 11 8 7 8 9 10 12 13 15 21 25 24 26 29 29 28 29 31 31 32 33 34 34 35 34 34 36 37 37 38 40 39 38 38 37 35 35 35 34 33 32 33 33 32 32 34 35 35 35 36 36 35 35 35 35 36 36 34 33 33
16 14 11 11 10 6 6 8 8 10 11 14 18 21 22 23 26 27 26 27 30 31 31 32 34 34 34 35 35 36 37 37 37 40 40 38 38 39 37 37 37 36 35 34 34 33 33 32 32 33 35 35 35 36 36 36 37 37 37 37 37 34 33
13 15 13 11 11 8 6 5 6 8 9 10 12 16 19 21 22 25 26 27 28 30 31 30 33 34 33 34 36 35 35 36 36 37 39 39 39 39 39 37 37 37 36 35 35 34 34 33 32 32 33 35 35 36 36 36 37 39 40 40 40 37 35
6 14 17 15 12 10 7 5 5 6 7 8 9 12 17 19 20 23 26 27 28 29 30 29 30 34 35 33 33 33 34 36 36 36 38 39 38 38 39 38 37 37 37 37 35 35 35 35 34 33 32 33 34 35 36 37 38 39 42 44 43 41 38
8 7 12 14 12 10 9 10 8 7 9 10 11 13 15 17 19 21 24 26 27 27 29 29 29 32 35 32 31 33 35 36 36 35 36 38 38 38 38 38 37 37 37 37 37 35 35 35 36 36 33 32 33 34 35 37 39 40 43 45 46 45 41
4 1 4 9 11 10 10 12 12 10 10 12 15 16 16 17 18 20 22 23 25 26 28 30 28 28 33 34 32 34 35 35 35 35 35 37 38 37 36 37 38 37 37 37 37 35 35 37 37 37 36 35 34 35 35 35 37 40 43 45 47 47 45
1 1 1 2 5 7 4 5 8 7 5 8 13 16 18 20 19 19 21 21 22 25 27 29 28 26 30 34 34 33 34 35 34 34 33 34 35 35 35 37 38 38 37 35 35 36 36 37 37 37 38 38 36 36 36 35 36 39 42 45 47 49 48
1 1 2 1 6 10 9 7 6 4 3 1 2 4 11 19 19 18 21 21 22 24 24 26 28 26 26 32 34 32 33 34 33 32 32 31 33 34 35 36 37 37 36 33 34 37 37 36 36 37 38 39 38 36 35 36 36 38 41 45 47 49 50
3 2 4 8 10 10 8 7 6 5 5 5 7 7 5 12 16 18 20 21 22 23 23 23 25 26 24 28 32 32 31 32 32 31 32 31 31 33 34 35 35 35 34 33 32 34 35 35 35 36 37 38 38 37 37 37 37 38 41 43 45 48 50
11 11 11 11 11 10 10 9 7 6 5 5 6 7 7 7 10 14 18 21 21 21 22 22 23 26 25 24 28 31 31 31 31 31 31 30 31 33 34 33 32 32 33 32 30 30 32 33 34 34 35 36 38 39 40 38 37 38 39 41 44 47 50
13 11 10 10 10 11 11 9 6 5 5 6 7 7 8 9 10 8 10 19 22 20 21 22 22 24 24 22 25 29 30 30 31 30 30 31 31 32 32 31 30 30 31 31 31 29 29 30 32 33 34 35 37 38 39 38 36 37 38 39 41 45 50
11 10 9 10 11 10 8 5 5 7 6 4 4 5 6 7 9 11 8 10 18 20 20 21 22 23 23 22 23 27 29 29 30 30 30 31 30 29 29 29 29 28 29 31 31 30 28 27 28 30 32 33 34 36 37 37 36 35 37 38 39 43 48
10 9 8 10 11 9 7 5 4 5 4 6 8 7 7 6 7 10 10 9 11 17 20 21 21 22 23 22 22 25 28 29 29 30 29 29 29 27 27 28 27 26 27 28 28 28 28 28 27 28 29 30 31 33 35 37 35 35 36 37 38 41 45
10 9 9 10 10 8 7 6 6 6 6 7 7 7 6 6 7 8 9 9 10 12 15 18 21 22 23 23 22 24 27 28 27 28 27 26 26 25 25 26 26 27 26 25 25 27 28 28 27 26 27 28 29 30 32 34 34 34 36 38 38 40 43
10 10 10 10 9 8 8 7 8 8 8 8 8 8 8 7 7 7 7 7 8 9 9 12 19 23 23 23 23 22 24 26 26 26 25 25 25 24 25 24 25 25 25 25 25 25 26 27 27 26 25 26 27 28 29 30 31 33 36 37 38 39 42
11 10 10 10 9 11 10 8 8 8 7 9 9 8 11 12 8 4 4 5 5 6 8 7 13 21 22 21 22 22 22 24 25 24 23 24 24 24 24 24 24 24 25 25 24 23 23 24 24 24 23 23 23 25 25 25 27 30 33 36 37 37 39
11 9 9 9 10 12 11 8 7 7 6 9 10 8 11 14 9 0 2 5 8 4 4 6 7 16 20 19 19 20 19 20 23 24 22 22 23 23 23 23 23 23 23 24 23 21 20 20 21 22 21 21 21 22 22 22 24 26 29 33 35 37 38
11 9 9 10 9 11 11 9 7 6 5 9 10 9 12 15 11 8 8 9 10 10 8 7 4 9 15 16 16 17 17 18 20 22 21 20 21 22 21 21 21 21 21 22 21 20 18 18 18 19 19 19 19 19 19 19 20 21 23 27 31 34 36
10 9 9 10 9 10 10 10 7 4 5 8 10 10 11 13 12 11 10 9 8 8 9 8 4 4 8 10 11 13 14 15 16 18 19 20 20 20 19 19 19 19 18 19 19 19 18 17 16 17 17 18 18 18 18 18 18 19 20 20 24 30 35
9 9 9 9 9 9 9 8 6 5 6 8 9 9 9 10 10 9 9 9 7 5 5 6 3 3 6 7 7 10 12 14 15 16 18 18 18 18 18 19 18 18 18 18 17 17 17 17 16 15 14 15 16 17 18 19 19 18 13 9 12 20 29
7 8 8 8 8 7 8 7 5 4 7 9 7 7 7 7 8 8 7 7 8 6 3 3 2 1 4 5 6 8 10 11 13 15 16 17 17 17 17 20 20 17 17 18 17 16 16 17 17 17 16 16 16 16 17 18 15 9 3 4 4 6 12
6 6 7 8 7 5 5 7 6 5 7 7 5 6 6 6 7 7 5 4 7 7 2 2 3 3 5 7 7 8 11 11 11 12 12 15 20 18 14 16 20 19 16 16 16 15 13 12 12 12 12 11 9 7 6 5 1 4 6 7 7 6 4
5 5 5 6 8 7 5 6 5 5 6 5 5 5 6 5 6 6 5 4 4 4 2 2 4 5 7 6 2 3 8 10 11 14 13 11 17 18 10 10 12 13 11 11 9 7 6 4 3 2 1 0 3 6 5 5 6 7 8 10 11 10 8
4 5 5 4 6 7 7 7 6 5 5 4 4 4 5 5 6 6 6 6 5 3 3 4 4 5 7 7 10 10 8 6 5 7 9 6 8 9 10 14 13 11 10 10 7 5 4 4 4 4 3 3 5 5 5 5 7 9 11 12 13 13 13
3 4 5 5 4 4 4 5 6 7 7 6 6 6 5 6 7 7 6 6 5 4 4 6 9 11 10 9 11 13 13 14 16 13 11 14 15 12 11 12 14 14 14 12 10 8 7 6 6 6 6 7 7 6 6 7 8 9 10 11 13 13 13

ECMWFFLT1_925_spd_039.txt.gz
Wind_Speed
20 19 18 16 16 17 18 18 18 21 25 29 32 33 33 35 38 37 38 41 42 41 42 42 40 40 42 42 41 40 39 38 37 36 35 35 34 34 35 35 33 32 32 32 32 33 32 30 30 30 30 29 27 26 25 25 25 24 22 21 20 20 20
19 18 18 17 16 17 18 19 19 22 25 28 32 33 33 34 36 38 38 41 43 42 43 44 43 41 42 43 42 41 41 40 39 37 35 35 35 34 34 35 35 34 32 32 31 31 31 31 30 29 30 29 29 28 26 25 25 25 24 23 21 21 21
19 19 19 18 17 17 19 18 19 23 27 29 32 34 34 36 36 37 38 40 42 41 41 43 43 43 43 43 43 42 42 41 40 39 38 37 36 35 34 34 35 35 33 32 30 29 30 30 30 29 30 30 30 29 29 26 26 25 25 24 23 23 23
21 21 20 19 19 18 18 19 19 23 29 32 35 38 38 37 35 35 36 38 40 40 41 43 43 43 42 43 43 42 42 42 41 41 40 39 38 37 35 33 34 35 34 33 31 30 29 29 29 29 30 31 31 31 30 29 27 27 27 26 26 25 25
21 19 17 17 17 16 16 18 19 23 28 33 36 37 37 36 33 33 35 37 40 41 42 42 41 41 40 40 41 41 42 44 43 42 41 39 39 37 36 34 33 33 33 33 32 31 30 30 30 30 31 32 32 32 32 31 30 29 29 28 28 28 27
18 17 16 15 16 16 17 18 20 25 30 32 34 35 35 36 35 35 36 37 39 40 40 40 39 38 38 38 39 39 41 43 43 42 41 40 39 38 38 37 35 33 33 33 33 32 31 33 33 33 33 34 34 33 33 32 32 31 31 31 30 30 30
18 16 16 16 16 16 17 17 19 26 31 32 33 34 35 36 36 36 36 37 38 39 39 40 40 39 39 38 39 39 40 41 42 41 41 40 40 39 39 38 37 35 34 33 34 34 32 33 34 35 35 34 35 35 34 34 34 33 32 32 32 31 31
21 19 18 18 17 17 16 16 18 23 27 29 30 32 35 36 35 35 36 37 38 39 39 41 41 41 41 40 40 41 41 41 41 41 40 40 40 40 39 38 38 37 36 34 34 35 35 33 33 35 36 35 35 35 35 35 35 34 34 34 34 33 32
20 20 19 20 19 17 16 16 17 20 24 26 28 31 35 36 35 36 38 38 38 38 39 40 41 42 41 40 40 42 41 40 40 40 40 40 39 39 39 39 39 38 37 36 35 35 36 36 34 34 36 37 36 35 35 36 36 36 35 35 35 35 34
18 18 19 19 17 16 16 15 16 16 18 22 25 28 31 34 35 35 36 36 36 38 39 40 40 41 41 41 41 41 40 39 39 40 40 40 39 39 38 38 38 38 38 38 36 35 35 36 36 34 34 36 37 37 37 37 37 37 37 37 37 37 36
17 17 18 18 16 16 16 15 15 15 15 18 23 27 29 31 32 32 33 34 34 35 37 39 39 40 41 41 41 41 40 40 40 40 41 41 40 39 39 38 37 38 39 38 37 36 36 36 37 36 35 36 38 39 39 39 38 39 39 39 38 38 38
18 17 18 20 18 16 16 15 15 16 15 17 22 26 27 28 30 30 31 32 32 33 35 37 38 39 40 41 41 40 41 41 41 41 41 42 41 40 39 38 38 38 39 39 38 37 36 36 37 38 39 39 39 39 41 40 40 40 40 40 39 38 39
16 16 18 19 18 17 17 16 16 17 17 18 23 26 28 29 30 30 30 32 32 33 34 35 37 38 39 40 40 40 41 41 41 41 42 42 42 41 40 39 39 38 39 40 39 37 37 37 38 39 40 41 41 40 40 41 41 41 40 40 39 39 39
15 15 15 16 17 19 19 17 17 17 16 17 22 25 28 30 33 32 31 33 34 34 34 35 36 37 38 38 39 40 41 41 42 42 42 43 42 41 41 40 40 39 39 39 40 39 39 38 39 40 41 42 42 42 41 40 41 41 41 41 40 39 40
17 14 11 12 16 18 17 16 15 15 15 16 20 23 25 28 31 32 31 33 35 35 35 36 37 37 37 38 39 41 42 42 42 43 42 42 42 42 41 41 41 40 39 39 40 41 41 40 39 40 41 41 42 42 41 40 41 41 42 42 41 40 40
15 13 11 11 13 14 14 14 14 13 13 13 16 19 22 24 28 30 30 32 34 35 35 35 37 38 38 38 39 40 41 42 41 42 42 42 42 43 42 41 41 41 40 40 41 41 41 40 40 39 40 41 41 41 41 41 41 43 44 44 44 42 41
13 13 13 12 11 10 11 12 12 12 13 12 15 19 21 23 27 30 30 31 33 35 35 35 36 38 39 38 39 39 40 42 41 41 42 42 42 43 43 42 41 41 41 41 40 40 41 41 41 40 40 41 41 41 41 42 42 43 45 46 45 44 42
10 11 11 11 11 11 11 11 11 12 13 13 17 21 23 23 25 28 30 30 31 33 35 35 34 37 39 38 38 39 40 40 41 40 41 42 42 42 43 43 41 41 41 40 40 40 40 41 42 41 40 40 41 41 41 43 44 44 45 46 47 47 45
9 9 9 9 9 9 9 10 10 11 12 14 17 20 23 24 25 27 29 30 30 31 33 34 32 33 37 38 38 39 40 40 40 40 40 41 42 41 41 41 41 41 41 41 40 39 40 41 42 41 40 39 40 42 42 43 45 46 46 46 47 48 47
9 10 10 10 9 8 7 7 6 6 8 11 14 16 19 21 21 24 29 30 31 31 32 33 32 31 33 37 38 39 40 41 41 41 40 40 41 40 39 40 41 41 40 39 39 39 40 41 41 41 41 41 40 41 43 44 45 46 47 48 48 48 49
11 12 11 11 11 10 9 9 8 8 8 8 6 6 12 16 18 19 23 26 29 31 31 32 32 30 31 35 37 38 39 41 41 41 40 39 39 39 39 39 39 39 38 38 39 41 40 40 40 41 42 42 42 40 41 43 44 45 46 47 47 47 48
13 13 12 11 10 9 9 10 10 8 9 10 9 6 1 8 16 18 20 22 24 26 28 30 31 30 30 33 36 37 38 40 40 39 39 39 38 39 38 38 37 37 37 37 37 38 38 38 39 40 41 42 42 41 41 42 42 42 44 45 45 45 46
13 13 12 11 11 10 11 12 12 12 11 12 11 10 10 6 6 11 14 20 23 22 23 25 28 30 29 30 35 36 37 38 39 38 38 38 38 38 38 37 37 36 36 35 34 34 36 37 38 39 39 39 40 42 43 41 39 38 39 40 41 43 44
12 11 10 10 10 10 13 13 12 11 11 12 12 12 12 12 8 5 4 10 19 23 22 21 24 27 27 28 32 35 35 36 38 38 37 37 37 37 36 36 36 35 35 35 35 34 34 35 35 36 37 37 39 41 42 39 35 33 34 35 37 40 42
12 11 11 12 11 10 13 14 13 13 14 14 14 13 13 13 11 8 8 6 8 16 22 24 24 24 25 25 28 32 34 35 36 37 37 37 37 36 35 35 34 34 34 35 35 34 33 32 32 33 35 36 37 38 38 36 33 31 31 31 32 35 39
11 11 11 14 15 16 17 18 16 15 15 15 15 15 14 15 13 10 9 9 7 7 14 23 27 26 24 24 25 29 34 34 35 36 36 36 35 34 34 33 32 32 33 33 33 32 32 31 31 32 33 34 34 34 34 34 33 32 31 30 29 31 35
12 13 13 15 18 19 18 18 17 15 14 15 16 16 15 16 15 13 11 8 7 7 8 14 24 28 26 25 25 27 31 33 34 35 35 34 34 32 32 32 31 31 31 30 30 30 30 31 31 30 30 30 31 31 31 31 31 30 30 30 29 29 31
12 13 15 15 18 19 17 14 13 12 12 14 14 15 15 17 17 15 10 7 8 8 9 7 18 28 28 26 26 27 29 31 32 33 33 33 32 31 30 29 29 29 29 29 28 28 29 30 30 29 28 27 28 29 30 31 30 29 28 29 30 31 33
9 10 12 12 14 16 16 12 10 9 8 11 10 12 14 16 15 11 5 8 11 9 8 5 10 25 29 28 27 27 29 30 30 31 31 30 30 30 28 28 28 28 28 28 27 27 27 28 28 28 27 26 26 26 27 29 29 29 29 29 31 33 35
8 8 9 11 13 13 13 13 14 9 7 11 10 11 14 15 13 11 10 11 12 10 9 9 2 14 24 27 26 27 28 28 29 29 29 28 29 28 26 26 27 27 27 28 27 26 25 25 26 26 25 25 25 24 23 24 25 28 30 31 33 34 36
9 9 10 11 12 13 12 14 16 7 9 12 12 11 12 14 13 13 13 12 12 11 9 11 8 4 16 22 23 24 26 27 27 28 28 27 27 27 26 25 25 25 26 26 26 25 23 23 23 24 23 23 23 23 22 20 19 19 22 26 31 33 34
8 9 10 10 10 11 12 15 14 6 12 12 11 11 12 12 12 13 13 12 12 11 9 10 10 4 11 16 18 20 23 25 25 25 26 27 27 27 27 26 25 24 24 24 25 24 23 22 22 22 21 21 21 22 22 21 19 16 15 17 22 27 31
7 8 8 10 11 9 10 13 10 8 11 10 10 10 11 11 12 12 11 11 11 10 8 8 9 7 8 12 15 17 19 22 23 23 24 25 26 26 26 26 25 24 23 23 23 22 22 21 20 19 19 19 20 21 22 22 19 13 9 8 9 11 15
7 8 8 10 13 11 8 9 8 8 9 8 9 9 9 9 10 12 11 10 10 9 7 5 6 7 8 9 10 13 16 18 21 23 22 23 23 23 23 24 24 24 23 23 23 22 21 21 20 18 17 16 17 19 18 14 11 7 4 2 1 1 0
7 9 9 9 13 12 10 9 7 7 8 8 8 9 9 8 7 10 12 10 10 10 7 3 2 5 7 7 6 8 12 13 15 18 21 23 22 18 17 19 23 23 21 20 21 22 21 20 19 18 15 11 8 9 11 10 9 7 6 5 4 3 2
6 9 10 9 9 10 12 12 9 7 6 5 5 7 9 9 8 9 11 12 11 11 9 5 6 9 11 11 9 5 8 9 9 11 16 21 20 14 12 11 13 15 14 12 12 14 15 14 13 13 13 12 10 9 10 12 10 7 5 5 4 3 2
5 6 8 9 9 8 9 11 11 10 8 6 5 5 7 11 12 10 11 12 12 12 10 11 13 15 16 15 15 12 10 9 7 7 11 16 18 19 20 19 17 15 15 14 12 12 13 13 13 12 10 10 11 12 12 11 10 9 8 7 6 4 3
3 5 5 6 8 9 8 8 9 10 11 11 12 11 12 15 17 15 12 13 13 12 13 14 15 16 16 16 17 17 17 18 17 16 18 20 21 23 25 26 26 25 23 21 19 18 17 17 16 15 13 12 11 12 13 13 13 13 12 12 10 9 7

ECMWFFLT1_925_spd_042.txt.gz
Wind_Speed
19 18 17 16 16 17 18 19 19 23 28 31 33 37 39 39 41 40 40 42 43 43 43 44 44 44 44 44 43 42 41 40 38 37 37 35 36 37 37 37 37 36 35 35 34 34 33 32 29 28 28 28 27 26 26 25 24 23 22 21 20 20 21
17 17 17 16 16 18 19 20 21 24 28 31 33 37 38 39 40 41 41 42 44 44 44 44 44 45 45 44 43 42 41 40 39 38 36 35 34 35 37 37 36 37 36 36 35 34 33 32 30 29 29 29 29 28 27 26 26 25 24 23 22 21 21
17 16 17 18 17 19 19 19 21 26 29 31 33 35 38 40 42 44 43 43 44 43 43 44 44 45 45 44 43 41 41 40 39 38 37 36 35 34 35 36 36 36 36 35 34 34 33 32 31 30 30 30 30 30 29 28 27 27 26 25 24 24 23
19 19 19 20 19 19 19 19 20 25 30 33 35 37 39 42 43 44 44 44 44 42 42 43 43 43 43 43 42 41 41 41 40 39 39 39 37 35 34 35 35 35 35 35 35 35 33 33 32 32 31 31 31 31 31 30 28 28 28 28 27 26 26
21 20 18 18 18 16 17 18 20 25 30 33 37 38 40 41 41 41 41 42 43 44 44 44 43 41 41 41 40 40 41 41 41 40 40 39 38 36 35 35 35 35 35 36 36 36 35 34 33 33 33 33 32 31 32 31 30 29 29 30 30 30 29
19 19 18 18 18 17 18 19 22 28 31 34 38 39 38 38 38 39 40 41 42 43 43 42 41 40 39 39 39 38 38 39 40 40 39 39 38 37 36 37 36 36 37 36 36 36 35 35 35 34 34 34 33 33 32 32 32 31 31 31 32 32 31
19 18 18 18 17 17 18 18 21 28 32 35 37 37 35 36 37 38 38 39 40 41 40 40 40 40 39 39 38 38 38 38 39 39 38 37 36 36 37 37 37 37 37 37 36 35 35 35 35 35 34 34 34 34 33 33 34 33 33 33 33 33 33
21 19 19 19 18 17 17 16 19 25 29 30 31 31 33 34 35 35 36 37 38 38 39 40 41 41 41 39 39 40 40 39 39 39 38 37 36 36 36 36 37 37 36 36 37 36 36 35 35 35 35 35 35 35 35 35 35 35 35 35 35 35 34
22 20 20 20 18 16 16 16 18 23 26 28 29 31 33 33 34 35 37 38 37 38 40 41 42 43 42 41 41 42 41 40 39 39 38 37 36 36 36 36 37 36 35 36 37 37 37 37 37 36 35 36 36 36 36 36 36 36 36 36 36 36 36
20 20 20 20 18 17 16 16 17 19 20 23 27 30 32 34 35 36 37 37 37 39 41 41 41 41 41 40 40 40 39 39 39 39 39 38 37 37 37 37 36 36 36 36 36 36 38 38 38 37 37 37 37 38 38 38 38 37 37 38 37 37 37
18 19 19 19 18 17 17 16 16 16 16 20 26 29 32 34 35 35 35 35 37 37 39 39 39 38 39 39 39 38 38 39 39 39 39 39 38 38 38 38 37 37 37 37 36 36 37 38 38 38 39 39 39 40 40 40 39 39 39 39 39 39 39
18 17 18 19 18 17 17 16 16 16 16 20 26 28 31 33 34 33 33 34 36 35 36 38 38 38 38 38 38 38 38 39 40 39 39 39 39 39 39 38 38 38 38 38 38 37 37 37 38 39 40 41 42 41 41 41 40 40 40 40 40 40 40
17 16 16 18 17 16 16 16 16 17 17 21 26 29 31 32 33 32 32 33 35 36 36 37 38 38 38 38 38 38 38 39 40 40 40 40 40 39 39 39 39 39 39 40 40 39 38 38 39 40 41 42 42 42 42 41 41 41 41 41 41 41 40
18 17 17 18 17 17 18 17 17 18 17 20 25 27 29 31 31 32 33 33 34 35 36 37 38 38 38 38 38 38 39 40 40 41 41 40 40 40 40 40 40 40 40 40 40 41 41 41 40 41 41 42 42 42 42 41 41 41 42 42 42 41 41
20 19 19 19 19 19 19 18 17 17 17 18 22 25 26 28 30 32 32 33 34 36 37 37 38 38 38 38 38 39 40 41 40 40 40 40 40 40 41 41 40 40 40 40 41 41 42 42 41 41 42 42 42 42 41 41 42 43 43 43 42 42 42
20 19 20 19 19 18 18 18 17 17 16 15 18 22 24 26 29 32 33 33 35 36 37 37 37 37 37 37 39 41 41 40 39 39 39 39 40 40 41 41 40 40 40 41 41 42 42 42 41 41 42 42 42 42 41 41 43 44 45 45 44 43 42
19 19 18 18 17 15 14 14 14 15 15 16 19 24 25 26 29 31 32 32 33 35 36 36 36 36 36 37 38 39 39 39 38 38 38 39 39 40 41 41 41 40 41 41 41 42 42 42 41 42 43 42 42 42 42 43 44 45 46 47 46 45 42
17 18 18 17 16 15 14 14 14 15 16 17 21 25 27 27 28 29 30 31 32 33 34 35 35 35 36 37 38 38 37 38 38 37 38 38 39 39 40 40 40 40 40 41 41 41 41 42 42 43 43 42 42 43 43 45 45 46 47 47 48 47 44
11 11 11 12 13 13 13 12 12 14 16 17 22 26 29 30 29 29 31 32 32 32 33 34 34 35 36 37 37 38 38 38 38 38 38 38 39 39 39 39 39 40 40 40 41 40 40 41 43 43 43 42 42 43 44 45 46 47 47 48 48 48 47
10 9 9 8 8 7 7 7 7 8 11 16 21 25 28 30 31 32 33 33 33 33 33 33 33 34 35 36 37 37 38 39 38 38 38 39 39 39 38 39 40 40 40 39 39 40 41 41 42 43 43 43 43 43 43 45 46 46 47 48 48 48 47
12 13 12 11 10 9 8 8 8 8 8 11 16 18 21 25 28 30 31 31 32 32 32 33 32 33 34 35 36 37 38 38 38 38 38 39 39 39 39 40 40 40 39 38 38 40 41 41 41 42 43 44 44 43 43 44 45 45 46 48 48 47 46
12 13 12 11 11 9 8 9 11 11 13 13 12 11 13 18 23 25 27 29 30 30 32 32 32 32 32 34 36 37 37 38 37 37 38 38 38 39 39 39 40 40 40 39 39 39 39 39 40 41 41 42 42 42 43 44 43 43 44 45 45 45 44
12 13 13 11 12 13 13 16 17 17 18 20 19 15 10 8 15 21 24 27 29 30 30 31 31 32 32 33 36 37 38 38 38 37 38 38 38 38 38 39 40 40 40 39 39 38 39 40 40 40 40 40 40 41 42 42 40 39 40 40 40 41 42
13 13 12 12 13 16 18 20 20 20 22 23 21 19 16 12 8 10 13 16 21 25 27 28 30 31 32 33 35 37 39 40 40 39 38 38 39 39 39 39 40 40 40 40 39 39 40 40 40 39 39 39 40 41 41 40 37 35 35 35 35 38 41
13 13 14 15 16 16 18 20 21 22 24 23 21 19 16 14 12 10 7 4 7 14 20 25 28 31 32 33 34 37 39 41 41 41 40 40 40 40 40 40 40 40 40 40 40 40 40 39 38 38 39 39 39 39 39 37 35 33 32 31 31 34 38
12 12 13 17 19 20 21 22 21 20 20 20 19 19 17 14 12 11 9 6 3 3 9 15 22 28 33 34 34 36 39 40 41 42 42 42 41 40 40 40 39 39 38 38 38 38 37 37 37 37 38 38 38 37 37 36 34 32 31 30 30 32 34
12 14 15 17 21 22 21 21 20 18 18 19 19 19 18 14 12 12 9 6 6 4 2 5 10 19 28 32 34 36 37 38 40 41 42 42 42 40 40 39 37 37 37 37 36 36 35 35 35 35 35 35 35 36 36 34 32 31 31 31 31 31 32
12 14 16 19 22 21 19 18 18 17 18 19 19 19 18 16 14 12 10 9 9 9 7 7 7 11 21 28 31 33 35 36 38 38 39 39 40 38 37 37 36 36 36 35 34 34 34 34 33 33 32 32 32 33 33 32 31 31 31 31 32 32 33
9 10 12 14 17 18 17 16 15 14 16 18 18 18 18 17 16 13 12 12 13 11 8 8 8 8 16 25 28 29 32 34 34 36 36 36 37 37 35 35 35 34 34 33 32 31 31 31 31 30 29 28 28 28 28 28 28 29 30 31 31 32 33
9 9 9 11 13 16 16 14 12 14 17 19 19 18 18 17 16 14 14 14 15 13 10 10 9 7 12 21 26 27 28 30 32 33 34 34 35 35 33 33 33 32 32 32 31 29 28 28 28 27 25 25 24 24 23 23 23 25 28 29 30 31 32
9 10 11 13 16 17 17 16 15 16 18 19 19 17 17 17 16 15 15 16 16 14 13 12 10 6 10 17 22 24 25 27 29 30 31 32 33 33 31 30 30 29 28 29 29 28 26 24 25 24 23 22 22 22 22 21 21 22 24 27 29 30 30
9 10 12 13 15 17 17 18 18 17 16 18 18 16 15 15 15 15 16 15 15 14 13 13 11 7 8 14 18 20 22 23 25 27 28 29 30 31 30 30 29 28 27 27 27 25 24 23 23 22 22 21 21 21 22 23 23 23 24 25 27 29 31
9 9 11 13 15 17 17 15 14 14 14 15 16 15 14 13 13 14 15 15 14 14 12 11 12 8 7 14 16 18 21 23 24 25 25 26 27 27 27 29 29 27 26 25 24 23 22 21 21 21 20 20 20 21 23 23 22 21 21 20 21 23 26
8 10 13 16 18 20 18 14 12 12 12 13 14 14 14 14 14 14 15 14 13 12 10 10 10 7 4 13 17 19 22 24 25 25 24 23 22 21 21 23 25 25 25 26 25 23 22 21 21 22 22 21 22 22 20 19 19 18 17 15 14 13 14
8 10 13 15 17 18 17 15 13 13 13 13 13 14 15 17 17 15 14 13 11 9 7 7 6 4 1 8 14 19 22 23 24 25 23 21 18 15 13 13 16 18 20 22 24 24 24 23 23 24 25 23 21 20 18 17 17 16 14 12 10 9 9
7 10 12 15 17 17 17 16 15 16 16 15 14 14 15 17 18 16 14 13 10 6 4 2 1 3 4 5 9 13 17 20 22 23 23 22 21 18 14 9 8 10 12 14 17 20 22 22 22 22 22 21 18 17 18 18 17 14 12 10 9 8 7
7 9 12 14 15 14 14 15 16 17 17 16 15 15 15 17 18 17 14 12 9 6 3 4 5 5 6 6 7 10 13 17 19 20 21 23 23 21 20 18 16 12 9 7 8 11 14 16 17 16 16 16 15 15 15 15 15 14 11 9 8 6 6
10 10 11 12 13 12 11 12 13 15 15 16 16 17 16 17 19 17 12 10 9 7 5 6 8 8 8 7 7 9 12 15 17 19 22 22 22 23 24 25 25 23 20 17 13 11 11 11 12 14 13 12 13 17 19 18 15 13 10 9 8 7 7

ECMWFFLT1_925_spd_045.txt.gz
Wind_Speed
18 18 17 16 16 17 18 18 19 22 27 30 32 34 36 37 38 38 38 40 42 42 42 42 42 42 42 43 43 42 41 39 38 36 35 35 35 34 34 34 34 35 34 34 33 32 32 32 31 29 27 25 24 23 23 23 23 22 21 20 19 18 18
16 16 17 16 16 17 18 18 19 23 27 30 32 35 36 37 38 39 39 41 43 43 44 44 43 42 43 43 42 41 41 40 39 38 36 35 34 34 34 35 35 35 36 36 35 33 31 31 31 30 28 27 25 24 24 24 23 23 22 21 20 20 19
15 15 16 17 17 18 18 18 20 24 28 30 32 35 37 39 41 42 41 41 43 43 43 44 44 43 44 43 41 41 41 40 39 39 37 37 36 35 34 34 34 34 35 36 35 34 32 31 31 30 29 28 27 26 25 24 24 24 23 23 22 22 22
17 17 17 18 19 19 18 17 18 23 28 31 35 37 39 41 42 42 42 42 43 42 42 44 44 44 44 43 41 41 40 40 40 39 39 38 37 35 34 34 34 34 33 34 35 35 33 32 31 31 30 29 28 27 26 26 25 25 24 24 24 24 24
19 19 17 17 17 16 16 15 17 23 28 32 35 37 39 40 40 40 40 41 42 43 43 43 43 42 42 42 41 40 40 40 40 39 39 38 36 35 34 35 35 34 34 34 35 35 34 33 32 31 31 30 30 29 28 27 27 27 26 26 26 26 26
19 18 17 16 16 16 17 17 20 26 30 32 35 37 37 38 38 38 39 39 40 41 41 41 41 41 41 40 40 39 38 39 39 39 38 37 36 35 35 36 35 35 36 35 35 35 34 34 33 32 31 32 32 31 30 29 28 28 28 28 28 27 27
17 17 17 17 17 18 19 18 20 26 30 32 33 33 33 35 36 37 37 37 38 38 38 39 40 40 40 39 39 39 38 38 38 38 37 36 36 36 36 36 35 36 36 35 35 35 35 35 34 33 32 32 32 32 32 31 30 30 30 30 30 29 28
19 18 18 19 18 19 19 17 18 23 27 28 28 29 32 34 35 36 36 37 37 37 37 38 39 40 39 39 39 39 39 38 38 38 37 36 36 36 36 35 35 35 34 34 34 35 35 36 35 35 34 33 33 33 33 33 32 32 31 31 31 30 30
19 19 20 20 19 18 17 16 17 21 25 26 28 30 32 34 34 35 37 37 37 37 38 39 39 40 39 38 38 39 39 38 38 38 38 37 36 36 36 36 35 34 33 34 34 34 35 36 36 36 35 35 34 34 34 34 34 33 33 32 32 31 31
18 19 19 19 18 17 15 15 16 17 18 22 26 28 31 32 33 35 36 36 36 37 39 39 39 39 38 38 38 38 38 38 38 38 38 37 37 37 37 36 35 34 34 34 34 33 35 35 35 36 36 35 36 36 36 36 35 35 34 34 33 32 33
16 18 18 18 17 15 15 15 16 15 15 20 25 28 30 32 33 34 35 36 37 38 39 39 38 38 38 38 38 37 37 38 37 37 37 37 37 37 37 36 35 34 35 35 34 34 34 34 35 35 36 36 37 37 38 37 37 36 36 35 35 34 34
15 16 16 17 17 16 16 16 17 17 16 20 25 27 29 31 32 33 34 36 38 37 37 38 38 38 38 37 37 36 36 37 37 37 37 37 37 37 37 36 35 35 35 36 36 36 35 34 35 35 36 38 38 39 39 38 38 37 37 37 36 35 35
14 14 15 16 16 16 17 17 18 19 17 20 25 28 30 31 32 33 34 35 37 37 37 38 38 38 38 38 37 37 37 39 39 39 38 38 38 38 37 37 36 37 37 37 37 36 36 35 35 36 37 38 39 39 39 38 38 38 38 37 36 36 36
15 15 15 15 15 16 17 18 18 18 17 19 24 28 29 30 32 32 33 34 35 36 36 37 38 38 38 38 37 38 39 40 40 40 39 39 39 38 37 37 37 37 37 37 37 37 37 37 36 36 37 38 39 39 39 38 38 39 38 38 37 36 37
16 16 15 15 16 17 18 18 18 17 17 18 22 25 27 28 30 30 31 32 34 35 36 37 37 38 38 37 37 38 39 39 39 39 39 39 38 38 38 37 37 37 37 37 37 38 38 38 37 36 37 38 39 39 39 38 39 40 40 39 38 37 38
15 15 16 17 17 18 18 19 19 18 18 17 19 24 25 26 29 31 32 33 34 35 36 36 36 36 36 36 37 38 38 38 38 38 38 38 38 39 38 37 36 36 37 37 38 38 38 38 37 37 37 38 38 39 39 39 40 41 41 41 40 39 38
15 16 17 18 18 18 18 18 17 16 17 17 20 24 26 27 30 31 31 32 34 35 36 36 36 35 35 35 36 36 36 36 36 36 36 37 38 38 38 37 37 37 37 37 38 38 38 37 37 38 39 38 38 39 39 40 41 42 43 43 42 41 39
16 16 16 17 17 17 17 16 15 16 17 17 21 26 28 28 29 29 31 33 34 34 34 34 34 34 34 34 35 35 35 35 35 35 35 36 37 37 37 37 37 37 37 37 38 38 37 37 38 39 39 38 39 39 40 41 42 42 43 43 43 43 41
15 16 16 17 17 17 17 15 16 18 18 19 24 29 31 31 31 32 34 34 33 32 32 32 32 32 33 34 36 35 35 35 35 35 36 36 37 37 37 37 37 37 38 38 37 37 37 38 38 39 39 38 39 40 40 41 42 42 43 43 44 44 43
11 12 12 12 13 13 14 13 13 15 18 22 26 29 30 31 31 31 31 30 30 31 31 31 31 32 33 35 36 35 36 36 36 36 37 37 37 37 37 37 38 38 39 38 37 37 38 38 38 39 39 39 40 40 40 41 42 42 42 43 44 43 42
6 9 9 9 10 10 10 10 10 11 15 21 24 24 25 27 27 26 26 28 30 31 31 31 32 33 34 35 35 35 36 36 36 36 36 37 37 37 37 37 38 38 39 38 38 39 40 39 39 39 40 40 40 40 40 42 42 41 42 43 43 42 41
6 9 8 8 10 10 9 11 12 13 15 19 22 23 23 25 25 25 26 28 29 30 31 31 31 33 33 34 34 35 36 36 36 36 36 37 37 36 37 37 38 39 39 38 39 40 39 39 40 40 41 41 40 39 40 42 41 41 41 42 41 40 40
8 10 10 10 11 12 14 17 18 19 20 20 20 22 24 24 25 25 25 26 27 28 29 29 30 32 33 33 34 35 36 37 37 37 37 37 36 36 37 38 39 39 39 38 38 38 38 39 40 40 40 40 39 40 41 41 40 40 40 40 38 38 38
10 10 11 11 13 15 18 21 22 22 24 22 17 18 23 26 26 25 23 23 24 25 25 26 28 30 32 33 35 36 37 38 38 38 38 37 37 37 38 38 39 40 40 39 39 39 39 39 38 39 39 40 41 41 41 40 40 39 39 38 37 36 36
11 11 10 13 16 17 19 24 25 25 25 23 17 14 20 26 28 26 24 24 24 24 24 25 28 30 32 34 36 38 39 39 39 39 38 38 38 38 39 40 40 40 40 39 39 39 38 37 36 37 38 39 40 40 39 39 39 38 38 38 37 36 36
10 10 9 12 16 19 22 25 25 24 22 20 17 17 19 21 22 20 18 20 22 22 23 25 28 30 32 33 35 37 38 38 39 39 38 38 39 39 40 40 40 39 38 37 37 37 35 35 35 35 37 37 37 37 38 38 37 37 37 37 37 37 36
10 11 11 12 14 19 23 24 25 23 21 20 21 21 22 23 20 16 13 12 10 8 9 13 19 24 27 29 31 34 36 37 38 39 39 39 40 39 39 39 38 38 37 36 35 34 34 34 34 34 35 35 35 35 36 36 36 37 37 36 36 36 36
11 12 13 13 15 18 20 21 22 23 22 23 25 23 22 24 22 17 15 14 10 7 4 2 5 11 19 26 30 32 34 36 36 37 38 39 38 37 36 37 37 37 36 35 33 32 32 32 32 32 32 32 32 33 33 34 34 35 36 36 36 36 36
10 9 10 12 13 16 19 18 19 21 22 24 25 23 22 22 20 17 15 13 11 9 7 5 3 2 8 19 28 32 33 35 37 37 37 38 38 37 36 36 35 35 34 33 31 30 30 30 30 29 28 28 29 30 31 32 33 33 34 35 35 35 36
10 9 9 10 12 16 19 18 18 20 22 23 24 22 20 20 18 16 15 12 10 9 7 6 5 5 4 10 21 29 33 35 36 37 37 38 38 37 35 33 32 32 32 31 30 28 27 27 28 27 26 25 26 27 29 31 31 32 33 33 33 33 34
10 10 11 12 14 17 19 18 18 20 20 21 22 21 19 18 18 16 13 11 10 8 8 7 7 7 7 6 12 23 29 31 33 36 37 37 37 36 34 32 29 28 28 29 28 27 25 25 25 25 24 24 24 24 26 27 28 30 31 31 31 32 32
10 12 12 13 14 16 18 18 18 18 18 19 20 21 20 18 17 15 12 10 9 8 8 9 9 9 10 9 8 15 22 26 29 31 33 34 34 34 34 33 30 28 27 27 27 26 25 24 24 24 23 23 22 23 24 24 25 27 28 28 28 29 30
9 10 11 12 12 14 16 15 14 14 14 15 18 20 20 18 17 15 12 10 9 7 7 9 9 9 11 11 8 11 17 23 26 27 28 28 29 30 30 30 29 27 26 25 24 23 22 22 22 21 21 21 21 22 23 24 25 25 25 25 25 26 27
8 9 11 13 14 14 14 13 12 13 13 13 15 19 19 18 17 15 13 12 10 8 7 8 7 7 9 10 7 8 15 19 21 23 23 22 23 23 22 23 24 24 24 25 24 23 22 22 22 22 22 22 22 22 22 23 24 24 24 24 23 23 24
7 9 11 13 13 14 14 13 13 13 13 12 15 19 20 19 18 17 15 13 12 10 9 7 6 5 6 7 5 6 12 15 16 18 20 20 19 17 15 14 17 18 19 21 22 22 22 22 23 24 25 24 23 22 21 21 22 23 23 22 21 20 21
6 8 11 12 13 14 14 13 14 15 14 14 17 20 21 19 18 17 17 15 13 12 10 8 6 5 5 5 2 4 9 12 14 18 20 21 21 18 14 10 10 12 14 15 16 17 19 19 21 23 23 22 21 20 20 21 21 21 20 18 17 16 16
7 7 10 11 12 12 13 13 15 16 15 16 18 20 20 20 18 17 16 14 13 12 11 9 7 7 6 5 3 3 9 13 16 19 20 20 20 20 18 15 12 9 7 8 9 11 12 14 16 17 18 19 19 17 16 16 16 15 15 14 13 13 12
10 8 11 12 11 11 11 11 13 13 13 15 17 19 19 20 19 17 15 13 12 12 12 11 10 10 8 6 4 3 8 14 17 19 20 20 20 20 20 20 20 18 15 10 5 5 6 8 11 12 12 13 14 13 12 12 12 13 14 13 12 11 11

ECMWFFLT1_925_spd_048.txt.gz
Wind_Speed
15 16 15 14 14 16 17 18 20 23 27 29 31 34 36 36 37 37 37 39 40 39 39 39 39 39 39 40 40 39 38 37 36 36 35 34 34 33 32 32 32 32 31 31 31 30 29 27 26 25 26 26 26 24 22 20 20 19 20 20 19 18 17
14 14 14 14 14 17 17 17 20 24 26 29 31 34 36 37 38 38 38 39 40 40 40 40 40 40 40 40 39 39 38 38 37 36 35 34 34 34 34 34 33 33 32 32 32 31 29 28 27 26 25 26 26 25 24 22 21 20 20 20 20 19 19
15 15 15 15 15 17 16 16 20 26 28 30 32 34 37 38 40 40 39 39 40 39 39 40 41 40 40 40 38 38 39 38 37 37 36 36 35 35 34 34 34 33 32 32 32 31 31 29 28 28 26 26 26 26 25 24 22 21 21 21 21 21 20
16 17 17 18 18 17 15 15 19 24 29 32 35 36 38 39 40 40 40 40 40 39 39 40 40 40 40 39 38 38 39 39 38 38 38 37 36 34 33 33 33 33 33 33 33 32 31 30 30 29 28 27 27 27 27 26 24 23 22 22 22 22 21
16 17 16 16 16 14 14 15 18 23 28 31 35 36 38 39 39 39 39 40 41 41 41 41 40 39 39 38 38 38 38 39 39 39 38 37 35 33 33 33 33 34 34 33 33 32 32 31 31 30 30 29 28 28 28 27 26 25 24 24 24 23 22
14 15 15 16 15 14 15 17 21 27 31 32 34 35 35 36 37 38 39 39 39 40 40 40 40 39 39 38 37 36 36 38 38 38 38 36 35 34 34 34 34 34 34 34 33 33 32 32 32 32 32 31 30 29 29 29 28 27 26 25 25 24 23
13 14 15 16 16 16 17 18 22 29 32 31 31 31 32 35 36 38 38 38 39 39 38 39 40 39 38 38 37 36 36 37 38 38 38 36 36 36 36 35 34 34 33 33 33 32 32 32 32 33 32 32 31 30 30 30 29 28 28 27 26 25 24
14 14 16 17 17 17 18 18 20 25 28 28 28 30 33 36 36 36 37 38 38 38 39 40 39 39 39 38 37 37 37 37 38 38 37 36 36 36 35 35 34 34 33 32 33 32 33 33 33 33 32 32 31 31 31 31 30 29 29 28 28 26 26
15 15 16 17 17 17 16 17 18 21 25 28 30 32 34 35 35 36 38 38 38 38 39 40 40 40 39 38 38 38 37 37 37 37 37 36 36 36 36 35 34 33 33 32 32 32 33 34 34 33 33 32 32 31 31 31 30 30 30 29 29 28 27
14 15 16 16 16 15 14 13 14 16 19 24 28 30 32 33 34 35 36 37 37 38 39 40 39 40 39 38 38 37 37 36 36 37 37 37 37 37 37 36 34 33 33 33 32 32 33 34 33 33 33 33 33 32 32 31 31 30 30 30 29 29 28
12 13 14 15 15 14 13 13 13 14 16 21 26 29 31 34 34 35 36 37 38 37 38 39 38 38 39 38 37 37 36 37 36 36 37 38 38 38 38 36 34 33 33 33 33 33 33 33 33 33 33 34 34 34 34 33 32 31 31 31 30 29 29
11 12 13 15 16 14 14 15 16 16 16 21 26 28 30 33 34 34 35 36 37 37 37 38 37 37 38 37 37 37 37 37 37 37 38 38 38 38 37 36 35 34 34 33 34 33 33 33 33 33 34 35 35 35 35 34 33 33 32 32 31 30 30
11 12 13 15 14 14 15 15 17 18 18 21 27 29 30 32 33 34 34 35 37 37 37 37 37 37 37 37 37 36 37 38 38 38 38 38 38 38 37 36 35 35 34 34 34 33 33 33 33 34 35 36 36 36 36 35 34 34 33 32 32 31 31
12 14 14 14 13 14 16 17 18 18 18 21 26 28 29 30 32 33 34 35 36 36 36 36 37 37 37 37 37 37 38 39 39 39 39 39 38 38 37 37 36 36 35 34 34 34 35 34 34 34 34 35 36 36 36 35 35 35 34 33 33 33 33
14 16 16 15 15 16 17 17 17 18 18 20 24 26 27 28 30 31 32 34 35 36 37 37 37 37 37 36 37 38 39 39 38 38 38 37 37 38 37 37 36 36 35 35 35 35 35 35 34 34 34 35 36 36 35 35 35 36 35 35 34 34 34
15 16 16 16 17 17 18 18 18 19 18 18 21 25 26 27 30 32 33 34 35 36 37 37 37 37 36 36 37 38 38 38 37 37 37 37 37 37 37 36 36 36 36 36 36 35 35 35 34 34 35 35 35 35 35 35 36 37 37 36 36 35 34
14 15 16 17 18 17 18 18 17 17 17 18 21 26 28 29 31 33 33 33 35 36 36 37 36 36 36 36 37 37 36 36 36 35 36 37 37 36 36 36 35 35 36 36 36 36 35 34 34 35 36 35 35 35 35 36 37 37 37 37 37 36 34
12 14 15 16 17 17 17 17 16 18 18 19 22 27 29 29 30 30 31 33 35 35 35 35 35 35 36 36 35 35 35 35 35 34 35 36 36 36 36 35 35 35 35 36 36 36 35 35 35 36 36 35 35 35 35 36 38 38 38 38 37 36 35
10 12 15 16 17 17 17 16 16 19 19 21 26 30 32 32 32 33 34 35 34 34 34 35 34 34 35 34 34 35 35 35 34 34 35 36 36 36 35 35 35 36 36 36 36 36 36 36 37 37 36 36 36 36 37 37 37 38 38 38 38 37 36
8 9 10 13 15 15 16 15 15 17 21 26 30 32 33 34 32 31 31 31 32 33 33 33 32 33 34 34 34 35 35 35 35 36 36 36 37 36 36 36 37 37 37 36 36 35 36 36 37 38 38 37 38 38 37 38 39 39 38 39 39 38 37
7 8 8 9 11 13 13 14 13 14 19 25 27 27 29 29 28 27 28 30 31 32 32 32 32 32 33 33 34 35 35 35 36 36 36 37 37 36 37 37 37 37 37 36 36 36 37 37 38 38 38 38 38 38 38 40 40 39 39 39 38 37 36
4 8 9 9 11 12 12 14 16 17 20 24 26 27 27 27 28 28 29 30 31 31 32 32 32 32 33 34 34 35 36 36 36 36 37 37 36 36 36 36 37 37 37 36 36 36 37 37 37 37 38 38 38 37 38 40 40 39 40 40 38 36 35
5 4 8 7 8 9 11 14 18 20 23 25 27 28 28 28 29 29 28 28 28 29 30 30 31 32 33 33 34 35 36 36 37 37 37 36 35 35 36 36 37 38 37 36 35 35 36 36 36 37 37 37 37 37 38 39 39 39 40 39 37 36 35
8 2 6 9 10 11 13 17 20 22 25 25 25 26 28 29 30 29 27 27 28 28 28 29 30 31 32 33 34 35 37 37 38 37 36 36 35 35 36 36 37 38 37 36 36 37 37 37 36 36 37 37 37 37 38 39 38 37 38 38 37 36 35
10 7 5 8 12 14 17 21 23 24 25 25 24 26 29 30 30 28 26 26 28 28 27 28 30 31 33 34 35 36 37 37 38 38 36 36 36 37 38 38 38 38 37 36 36 37 37 36 35 35 36 37 37 37 37 37 37 36 37 37 36 36 35
11 9 8 8 11 16 21 23 23 22 22 24 26 29 31 32 30 27 25 26 27 26 27 30 33 34 35 35 35 35 36 36 37 37 37 37 38 38 38 38 37 36 35 35 35 35 34 34 34 34 35 35 35 35 36 36 36 37 38 37 36 36 35
12 12 12 12 12 15 19 19 19 18 18 22 27 30 32 32 28 25 24 25 25 25 28 32 33 34 34 33 32 33 34 35 36 37 37 38 39 38 37 36 36 34 34 34 34 33 32 32 32 32 33 33 33 33 34 34 35 37 37 36 36 35 35
14 15 15 17 17 16 16 17 17 17 15 17 24 29 31 30 25 22 23 22 21 23 26 29 31 32 32 32 31 31 33 34 35 36 37 37 37 35 35 35 35 34 33 33 32 31 31 31 30 30 30 30 30 31 31 32 33 35 35 35 35 35 35
12 12 13 16 17 17 16 16 16 17 17 16 19 24 28 28 23 20 21 19 18 20 21 23 26 28 29 30 30 31 32 33 34 35 36 36 36 35 35 35 34 33 32 31 31 30 30 30 29 27 27 27 28 29 30 30 31 32 34 34 34 34 35
12 12 11 13 17 18 18 16 15 18 20 20 20 21 25 26 24 21 20 18 18 19 19 19 21 23 25 28 30 31 32 33 34 36 37 37 36 35 34 33 32 31 31 31 29 28 27 27 26 25 25 25 26 27 28 30 31 32 33 33 33 33 34
13 12 12 14 17 19 19 17 17 20 21 21 22 22 22 25 25 22 18 16 16 18 18 18 18 18 19 23 28 33 34 34 35 36 38 38 37 35 34 32 30 29 29 29 28 27 25 25 24 24 24 24 24 25 27 29 30 31 31 31 31 31 32
12 13 13 14 15 16 18 18 18 19 19 19 20 22 21 22 23 20 16 14 15 15 15 15 14 13 13 14 19 26 32 33 33 34 35 36 34 33 34 33 31 29 28 27 27 26 25 24 23 22 22 22 23 24 26 28 29 30 30 29 29 30 30
10 11 13 13 13 14 16 16 14 14 16 17 17 19 20 19 19 17 14 13 13 12 13 12 11 10 10 9 10 15 22 29 31 30 29 29 28 28 28 28 28 27 26 25 25 24 23 23 22 21 21 22 23 25 26 26 27 28 28 28 28 28 29
8 9 12 14 14 14 14 13 12 12 13 13 13 16 18 18 17 15 13 12 11 10 10 9 8 7 7 7 9 11 15 21 25 25 23 22 21 21 20 21 22 24 25 26 26 25 24 23 23 23 24 24 24 24 23 23 25 27 27 27 28 28 28
9 9 12 13 13 13 13 11 11 12 11 10 12 15 16 16 16 15 14 12 10 9 9 8 6 5 3 3 6 9 12 16 19 20 20 19 18 17 15 15 17 20 21 23 25 25 25 25 25 27 27 26 25 23 22 22 25 27 27 27 26 25 26
8 10 11 12 13 13 13 11 11 11 11 10 13 15 16 15 15 15 15 14 11 9 9 8 7 5 3 3 4 7 11 13 15 18 20 20 19 17 13 11 11 14 16 17 18 20 22 23 24 25 25 25 24 24 23 24 24 24 23 23 23 23 23
8 8 9 11 12 12 12 12 12 12 11 11 13 15 16 16 15 14 14 13 12 10 9 8 8 7 6 5 7 10 13 16 18 20 20 20 20 20 18 15 12 11 11 12 13 15 17 19 20 21 21 21 22 23 22 21 20 18 17 18 19 20 19
11 9 10 11 12 11 11 11 12 11 10 10 12 14 16 16 15 13 13 12 11 11 11 10 10 9 7 7 10 14 17 19 21 21 20 20 20 21 22 21 19 16 12 10 11 13 15 16 17 17 16 17 18 18 17 16 14 12 12 12 14 14 13

ECMWFFLT1_925_spd_051.txt.gz
Wind_Speed
17 17 17 16 17 19 19 19 22 26 27 29 30 32 32 32 31 29 29 32 33 32 33 34 34 34 34 35 35 36 36 34 34 32 30 30 29 28 31 31 29 29 28 27 27 27 27 25 24 24 24 22 21 20 19 19 18 17 15 13 11 11 13
15 16 17 17 17 19 20 20 23 26 26 28 30 32 34 33 33 32 30 32 34 33 34 35 35 34 34 35 34 35 36 35 34 33 30 29 32 32 32 32 31 31 31 29 28 28 27 25 24 24 24 23 22 21 20 19 19 18 17 15 11 9 10
15 16 17 18 18 19 20 20 23 27 28 29 31 33 35 34 34 34 33 33 34 33 33 35 36 35 35 34 33 34 36 35 33 34 31 30 33 32 31 33 33 32 31 31 29 28 27 26 25 25 25 24 23 22 21 20 20 19 19 17 13 10 10
16 17 18 20 20 20 19 20 23 28 30 32 34 35 35 34 34 34 34 34 35 34 34 35 35 35 34 34 33 33 34 34 33 33 31 29 30 30 29 31 33 31 31 31 30 28 28 27 26 26 25 25 24 23 22 20 20 20 20 19 14 10 10
17 17 17 18 18 17 17 19 23 28 31 32 34 33 33 34 34 34 35 35 36 36 36 36 35 33 33 34 33 31 33 35 35 34 31 28 27 28 29 29 31 31 31 31 30 29 28 27 27 26 26 26 25 25 24 22 22 21 21 20 15 11 11
16 15 15 16 17 17 18 20 25 31 33 33 34 34 33 34 35 35 36 34 34 35 35 35 35 33 33 34 32 31 32 34 35 35 32 29 29 30 30 30 31 32 31 31 31 30 29 28 28 27 27 27 26 25 25 24 23 22 22 21 15 11 12
14 15 16 17 16 18 20 21 25 32 34 33 32 32 32 34 35 35 35 34 35 35 34 35 35 34 34 34 32 31 33 34 34 34 32 30 30 32 31 30 32 32 31 31 31 30 29 29 29 28 28 27 26 25 25 25 25 24 23 23 18 12 12
15 14 16 17 17 19 20 19 23 29 31 30 30 31 34 36 35 35 36 36 36 35 35 36 35 33 33 33 32 33 34 33 32 33 31 29 29 30 29 30 32 33 32 31 31 31 31 30 30 29 29 27 26 26 26 26 26 25 24 24 22 16 13
16 15 16 18 18 18 18 18 21 25 27 30 31 33 36 35 35 37 37 36 36 35 36 36 35 33 33 33 33 34 34 31 31 32 31 30 29 29 28 28 30 33 33 31 29 30 32 31 30 30 30 28 27 27 27 26 26 26 25 26 25 22 19
14 14 14 16 17 16 16 16 18 19 21 25 27 29 33 33 34 35 35 35 36 37 37 36 34 32 33 34 34 33 32 32 31 31 31 30 29 29 28 27 27 29 32 30 26 27 31 32 30 30 30 29 28 28 27 27 26 26 26 26 26 25 23
9 10 11 14 15 15 15 15 16 16 17 21 24 27 31 32 33 34 35 36 37 36 36 35 33 32 33 34 33 31 31 32 31 31 31 31 30 29 29 27 25 27 29 29 25 25 29 31 31 30 30 29 29 29 29 28 28 27 26 26 26 25 25
6 7 9 12 14 14 14 14 15 15 16 20 26 29 30 30 32 34 34 35 36 35 35 35 33 32 32 33 33 32 32 31 31 31 31 31 30 28 28 27 25 25 28 28 27 26 26 29 31 31 31 30 30 29 30 29 29 28 28 26 25 25 25
7 8 9 11 11 11 12 11 13 15 16 21 28 30 30 31 33 33 33 34 35 34 34 34 33 32 32 33 32 31 31 32 32 31 31 31 30 28 27 27 26 25 26 27 27 27 26 26 29 32 32 31 30 30 30 30 30 30 30 28 27 26 26
6 9 10 11 11 12 13 12 14 15 16 21 27 29 29 31 32 32 32 33 33 33 33 33 32 32 32 33 32 31 32 32 31 31 31 30 30 29 27 27 27 26 26 27 28 28 26 25 27 30 31 30 31 31 30 30 30 30 30 30 29 28 27
8 9 10 12 13 14 15 15 15 15 16 20 25 28 28 29 30 30 30 31 32 32 33 33 32 33 32 32 32 31 32 31 30 31 32 31 32 33 30 28 29 28 27 30 31 30 28 27 26 27 29 29 30 30 29 28 28 29 31 31 30 29 28
10 10 10 12 15 15 15 16 17 16 16 18 22 27 28 28 29 30 31 33 33 33 33 32 32 33 33 33 32 30 31 33 32 32 35 35 36 36 33 30 30 30 31 33 33 32 31 29 26 25 27 28 28 28 26 26 27 30 32 31 31 30 27
10 12 12 12 14 16 16 17 16 16 17 18 22 27 28 28 29 31 32 33 33 34 33 32 32 33 33 33 32 30 33 37 36 34 35 37 37 37 36 33 31 31 33 33 32 32 31 30 27 26 26 25 26 26 25 26 29 31 33 33 32 30 28
11 12 14 14 14 14 17 18 17 18 20 21 26 29 28 27 28 30 32 33 34 34 33 32 33 34 33 31 30 32 36 38 35 32 33 36 36 36 36 34 31 30 31 31 30 30 29 28 28 28 27 25 24 25 25 26 30 32 33 33 33 32 29
13 13 15 16 15 14 17 18 17 20 22 23 29 33 33 32 32 33 34 34 34 33 32 32 33 33 32 30 29 33 37 34 32 31 31 33 35 35 34 33 31 30 30 30 29 28 28 28 28 28 28 26 25 25 26 26 29 33 34 33 33 33 31
14 14 14 15 16 16 16 16 16 19 23 28 32 34 34 34 32 31 31 30 31 32 31 31 31 30 30 29 29 33 35 33 32 31 31 33 34 33 33 33 31 30 29 28 27 27 28 29 28 27 28 28 27 27 26 26 29 32 34 34 34 32 32
14 14 14 13 15 16 15 15 15 16 21 27 30 29 29 30 28 28 28 29 31 31 29 29 29 28 28 28 28 33 35 34 33 31 31 33 34 33 32 31 30 30 28 27 26 26 28 29 28 27 28 29 29 27 27 28 30 33 33 34 33 32 32
15 15 14 13 13 14 13 15 18 19 21 26 28 28 28 29 29 29 29 30 31 30 28 28 27 26 28 28 29 33 34 34 33 32 31 32 32 31 31 30 31 32 30 27 26 25 26 28 28 27 27 29 29 27 27 28 31 33 34 34 33 31 31
15 15 13 13 12 11 11 12 16 19 21 25 27 29 29 30 30 29 28 29 29 29 28 28 26 27 29 30 31 32 34 33 33 33 32 32 31 31 30 30 31 32 30 28 26 24 24 25 26 27 27 28 28 28 28 29 30 33 34 33 32 31 31
14 13 11 9 8 9 12 14 17 20 22 24 25 26 28 30 30 29 28 28 28 28 28 28 28 28 29 31 31 31 31 32 33 32 32 31 31 31 30 29 29 29 28 28 27 25 24 24 25 26 26 26 27 28 28 28 30 33 35 34 32 32 33
12 11 9 6 5 9 14 17 19 21 23 24 24 25 27 29 30 29 27 27 28 29 28 28 29 30 30 31 30 29 30 32 32 32 31 30 30 30 29 29 29 28 27 27 27 26 25 24 23 24 25 25 27 29 30 29 28 31 34 34 33 33 33
11 11 10 7 4 6 15 19 20 22 24 24 25 26 28 29 29 27 25 26 27 28 29 30 32 31 31 31 30 30 31 32 32 32 31 30 30 30 29 29 28 27 26 26 25 24 24 24 23 23 23 24 24 26 29 28 27 29 33 34 34 33 34
10 11 10 10 9 3 12 19 20 23 25 26 26 27 28 28 26 24 23 24 26 29 30 31 31 29 29 29 28 29 30 31 31 32 31 31 32 30 28 28 27 25 25 25 24 24 24 23 23 23 22 22 22 23 25 26 27 29 31 33 33 33 33
10 11 10 12 14 8 5 12 16 19 22 25 27 27 29 28 25 22 23 24 26 30 29 28 28 28 28 28 27 27 28 29 30 31 30 29 30 28 25 25 25 24 24 24 24 23 23 22 22 21 21 20 21 21 22 25 28 30 31 32 33 33 34
12 12 12 12 14 11 7 7 9 11 16 22 26 27 29 29 24 22 23 24 26 28 26 27 30 30 28 28 27 26 27 29 30 31 30 28 27 27 25 24 24 23 23 24 23 22 22 22 22 21 20 19 20 22 22 23 28 32 33 33 33 34 35
14 14 13 13 13 14 11 9 9 9 10 13 18 22 26 27 25 22 22 24 27 29 28 30 33 31 28 27 27 26 27 28 30 31 30 27 27 27 25 24 23 23 23 24 23 21 21 23 23 23 22 22 22 24 23 22 26 31 34 34 34 34 35
14 15 15 15 16 16 13 12 12 12 11 8 9 15 20 22 23 21 20 23 30 33 33 33 34 32 28 27 27 27 26 26 27 30 29 27 27 27 26 24 23 22 23 24 24 22 22 24 23 23 23 23 24 23 22 21 23 27 30 32 33 33 33
14 15 16 16 17 16 14 14 14 14 14 12 9 9 12 16 19 19 19 23 29 33 33 34 34 32 29 26 25 27 26 24 25 27 27 27 26 27 27 26 24 23 22 23 23 23 23 23 23 23 23 23 24 22 20 20 21 23 25 28 31 32 32
13 15 15 16 17 17 16 16 15 15 15 14 13 11 10 12 16 18 19 22 25 28 31 32 32 32 29 27 26 27 26 24 24 24 24 25 25 25 25 25 23 22 22 21 21 22 23 24 23 23 23 23 22 21 19 18 18 19 19 22 26 30 31
12 14 15 16 18 18 17 17 16 16 16 15 13 13 12 12 12 13 17 20 22 25 26 27 27 28 28 28 29 28 28 27 25 22 21 22 23 23 22 23 22 21 21 22 22 22 23 23 23 22 21 21 20 18 17 17 16 17 18 19 21 25 27
11 13 15 16 16 17 17 17 16 16 15 14 13 13 13 12 10 9 13 17 19 19 19 21 23 23 24 25 25 25 27 27 23 20 19 19 21 22 20 21 23 22 20 21 24 23 21 20 20 19 20 20 18 16 15 14 15 17 20 22 22 22 22
11 13 16 16 16 16 17 17 16 16 16 15 14 13 13 12 11 10 10 13 14 14 15 18 18 17 18 18 16 17 22 21 18 18 21 22 23 22 18 16 18 19 18 19 23 24 23 21 20 19 17 16 16 17 17 15 15 16 18 19 20 21 20
13 13 16 17 17 16 16 16 16 16 15 14 13 13 13 13 13 12 10 9 10 11 14 15 13 11 11 12 12 14 17 15 14 18 22 23 23 22 19 15 12 11 13 16 19 22 23 23 23 21 18 16 15 18 20 19 18 17 15 13 14 17 18
19 17 16 16 16 16 15 15 14 14 13 13 13 13 13 14 14 12 10 9 8 8 10 12 11 9 9 9 10 12 13 14 16 20 23 23 21 20 19 17 16 14 10 8 11 15 17 19 19 19 19 17 16 16 16 15 15 14 12 9 8 9 10

ECMWFFLT1_925_spd_054.txt.gz
Wind_Speed
16 16 16 15 16 18 19 20 23 26 28 29 31 32 32 31 30 30 29 31 32 31 31 30 29 28 28 28 27 25 24 23 22 22 21 21 20 20 19 19 19 19 18 17 17 16 16 15 14 14 14 15 15 14 13 13 12 11 10 10 9 9 9
15 15 16 16 17 18 20 21 24 26 28 30 31 32 33 32 32 31 30 31 32 32 31 31 30 29 28 28 27 27 26 25 24 22 21 21 20 20 20 19 19 19 19 18 16 15 15 15 15 15 14 15 15 15 14 13 13 12 11 11 10 9 9
14 14 16 16 17 18 20 21 24 27 29 30 31 32 34 34 33 33 31 31 32 32 31 31 31 30 28 28 28 28 27 26 25 24 23 22 22 21 20 20 19 19 19 18 16 15 15 15 15 15 15 14 14 15 15 14 14 13 12 12 11 10 10
14 15 15 17 18 19 19 20 23 27 30 32 33 34 35 35 34 33 31 31 33 33 33 32 32 30 29 29 28 28 28 27 26 26 25 23 22 21 20 20 20 19 18 18 18 16 15 15 15 15 15 14 14 14 15 14 14 13 13 13 12 11 10
18 16 15 16 17 17 18 19 23 28 30 32 34 34 35 35 33 32 32 31 32 34 34 33 31 30 29 29 28 27 28 29 27 26 26 23 21 21 21 21 20 20 20 19 18 17 16 16 15 15 15 15 14 14 14 15 14 14 14 14 13 12 11
18 18 16 15 16 17 18 20 24 30 32 32 34 34 34 35 34 34 33 32 32 32 32 32 32 31 31 30 28 27 27 29 28 27 26 24 22 21 21 22 21 20 20 19 18 18 18 17 16 15 15 15 15 15 15 15 15 14 14 14 14 13 12
16 16 16 16 15 17 19 20 24 30 32 31 32 32 32 34 34 34 32 32 33 33 33 34 33 32 31 31 29 28 28 29 30 28 26 24 24 23 22 22 22 21 20 19 18 18 18 18 18 17 16 15 15 15 15 15 15 15 14 14 14 14 13
15 15 16 17 17 17 19 19 22 27 29 29 30 31 32 33 33 33 33 33 33 33 33 34 34 33 32 31 30 30 30 29 29 28 27 25 25 24 23 22 22 21 20 19 19 19 18 18 18 18 17 17 16 16 15 15 15 15 15 15 15 15 14
15 15 15 16 17 17 17 18 20 24 26 28 30 32 33 33 33 34 35 34 33 34 34 34 34 33 32 31 31 31 30 29 28 28 28 27 26 26 25 23 23 22 21 20 19 19 19 19 18 18 18 18 17 17 16 16 16 16 15 15 15 16 15
16 16 16 16 16 15 15 16 17 19 21 25 28 30 31 32 32 33 34 33 33 35 35 34 33 33 32 32 31 31 30 29 29 28 28 28 27 27 26 24 23 23 23 22 21 19 19 19 19 18 18 18 18 18 18 17 17 16 16 16 16 16 16
11 13 13 14 14 14 15 15 15 16 18 23 27 29 30 32 32 32 33 34 34 34 35 34 33 33 33 32 32 31 31 30 30 29 30 29 28 27 27 25 24 23 23 23 22 21 20 20 20 19 19 19 19 19 19 18 18 17 17 16 16 16 16
5 7 8 9 10 12 13 13 15 16 17 22 27 29 30 31 32 32 33 34 34 33 33 34 33 33 32 32 32 32 32 31 30 30 30 30 29 27 27 26 25 24 23 23 23 23 21 20 20 21 21 21 20 20 20 19 19 18 18 17 16 16 16
3 5 6 7 9 10 12 12 15 17 18 23 27 29 29 31 32 32 32 34 33 32 33 33 33 33 32 32 32 32 33 32 31 31 30 29 28 27 26 26 26 25 23 23 23 24 23 22 21 22 22 22 21 20 20 19 19 19 18 18 17 17 16
3 5 7 9 10 12 14 14 15 17 19 22 26 27 28 29 30 30 31 32 33 32 32 33 33 33 33 32 32 32 33 33 31 30 30 28 27 27 26 26 26 25 23 22 23 24 23 23 22 22 22 22 21 21 20 19 19 19 19 19 18 18 17
3 3 5 8 11 13 15 15 16 17 19 21 25 27 27 27 28 29 29 30 31 32 32 32 33 33 32 32 32 32 32 31 30 29 29 28 27 27 26 26 26 25 24 23 23 23 23 23 22 21 21 21 21 21 20 20 20 20 20 20 19 19 19
7 5 3 3 8 12 15 16 17 18 18 19 23 27 27 26 28 30 30 31 32 33 33 33 33 33 33 32 32 31 31 30 29 28 28 28 28 28 27 26 25 25 25 24 23 22 22 22 22 22 21 21 21 21 21 21 21 22 24 23 21 20 19
11 10 9 7 5 7 11 15 16 17 18 19 24 28 28 28 29 31 31 31 32 33 33 33 34 34 33 32 31 30 30 30 29 29 29 29 28 28 27 26 25 25 25 24 23 23 22 22 23 22 21 21 21 21 21 21 22 24 27 27 26 22 19
13 12 11 10 9 8 9 12 15 18 19 22 26 30 30 29 29 30 31 32 33 34 34 33 33 34 33 31 29 29 30 30 29 29 29 29 28 28 28 26 25 25 25 25 24 23 22 22 23 23 22 21 21 21 22 22 23 26 28 29 29 27 23
15 14 14 13 11 11 11 11 13 16 20 23 27 31 33 32 31 31 33 33 33 33 34 33 33 32 31 30 29 30 30 30 29 29 29 29 29 28 27 27 26 26 25 25 23 23 22 23 22 22 22 22 21 21 21 21 22 26 29 29 29 29 27
15 16 16 15 14 13 12 12 13 15 20 25 29 32 34 33 32 31 30 30 31 32 32 32 31 30 30 30 30 30 30 29 29 29 28 28 28 27 28 28 28 26 25 24 23 23 23 23 22 22 23 23 22 22 21 21 22 25 28 29 29 28 29
16 17 17 16 16 15 14 14 15 16 20 25 29 30 31 31 30 29 28 29 31 32 32 31 29 28 29 30 30 29 30 30 29 28 27 28 28 28 28 28 27 26 25 23 23 23 23 23 23 23 23 23 23 22 22 22 23 24 26 28 28 27 27
17 19 19 17 17 17 16 16 18 19 21 24 26 28 29 31 31 30 30 30 31 31 31 30 29 28 28 29 29 29 30 30 29 28 27 27 28 28 28 27 27 26 25 24 23 22 22 22 22 23 23 23 23 23 23 22 23 26 27 27 27 25 26
18 21 21 19 19 20 21 21 22 23 22 23 25 27 29 30 31 30 29 29 29 30 30 29 28 28 29 30 30 29 30 30 29 29 28 27 28 28 27 27 26 26 25 24 23 22 22 22 22 22 23 24 24 24 23 23 24 26 28 28 27 26 26
20 22 21 19 19 22 23 21 20 21 22 23 26 28 29 29 30 29 29 29 29 29 30 30 29 29 29 30 30 29 29 29 29 28 28 27 28 28 27 26 25 25 25 25 24 23 22 22 21 22 23 24 25 25 24 23 23 26 29 29 29 28 28
22 23 23 21 20 21 22 19 16 18 20 22 26 28 29 30 30 29 28 28 29 29 29 29 30 30 30 30 29 28 28 28 28 28 27 27 27 26 26 25 24 24 24 24 24 23 23 22 21 21 22 23 24 25 25 24 23 25 29 30 30 31 30
23 24 21 20 20 20 20 17 14 15 18 22 25 27 29 30 30 29 28 28 28 28 29 29 30 30 28 28 28 27 27 27 28 28 28 27 26 25 24 24 23 23 24 23 23 22 22 22 22 21 21 21 22 23 25 24 23 25 28 30 31 32 32
26 24 19 19 18 17 17 14 12 15 18 21 24 26 29 30 28 27 27 27 27 28 29 28 28 27 26 26 27 27 27 27 28 28 28 26 26 24 24 24 23 23 23 22 22 22 22 22 22 21 20 20 21 21 23 24 24 25 27 30 31 32 32
24 20 16 16 14 12 13 11 12 15 17 21 25 27 28 29 28 26 27 27 28 29 28 26 26 26 25 26 27 26 26 27 27 27 26 25 25 24 24 23 23 22 22 22 21 21 21 21 20 19 19 19 19 20 21 22 24 25 27 30 31 32 33
19 15 12 12 10 9 9 7 8 15 17 20 24 26 28 28 26 25 26 28 28 27 25 24 25 26 26 26 26 26 26 26 26 25 25 24 25 25 24 23 22 22 21 21 20 20 20 20 19 19 18 18 19 19 19 20 23 25 27 29 30 30 32
18 13 10 10 10 7 5 3 3 8 15 19 22 23 25 26 25 24 25 26 25 24 24 24 25 25 25 25 26 25 25 24 25 25 24 24 24 24 23 23 22 21 21 21 20 19 20 20 20 20 20 19 19 20 21 21 22 23 26 29 30 30 30
18 13 10 11 13 10 3 1 2 0 6 14 18 20 21 23 23 22 22 22 23 24 24 23 24 24 24 24 25 24 23 23 24 24 23 23 24 23 23 23 22 21 21 21 22 21 20 20 21 20 20 20 20 20 20 21 21 21 23 25 27 29 29
18 14 13 13 15 16 9 2 4 3 4 6 10 14 16 18 19 19 18 19 22 24 23 22 23 23 22 23 23 23 23 22 22 22 23 23 23 23 23 23 22 22 22 22 22 21 20 20 21 21 20 19 20 20 19 19 19 19 19 20 22 24 27
17 13 14 15 15 17 16 11 5 3 5 7 6 6 9 12 14 16 17 18 21 22 21 21 22 22 21 22 22 22 22 22 21 21 22 22 23 21 22 22 22 21 22 22 21 21 20 20 20 21 20 19 19 19 18 18 18 18 16 16 17 20 23
15 11 14 17 18 18 17 14 12 8 6 6 6 6 7 8 8 11 13 15 19 20 19 19 20 20 20 21 20 20 21 21 21 20 20 21 22 20 20 21 22 21 21 21 20 20 20 20 20 20 20 19 18 17 17 17 17 16 16 15 14 15 18
16 12 15 18 18 20 18 15 15 14 12 10 7 6 8 10 10 8 8 9 12 15 16 16 17 17 18 19 19 18 19 20 20 20 19 19 19 17 16 17 20 20 19 19 21 22 21 21 20 20 19 18 17 16 17 15 14 13 14 14 13 13 13
17 13 17 19 19 21 21 19 18 17 16 15 13 11 11 11 10 8 6 5 7 10 13 14 14 15 16 17 17 17 18 19 20 20 19 18 18 19 16 13 15 17 15 15 19 23 22 21 19 18 18 15 12 12 13 11 9 10 12 14 15 14 14
18 14 16 18 20 20 20 20 20 19 18 17 17 16 15 14 13 11 8 4 3 8 12 13 13 14 15 15 16 15 15 17 18 19 20 17 17 20 18 13 12 14 13 12 15 19 21 20 18 17 16 14 10 10 10 10 9 9 10 12 13 14 15
21 17 16 18 19 20 19 19 19 18 18 19 18 16 17 16 15 14 11 8 4 3 9 12 13 14 14 14 14 13 13 14 14 15 18 16 14 17 17 15 13 11 9 9 12 15 18 19 18 17 17 15 12 11 11 11 10 10 10 10 11 12 14

ECMWFFLT1_925_spd_060.txt.gz
Wind_Speed
21 21 19 17 17 17 16 15 19 22 23 23 26 29 30 32 33 33 33 36 38 37 38 38 37 37 38 37 35 34 33 32 32 30 29 28 26 24 23 23 23 22 21 21 21 21 19 18 18 18 17 17 15 14 13 13 12 11 9 9 9 8 7
22 20 19 17 17 18 18 17 20 23 22 24 27 29 31 32 32 33 34 36 38 37 38 39 38 38 38 38 36 35 34 32 32 31 29 28 27 26 25 24 23 24 23 21 21 22 21 20 20 20 19 18 17 16 15 14 14 12 11 10 11 10 9
21 19 20 19 17 18 18 19 22 24 22 22 25 28 30 30 32 34 34 36 38 37 37 38 38 37 38 38 36 35 35 33 32 32 30 29 29 27 26 25 24 24 24 22 21 21 21 21 21 21 21 20 18 18 17 16 15 14 12 12 11 11 10
22 21 21 21 20 19 18 18 21 24 22 22 26 32 35 33 32 35 35 35 38 38 37 37 37 36 36 37 37 36 36 34 33 33 30 28 29 28 26 26 25 24 24 24 22 20 21 22 23 23 22 21 20 19 19 17 16 16 14 13 12 11 11
23 21 20 20 20 19 18 18 21 25 25 25 28 31 35 34 30 31 34 35 38 40 38 37 36 34 35 36 35 35 37 37 34 33 31 29 29 29 28 27 26 25 24 24 24 22 22 23 24 24 24 23 21 21 20 19 18 17 17 15 14 13 12
20 18 17 19 19 18 19 20 24 29 30 30 30 28 30 30 27 29 33 34 37 38 37 36 35 35 35 35 34 34 36 37 35 33 32 30 29 29 29 28 27 26 25 25 25 24 23 24 25 25 25 24 22 21 21 21 19 19 18 18 16 14 13
15 18 18 19 19 20 20 21 25 31 31 32 31 28 29 31 29 29 31 32 36 38 37 37 36 35 35 35 34 34 35 36 36 34 32 31 30 30 29 29 28 27 26 25 26 26 24 25 26 26 25 25 23 23 22 22 21 20 20 20 18 17 15
11 15 21 21 20 20 20 18 22 28 30 31 29 27 31 34 33 31 31 32 34 36 38 38 37 36 36 36 35 35 35 35 36 35 33 31 31 30 30 30 30 28 27 26 26 26 26 26 26 26 26 25 25 24 24 24 24 22 21 21 20 19 17
12 11 18 23 20 19 18 17 20 25 27 29 28 28 32 34 33 33 33 33 33 36 38 38 37 37 37 36 36 36 36 35 35 35 34 32 31 31 30 30 30 29 28 27 26 27 27 27 27 27 27 26 26 26 25 25 26 23 22 22 22 21 19
14 12 15 21 21 18 18 19 20 20 21 24 25 27 31 32 31 32 33 31 32 36 38 38 37 37 36 36 36 36 36 36 35 34 34 33 32 32 31 29 29 29 29 28 26 27 28 28 28 28 28 28 27 27 26 26 27 26 24 24 24 23 22
9 13 16 18 20 20 20 20 17 15 16 21 25 28 31 32 32 33 34 35 35 37 38 37 35 36 37 37 36 36 36 36 35 35 35 34 33 32 32 30 29 29 30 29 27 27 28 29 29 29 29 29 28 28 28 27 28 28 26 25 25 25 24
3 8 15 15 16 19 19 17 16 15 16 20 25 28 30 33 35 35 35 35 35 36 37 36 36 36 36 36 36 37 37 37 36 36 36 36 34 33 33 31 30 30 30 30 29 29 29 30 30 30 30 30 29 29 30 29 28 29 28 26 25 25 24
7 5 14 11 11 18 19 17 17 17 17 22 27 29 29 31 34 35 35 35 34 34 36 36 35 35 36 35 36 37 37 38 38 37 37 36 35 33 33 32 31 31 31 31 30 30 29 29 30 30 30 31 30 29 30 30 29 30 30 27 26 26 25
12 9 10 7 5 8 14 16 18 17 17 22 28 30 30 32 33 33 33 35 34 33 35 36 35 35 36 35 36 37 38 38 38 38 37 37 36 35 34 33 33 32 32 32 31 31 30 30 30 31 30 31 31 29 29 30 30 30 31 30 27 27 26
15 15 16 18 17 11 5 4 8 14 17 22 28 29 28 29 32 32 33 34 33 33 34 35 35 35 35 35 36 38 39 38 37 37 37 37 37 36 35 35 34 33 33 34 32 31 31 30 30 31 29 29 31 30 29 30 30 30 32 32 30 27 27
12 14 15 16 17 15 12 10 6 1 5 11 19 25 28 28 28 30 32 33 33 33 34 35 35 35 35 36 36 37 38 38 37 37 38 38 38 37 36 35 35 34 34 35 34 32 31 31 30 30 30 29 30 30 29 29 29 31 32 34 33 30 27
12 13 14 15 15 14 12 11 11 9 6 7 11 11 15 22 26 29 30 30 31 33 34 34 34 35 35 35 34 34 36 37 37 38 39 39 39 39 37 35 35 34 33 34 35 34 32 32 31 30 30 29 29 29 29 28 29 31 34 35 35 33 29
12 13 14 15 14 14 14 14 13 10 5 1 8 17 19 14 15 22 26 27 29 32 32 32 33 34 33 32 32 33 35 36 36 37 39 39 40 40 39 36 35 35 33 33 35 35 33 33 32 31 30 30 29 29 29 29 29 31 34 36 35 35 32
12 13 15 15 14 13 14 14 13 12 9 1 6 10 17 20 17 17 22 25 27 28 29 30 31 33 32 31 32 33 35 36 36 36 38 39 40 40 40 37 35 35 34 32 33 35 34 33 33 32 31 30 30 30 29 28 29 31 33 36 37 36 34
13 13 13 13 13 13 13 13 13 15 17 14 8 8 12 18 19 17 17 20 21 22 26 29 28 30 32 32 32 33 34 35 35 35 37 38 38 39 39 38 36 35 35 32 31 33 33 32 31 32 31 31 31 31 29 28 29 31 33 35 37 37 35
13 13 13 12 13 13 12 12 14 16 19 19 16 13 13 16 18 17 16 17 18 18 23 27 26 28 32 32 31 33 34 35 35 35 35 36 37 37 38 38 36 35 35 33 31 32 33 32 30 31 32 31 30 30 30 28 29 31 33 34 36 37 38
14 14 13 12 13 13 13 14 15 16 19 22 21 16 13 15 16 17 20 21 19 20 24 27 25 27 31 32 31 33 34 35 34 34 35 36 36 35 36 37 37 36 35 33 31 31 31 31 30 30 31 31 30 29 28 28 29 31 32 34 35 36 37
14 15 14 15 16 16 17 17 18 18 18 21 23 19 13 14 18 20 21 24 25 27 29 28 26 26 31 33 32 33 34 35 35 34 34 35 35 35 36 36 37 36 35 33 31 29 30 30 29 29 29 30 31 30 28 28 29 31 32 34 36 36 37
14 16 17 18 20 21 20 20 20 21 21 22 24 21 15 16 21 24 22 23 28 29 28 27 27 28 32 35 34 34 35 36 35 35 34 35 35 35 35 35 35 35 35 33 31 29 29 30 29 29 29 30 31 31 29 28 28 30 32 33 36 37 38
15 18 20 21 22 22 23 24 24 24 23 22 24 22 19 20 24 26 24 24 29 28 25 27 30 30 32 35 35 34 34 34 35 35 34 35 35 34 34 35 34 34 34 33 31 29 28 29 28 28 29 29 30 31 31 29 29 30 31 32 35 37 38
16 18 21 22 23 24 26 25 24 24 23 23 24 23 19 20 23 25 25 25 28 28 28 32 35 34 32 34 33 32 33 34 35 35 34 34 34 32 32 33 32 32 33 32 31 29 28 28 28 27 28 28 29 31 32 31 30 31 31 31 33 36 37
19 21 23 24 25 26 26 25 24 25 24 26 27 25 21 20 22 23 23 23 26 30 33 35 36 34 31 32 33 33 34 34 34 34 34 34 33 32 31 32 31 32 33 31 30 30 29 28 28 27 26 27 28 29 31 31 31 32 32 33 34 35 36
19 21 24 26 27 27 26 26 27 27 27 28 28 26 23 21 21 22 22 21 24 33 36 33 33 32 31 32 34 33 33 34 34 34 34 33 34 33 32 33 32 32 33 32 30 31 31 29 28 27 26 26 27 27 29 31 32 32 32 33 35 36 37
18 20 23 27 28 29 29 28 28 29 29 28 27 26 26 23 20 21 21 21 25 34 35 29 30 32 31 31 33 32 31 33 34 34 33 33 34 34 32 33 33 32 33 33 31 30 31 30 28 26 25 25 26 27 27 28 31 33 33 33 35 38 40
19 21 25 27 29 30 30 28 28 31 32 29 28 28 27 25 21 19 20 23 27 32 31 27 30 32 30 31 33 31 30 31 32 33 32 31 33 33 32 33 33 32 32 33 31 28 29 29 28 26 24 23 24 25 26 27 29 34 36 35 35 37 40
19 22 24 27 29 31 31 30 30 32 32 30 31 28 23 23 23 18 19 23 27 30 28 27 30 31 30 31 32 30 30 30 31 31 31 31 32 32 32 32 32 31 31 31 30 28 27 27 28 27 25 24 23 23 25 26 27 31 35 36 35 36 38
20 23 25 27 29 32 33 32 30 31 30 30 29 24 17 22 24 21 19 20 25 29 27 26 30 31 29 30 30 30 30 30 30 31 31 31 32 32 31 32 31 30 30 30 29 28 27 26 27 27 26 25 23 23 24 25 25 28 31 34 35 36 37
17 21 23 25 29 32 32 30 28 29 30 29 26 20 17 21 23 19 21 21 24 29 27 26 29 29 28 29 29 29 29 30 30 31 31 31 32 31 31 32 31 30 29 29 29 27 27 27 26 26 25 25 25 24 24 25 25 26 29 34 36 37 38
16 21 23 26 30 31 31 29 28 29 30 28 23 19 16 18 19 12 16 21 24 27 26 25 28 28 27 28 29 28 28 30 31 31 31 31 32 32 32 32 32 30 30 32 31 29 28 28 27 27 26 26 26 25 24 25 25 26 29 34 37 39 39
17 20 22 26 29 31 31 30 29 30 31 27 21 17 14 14 16 9 7 16 21 24 23 23 26 28 27 27 28 28 28 30 31 31 30 31 31 31 31 32 32 30 29 31 32 32 30 29 29 29 28 26 27 26 25 25 27 29 31 34 36 38 39
19 20 23 26 29 31 32 31 30 31 31 25 18 13 10 10 12 9 1 6 12 17 20 21 24 26 26 26 28 28 28 29 31 31 31 30 30 29 27 27 28 28 29 30 32 32 32 30 29 29 29 26 26 28 28 28 29 29 28 29 31 34 37
18 20 24 27 28 29 31 32 31 29 28 22 14 8 7 8 9 8 3 2 4 8 14 20 22 23 24 26 28 30 31 30 30 33 32 29 30 31 28 24 22 22 25 29 31 30 30 29 28 28 28 27 27 29 29 27 26 27 27 27 26 29 33
19 21 23 26 28 27 28 29 27 25 25 21 12 6 5 7 8 9 5 1 2 6 10 17 22 23 25 27 28 30 33 32 30 32 31 28 29 32 31 27 23 18 17 22 28 28 26 26 25 26 27 28 26 27 29 27 24 24 25 25 22 23 27

ECMWFFLT1_925_spd_063.txt.gz
Wind_Speed
19 19 17 14 15 15 15 16 19 24 28 29 32 33 34 36 38 37 38 41 42 41 41 40 39 41 42 41 41 40 40 39 37 36 34 33 33 33 30 29 28 28 27 27 25 23 23 23 22 22 21 20 20 18 16 15 15 15 14 12 14 14 11
18 18 17 15 15 16 17 19 21 24 27 29 33 35 34 36 38 38 39 41 43 43 42 42 40 41 43 42 41 40 41 40 39 38 37 35 33 33 33 32 31 30 29 28 27 24 23 23 23 23 22 21 21 21 19 18 17 17 16 15 15 14 12
18 18 19 18 17 17 17 19 22 25 27 27 31 35 35 36 38 39 40 41 43 43 43 42 41 41 42 42 42 41 41 41 40 39 38 37 35 33 34 34 33 33 31 30 29 26 25 24 24 24 24 23 22 22 21 20 20 19 18 18 18 17 15
21 20 20 19 19 18 17 18 21 27 29 29 32 36 38 38 38 39 39 41 43 42 42 43 42 41 41 41 41 41 42 41 41 41 40 39 37 35 33 34 34 34 33 31 30 29 27 26 26 26 26 24 23 23 23 22 21 22 20 18 18 19 18
20 19 18 17 17 16 16 16 21 27 30 31 33 36 38 38 37 37 37 40 43 43 44 44 42 40 39 40 41 41 42 43 42 42 41 40 39 36 34 34 35 34 34 32 31 30 29 28 28 28 28 27 25 23 24 24 23 22 22 20 18 19 18
17 16 15 15 15 16 16 17 22 29 32 32 33 35 37 38 37 36 36 39 42 43 42 42 41 40 40 40 40 40 41 42 42 42 41 40 39 38 37 36 36 35 34 34 32 31 30 31 31 30 30 29 28 25 25 26 25 23 23 23 21 19 18
17 16 16 16 16 16 16 17 22 29 33 33 33 34 35 37 37 36 36 38 41 42 42 42 42 42 41 41 40 40 40 41 42 42 41 40 40 40 40 38 37 36 35 35 34 32 31 31 32 32 32 31 29 28 26 27 27 25 24 25 23 21 20
20 18 17 16 16 16 16 16 20 26 30 31 31 32 34 36 37 36 35 36 39 40 42 43 43 43 42 41 40 40 41 42 42 41 41 40 40 40 41 40 39 38 36 35 35 35 33 33 34 34 33 33 31 29 29 29 29 27 26 26 26 24 22
22 20 19 18 17 17 16 16 21 26 27 28 29 31 34 35 36 36 34 35 38 40 41 42 42 43 43 42 42 42 41 41 42 42 41 40 40 41 41 41 40 39 37 36 36 36 36 34 35 36 35 35 33 31 30 30 30 29 28 28 27 27 26
20 20 20 19 18 17 15 15 18 20 22 25 27 29 33 35 35 36 34 33 36 39 42 42 42 41 41 41 42 42 41 40 41 42 42 42 41 41 41 41 40 39 38 37 36 36 37 36 35 37 37 36 35 34 32 32 31 31 30 30 29 29 28
16 21 20 20 18 15 15 15 15 15 18 23 26 28 32 34 34 36 36 35 35 37 40 41 39 39 40 41 41 40 40 41 41 42 43 43 42 41 41 40 39 39 38 38 36 36 38 37 36 37 38 38 37 36 34 34 33 33 33 31 30 30 30
6 11 12 19 21 18 17 16 15 15 18 23 26 28 31 33 34 36 36 37 36 35 37 39 39 38 37 38 39 40 41 41 41 42 44 44 43 42 41 40 39 39 38 39 37 36 37 39 37 37 39 39 38 37 36 35 35 35 34 33 32 31 31
14 12 9 3 9 12 14 15 17 18 19 23 26 28 30 32 34 35 35 37 38 36 35 37 38 37 36 37 38 39 41 42 43 43 44 45 44 42 41 40 39 39 39 39 39 37 37 39 39 38 39 40 39 38 38 37 37 37 36 35 33 32 31
19 20 19 16 14 11 6 1 7 12 16 22 27 29 30 31 32 33 34 35 36 35 35 36 37 37 36 36 37 39 41 42 43 43 43 43 43 42 41 41 40 40 40 40 40 39 38 39 40 39 39 40 40 39 38 38 38 38 37 36 34 33 32
19 19 20 19 18 16 15 14 10 5 2 9 15 21 25 27 30 31 32 34 34 34 34 34 35 36 36 35 37 40 41 42 41 41 41 41 42 42 42 42 41 40 40 40 41 40 38 38 40 40 39 39 40 39 38 38 38 38 38 38 36 34 33
17 18 19 18 15 14 14 15 15 13 8 7 7 6 7 10 14 17 19 22 26 29 33 35 35 35 35 37 39 39 39 39 40 40 40 41 42 43 42 42 41 40 40 41 41 40 39 38 39 40 39 39 39 38 38 38 38 39 39 38 38 36 33
17 17 17 16 14 14 14 13 13 14 11 8 10 11 10 8 9 13 12 10 12 15 18 25 33 36 35 35 36 37 37 37 39 40 40 42 43 44 43 42 42 41 40 41 41 41 39 38 38 40 40 39 39 38 38 38 38 39 39 39 39 37 35
17 16 16 16 14 13 13 12 11 11 13 13 10 9 8 7 5 12 17 19 18 15 13 18 21 27 34 35 33 34 36 38 38 39 40 41 42 44 44 42 42 41 40 40 41 41 39 38 38 40 40 39 39 39 38 38 37 39 40 40 40 39 37
16 15 15 15 15 15 13 11 10 9 12 15 14 11 7 4 1 6 11 16 21 25 21 18 22 21 22 27 32 36 36 37 38 38 39 40 42 42 42 41 41 41 41 41 41 41 40 38 37 39 39 39 39 39 39 39 38 38 39 41 41 41 39
14 15 15 14 14 15 12 12 14 16 15 16 18 21 20 11 7 8 11 13 17 24 28 26 23 20 21 23 28 35 38 37 38 38 38 39 40 40 40 40 41 41 41 40 40 41 41 40 37 37 39 40 39 38 38 39 39 39 39 40 41 41 41
13 14 14 14 14 13 12 15 19 22 23 23 22 24 24 18 11 11 15 18 21 25 26 26 28 29 28 28 31 35 39 39 39 39 38 38 39 39 40 40 40 40 40 38 39 41 42 42 39 37 38 39 39 38 37 38 39 40 40 40 40 41 41
13 14 14 14 14 14 15 18 20 22 24 24 23 21 23 21 15 10 13 18 22 27 29 28 30 33 36 37 36 37 41 42 40 40 39 38 38 38 39 40 39 39 39 37 37 39 40 41 40 39 38 38 39 39 38 37 39 40 40 40 40 40 41
13 13 14 17 18 19 21 22 23 24 24 24 24 23 23 23 21 17 11 13 23 29 30 30 33 35 36 36 35 38 42 43 42 41 39 38 39 38 39 40 40 39 38 36 35 36 38 39 39 40 39 38 38 39 39 38 38 39 40 40 39 40 41
15 15 17 20 23 23 25 26 26 26 26 26 26 25 25 24 23 23 19 14 19 27 29 30 32 35 36 35 35 37 42 43 42 42 40 40 40 39 39 40 40 39 38 37 35 35 37 38 38 38 40 39 38 38 39 38 39 39 40 40 40 40 41
15 18 19 21 22 23 26 28 28 28 27 26 26 28 29 29 26 24 23 21 17 21 26 31 34 36 36 35 35 37 41 42 42 42 42 41 41 40 40 39 39 39 38 37 36 34 34 36 36 36 38 39 39 38 37 36 38 40 40 39 40 40 42
13 18 20 21 22 23 24 25 25 26 26 26 28 31 31 30 28 25 25 25 22 19 22 28 34 37 37 34 33 35 39 41 42 43 43 42 41 40 40 39 38 38 38 37 36 34 33 34 35 35 36 37 38 39 38 36 35 38 40 40 40 41 42
15 18 20 22 25 26 24 22 22 22 24 26 29 32 31 29 27 27 26 25 23 22 23 26 31 35 35 33 31 35 39 40 42 43 42 42 41 39 38 38 37 38 38 37 36 35 33 33 35 35 34 35 36 37 39 39 37 36 37 39 39 41 43
15 17 20 22 24 25 24 23 22 22 23 27 29 30 30 29 28 29 28 25 24 27 28 27 28 33 34 33 31 35 38 39 40 41 40 39 39 38 37 37 37 37 38 37 36 35 34 33 33 34 34 34 35 36 37 39 39 38 37 37 38 40 42
14 15 19 22 23 25 24 23 23 24 24 25 27 28 28 28 29 30 29 28 31 33 32 29 28 31 34 34 33 35 38 39 39 39 38 38 39 39 37 36 36 36 37 37 36 35 35 34 33 33 32 32 34 35 36 37 39 41 40 39 38 39 41
15 17 18 20 23 25 24 23 24 26 27 27 28 29 29 27 27 30 31 33 36 35 31 30 30 31 34 36 36 36 37 38 38 38 38 37 38 38 37 36 36 36 36 37 36 34 33 33 32 31 31 31 31 33 35 36 37 40 43 43 41 40 40
15 18 20 21 24 25 24 23 25 27 27 28 29 31 31 28 26 29 32 34 34 32 30 30 31 32 34 36 37 37 37 37 38 38 38 38 38 38 37 36 35 34 34 35 35 34 33 32 32 31 30 30 30 32 34 36 36 38 41 43 43 42 41
13 17 19 22 24 26 26 25 24 25 27 29 31 33 35 34 30 29 33 35 34 32 33 33 32 33 34 35 37 38 37 36 36 37 37 37 37 37 37 36 35 34 33 33 33 33 33 32 32 31 29 29 30 31 33 34 36 38 41 42 43 43 43
11 15 18 21 23 25 26 24 23 24 26 29 32 35 37 38 36 33 33 34 34 34 35 34 33 33 34 35 36 37 38 37 36 37 37 37 37 36 35 36 35 33 33 33 33 34 33 32 31 31 29 28 29 30 32 33 34 36 39 42 44 44 44
11 14 18 23 25 25 24 23 24 25 26 27 32 35 35 36 37 35 33 32 33 33 35 33 33 33 32 34 36 35 37 37 36 36 35 34 34 34 33 34 35 34 35 37 36 35 33 32 32 32 32 31 29 28 29 30 32 35 39 43 44 45 46
12 13 15 21 25 25 24 25 25 25 25 28 34 36 33 33 35 33 31 30 30 31 33 30 32 34 31 33 35 34 35 37 36 36 35 34 34 34 33 34 35 34 34 36 37 37 35 34 34 35 36 35 33 31 28 28 33 39 42 43 44 44 46
13 14 14 18 23 25 25 27 27 25 25 30 34 32 30 32 33 31 29 29 28 27 31 27 27 32 29 29 31 32 33 33 32 32 32 31 31 31 31 32 34 34 32 32 34 37 38 35 34 35 36 36 37 38 36 35 37 40 41 42 42 42 44
13 14 15 18 21 23 25 28 29 26 26 30 32 29 29 31 32 28 27 27 25 23 27 27 19 23 26 27 29 31 32 31 31 32 33 32 32 31 29 27 28 30 32 31 31 34 37 36 35 36 36 36 37 38 40 40 37 35 35 37 39 40 42
12 14 16 19 20 21 23 27 27 25 27 31 31 29 30 30 30 29 28 27 25 22 23 25 18 11 13 14 15 19 20 18 15 15 16 20 22 22 24 27 26 24 26 28 29 32 36 38 37 36 36 37 37 36 38 39 37 33 33 34 34 35 37

ECMWFFLT1_925_spd_066.txt.gz
Wind_Speed
15 16 15 14 15 17 16 17 22 27 30 32 34 38 39 38 39 39 39 42 43 43 43 42 42 42 42 43 44 43 41 39 37 36 36 37 37 34 32 31 31 30 30 30 29 28 26 25 25 24 22 22 20 19 20 20 18 16 15 17 17 15 13
15 15 14 14 15 17 18 20 24 27 30 32 33 37 39 39 40 40 40 42 44 44 43 43 42 43 43 43 42 43 43 41 39 36 36 37 37 36 34 33 31 30 30 30 29 28 26 25 25 25 23 23 22 20 20 21 20 18 17 17 18 19 18
15 14 15 16 16 17 17 19 24 28 30 33 33 36 39 40 42 43 42 42 43 43 43 44 44 43 44 43 41 42 43 42 40 38 37 38 39 38 36 34 33 32 30 30 29 29 27 25 25 25 24 24 23 22 21 21 21 20 20 18 17 20 21
17 17 17 17 16 16 17 18 23 28 31 34 36 37 40 42 43 43 43 44 44 43 43 44 44 44 43 42 41 41 42 43 42 41 39 39 41 40 38 36 34 33 32 31 30 29 28 26 25 25 25 24 24 24 24 23 22 22 23 21 17 18 21
19 18 16 16 15 14 14 16 21 27 30 34 37 38 39 41 41 41 42 43 44 44 45 45 44 42 42 42 42 41 42 43 43 43 41 40 41 41 40 38 36 34 33 32 31 30 29 28 26 25 26 26 25 25 25 25 25 24 24 24 22 20 21
17 16 15 15 15 15 15 17 23 29 31 33 37 38 38 39 39 40 41 42 43 44 43 43 42 42 42 42 43 42 42 43 43 43 41 40 40 41 41 41 39 37 36 34 33 32 31 30 28 27 28 28 27 27 27 27 27 26 26 26 26 25 24
15 15 16 16 16 16 16 17 23 29 31 32 35 36 36 37 38 40 40 40 42 42 41 42 42 42 42 42 42 42 42 43 43 43 42 40 39 41 42 42 41 40 39 37 36 35 33 32 31 30 30 30 30 29 29 29 29 29 28 28 28 28 27
18 17 17 17 17 17 16 16 20 26 29 30 31 32 34 35 36 37 38 39 41 41 41 42 43 43 42 41 41 41 42 42 43 43 42 41 40 40 41 42 42 42 40 38 38 38 37 36 35 33 32 32 32 32 31 30 30 30 30 30 30 29 28
12 16 18 18 17 16 15 16 20 25 27 28 29 31 33 35 35 36 38 39 39 39 41 42 43 43 42 40 40 41 41 40 41 42 42 42 41 42 42 42 42 41 40 39 39 39 39 39 37 36 35 34 34 34 33 32 31 31 31 31 31 31 30
2 7 12 14 15 15 14 15 18 19 21 25 27 29 32 33 34 36 37 37 38 39 41 42 41 41 41 41 41 41 40 39 38 39 41 42 43 43 43 42 41 40 39 39 39 39 39 39 38 37 36 36 36 36 35 35 34 33 33 33 32 32 32
8 4 1 1 4 6 7 10 13 15 19 24 25 28 31 33 34 34 35 36 38 39 40 40 40 40 40 40 40 40 40 40 39 38 39 41 42 42 42 42 41 40 39 39 39 38 39 39 38 38 37 37 37 37 37 37 36 35 34 34 34 33 33
14 12 12 12 10 8 5 2 1 7 15 23 27 28 30 32 34 34 35 36 37 37 38 39 39 39 39 38 38 38 39 40 40 40 40 41 40 41 41 41 40 39 39 39 39 38 39 39 39 39 39 39 39 39 38 38 37 37 36 35 34 34 34
16 15 15 15 14 13 12 12 11 9 4 9 20 27 29 31 33 34 34 35 36 35 37 38 38 38 38 38 37 37 38 40 41 41 41 40 40 40 39 40 40 39 39 40 39 39 38 39 39 39 40 41 40 40 40 39 38 38 37 36 35 34 34
18 17 16 16 16 15 14 14 13 13 15 12 3 8 16 22 27 31 33 34 34 35 35 36 37 37 36 36 36 37 38 39 39 40 40 39 39 39 39 39 39 39 40 39 39 39 39 39 40 40 40 41 41 41 41 40 39 38 38 37 35 35 34
18 17 16 16 16 15 14 14 12 11 14 16 16 12 6 3 10 18 25 28 28 30 33 35 35 35 36 35 36 37 38 38 37 37 38 38 38 38 39 39 39 39 39 39 39 40 40 40 40 40 40 40 41 41 41 40 40 40 39 38 36 35 35
16 16 15 15 15 14 13 12 12 12 14 16 17 16 14 10 7 10 14 21 25 26 27 31 33 32 32 30 28 26 26 29 33 35 36 37 38 39 39 39 38 38 38 39 40 40 40 40 39 40 40 41 40 40 40 40 40 41 40 40 38 37 36
15 15 15 14 14 13 13 13 13 12 14 17 19 19 17 11 4 3 9 14 21 28 29 29 31 32 30 27 25 22 18 20 25 30 34 38 39 39 40 39 38 38 38 39 39 40 39 39 39 39 40 40 40 40 40 41 41 42 42 42 41 39 37
14 15 15 14 13 13 13 13 14 13 14 18 21 21 21 20 13 1 5 9 14 20 30 33 32 32 32 33 34 34 32 30 30 30 33 37 39 39 40 39 39 38 38 38 39 39 39 39 39 40 39 40 40 40 40 41 42 43 43 43 43 41 39
12 13 14 13 12 12 11 10 12 15 17 20 21 21 21 21 20 10 6 10 10 14 18 29 34 33 32 34 37 39 41 43 43 40 38 38 40 40 39 39 39 40 39 39 39 39 39 39 40 40 40 39 40 40 41 41 42 43 44 44 44 43 42
11 12 13 13 13 12 11 11 13 16 19 21 20 21 21 18 17 15 6 12 15 13 16 19 26 32 34 35 39 42 42 42 43 43 41 40 39 39 39 39 40 41 40 38 38 38 39 39 40 40 41 41 40 41 41 42 43 43 44 45 45 44 43
10 12 13 14 15 14 14 17 19 19 20 22 21 19 20 19 17 17 14 9 16 21 19 20 22 25 30 35 37 39 38 38 37 37 37 39 40 39 40 40 41 41 40 38 37 38 39 39 40 40 41 42 41 40 41 42 43 44 44 46 45 45 44
9 11 11 12 14 15 15 17 20 22 21 21 22 21 20 22 24 22 20 15 12 16 23 26 27 26 28 32 34 36 39 39 37 34 34 37 39 40 40 41 41 40 39 38 37 37 38 39 39 40 40 41 41 40 41 42 43 44 45 46 45 44 44
8 9 10 13 15 17 18 16 16 19 22 22 22 21 21 26 29 27 24 19 15 14 20 27 30 29 30 33 35 37 40 39 37 34 33 34 37 40 41 41 41 40 39 38 37 36 37 38 38 39 40 41 41 41 41 42 43 44 45 45 45 43 43
9 9 11 14 16 18 20 20 17 16 19 22 23 23 23 26 27 26 25 21 17 15 15 22 28 30 31 33 36 37 37 36 35 34 34 35 37 39 39 40 40 40 40 39 38 37 37 37 37 38 39 40 42 43 42 42 42 43 45 46 45 44 43
8 11 12 14 17 17 20 22 21 19 18 19 23 28 28 24 22 21 22 21 19 17 15 16 23 29 32 34 36 36 36 36 35 35 35 37 38 38 38 39 39 39 39 39 39 38 37 36 36 37 38 39 41 43 43 42 42 43 44 45 45 44 44
6 11 14 16 18 19 20 22 22 22 21 19 23 28 29 25 21 19 20 21 20 17 16 16 17 21 28 33 34 35 36 36 36 37 37 38 38 38 38 38 38 38 38 39 38 37 36 36 36 36 37 38 39 41 43 43 42 42 43 44 44 45 45
6 10 13 16 18 20 20 21 22 21 21 22 24 25 26 25 23 21 22 22 20 17 17 19 20 21 23 25 29 32 34 36 36 37 38 39 39 38 38 38 38 38 38 37 36 36 36 36 35 35 36 37 38 39 41 43 43 42 42 43 43 44 45
7 9 13 16 18 19 19 20 22 24 25 26 25 24 25 25 23 23 24 23 22 22 22 23 24 24 25 25 25 28 31 33 35 37 38 39 38 37 37 38 38 38 37 36 36 36 36 36 35 34 34 36 37 38 40 41 42 42 42 42 43 43 45
8 8 13 16 18 19 19 19 21 25 29 30 28 26 26 25 24 23 23 24 27 28 27 26 26 25 25 25 25 27 29 31 34 35 36 37 38 39 38 38 37 37 36 35 35 34 35 35 34 33 32 33 35 37 38 39 40 41 43 43 42 43 44
10 10 12 15 18 20 19 18 19 22 26 31 31 28 26 24 24 25 24 26 28 29 28 28 27 25 25 24 24 25 27 30 33 35 36 37 38 38 38 37 37 36 35 35 34 33 32 33 33 32 31 31 32 34 36 37 37 39 42 44 43 43 44
13 12 13 15 19 21 20 19 19 20 22 27 31 29 25 23 23 26 28 29 28 27 29 29 28 26 26 25 25 25 26 28 31 34 36 38 38 38 38 38 36 34 34 34 33 32 31 31 31 31 31 30 31 32 34 35 36 37 41 44 44 44 43
15 15 15 16 19 21 21 20 20 20 20 24 29 29 26 24 23 25 29 31 30 28 28 28 27 27 27 26 27 27 26 27 30 33 36 37 38 39 40 39 37 35 33 32 32 32 31 31 31 31 30 30 31 32 32 32 34 36 39 41 43 44 43
15 16 16 17 19 21 21 19 19 21 21 23 27 28 27 26 24 25 29 31 29 28 28 26 25 25 25 26 28 28 27 27 29 31 33 35 37 38 38 38 38 36 34 33 32 32 31 30 29 29 29 30 30 30 29 29 31 34 36 39 41 43 44
15 16 17 18 20 20 20 19 20 21 22 24 26 27 27 27 26 26 28 29 28 27 27 25 23 23 24 26 27 28 28 27 28 31 32 33 34 35 34 35 36 35 35 36 35 32 30 29 29 30 31 31 29 28 27 27 31 34 37 39 42 43 44
16 17 17 19 20 19 19 19 21 22 24 26 27 26 27 27 27 28 29 28 27 26 25 25 24 22 23 24 25 26 27 26 27 30 31 31 34 36 34 33 34 35 35 37 38 38 36 34 34 35 35 33 31 30 28 29 33 39 41 42 43 44 44
17 18 18 18 19 20 19 19 20 22 25 27 27 26 27 27 27 28 28 27 27 26 25 26 26 23 22 22 22 23 24 24 25 29 31 32 32 28 21 18 23 28 30 31 35 40 41 41 39 38 36 34 34 35 35 36 38 39 39 40 42 43 43
18 18 19 17 16 19 20 20 20 21 25 27 28 27 27 26 27 28 27 27 28 28 27 27 26 24 22 21 22 23 23 22 24 27 27 26 24 21 17 16 21 28 32 33 34 37 39 40 39 37 37 36 36 37 39 41 39 36 34 36 40 41 42
21 21 19 17 14 17 19 20 20 21 24 26 27 28 28 27 27 27 28 30 31 30 28 28 27 25 23 23 23 22 21 20 23 24 21 21 23 25 27 28 29 31 34 34 33 35 38 39 38 37 37 39 39 39 38 39 38 36 34 34 36 39 41

ECMWFFLT1_925_spd_069.txt.gz
Wind_Speed
14 14 14 14 14 16 16 17 21 26 29 31 33 35 36 36 38 38 37 39 41 41 41 41 41 41 41 41 40 39 38 39 38 36 36 35 33 31 31 30 29 28 27 26 25 25 25 24 24 23 21 20 20 19 18 19 17 16 15 14 14 13 13
14 14 14 14 15 16 16 19 23 26 28 31 33 35 36 37 38 39 38 39 41 41 42 42 42 42 42 41 40 39 39 39 39 37 36 36 34 33 32 32 31 30 29 27 25 24 24 24 24 24 23 21 21 20 19 19 19 18 17 16 15 15 15
15 16 16 16 16 16 16 17 22 26 28 30 32 34 37 38 39 40 39 39 40 40 41 42 43 43 42 41 40 40 40 39 39 38 37 37 37 35 34 33 32 31 30 28 26 25 25 24 24 24 24 23 21 21 20 20 20 20 19 17 16 16 17
16 17 17 17 17 16 15 16 21 26 28 31 34 36 38 40 40 40 40 40 41 40 40 41 42 42 41 41 40 41 40 40 40 40 39 38 37 36 34 33 33 33 33 31 29 28 27 26 25 25 25 24 23 22 21 20 20 21 21 20 18 17 17
16 16 15 15 15 15 14 16 21 26 28 31 35 37 38 39 38 38 39 40 41 42 42 42 41 40 40 40 40 41 41 41 41 40 40 39 37 36 35 35 35 34 34 33 31 30 29 28 27 26 26 25 24 23 22 21 20 21 22 21 20 19 18
14 14 14 14 14 15 16 17 23 28 30 31 34 35 36 37 37 38 39 39 40 41 41 41 41 41 40 40 40 39 40 41 41 40 39 38 37 36 36 37 36 36 35 34 32 31 30 30 29 28 27 26 25 24 23 22 21 22 22 22 21 21 20
13 14 15 15 15 15 16 17 22 28 30 31 32 33 34 36 37 38 38 38 39 39 38 39 40 41 40 40 40 38 38 39 40 40 39 37 36 36 37 37 37 38 37 35 34 32 31 30 30 29 28 27 26 25 24 23 22 23 24 23 23 22 22
7 10 11 12 13 14 15 16 21 26 28 29 30 31 33 35 35 36 36 38 38 38 38 39 40 40 39 39 38 39 39 39 39 39 39 37 36 36 36 36 37 38 37 37 36 34 33 32 31 30 29 28 27 26 25 24 23 24 25 25 25 25 24
8 1 2 3 5 8 9 12 18 23 25 27 29 30 32 34 34 36 37 37 37 37 38 39 40 40 39 38 38 39 38 37 38 38 38 37 36 36 36 36 36 36 37 38 37 36 34 33 32 31 30 30 29 28 27 26 25 25 26 27 27 27 27
16 12 10 7 4 2 1 4 9 13 18 22 25 28 30 32 33 35 36 36 36 37 39 39 39 39 38 38 38 38 38 37 37 37 38 39 39 38 37 36 35 34 35 37 37 36 35 34 33 32 31 31 31 30 30 29 28 27 27 28 29 29 29
17 17 16 15 12 11 10 6 2 1 7 14 19 22 26 30 32 33 34 35 36 37 38 38 38 38 38 38 37 36 37 38 38 38 39 40 41 41 40 38 36 34 34 35 35 35 35 34 34 33 33 33 33 32 32 30 30 30 29 30 30 30 30
15 15 17 17 16 14 13 11 10 10 7 3 12 19 22 24 28 30 32 34 35 35 36 37 37 37 37 37 37 37 38 38 39 40 40 41 41 41 41 40 38 36 35 34 34 35 35 35 35 35 35 36 35 35 34 33 31 31 31 32 31 31 31
14 14 14 15 15 15 15 14 14 15 17 15 6 7 17 22 24 26 27 30 32 33 34 35 36 36 36 37 37 37 38 39 40 41 41 41 41 40 40 41 40 39 38 36 35 35 35 35 36 36 37 37 37 37 36 35 33 32 32 32 32 32 32
16 15 15 15 16 16 16 15 14 16 19 22 20 13 2 9 17 23 26 27 29 30 31 32 33 34 34 35 36 37 38 39 40 40 40 40 39 39 39 40 40 41 40 39 37 36 36 36 36 36 36 37 37 38 37 36 35 34 33 33 33 33 33
16 16 16 17 16 16 15 15 14 15 19 21 23 23 19 12 2 10 18 24 27 28 29 30 30 32 33 33 33 35 37 37 37 38 38 38 38 38 39 39 39 39 39 39 38 38 37 36 36 35 35 36 36 36 36 35 35 35 34 34 34 33 33
15 15 15 15 15 14 14 14 14 16 20 22 23 23 23 21 16 7 4 13 19 22 25 26 24 24 26 30 34 35 36 37 37 37 37 37 38 39 39 39 38 38 38 38 38 38 37 36 36 35 35 35 35 35 35 35 36 36 36 36 35 34 34
14 14 14 14 14 13 13 14 15 17 20 22 23 24 24 23 21 14 5 7 14 17 21 26 28 26 25 27 30 33 34 35 35 34 35 35 37 37 38 38 38 38 38 37 37 37 37 36 36 36 36 35 35 35 35 36 37 37 36 36 36 35 34
13 13 13 13 13 14 14 14 14 16 19 21 23 24 25 25 23 19 12 1 12 15 16 19 25 30 32 29 27 27 30 32 33 33 34 35 35 36 36 36 36 36 37 37 37 37 36 36 36 36 36 35 35 35 35 37 37 37 37 37 37 36 35
12 12 12 12 13 13 13 13 14 17 20 21 23 23 24 23 22 22 17 6 6 13 17 18 18 22 29 33 34 33 34 34 34 34 35 36 37 38 37 36 36 37 37 37 36 35 35 36 36 36 36 35 35 35 36 37 37 37 37 37 37 37 36
10 11 11 11 12 12 12 14 16 18 20 22 23 23 22 22 23 22 19 12 2 11 20 24 25 26 28 32 38 39 37 36 36 36 38 39 38 37 37 38 38 39 38 37 35 35 35 36 36 36 36 36 36 36 36 37 38 38 38 38 38 38 37
9 11 11 11 11 10 12 16 18 20 20 20 22 23 22 23 24 23 21 17 9 5 13 19 25 29 29 29 32 34 35 38 40 41 42 41 38 36 37 38 39 39 38 37 37 37 37 36 35 36 36 36 36 36 36 37 38 38 38 38 39 38 38
7 9 9 11 12 11 12 15 17 19 19 18 20 22 22 24 25 24 23 19 13 9 7 12 21 26 26 24 25 28 32 35 38 41 41 39 36 35 35 36 38 39 38 37 37 37 37 36 36 36 36 36 36 36 37 38 38 37 38 39 39 38 38
5 7 9 12 14 14 15 15 16 17 18 19 20 20 22 25 25 24 24 19 14 13 11 8 14 20 23 24 25 27 29 30 31 34 35 34 34 35 36 36 36 37 37 36 35 35 36 36 37 36 36 36 36 37 38 39 39 38 39 39 38 38 38
8 8 10 13 15 16 17 18 17 17 17 18 19 21 23 25 24 21 21 18 15 14 13 11 10 13 18 23 26 28 30 30 31 32 31 31 34 36 36 36 36 36 36 36 36 36 36 36 36 36 36 37 38 39 39 39 39 39 39 39 38 38 38
11 12 13 15 15 16 19 21 21 20 19 19 20 23 24 23 23 20 19 18 18 16 13 12 12 12 13 17 21 26 30 32 33 33 32 32 34 36 36 36 36 36 36 36 37 36 35 34 34 34 36 37 38 39 39 40 39 39 39 40 39 39 39
12 14 16 18 17 16 18 21 21 22 22 21 22 25 24 22 21 19 18 18 17 15 13 14 15 16 16 16 16 18 24 29 32 33 33 34 36 36 36 35 35 35 35 36 36 35 34 34 33 34 35 35 36 37 38 40 39 39 40 41 40 40 40
17 17 18 20 22 20 17 17 19 21 23 23 24 24 23 23 21 19 19 19 17 15 16 18 20 20 20 19 18 17 18 22 27 31 33 34 36 36 35 35 35 35 36 36 35 34 34 33 33 33 34 34 35 36 38 39 40 40 41 41 42 42 40
17 18 20 22 24 23 20 16 17 19 23 26 25 23 23 22 20 19 19 19 18 20 22 22 22 22 21 21 20 18 18 19 23 28 32 34 34 33 34 34 34 35 35 34 33 33 34 34 33 32 32 33 34 35 37 38 39 40 41 42 43 42 41
15 17 20 22 24 25 24 20 18 18 23 26 27 24 24 23 20 18 18 19 21 24 24 24 23 22 21 21 21 20 18 19 20 23 28 31 32 33 33 32 33 33 34 33 33 32 32 32 32 31 30 31 32 34 36 37 38 40 42 43 44 43 43
16 17 19 21 23 25 25 23 22 21 21 25 28 27 24 22 20 18 19 21 24 25 24 24 23 22 21 21 21 20 19 18 18 19 22 26 29 31 31 31 32 32 32 33 32 31 31 31 30 30 29 29 30 32 34 36 37 39 42 43 44 44 44
18 19 20 20 22 24 23 23 24 25 24 24 27 28 26 23 20 19 20 23 25 26 25 24 22 20 19 20 21 21 20 19 18 17 18 21 26 30 31 31 31 31 31 32 31 30 30 29 29 29 29 29 29 31 33 35 36 38 40 42 43 44 45
19 20 21 20 21 23 23 23 23 25 26 26 26 27 27 26 22 20 22 24 25 26 25 23 21 20 18 17 19 19 18 18 19 19 18 18 22 29 33 33 32 31 31 31 31 31 30 29 29 29 28 28 30 31 31 32 35 37 38 40 42 44 44
18 21 22 21 22 24 24 22 21 23 26 28 27 26 27 27 25 23 24 25 25 24 24 22 20 19 18 17 18 17 16 17 20 22 21 19 20 25 31 33 33 32 31 30 30 30 30 29 28 28 28 28 29 30 30 31 33 35 37 38 40 42 43
19 22 24 24 24 25 23 21 20 21 23 27 28 27 26 28 28 26 26 25 24 23 22 21 20 19 19 19 18 17 17 18 21 22 22 21 20 22 27 31 33 33 33 34 34 32 30 29 29 30 31 31 30 29 29 30 33 36 37 37 39 41 42
19 23 26 27 25 25 24 22 22 21 22 25 28 28 27 28 28 28 27 26 25 23 21 20 20 20 19 18 17 16 17 18 20 22 23 23 22 22 24 29 33 35 36 38 40 39 37 35 35 36 37 34 33 32 30 30 36 41 40 39 39 42 43
19 22 25 27 26 25 25 25 24 22 22 24 25 26 27 28 28 28 27 27 25 22 20 20 20 19 18 16 15 14 15 17 22 25 25 25 24 23 24 28 33 36 38 39 41 44 44 43 42 42 40 38 38 39 38 39 42 44 42 40 41 42 43
20 21 23 26 27 26 25 26 25 22 22 23 23 24 26 27 27 27 27 28 26 22 20 19 19 19 18 16 14 15 15 18 23 26 26 27 26 23 23 26 30 34 37 39 40 43 46 47 47 46 43 41 40 40 42 44 44 41 39 38 39 40 40
21 22 23 24 24 24 25 25 24 24 24 23 22 23 25 26 27 27 26 26 26 24 21 19 17 19 19 18 17 16 16 19 23 24 25 27 25 22 24 25 24 27 32 37 38 39 42 46 48 48 46 44 43 40 40 42 42 40 39 36 35 36 37

ECMWFFLT1_925_spd_072.txt.gz
Wind_Speed
10 12 12 12 13 14 14 16 21 23 26 28 30 32 33 33 33 33 33 35 36 35 36 36 36 36 37 37 37 37 36 36 35 35 34 32 30 29 28 26 25 24 24 23 21 20 18 18 19 19 18 18 17 16 14 12 11 10 10 10 9 9 9
11 12 12 12 13 15 15 18 23 24 26 28 30 32 33 34 34 34 34 35 36 37 37 37 37 37 38 38 37 37 37 36 36 35 34 33 31 30 30 29 26 25 24 22 20 19 18 17 18 19 19 18 18 16 15 13 12 12 12 11 11 10 10
12 13 13 13 13 14 15 18 22 25 27 29 30 32 34 35 36 36 36 35 36 36 36 37 38 38 38 37 36 36 37 36 36 35 35 34 33 31 31 30 28 26 24 23 21 20 18 17 17 18 18 19 18 17 15 14 13 13 13 13 13 12 11
10 13 13 14 14 13 13 16 21 25 28 31 33 34 36 37 38 38 38 37 38 37 36 36 37 37 37 36 36 37 37 37 37 37 37 36 34 32 31 30 29 27 26 26 24 22 20 19 18 17 18 18 18 18 16 16 15 14 13 14 15 15 13
7 11 11 11 12 12 12 15 20 25 28 31 34 35 36 37 37 37 38 38 38 39 39 39 39 38 38 37 37 37 37 38 38 38 37 37 35 33 32 32 31 30 29 28 27 25 23 22 20 19 18 18 18 18 18 17 16 15 14 15 15 16 16
9 5 8 10 10 11 11 15 21 26 27 30 32 33 34 35 35 36 37 37 37 37 37 38 39 39 38 38 37 37 36 37 38 38 37 37 35 34 33 33 33 32 31 29 28 27 26 25 23 21 20 20 19 19 19 18 18 17 16 16 16 17 18
13 10 4 4 7 8 9 11 16 21 23 26 29 30 31 33 34 35 35 36 36 36 36 36 37 37 37 37 37 36 36 37 37 38 37 36 36 36 35 34 34 34 32 30 29 28 27 27 26 24 23 22 22 21 20 19 19 18 18 17 17 18 19
14 14 12 8 4 1 4 7 11 14 16 20 23 26 28 30 31 32 33 35 35 35 35 36 37 37 36 36 36 36 36 36 36 37 37 36 36 36 36 35 35 34 32 31 30 29 28 28 28 27 25 24 24 23 22 21 19 19 19 19 19 19 20
15 15 15 14 12 8 4 3 4 9 13 18 20 22 25 27 28 29 31 33 33 34 35 36 37 37 36 36 36 37 37 36 35 36 36 36 37 37 37 37 36 35 33 32 31 30 29 29 29 28 27 26 26 25 25 24 22 20 20 20 20 20 20
15 15 16 16 15 13 12 14 13 7 1 9 16 21 24 25 25 26 28 30 31 33 35 35 35 35 36 36 35 35 35 35 35 35 36 37 37 38 38 38 37 37 36 34 32 31 30 30 29 29 28 27 27 27 27 26 25 23 22 21 21 20 20
14 15 16 17 16 15 15 16 16 16 15 12 3 9 20 25 26 26 27 29 31 32 33 34 34 34 35 35 34 33 34 35 35 35 36 37 38 38 38 37 36 37 37 36 34 33 31 30 29 29 29 29 29 29 29 28 27 26 24 23 22 22 21
13 14 15 16 16 15 15 14 15 18 20 20 20 14 2 14 26 31 30 29 32 33 33 34 34 34 34 33 33 34 34 34 35 36 36 36 36 37 37 36 35 34 35 36 35 35 33 31 30 30 30 31 30 30 30 30 29 28 27 26 25 24 23
12 12 13 13 13 14 14 14 16 19 21 20 21 23 20 11 6 20 27 29 30 31 32 33 33 33 33 33 33 33 34 35 36 35 35 35 35 35 35 34 34 34 34 34 33 34 34 33 32 32 31 31 31 30 31 30 30 29 29 28 27 26 26
13 13 13 14 15 14 15 14 14 17 21 21 22 23 24 24 18 6 9 19 27 30 30 30 31 32 32 32 33 33 34 35 35 35 34 35 35 35 35 34 34 35 35 34 33 33 34 34 34 33 33 32 31 31 30 30 30 31 30 30 29 28 28
14 14 14 15 16 14 13 13 13 15 18 20 23 24 24 25 25 22 16 7 14 26 30 30 30 32 32 32 33 35 36 35 35 34 35 35 34 35 35 35 35 35 35 35 35 35 35 34 34 33 33 33 32 32 31 31 32 32 32 32 31 31 30
14 13 13 14 13 13 12 12 13 16 18 20 23 24 23 24 25 26 25 21 12 11 25 31 33 33 34 35 36 36 36 36 36 35 35 35 35 36 36 35 35 34 34 35 36 35 35 34 33 33 33 33 33 32 32 32 33 34 34 34 33 32 32
13 13 13 13 12 11 11 12 13 16 18 20 22 23 24 24 25 27 28 27 21 12 11 24 33 35 34 35 36 36 35 35 35 35 35 36 37 36 36 36 35 35 35 35 34 35 35 34 34 34 34 33 33 33 33 34 35 35 35 35 34 33 32
12 12 12 13 12 11 11 11 13 16 18 20 22 24 25 25 25 27 29 28 24 16 7 12 25 33 34 34 34 34 35 36 35 35 36 38 39 40 40 38 37 36 35 35 35 35 34 34 35 35 34 34 33 33 34 35 35 35 35 35 34 34 33
10 11 11 11 11 11 11 11 12 15 18 20 22 23 24 24 24 26 25 25 24 16 7 7 14 23 29 34 36 36 37 39 38 38 38 38 39 40 41 40 38 37 37 36 36 35 34 35 36 36 35 35 34 35 35 35 36 36 35 35 35 34 34
9 9 9 10 10 10 11 12 13 15 17 19 21 23 24 22 22 23 22 21 23 19 12 9 10 13 16 22 28 32 34 36 36 36 38 39 38 37 36 37 38 39 39 37 35 34 34 35 36 36 36 36 36 36 37 37 37 37 36 35 35 35 34
10 10 9 9 9 10 12 14 14 15 16 17 20 22 23 24 23 23 21 20 21 22 20 15 12 13 13 15 17 19 23 27 28 30 34 36 36 34 33 33 35 36 37 36 35 35 35 35 35 35 36 37 37 37 37 39 39 38 37 37 36 35 35
9 9 9 10 10 12 15 15 16 16 15 15 16 17 20 25 26 25 23 20 18 19 20 18 13 9 10 12 16 18 20 21 24 28 31 32 32 32 33 33 33 34 33 33 33 34 34 34 34 35 36 37 36 36 37 39 40 39 39 38 37 36 35
10 11 12 13 13 14 16 18 18 18 17 16 16 14 18 23 25 25 23 18 16 17 18 18 14 9 8 8 10 16 22 24 25 28 30 31 31 32 33 34 34 33 31 30 31 32 33 34 35 36 36 36 35 36 37 40 40 39 40 39 38 37 35
15 15 14 15 16 16 17 21 21 19 18 19 18 17 19 21 22 22 20 16 15 16 16 17 15 14 14 12 9 11 19 25 27 29 30 30 30 32 33 33 32 32 31 31 32 33 35 35 35 35 36 36 36 37 39 40 40 39 40 40 39 38 37
18 20 19 18 18 17 18 21 22 20 19 19 21 22 22 21 20 19 17 15 14 14 14 15 15 17 19 18 15 14 15 20 25 29 30 30 31 31 31 30 31 31 30 31 33 34 34 34 33 34 35 36 38 38 39 41 41 39 40 41 40 39 38
17 22 24 23 21 20 20 19 19 19 20 20 21 23 22 21 20 17 16 16 14 12 13 16 18 20 20 20 20 19 16 15 19 25 28 30 31 31 30 30 30 30 29 31 33 33 33 33 34 35 36 36 37 38 39 41 41 40 41 41 40 40 39
20 22 25 27 26 24 22 20 17 16 19 22 23 23 22 21 20 17 16 16 15 14 15 18 20 20 20 21 22 21 19 16 16 19 23 27 30 29 29 29 29 29 30 32 32 32 32 33 34 35 36 36 36 37 39 40 41 41 42 42 41 40 40
22 25 27 30 31 28 24 22 19 16 17 21 25 25 22 21 20 19 16 15 17 18 19 19 18 17 18 21 21 21 20 19 18 17 17 19 23 27 29 31 31 30 30 31 31 31 32 33 33 33 34 34 35 36 38 40 41 42 42 42 42 41 40
17 22 26 28 31 31 28 25 24 20 17 19 23 25 23 20 19 19 17 17 20 22 22 20 18 17 17 17 18 20 20 19 18 17 14 14 18 23 27 29 30 30 30 30 30 30 31 32 33 32 32 32 33 36 38 39 40 42 42 42 42 42 42
14 18 22 24 28 31 30 28 28 27 23 20 20 23 23 20 19 19 19 20 23 24 23 20 18 18 18 17 17 18 19 19 18 16 14 15 14 17 22 25 26 27 28 29 29 28 29 31 31 30 30 31 32 34 36 38 38 40 42 42 42 42 43
17 17 19 22 26 29 29 29 30 31 29 25 21 20 21 21 19 19 21 23 24 24 24 22 18 18 19 19 18 18 18 19 19 14 13 14 14 15 19 22 23 24 26 27 27 27 28 29 29 30 30 30 31 32 34 35 36 38 39 41 42 43 44
20 19 18 20 24 27 28 29 30 30 30 30 25 19 19 21 20 20 22 23 23 23 23 22 19 17 18 20 21 20 18 19 18 14 13 16 17 16 17 20 22 24 24 24 25 27 27 28 29 29 29 30 31 33 33 33 34 36 37 38 41 43 44
19 20 20 20 23 25 26 26 28 28 28 32 30 23 19 20 22 23 23 23 22 22 22 21 19 17 17 18 21 22 21 20 19 18 18 19 18 17 17 20 23 25 25 25 25 25 26 28 29 29 29 31 33 33 32 32 33 35 36 37 38 40 42
19 21 22 23 24 24 23 23 26 27 28 32 33 28 23 22 22 23 24 23 21 20 20 20 18 17 17 18 19 20 20 21 21 20 19 19 18 16 16 19 22 26 28 29 28 26 26 29 31 32 34 34 34 32 30 31 34 36 37 36 36 38 40
21 23 25 25 25 25 23 23 25 27 29 34 35 31 27 26 24 23 24 24 21 20 20 19 18 18 18 17 17 17 17 19 20 20 19 19 20 20 20 20 22 25 29 31 30 30 32 33 35 39 42 40 36 33 31 32 37 41 41 38 38 40 42
21 23 26 26 25 26 25 25 25 26 29 34 35 32 30 29 26 24 25 23 21 20 21 20 19 18 18 16 15 15 15 17 19 20 21 22 23 23 23 22 22 24 29 33 36 38 41 44 44 45 44 42 40 40 39 39 41 42 41 39 40 41 41
22 23 26 27 26 25 26 27 26 25 26 31 33 33 32 31 28 26 26 23 20 20 22 21 20 18 17 16 15 16 17 18 20 22 23 25 25 24 23 24 25 25 28 35 42 46 48 51 52 50 44 41 41 42 42 43 42 38 36 36 38 39 40
24 24 26 27 26 25 26 27 26 24 24 27 31 33 33 34 32 29 27 24 21 21 22 22 21 19 18 16 17 18 19 20 22 24 25 26 26 25 23 23 23 25 25 29 38 46 49 49 51 52 50 47 45 42 40 41 40 39 37 35 34 36 38

ECMWFFLT1_925_spd_078.txt.gz
Wind_Speed
6 12 13 12 13 15 15 18 21 23 23 23 24 24 23 22 21 20 20 21 22 22 22 21 21 21 21 21 20 19 18 17 16 16 15 15 14 13 12 11 11 11 10 9 8 8 7 6 7 8 8 9 9 8 8 8 7 6 6 6 5 4 5
3 6 10 11 12 14 16 19 21 21 23 23 24 25 24 23 22 21 20 21 22 22 22 22 22 22 22 21 20 20 20 19 17 16 16 15 15 14 13 12 11 11 10 10 8 7 8 7 7 8 8 9 9 9 9 8 8 7 6 7 6 5 5
9 4 3 9 11 12 13 17 19 19 20 22 23 24 24 23 23 23 21 21 22 22 22 22 22 22 22 21 20 21 21 20 19 18 18 17 16 15 14 13 12 11 11 11 10 9 8 8 8 8 9 9 9 9 10 9 9 9 7 7 7 6 6
10 10 4 3 8 12 12 14 18 19 19 20 21 22 23 24 23 23 22 22 23 23 22 22 22 22 21 21 21 20 21 22 21 20 19 18 16 15 15 14 13 13 12 11 11 11 10 9 8 9 9 9 9 9 10 10 10 9 9 8 8 7 7
11 10 8 7 3 6 11 12 16 18 19 21 22 22 23 24 23 23 22 21 21 22 23 22 22 22 21 21 21 20 21 23 22 21 20 18 17 15 15 15 14 14 14 12 12 12 11 10 9 9 10 10 10 10 10 10 10 10 10 9 9 8 8
11 11 9 11 11 5 4 9 14 17 17 17 19 21 22 23 23 22 21 20 20 20 21 22 21 20 21 21 21 20 20 21 22 21 20 19 18 17 17 16 15 15 15 14 13 13 13 13 12 11 11 10 10 10 10 10 10 10 10 10 10 9 8
12 12 12 12 13 12 10 6 3 10 14 15 17 18 19 20 21 21 20 19 20 19 19 19 19 19 19 20 20 20 20 20 21 21 21 20 19 19 18 17 16 16 15 15 15 14 14 14 13 13 12 11 11 10 10 10 10 10 10 11 10 10 9
13 14 14 14 14 13 15 16 15 9 3 8 14 16 17 18 18 18 20 19 19 20 19 19 18 18 17 18 19 20 20 20 20 21 21 21 20 20 19 18 17 17 16 16 16 15 15 15 15 14 14 13 13 12 12 11 11 10 10 11 11 11 10
15 15 15 16 16 15 16 18 19 21 18 11 5 1 8 15 16 17 19 19 18 20 21 21 20 19 18 17 18 19 20 20 20 20 21 21 21 21 20 19 18 18 18 18 17 16 16 16 16 15 15 15 14 13 13 13 13 12 11 11 11 11 11
14 14 15 16 16 16 19 21 21 21 21 19 16 13 8 5 12 15 16 18 19 19 20 19 19 19 19 19 18 19 19 20 20 20 21 22 21 21 21 20 19 19 19 19 18 17 17 17 17 16 16 16 15 15 15 14 14 13 13 13 12 12 12
12 13 15 16 16 16 18 20 21 20 20 19 17 16 16 11 4 11 13 15 17 17 18 17 17 18 19 19 19 19 19 20 20 20 21 21 21 21 21 20 19 18 19 19 19 18 17 17 17 18 18 18 17 17 16 16 15 15 14 14 13 13 13
11 12 14 15 15 15 15 16 19 20 20 19 19 16 17 16 10 3 4 10 13 14 15 16 16 16 17 17 17 18 19 20 20 21 22 22 21 21 21 20 20 19 19 19 19 19 19 18 18 18 19 20 19 18 18 17 17 17 16 15 15 14 14
11 11 12 13 13 13 14 14 17 20 20 20 20 19 17 16 15 13 8 1 6 11 15 17 17 17 16 17 17 17 18 19 20 20 21 21 21 21 20 20 20 20 19 19 19 20 20 19 19 19 20 21 20 19 19 18 18 18 18 17 16 16 15
13 13 13 13 14 14 15 14 15 18 20 20 21 21 20 18 16 15 13 10 5 4 8 11 14 18 18 18 18 18 19 19 19 19 20 20 20 20 20 20 20 20 20 19 19 20 20 20 20 20 21 21 21 21 20 19 19 19 19 19 18 18 17
13 13 14 14 14 14 14 13 14 17 19 19 20 21 20 20 19 17 15 13 11 9 7 8 8 12 17 19 19 20 21 20 19 19 19 19 19 20 20 20 20 20 20 19 20 20 20 20 20 20 20 21 21 21 21 21 21 20 20 20 19 19 19
12 13 13 13 13 13 13 13 15 18 19 19 20 20 19 19 19 18 17 16 14 12 10 10 9 8 11 17 20 19 19 20 20 19 18 18 19 20 20 20 19 19 20 20 20 19 19 20 20 21 21 20 20 21 21 22 22 23 24 24 22 20 19
12 12 13 13 12 12 12 13 15 17 18 19 20 19 18 18 17 17 18 16 14 14 12 11 10 9 9 13 18 19 18 18 19 20 20 19 19 19 20 20 19 19 19 20 20 20 19 19 20 21 21 21 21 21 22 22 23 24 27 29 29 25 21
11 11 12 12 12 12 12 13 14 16 16 17 18 18 18 18 16 16 17 17 15 13 12 11 9 8 8 9 11 14 17 18 17 19 20 20 20 20 19 19 19 19 19 20 20 20 20 20 21 22 22 22 22 22 22 23 23 25 28 30 32 31 27
10 11 11 11 12 12 12 13 14 15 15 15 15 16 17 17 17 17 17 16 15 13 12 11 9 8 7 8 9 10 14 18 18 19 19 19 20 20 19 18 19 20 20 20 20 20 20 21 21 22 22 22 23 23 23 23 23 25 28 30 32 33 31
9 10 10 10 11 12 12 13 14 14 14 14 14 14 14 16 17 18 18 16 15 14 13 12 10 8 5 8 11 11 12 15 17 19 19 19 19 18 19 19 19 21 21 20 19 19 20 21 22 22 23 23 23 24 24 24 24 25 27 30 31 31 31
8 9 9 9 10 11 13 14 15 15 15 14 14 14 14 16 17 18 19 17 15 14 13 12 12 10 9 7 7 7 9 11 14 18 18 18 17 17 18 19 20 20 20 19 19 19 20 21 21 22 23 23 24 24 24 25 26 27 28 30 30 30 30
7 8 8 9 10 11 12 13 14 15 15 15 14 14 15 16 17 18 18 17 16 14 12 11 12 11 10 10 9 7 6 8 11 13 14 16 17 17 18 19 20 19 18 18 18 19 19 20 20 21 22 23 24 24 24 25 26 28 30 31 32 30 29
7 7 8 9 9 9 10 12 14 14 13 14 14 14 15 15 16 16 16 16 16 15 13 11 11 11 11 10 9 8 7 7 9 11 12 13 15 16 17 17 17 17 17 17 18 18 19 20 20 20 21 22 23 24 25 26 27 29 31 32 32 31 31
8 8 8 8 9 9 9 12 13 13 13 13 13 14 15 15 15 14 14 15 16 16 14 13 12 13 12 12 11 10 9 7 8 9 11 12 13 14 15 14 15 17 17 16 17 18 19 20 21 20 21 22 23 24 25 26 27 29 32 33 33 33 33
9 10 10 10 10 9 10 11 11 11 13 13 13 14 15 14 14 13 12 13 15 15 14 15 15 15 15 14 13 12 11 10 9 8 9 11 12 13 12 11 14 18 19 19 19 19 19 20 22 22 22 22 23 24 26 27 26 28 30 33 33 34 35
9 10 12 12 11 11 11 11 10 11 12 12 13 14 14 14 13 13 12 12 12 12 13 14 16 17 17 17 15 14 13 13 11 10 9 10 11 12 12 12 17 22 23 23 22 21 21 21 22 23 24 24 25 25 26 27 27 28 29 32 32 33 35
9 10 11 12 13 13 13 11 10 12 12 12 12 12 12 13 13 13 13 12 11 12 12 13 15 17 18 18 18 16 16 15 13 12 11 11 11 11 12 14 19 22 24 24 23 22 23 23 23 23 24 24 25 26 26 27 28 28 29 31 33 33 34
11 10 10 10 11 13 14 14 13 13 13 12 12 12 12 12 13 13 13 13 12 13 13 13 14 15 17 18 19 18 18 17 16 15 13 11 11 12 12 13 15 17 21 23 22 22 23 23 23 24 24 25 25 26 26 27 29 29 29 30 32 33 35
11 12 11 11 11 11 12 14 15 15 15 14 13 12 12 12 12 12 13 13 13 14 14 13 13 14 15 16 17 18 19 19 18 16 14 12 11 12 12 13 14 16 20 21 22 23 23 21 22 23 25 24 24 25 26 26 28 31 32 32 33 33 35
12 13 13 13 12 11 11 13 15 16 17 16 14 14 12 12 12 12 13 14 14 14 14 14 13 13 14 14 15 16 18 19 19 18 16 14 13 12 12 12 14 17 20 22 23 22 21 20 21 22 22 23 24 26 27 26 26 29 31 34 36 36 36
12 13 14 14 14 13 13 13 14 16 17 17 15 15 14 13 13 14 14 14 15 15 15 14 13 13 13 14 15 15 16 17 19 19 17 15 14 13 13 13 12 14 17 20 22 20 18 20 21 21 22 23 24 24 26 26 25 26 28 31 35 37 37
12 13 14 15 15 15 15 15 15 15 17 17 17 16 15 14 14 15 15 15 15 16 16 15 14 14 14 14 15 15 16 18 19 18 17 16 14 14 13 13 13 14 14 17 20 20 18 19 21 22 23 24 24 25 26 25 24 24 26 29 32 35 36
11 12 14 15 16 17 17 17 17 16 17 18 18 17 17 16 16 16 16 16 15 16 17 16 15 15 15 15 15 15 15 17 18 18 18 17 15 13 12 12 13 15 16 18 20 19 18 18 20 21 23 23 23 21 19 19 21 24 27 28 28 29 31
11 13 14 15 16 17 17 17 18 18 19 19 18 17 18 18 18 18 17 17 17 17 17 16 16 15 16 16 16 16 15 15 16 17 17 17 15 14 12 12 13 14 17 19 19 19 18 19 20 21 22 22 18 13 14 19 24 25 26 26 26 24 23
13 14 15 16 16 17 17 17 18 19 20 21 20 19 19 19 19 19 18 18 17 16 16 17 17 17 17 17 16 16 15 15 15 15 15 17 17 16 15 14 14 16 18 20 20 20 21 21 21 22 21 18 13 12 17 22 23 23 25 27 28 27 22
14 15 16 16 17 17 18 18 19 20 21 21 21 21 20 20 20 20 19 18 17 16 17 17 18 18 18 17 17 16 15 15 15 14 14 15 18 19 18 18 18 20 22 24 24 25 26 27 28 29 27 23 20 19 23 24 22 24 28 29 28 29 27
16 16 17 18 18 18 19 20 20 21 22 22 22 22 21 21 21 20 20 19 18 17 18 18 18 19 18 17 17 16 15 15 16 16 15 14 16 18 20 21 23 24 25 27 27 27 27 27 29 31 30 29 28 29 30 31 30 32 35 37 36 33 29
17 18 19 19 19 19 20 21 21 22 22 22 22 22 22 23 23 21 21 20 19 19 20 20 19 20 20 19 18 17 16 17 17 17 16 15 15 17 18 20 23 24 24 23 22 23 24 23 24 26 27 26 27 29 30 32 31 31 34 37 40 40 35

ECMWFFLT1_925_spd_081.txt.gz
Wind_Speed
10 11 12 11 9 10 10 9 12 14 16 20 23 25 25 24 24 24 24 25 25 24 24 22 22 21 21 21 20 19 18 17 16 16 15 14 13 13 13 13 13 12 11 10 10 10 9 8 9 9 9 9 9 8 8 8 7 6 6 7 5 5 5
5 9 10 10 11 10 10 14 17 15 15 18 19 22 24 23 22 22 23 24 25 24 24 23 22 21 21 20 19 19 19 18 17 16 15 15 14 14 14 13 13 13 11 10 10 11 11 11 10 10 10 10 10 10 9 9 9 8 7 8 7 6 6
5 4 6 6 8 10 11 13 11 8 12 17 19 20 22 21 20 21 21 22 23 23 23 23 22 22 21 20 19 19 19 19 18 17 16 16 15 15 14 13 13 13 13 11 10 11 12 12 12 11 11 10 10 11 11 10 10 9 8 8 8 7 7
8 7 5 3 6 8 8 8 6 2 9 14 19 22 19 18 19 20 19 21 22 23 23 23 23 22 21 20 20 19 20 20 19 18 17 16 16 15 15 15 14 13 14 13 13 12 12 12 12 12 11 11 10 11 11 11 11 10 9 8 8 7 7
9 9 7 2 6 8 6 7 11 10 12 19 16 16 15 15 18 19 19 21 23 23 24 24 23 22 21 21 20 19 20 20 19 19 18 17 16 16 16 16 15 15 14 14 14 14 13 13 13 13 12 12 11 11 12 11 11 11 11 10 9 8 8
9 9 8 7 4 6 3 4 9 14 19 22 14 12 15 14 15 18 19 21 23 22 23 24 24 23 22 22 20 19 20 20 19 19 18 17 17 17 17 16 16 16 15 15 15 14 14 14 13 13 13 12 12 12 12 12 12 11 11 11 10 9 8
7 7 8 10 8 6 4 6 11 13 16 15 12 14 17 13 12 16 17 19 21 22 25 26 26 25 23 22 21 20 20 20 20 20 19 18 19 18 17 17 17 16 16 15 15 15 15 15 14 14 13 13 12 12 12 12 12 12 12 12 11 10 9
9 9 9 10 10 10 9 8 10 12 10 5 9 13 14 12 14 15 13 15 19 23 25 25 23 23 22 21 21 20 20 20 20 20 20 20 20 19 19 18 17 17 16 16 16 16 16 16 16 15 14 14 13 13 12 12 12 12 12 12 11 11 10
11 11 11 12 11 11 13 15 13 9 6 6 7 8 8 9 13 11 7 14 21 21 22 22 21 20 20 19 19 19 20 19 19 20 20 20 20 21 21 20 19 18 18 18 17 16 16 16 16 16 16 15 14 14 13 13 13 13 12 12 12 12 11
12 12 13 13 13 13 14 17 18 17 14 12 10 10 8 3 7 8 7 13 18 17 15 18 20 20 18 17 18 18 19 19 19 20 20 21 21 21 21 21 20 20 19 19 18 17 17 17 17 17 17 17 16 16 15 14 14 14 13 13 13 12 12
11 12 13 14 14 14 16 17 17 18 17 15 14 13 13 11 6 3 5 11 12 11 11 10 11 15 17 18 18 19 19 20 20 20 21 21 21 21 21 21 21 21 21 20 19 19 18 18 18 18 18 18 18 18 17 16 16 15 14 14 14 14 13
10 11 13 14 14 14 14 15 17 18 18 17 16 15 15 14 13 13 7 3 10 13 12 8 9 11 14 17 18 18 19 19 20 20 21 21 21 21 21 21 21 21 21 21 21 20 20 19 20 20 20 20 19 19 19 18 17 17 16 16 15 15 14
10 10 11 12 13 14 14 14 16 18 18 17 17 17 16 15 14 16 15 10 2 6 8 7 10 13 12 13 16 18 19 19 20 20 20 21 21 21 21 21 21 21 21 21 21 21 21 21 21 21 21 21 21 20 20 19 19 19 18 18 17 16 15
11 11 12 12 13 14 15 14 15 17 18 18 19 18 17 16 15 14 14 14 13 9 7 6 8 9 11 12 13 14 16 18 19 20 20 20 20 21 21 21 20 21 21 21 21 22 22 22 22 21 21 22 22 22 21 20 20 20 20 20 19 18 17
12 12 12 13 13 13 13 13 14 16 17 18 19 19 18 17 17 15 13 12 12 13 12 12 11 9 7 11 13 14 14 14 16 17 18 19 19 19 21 21 20 20 20 21 21 21 21 22 22 22 22 22 22 22 22 22 22 22 22 21 20 20 19
12 12 12 12 12 12 12 13 14 15 16 17 18 18 18 17 16 16 14 12 12 13 13 13 12 11 9 7 7 9 11 11 12 14 15 16 17 18 18 19 20 21 21 21 22 21 21 21 22 22 22 22 22 22 22 23 23 24 24 24 22 21 21
11 11 11 12 11 11 11 12 14 15 15 16 16 16 15 15 15 15 14 12 11 11 12 13 14 14 12 10 8 8 8 9 10 10 10 12 14 16 17 18 19 20 21 21 22 22 21 21 21 22 22 22 22 22 22 23 23 25 27 27 26 23 21
10 10 11 11 11 11 11 11 13 15 15 14 14 14 14 13 13 14 13 12 11 10 10 11 13 15 15 12 9 9 8 7 9 11 11 11 12 13 15 16 17 19 20 21 22 23 23 22 22 22 22 22 22 22 23 23 23 25 27 29 30 29 25
9 9 10 10 10 10 11 11 12 14 14 13 13 12 12 13 13 13 13 12 12 11 10 11 12 12 14 13 10 8 7 8 10 11 11 13 15 15 15 15 17 18 20 21 21 21 22 23 23 22 22 22 22 23 23 23 23 24 26 28 30 31 30
8 8 9 9 10 10 10 11 12 12 13 13 13 12 12 12 12 12 12 13 13 12 10 11 12 11 12 13 9 5 8 13 14 14 13 14 15 16 16 15 17 17 18 20 20 20 21 22 22 22 22 22 22 23 23 23 23 24 25 28 29 30 31
7 8 8 8 9 9 10 11 12 12 12 12 12 13 13 13 12 12 12 12 13 13 12 10 11 12 12 12 9 6 8 12 13 13 15 14 14 15 15 16 17 17 17 19 19 17 18 19 20 21 22 22 22 22 23 25 25 24 24 26 28 29 30
6 7 7 8 8 9 9 11 12 12 12 11 11 12 13 14 14 13 12 12 12 12 12 11 11 12 12 11 9 8 10 12 13 13 14 12 13 16 17 17 18 17 16 19 20 17 16 19 20 20 21 22 22 23 23 24 25 27 27 27 27 28 29
5 6 7 8 8 8 8 10 12 11 11 10 10 12 13 13 13 12 11 12 12 11 11 12 12 12 12 12 12 12 11 11 12 13 14 12 13 17 18 18 19 18 16 17 20 20 20 20 20 21 22 22 23 23 24 24 25 27 28 29 30 29 30
5 5 6 7 8 8 8 11 12 11 10 10 10 11 12 12 12 11 11 12 12 11 11 11 12 13 13 12 13 13 12 11 11 12 14 15 14 15 16 18 18 18 18 19 21 23 23 21 20 21 22 22 23 24 24 24 24 25 27 29 31 31 32
4 4 5 6 7 8 9 11 11 10 10 10 10 12 12 11 11 11 11 12 12 11 11 11 12 13 14 13 13 13 13 13 12 12 13 15 16 16 14 16 19 19 20 20 21 23 24 23 22 22 22 22 24 25 25 25 25 26 27 29 30 32 33
4 5 5 6 7 8 9 10 9 9 11 11 11 12 12 11 10 10 10 11 11 11 11 12 12 13 14 14 14 14 14 13 13 13 13 14 16 17 16 15 18 19 20 19 20 22 24 23 22 22 23 24 24 24 25 26 25 26 28 29 30 32 34
5 6 7 7 8 8 8 8 7 9 10 10 11 12 11 10 11 10 10 10 10 10 11 11 12 13 14 14 15 14 13 13 13 13 13 13 14 16 16 15 16 17 19 20 22 24 26 25 24 24 24 23 23 24 25 26 26 26 28 29 31 31 33
5 6 7 8 9 8 8 8 8 9 9 10 10 11 11 11 11 11 11 11 10 11 11 11 12 13 13 14 14 14 13 13 13 13 13 12 13 15 16 15 15 16 17 18 21 24 25 24 23 24 25 23 24 26 26 25 26 27 28 30 31 33 33
5 6 7 8 9 9 10 10 10 10 11 11 10 10 10 11 11 11 12 12 12 12 11 11 12 13 13 14 14 14 13 13 13 13 13 12 13 14 16 16 16 17 18 18 19 21 23 22 22 24 25 24 25 25 25 24 25 26 29 30 30 32 33
5 5 6 7 8 9 10 11 11 12 12 11 11 11 10 10 11 11 12 12 12 12 12 12 13 13 13 14 14 14 15 14 13 13 13 13 13 14 15 15 16 17 18 18 19 20 20 19 19 20 21 22 22 23 23 23 24 25 26 26 27 30 32
6 6 6 7 8 10 11 12 12 13 13 12 12 12 12 11 12 12 12 12 12 12 12 13 13 13 13 14 14 15 16 15 14 14 14 13 13 14 15 15 16 17 18 18 18 18 18 17 16 16 17 19 20 20 19 19 21 24 24 23 24 27 29
7 7 7 7 8 10 12 14 14 14 14 13 13 13 13 12 13 14 14 13 13 13 13 13 13 14 14 14 15 15 15 16 16 15 15 14 14 14 15 16 17 17 17 18 18 17 16 16 15 14 15 16 16 16 19 22 23 25 26 24 22 22 22
8 8 8 8 8 9 11 13 14 15 16 16 15 15 14 14 14 14 15 15 14 14 14 14 15 15 15 15 15 15 15 16 17 17 17 16 16 16 15 15 15 15 15 16 17 16 16 16 16 14 14 14 12 13 19 24 23 21 22 23 22 19 17
9 9 10 10 10 9 9 10 12 15 17 18 17 17 16 15 15 15 16 16 16 15 15 15 15 16 16 16 16 16 16 16 17 18 18 18 17 15 14 14 14 15 15 16 16 15 15 15 15 14 13 12 11 15 21 23 20 18 21 22 22 18 12
9 11 12 12 12 11 11 11 12 14 16 17 18 18 18 17 16 16 16 16 16 16 16 15 16 16 17 17 17 16 16 16 16 16 17 17 16 15 14 16 16 17 18 19 18 19 19 20 21 19 17 15 15 18 19 18 15 15 16 17 17 15 12
10 11 12 13 14 14 14 14 14 14 15 16 17 18 18 18 18 17 16 16 15 16 17 17 17 17 17 17 17 16 16 16 16 16 15 15 16 17 17 18 19 19 21 23 25 26 27 27 27 26 23 23 24 25 23 21 20 20 19 19 20 19 19
11 12 13 14 16 16 17 17 16 16 16 16 16 16 17 18 18 18 17 17 16 16 17 18 18 18 18 17 17 17 17 17 17 17 17 17 18 19 20 20 21 21 23 25 26 26 25 23 23 22 21 24 29 30 29 29 29 30 30 30 30 29 29
11 12 14 15 16 17 18 18 18 18 17 16 16 16 17 17 18 18 19 19 18 18 19 19 19 19 19 19 19 19 18 18 18 18 18 19 19 19 20 21 21 22 22 21 21 22 21 21 20 19 19 21 26 29 30 30 29 29 30 30 29 27 26

ECMWFFLT1_925_spd_084.txt.gz
Wind_Speed
11 11 10 9 9 8 6 7 11 10 9 14 17 13 15 20 23 26 25 25 27 26 25 25 25 24 23 22 21 19 19 18 18 17 16 15 14 14 14 14 14 14 15 15 15 15 14 15 15 14 13 12 11 10 10 9 8 7 8 9 7 7 8
11 10 9 9 9 9 9 8 13 13 10 14 17 11 9 15 14 19 26 27 25 26 25 25 25 24 24 22 21 21 20 19 19 18 17 16 15 15 15 14 14 14 14 14 15 14 13 13 14 13 14 13 11 11 10 9 9 7 8 9 7 7 8
8 9 9 9 10 10 11 11 13 13 10 11 12 7 7 11 11 8 18 27 26 24 24 24 24 23 23 23 22 22 21 20 19 19 18 17 16 16 15 15 14 14 14 14 14 14 13 14 14 14 14 13 12 11 11 10 10 9 9 9 9 8 8
7 6 7 8 10 9 9 10 11 12 11 9 7 5 8 11 7 10 10 19 24 24 23 23 23 22 22 23 22 22 22 22 21 20 19 18 18 17 16 16 15 14 14 14 13 14 14 15 15 14 14 13 12 12 12 11 11 11 9 9 10 9 8
9 6 4 5 8 8 8 10 11 10 9 7 6 8 9 11 10 9 11 11 15 20 22 22 21 21 21 22 21 21 22 22 21 21 20 19 19 19 17 17 17 15 14 14 14 13 14 15 14 14 14 13 13 12 12 12 11 11 11 10 11 10 8
8 8 7 3 4 5 6 9 10 10 8 6 7 9 12 13 16 16 14 13 13 15 18 19 19 19 21 21 19 20 22 22 22 22 21 20 21 20 19 18 18 17 16 16 15 13 13 14 14 14 14 13 13 13 13 13 12 12 12 12 11 10 9
6 7 9 9 7 4 3 7 10 11 9 9 8 11 14 16 18 18 16 18 18 16 15 16 17 18 18 20 20 20 21 21 22 22 21 20 21 20 20 20 19 18 17 17 17 16 15 14 14 14 14 14 13 13 13 14 14 13 13 13 12 11 10
7 6 7 9 10 9 8 8 10 11 9 8 8 8 10 11 14 17 15 16 17 16 16 18 19 17 15 15 18 20 22 22 22 22 22 21 21 21 20 20 20 20 19 18 18 18 17 16 16 15 15 14 14 14 14 15 15 14 14 14 14 13 11
7 8 8 10 11 11 12 12 11 10 8 8 10 7 7 10 15 16 13 13 15 14 16 20 20 18 17 15 14 15 18 22 22 21 23 22 21 21 20 20 20 20 20 19 18 19 19 18 18 17 17 16 15 15 15 16 16 15 14 15 15 14 13
7 8 10 11 10 10 14 16 14 11 9 8 10 8 7 10 12 11 10 12 14 14 15 17 18 18 19 20 19 16 18 20 24 22 22 23 22 22 21 20 20 21 20 19 18 19 19 19 19 20 19 18 17 17 16 16 17 16 15 15 15 15 14
7 8 10 10 11 12 13 15 15 14 12 9 8 8 5 5 5 6 8 9 10 12 13 12 14 16 17 19 22 20 21 23 22 24 23 22 21 22 23 21 20 20 21 19 18 19 20 20 20 20 22 21 19 18 18 17 17 17 16 16 16 16 15
7 8 10 11 12 12 12 13 14 16 15 12 10 11 11 8 6 5 3 4 4 6 9 10 10 12 15 16 18 22 22 25 24 21 23 23 22 20 21 21 21 20 20 20 19 19 19 21 21 20 22 23 21 20 20 19 18 18 18 17 16 17 16
8 9 10 11 11 12 11 11 13 15 17 16 15 16 17 14 9 9 9 8 8 6 1 7 8 8 10 12 14 17 20 21 21 19 15 15 19 21 20 20 20 20 21 21 20 19 18 20 22 22 22 23 23 21 21 22 20 20 20 19 17 17 17
10 10 11 11 12 12 12 11 11 13 15 16 17 18 19 19 16 11 10 10 10 11 9 4 2 2 2 4 7 12 14 14 14 16 18 14 11 14 17 19 19 19 21 22 21 20 20 19 21 22 22 21 22 22 21 22 23 21 21 21 20 18 18
11 11 12 12 12 12 12 11 11 12 12 13 15 16 16 17 16 14 10 11 11 11 11 11 12 11 10 8 4 7 12 13 14 17 19 15 11 10 10 14 18 18 18 21 22 21 19 19 20 21 22 21 21 22 21 21 22 23 23 23 22 21 19
11 11 12 12 12 12 12 12 12 13 12 11 13 14 13 13 13 14 13 13 13 15 14 13 14 14 12 11 8 3 1 3 7 12 15 16 16 13 9 9 10 11 10 12 17 20 20 20 19 19 21 22 22 22 22 21 22 23 24 24 24 24 22
10 11 11 12 11 11 11 12 13 13 13 12 13 12 11 12 12 12 14 14 14 16 16 15 15 13 11 11 9 7 6 6 4 1 4 7 10 12 11 10 8 8 8 7 8 11 14 18 20 20 19 21 23 23 22 22 22 24 26 26 26 25 24
10 11 11 11 11 11 11 11 12 13 13 13 13 13 12 12 11 12 13 14 16 17 17 17 15 11 10 12 13 10 9 8 9 8 6 4 2 2 6 10 11 13 12 9 9 10 10 13 17 20 21 20 21 22 23 24 23 24 27 29 29 28 27
10 10 10 11 11 10 10 11 12 12 13 13 13 13 13 12 12 13 13 14 17 17 15 16 16 13 12 13 14 12 11 11 10 10 9 8 7 5 4 6 9 12 13 14 13 13 14 15 15 17 21 23 23 22 22 24 26 26 28 30 31 32 31
9 10 10 10 11 11 11 11 12 12 12 13 13 13 14 13 12 13 13 14 15 15 14 15 15 14 14 15 15 14 14 13 11 10 9 8 9 9 9 8 7 10 12 14 14 15 17 19 19 18 19 22 26 26 24 23 25 27 29 31 32 33 35
8 9 9 9 9 10 11 12 12 11 11 11 12 13 13 13 12 12 12 12 12 12 13 14 14 13 13 14 15 15 15 14 11 8 7 7 8 9 9 8 7 9 11 14 15 15 17 19 21 23 22 21 23 26 27 26 25 25 27 30 33 34 35
6 8 8 9 9 10 11 12 11 11 10 10 12 12 12 12 12 12 12 11 10 10 11 12 13 13 13 14 15 15 15 13 10 8 8 8 7 7 8 7 7 8 10 12 14 16 19 21 22 25 27 25 24 25 27 28 27 28 28 27 30 33 36
6 7 8 9 10 11 11 12 11 9 9 10 12 12 11 11 11 11 12 11 10 11 11 12 13 12 12 13 14 15 14 12 10 10 9 9 8 8 7 6 7 8 10 12 14 15 19 21 22 23 24 26 26 25 26 27 27 29 30 30 29 31 35
6 8 8 8 9 10 11 11 10 9 9 10 12 11 10 10 10 10 11 12 11 11 12 12 13 12 11 11 10 11 12 12 12 11 10 9 9 10 10 9 7 8 10 12 13 15 16 17 18 19 20 22 24 25 26 27 28 28 30 31 31 31 34
7 7 7 8 9 10 10 10 8 9 9 11 12 11 10 10 10 10 11 11 11 10 11 12 11 11 11 10 8 8 9 10 9 10 10 9 10 11 11 11 9 8 10 11 13 15 16 16 16 17 18 20 22 23 24 26 28 29 30 31 32 32 33
6 6 7 9 10 10 9 8 9 10 11 12 12 11 10 10 10 10 10 10 10 10 11 11 11 11 11 11 10 9 9 7 7 9 10 10 11 11 11 12 11 10 10 11 12 14 16 17 17 18 19 20 21 23 24 26 26 26 27 29 30 32 35
5 6 7 9 9 9 8 9 10 10 11 12 11 11 11 11 10 10 10 9 9 10 11 10 10 11 12 11 11 10 10 9 9 11 12 12 13 11 10 11 12 13 13 12 12 13 15 17 18 19 21 22 25 29 29 26 24 22 23 26 26 26 29
5 6 7 7 7 8 8 9 10 10 11 12 12 12 12 11 11 10 10 10 9 10 10 9 9 10 11 12 11 10 11 10 10 11 12 13 15 14 13 12 13 14 14 13 13 14 15 16 17 19 20 22 27 30 27 23 22 21 22 25 26 25 25
5 5 6 6 7 9 9 8 9 10 11 11 11 12 12 12 12 11 10 10 10 10 10 10 10 11 11 10 10 9 10 10 11 11 11 12 13 15 16 16 15 16 15 14 15 15 15 16 17 19 21 22 25 26 23 22 22 22 23 26 28 26 23
5 5 5 6 7 9 9 8 8 9 9 9 10 11 11 11 11 11 11 11 11 11 11 11 11 11 10 9 10 10 11 10 11 11 11 12 13 13 15 16 16 17 18 17 17 17 16 16 17 17 20 22 22 22 20 21 23 25 26 25 24 23 23
4 5 6 6 8 9 9 9 9 9 9 9 10 11 11 11 11 11 11 12 12 12 12 11 11 10 10 11 11 12 12 11 11 11 12 13 13 14 14 14 15 17 19 19 17 15 15 16 16 16 17 19 19 18 19 21 24 23 21 19 20 23 26
4 5 5 6 7 9 9 9 9 9 10 11 11 11 11 11 11 11 11 11 12 12 12 12 11 11 11 12 12 12 12 12 12 12 13 14 15 16 16 16 17 18 19 18 16 14 14 15 15 13 12 11 12 15 18 20 22 20 18 19 21 23 23
4 4 4 5 6 7 8 8 9 10 11 11 12 12 12 11 11 11 11 12 12 12 12 11 12 11 11 12 13 13 13 13 13 14 14 15 15 16 16 17 18 16 14 12 12 12 13 12 11 11 11 13 14 17 17 17 17 17 16 15 16 18 19
3 4 4 5 6 6 7 8 9 10 11 11 11 11 12 12 12 11 12 12 12 12 12 11 12 12 12 13 13 14 14 14 14 14 15 14 14 14 15 16 15 13 11 11 12 13 14 12 12 14 15 17 19 20 19 18 17 15 13 11 14 17 18
3 4 5 6 6 7 8 9 10 11 11 11 11 12 12 12 12 12 12 12 12 12 12 12 12 13 13 13 13 13 13 13 13 13 13 13 14 14 14 15 14 13 14 14 14 14 14 15 18 21 21 22 21 19 19 19 18 16 18 20 23 24 23
4 5 5 7 8 8 9 10 10 11 12 11 11 12 13 13 13 13 13 13 14 14 14 14 14 14 13 13 13 13 13 13 14 15 16 17 18 18 17 17 17 19 21 21 20 20 21 24 26 26 23 24 24 21 18 19 21 22 25 28 29 28 27
4 5 6 7 7 8 8 9 10 11 12 12 12 12 13 13 14 14 15 15 15 15 16 16 15 15 14 13 13 14 14 14 15 15 16 17 18 19 20 21 23 25 26 27 27 27 27 26 26 23 19 20 23 23 21 22 23 25 26 27 27 28 28
4 5 6 6 6 7 8 8 9 10 11 12 13 13 14 14 15 15 16 16 16 16 16 16 16 16 16 15 15 15 15 14 15 16 17 17 18 19 19 21 22 23 23 23 23 23 22 21 21 20 19 20 23 24 24 24 24 24 24 23 23 24 25

ECMWFFLT1_925_spd_087.txt.gz
Wind_Speed
10 10 8 8 9 8 6 10 13 15 20 18 14 20 23 23 28 31 31 32 30 29 27 25 27 27 25 24 22 23 23 20 19 18 17 18 19 19 18 18 18 18 17 16 14 16 16 15 15 14 14 15 13 12 12 12 11 11 12 13 11 11 12
9 9 8 7 7 6 5 10 15 15 17 16 12 14 18 21 26 28 29 30 28 29 28 26 27 27 26 25 22 22 23 21 20 19 18 18 19 19 18 19 18 17 17 16 15 15 16 17 17 16 15 15 13 12 13 13 11 11 13 13 11 11 12
8 8 7 7 7 7 6 10 14 14 15 14 11 13 18 23 27 28 30 31 27 26 26 25 27 27 26 25 23 22 22 22 21 22 20 19 19 20 19 19 18 18 17 16 15 15 15 16 17 17 16 15 14 12 13 13 12 12 12 12 12 11 11
3 4 3 3 5 6 4 7 8 8 12 13 11 12 16 21 25 27 29 32 31 28 25 24 25 27 27 26 25 24 23 22 22 23 22 20 19 19 20 19 18 19 18 16 16 16 15 15 16 18 17 16 15 13 13 13 12 12 12 12 13 12 11
7 6 3 2 4 6 7 9 8 7 11 13 13 13 14 20 23 25 26 28 30 30 28 25 24 25 26 27 26 24 24 24 23 23 23 21 20 20 20 19 19 19 18 17 16 16 16 15 16 18 19 16 16 16 14 13 12 13 13 12 12 12 11
7 8 4 2 4 5 5 9 12 13 15 17 18 18 18 21 23 25 26 27 28 29 30 30 27 25 25 26 26 25 25 25 24 23 24 23 22 21 21 21 20 20 18 16 17 17 17 18 17 18 19 17 17 18 16 14 13 13 13 12 12 12 11
8 9 6 2 3 4 3 6 10 13 14 17 19 20 21 23 24 25 25 26 28 29 30 32 32 28 26 26 26 25 25 26 26 24 24 23 23 22 22 22 21 21 19 17 18 19 18 19 20 19 19 17 17 18 17 15 15 14 14 13 13 12 11
11 10 7 4 5 5 3 3 9 12 12 13 14 14 16 18 21 23 25 26 27 29 31 31 31 30 27 26 26 26 25 26 26 25 24 24 23 23 22 23 22 21 20 19 19 19 18 20 21 19 19 18 18 18 18 17 16 15 15 15 14 14 13
12 10 9 8 9 8 7 5 7 11 12 11 11 11 11 12 14 15 19 22 23 27 30 30 29 27 25 25 26 25 25 26 26 26 26 25 23 23 23 23 23 21 21 20 21 21 20 20 21 19 19 19 19 19 19 19 18 17 17 16 15 15 15
10 9 9 9 10 9 10 10 7 9 11 10 10 10 10 11 11 9 10 13 17 21 25 25 24 22 21 23 24 23 21 23 25 24 25 25 23 22 23 23 23 23 22 21 21 22 22 22 21 20 20 20 20 20 20 20 20 19 19 18 17 16 16
8 8 8 9 9 8 9 11 11 12 13 13 13 11 9 8 8 7 6 6 7 10 12 11 9 8 9 11 14 16 16 17 20 20 20 23 21 20 22 23 23 23 23 23 22 23 23 24 23 22 22 22 21 20 20 20 21 20 19 19 18 17 16
6 7 7 8 7 6 7 9 11 13 15 15 17 17 13 10 8 5 4 3 2 2 2 2 2 5 11 12 9 11 15 17 20 20 19 20 19 16 16 19 23 25 24 24 24 23 24 25 25 24 24 24 22 21 21 20 20 21 20 19 19 18 17
7 7 7 6 6 6 7 8 10 13 15 16 18 20 20 19 16 12 10 11 11 7 5 3 2 5 11 15 13 12 13 16 18 18 17 19 20 16 10 10 16 24 27 27 25 25 25 26 27 26 25 25 25 24 23 21 20 20 21 20 19 19 19
9 8 7 7 7 6 7 8 9 12 14 16 18 19 21 22 21 19 18 19 18 15 15 14 9 4 2 7 9 9 10 11 12 12 12 15 18 18 14 10 10 12 22 29 29 27 26 27 28 29 27 26 27 26 25 24 23 22 22 21 20 20 21
10 9 8 7 7 7 7 7 8 12 14 16 18 18 19 21 21 21 22 21 20 17 17 17 15 12 8 5 4 5 6 8 10 11 9 11 14 17 17 15 13 11 11 22 30 30 28 27 28 30 31 29 28 28 28 27 27 26 25 24 23 23 23
11 10 9 8 7 6 6 7 9 12 14 16 18 17 17 18 18 20 21 20 20 19 17 15 14 12 10 8 7 6 5 3 4 7 7 8 11 15 15 16 15 12 8 11 22 26 27 27 25 27 32 32 29 29 30 29 29 28 28 28 28 27 26
11 10 10 9 8 7 7 8 9 10 11 14 16 17 16 15 16 19 21 20 19 17 15 15 15 13 10 9 10 10 9 10 8 6 4 4 6 9 11 12 12 12 9 7 14 20 22 23 21 20 26 32 32 31 30 30 29 28 29 29 29 29 29
10 10 10 10 8 7 7 8 9 10 11 12 15 16 17 15 16 18 19 20 20 17 12 11 13 14 11 7 8 9 10 10 10 10 9 8 6 4 6 8 9 9 9 7 10 15 18 20 19 14 14 20 27 30 31 31 30 29 28 28 29 30 30
10 9 9 9 8 7 6 7 10 12 13 13 14 14 15 16 17 18 17 19 20 20 17 14 13 14 12 5 3 3 4 5 6 6 6 5 5 3 3 6 7 7 7 7 8 10 13 15 17 15 12 11 15 20 24 27 29 29 28 26 27 29 30
9 9 8 8 8 6 6 7 10 13 14 15 14 12 13 16 16 15 18 21 22 22 21 18 16 15 13 9 5 3 2 2 3 2 1 1 2 2 2 3 5 5 5 6 7 9 11 12 14 16 16 15 14 14 14 16 20 24 26 27 28 29 30
9 9 8 7 7 7 9 10 9 11 14 15 15 14 14 15 14 13 15 20 24 24 23 20 18 16 14 12 10 8 7 7 7 5 3 3 5 5 5 5 5 4 4 5 6 8 10 11 14 15 17 18 18 18 17 14 11 12 14 18 22 26 30
7 8 8 8 8 9 10 11 10 12 15 14 13 14 14 14 14 14 13 18 23 24 22 20 17 15 14 15 13 11 10 11 11 9 6 6 7 6 5 5 5 5 4 5 7 8 10 11 13 14 16 17 17 18 19 18 14 12 10 10 12 17 23
8 10 12 13 12 11 9 9 11 15 17 14 12 13 14 14 13 15 16 16 19 20 19 19 17 14 12 12 12 12 11 11 11 9 7 7 8 8 6 5 5 4 4 6 7 9 10 11 11 12 14 15 15 15 16 16 16 16 15 13 13 13 15
12 14 16 15 13 10 8 9 13 17 15 13 14 14 15 14 12 13 16 15 16 17 17 17 16 14 11 10 9 9 9 8 8 7 5 5 6 6 6 5 5 4 4 4 5 7 8 9 9 10 10 11 11 11 10 9 12 16 19 21 21 19 16
13 17 17 14 11 9 9 11 15 17 15 13 15 15 14 14 12 12 14 15 15 15 15 15 14 13 11 9 7 6 6 6 6 6 4 3 3 4 5 5 5 5 5 5 5 6 6 7 8 9 9 9 9 9 9 10 12 14 18 22 22 20 20
13 16 15 12 10 11 13 14 15 15 14 14 15 15 14 13 13 11 11 12 13 14 14 13 12 11 10 8 7 6 6 6 6 8 7 6 6 6 6 6 6 5 5 5 6 7 7 7 8 9 9 9 10 10 12 15 17 18 20 20 18 17 18
15 15 14 14 14 14 15 15 14 14 13 14 15 15 14 13 12 11 10 11 12 13 12 11 10 10 10 9 8 7 7 7 7 9 9 10 11 11 9 8 7 6 6 6 7 7 8 9 9 9 10 10 10 11 13 16 19 21 22 20 17 16 16
14 13 13 16 15 14 14 14 12 11 13 14 15 14 14 13 12 11 11 12 12 12 11 9 9 10 10 9 9 8 7 7 8 8 9 10 11 12 12 11 10 9 8 8 8 7 8 10 10 10 10 11 10 11 13 15 16 17 18 18 16 15 16
12 11 13 16 15 13 13 13 11 11 15 16 16 15 14 13 12 11 12 13 11 10 9 9 9 9 9 9 10 10 10 10 9 9 9 10 11 13 14 14 13 12 12 10 10 10 10 10 9 9 11 12 12 12 14 15 16 16 15 15 15 16 16
12 12 14 16 15 12 12 11 11 13 16 16 15 15 14 13 12 11 12 12 10 9 10 10 10 9 8 9 11 11 12 12 12 12 12 13 13 15 16 16 15 15 14 13 13 12 11 10 10 10 11 12 12 12 13 14 14 13 13 12 12 14 14
12 12 14 15 13 11 10 11 12 14 15 14 14 13 13 12 12 12 12 10 9 10 10 10 10 10 10 11 11 12 13 13 13 13 13 13 14 15 16 17 16 16 17 17 16 13 13 12 10 7 7 7 9 11 14 15 15 14 13 12 10 10 10
12 11 11 12 10 9 9 10 11 12 12 12 12 11 11 11 11 11 11 10 10 12 12 11 11 11 12 12 12 13 14 14 14 14 14 14 15 15 16 17 17 16 17 17 15 12 11 10 6 4 6 8 10 13 16 17 16 15 15 14 11 9 8
10 9 8 8 8 8 8 9 9 10 9 9 9 9 9 9 9 9 10 10 11 12 12 11 11 11 12 13 14 15 16 16 16 15 16 17 17 16 16 17 17 16 16 15 13 11 11 10 8 8 11 14 16 19 20 18 16 16 16 15 13 11 11
9 7 6 7 8 8 8 8 8 7 7 7 8 8 9 9 9 9 10 11 12 12 12 12 12 13 13 13 14 15 16 17 17 17 17 18 19 19 19 19 19 20 19 18 17 17 16 16 16 17 18 20 23 24 23 20 17 15 14 13 14 17 18
6 6 7 9 8 7 6 5 5 5 5 7 8 8 8 9 10 10 10 11 12 12 12 13 13 12 12 12 13 14 16 17 18 19 20 21 21 22 21 20 20 22 23 22 21 21 21 21 22 22 23 25 26 24 23 23 21 17 16 17 19 21 22
7 7 8 8 6 4 3 2 2 3 6 7 8 8 8 8 9 10 10 11 11 11 12 12 12 12 11 12 13 14 15 16 17 17 19 20 21 23 23 22 22 22 23 23 22 22 21 20 20 21 23 26 27 25 24 24 23 21 21 22 22 21 22
8 7 7 5 2 1 2 1 4 6 7 7 7 8 8 8 9 9 9 10 10 10 11 12 13 13 13 13 13 14 14 15 15 15 16 18 20 22 23 24 24 23 22 22 22 21 19 18 19 21 22 25 27 26 25 24 24 23 22 22 21 20 21
10 7 4 1 3 2 2 6 8 8 7 7 7 8 8 9 9 9 9 10 11 11 12 12 13 14 14 14 15 15 15 15 15 15 16 17 18 18 20 22 23 23 22 22 21 21 21 21 22 22 22 23 25 28 28 27 25 24 22 22 21 20 21

ECMWFFLT1_925_spd_090.txt.gz
Wind_Speed
9 9 9 9 10 10 9 11 16 20 23 26 30 31 32 33 34 33 34 35 34 32 31 31 30 29 29 28 27 26 26 23 22 21 19 20 20 19 19 20 21 21 19 17 17 16 15 15 16 15 13 14 14 12 11 11 11 11 11 10 10 10 9
8 7 4 3 4 4 4 5 7 12 17 21 28 32 31 32 34 34 34 35 36 35 33 31 30 30 30 29 28 27 27 25 23 21 19 20 21 20 19 19 20 21 20 18 17 16 15 16 17 16 15 15 14 13 12 11 11 11 11 10 10 10 9
6 5 4 5 6 5 7 10 7 4 9 12 22 29 30 32 35 36 35 35 35 35 35 34 32 31 30 29 28 28 27 26 24 22 20 20 21 20 19 19 19 19 19 19 17 15 15 16 18 17 15 15 14 13 12 12 11 11 10 11 11 11 10
4 6 7 7 9 9 11 11 9 9 9 9 15 23 28 32 35 36 36 37 36 35 34 34 33 32 30 29 28 27 27 28 26 23 21 20 19 20 20 19 19 18 18 18 17 16 14 15 17 17 16 14 14 13 12 11 11 11 10 11 12 12 11
7 9 5 4 6 5 7 13 17 16 11 11 16 20 24 29 31 33 36 37 37 36 36 35 33 31 30 29 28 26 26 27 27 24 22 20 19 19 20 20 19 18 18 17 16 15 15 15 14 15 15 15 13 12 12 11 11 11 12 12 13 13 12
9 8 4 3 4 3 4 9 16 20 20 20 21 17 17 23 26 29 34 36 36 35 32 31 31 30 29 28 27 26 25 25 26 25 23 21 20 19 20 20 19 18 18 17 16 15 15 15 13 12 14 15 14 14 13 12 11 11 12 13 13 12 12
9 8 6 5 4 1 5 9 13 16 19 22 21 15 14 17 20 23 27 30 32 32 31 30 29 28 28 28 27 26 25 25 25 24 24 22 21 21 20 20 20 19 18 18 18 17 15 15 14 13 14 15 16 15 14 14 13 12 12 13 13 12 11
10 8 7 6 4 3 3 3 8 9 8 11 15 17 17 14 11 14 18 18 16 15 16 20 23 23 23 23 25 25 25 25 24 24 24 23 23 23 21 21 21 20 20 20 20 19 18 17 17 16 16 16 17 16 15 15 15 13 12 12 13 12 12
9 7 6 7 6 5 7 5 7 13 12 11 14 17 18 13 10 11 11 6 4 3 4 8 14 19 22 22 23 24 23 24 25 24 23 24 24 25 24 23 23 22 22 22 21 20 21 20 20 19 19 18 18 18 17 17 17 16 14 14 13 13 12
8 7 6 6 6 6 9 9 7 14 17 14 12 13 16 15 15 16 13 8 9 13 15 16 15 16 21 23 23 22 20 20 23 24 25 25 24 25 25 24 24 24 24 24 23 22 22 22 21 21 21 21 20 19 19 19 19 18 17 16 15 14 14
7 6 6 7 7 8 9 10 9 9 12 13 11 12 14 15 16 18 17 15 17 21 25 26 21 16 16 18 18 17 14 15 19 21 24 26 25 24 25 24 24 25 25 26 25 24 23 23 22 22 23 24 22 21 20 20 21 21 21 19 16 16 15
6 5 6 7 8 7 7 9 11 11 10 11 12 13 14 15 17 18 18 18 18 21 23 23 21 20 20 18 17 17 16 18 21 19 18 23 25 24 23 22 22 23 25 26 26 25 24 25 24 23 24 24 23 22 21 21 22 22 22 22 20 18 18
6 6 6 7 7 7 8 9 11 13 14 12 12 14 15 16 18 18 18 18 17 17 19 20 20 21 22 20 18 18 18 19 22 20 16 17 21 23 21 18 16 16 19 23 27 26 25 26 27 26 25 25 24 23 23 22 22 23 23 23 22 21 20
8 7 6 6 7 7 7 8 9 12 15 16 14 13 15 18 19 19 18 18 18 16 17 19 20 18 16 17 18 18 16 14 16 17 17 17 19 20 19 17 15 13 13 16 23 27 27 27 28 28 27 27 26 25 24 23 23 23 23 23 23 23 23
9 8 7 7 7 7 7 7 8 11 14 17 18 18 18 19 18 20 19 17 17 15 12 13 15 15 13 15 18 18 15 13 15 17 18 19 21 21 19 18 17 15 12 12 16 24 29 29 29 29 30 29 29 27 26 25 24 24 24 23 23 23 24
10 8 7 6 6 7 7 7 9 11 13 15 17 17 18 18 18 19 19 15 14 13 12 13 14 14 15 15 16 17 15 15 17 19 18 18 19 20 20 18 17 17 14 11 11 18 27 30 29 29 30 31 31 30 29 28 27 26 25 25 25 24 24
10 8 7 6 6 7 7 6 8 11 13 15 16 16 16 16 17 18 16 15 14 12 12 15 16 15 15 14 13 14 14 15 16 16 17 15 14 17 19 19 18 17 15 12 10 12 20 25 26 27 28 30 31 31 31 30 29 28 27 27 27 27 26
9 8 7 6 5 6 7 6 7 10 13 15 16 17 16 15 16 16 14 15 15 13 11 13 15 15 15 15 14 12 11 12 13 14 14 14 12 11 13 15 16 15 14 13 11 10 11 15 18 20 22 25 27 29 30 30 30 29 29 29 29 29 28
8 8 7 6 5 5 6 6 8 10 13 15 18 19 17 17 17 16 13 13 14 14 12 11 11 12 11 11 11 11 9 10 11 12 12 12 11 8 7 8 9 10 11 12 12 11 9 9 11 13 14 15 17 19 22 24 27 28 29 29 29 29 29
7 6 6 6 6 5 5 8 11 12 14 16 17 18 18 18 18 17 15 15 16 15 15 14 14 13 9 7 6 7 6 7 7 8 9 9 7 6 5 4 4 5 6 7 9 10 11 10 10 11 11 11 11 12 14 16 20 24 27 28 29 28 29
7 7 6 6 5 6 6 9 11 13 14 16 17 17 16 16 18 19 19 18 19 18 18 19 18 16 12 9 8 8 8 8 7 7 6 6 5 4 3 2 1 1 2 3 4 6 9 10 11 10 10 10 10 10 12 13 15 17 20 24 26 27 29
6 6 6 6 8 9 9 10 12 14 14 17 19 20 17 15 14 15 17 17 17 18 17 18 18 15 13 11 11 11 11 10 9 9 8 7 6 5 5 4 2 1 1 2 3 4 5 7 9 9 8 8 8 8 11 13 14 14 15 16 18 20 22
9 8 8 10 13 14 15 16 19 19 17 17 19 22 21 17 14 14 15 16 17 17 15 16 17 15 13 12 12 12 12 12 12 11 9 8 7 6 5 4 3 2 1 1 2 3 3 4 5 5 3 3 3 4 7 10 11 11 11 12 13 15 17
13 13 12 15 17 18 18 20 22 21 19 18 18 18 20 20 17 16 17 18 18 16 15 15 16 15 13 12 12 12 12 11 12 12 10 9 8 7 5 3 2 2 2 2 3 3 3 4 5 5 6 6 6 6 6 6 6 7 7 8 9 12 14
13 16 17 19 20 20 20 21 22 22 21 19 17 15 15 17 18 18 18 18 18 17 16 16 16 15 13 12 11 12 12 12 11 11 11 10 9 8 7 5 4 4 5 5 5 6 4 3 5 5 4 5 5 6 7 6 6 9 12 13 13 13 14
15 18 19 20 21 21 21 22 23 23 21 19 17 15 13 13 15 17 17 16 16 17 16 15 14 13 12 11 11 11 11 12 11 11 11 10 10 9 8 8 6 5 5 6 6 7 5 3 4 3 1 4 6 10 10 8 7 9 10 13 15 16 17
19 20 20 19 18 19 22 23 22 22 21 18 17 15 13 13 14 16 15 15 16 16 14 12 11 11 11 11 12 12 12 12 12 12 11 10 10 10 10 10 10 8 7 6 6 6 6 6 6 5 5 6 7 8 7 7 8 9 9 11 14 15 16
20 20 20 18 17 18 21 22 21 21 19 17 16 16 14 14 15 15 14 14 15 14 12 11 10 10 10 10 12 13 14 13 13 13 12 11 12 12 12 13 13 11 10 9 7 6 6 6 6 6 7 7 7 7 6 7 7 8 9 10 11 13 14
18 18 18 18 16 17 20 21 20 19 18 16 15 15 14 14 14 13 13 14 14 11 10 10 10 9 10 11 12 13 14 14 14 14 13 13 14 15 15 16 15 15 14 13 11 9 8 7 5 5 7 8 5 3 5 8 11 12 12 12 12 12 12
18 18 17 17 16 16 18 19 18 17 16 14 13 13 13 13 13 12 12 12 11 9 9 9 9 9 10 11 12 14 14 15 14 14 14 15 15 15 17 17 16 17 17 16 12 10 10 10 9 8 7 5 1 4 7 10 14 16 15 14 14 13 12
18 18 17 16 15 15 16 17 16 15 14 12 12 11 11 11 12 11 11 11 10 9 8 8 8 8 9 11 12 14 15 16 15 15 15 15 15 15 16 17 16 17 18 19 17 13 11 11 10 7 5 5 5 7 10 14 17 18 16 14 15 15 14
17 17 16 15 14 13 13 14 13 13 12 11 10 10 9 9 10 11 11 10 10 9 8 8 8 8 8 10 11 14 16 16 16 15 15 15 14 15 16 16 16 16 18 18 18 17 16 15 14 12 10 10 10 12 15 16 18 17 15 13 15 15 13
16 16 16 14 13 12 11 12 11 10 10 10 9 8 8 9 10 10 10 9 9 9 8 8 8 8 8 8 10 13 15 16 16 16 16 16 15 16 16 15 16 17 18 18 19 19 18 18 17 16 15 15 15 16 17 18 18 17 14 14 14 15 15
16 17 16 14 12 10 9 9 8 8 10 10 9 7 7 8 9 9 9 8 8 8 9 9 8 8 8 8 10 12 14 15 16 17 18 18 17 17 17 17 18 18 17 16 17 18 19 20 19 17 16 16 17 18 19 19 18 17 17 17 17 18 20
17 17 16 13 10 8 7 6 6 8 10 10 8 7 6 6 8 8 8 8 8 8 8 9 8 8 9 9 10 12 13 14 15 16 18 19 19 19 18 17 17 18 17 15 14 15 16 18 19 18 18 18 18 18 19 20 20 19 19 20 20 22 24
18 17 14 11 8 6 5 4 6 9 10 9 7 7 6 5 6 6 6 7 7 7 8 9 9 9 10 10 11 12 12 13 13 14 16 17 19 20 20 18 17 17 17 18 17 15 14 15 17 17 18 19 20 19 19 22 22 21 20 20 21 22 23
19 15 11 8 6 6 5 6 9 10 9 6 5 4 4 4 4 4 5 6 7 8 8 9 9 10 11 11 12 12 13 13 13 14 14 15 17 19 20 20 20 18 17 17 18 17 16 15 16 16 17 19 20 21 21 21 22 22 21 21 21 20 21
18 14 10 8 8 8 9 11 10 8 6 5 4 3 3 3 4 5 6 6 7 8 9 9 10 11 11 12 13 15 15 15 15 15 16 16 16 17 18 19 20 21 20 19 19 19 19 18 17 17 17 18 19 20 21 22 22 23 23 22 22 22 22

ECMWFFLT1_925_spd_093.txt.gz
Wind_Speed
9 8 6 2 3 3 2 4 14 20 22 23 26 27 28 29 30 31 31 32 32 31 30 29 27 27 29 29 26 23 23 21 21 21 19 18 17 17 17 17 17 16 16 17 17 16 14 13 13 13 12 12 11 11 11 10 9 10 10 9 9 9 9
7 6 6 5 4 4 4 3 8 17 22 24 25 27 27 29 30 30 31 32 32 32 31 30 29 27 29 30 27 24 23 23 21 19 19 18 17 17 16 16 16 16 15 16 16 15 14 13 13 13 12 12 11 10 11 10 9 10 11 11 10 10 10
5 5 7 9 7 6 6 5 4 10 20 25 25 26 28 29 31 32 32 32 32 31 31 31 30 29 28 29 28 25 24 24 22 20 19 18 17 17 17 16 15 15 15 15 15 14 13 13 13 13 13 12 11 11 11 11 10 10 11 11 11 11 10
6 6 6 7 8 8 11 13 9 8 18 26 28 28 29 30 32 33 33 33 33 32 31 31 31 31 30 30 29 27 26 25 23 22 20 19 17 16 18 19 17 16 15 15 14 14 13 13 14 14 14 14 12 12 13 12 11 11 11 12 12 11 11
4 4 4 3 4 5 8 13 15 13 14 20 25 27 28 29 30 31 32 33 33 33 33 32 32 32 31 31 30 29 28 26 25 23 22 20 18 17 18 20 20 18 17 15 15 15 14 14 15 15 16 16 14 13 13 13 12 11 12 12 12 11 12
4 4 3 3 3 2 1 5 14 16 11 12 18 23 25 26 28 29 29 29 29 30 31 31 31 32 32 32 31 29 29 28 26 25 24 22 19 18 18 19 20 19 17 16 15 15 15 15 15 16 17 17 16 15 14 14 13 12 13 13 13 12 12
5 5 5 5 5 4 4 2 6 12 12 12 13 16 20 23 25 25 24 24 25 26 26 26 27 28 29 30 29 29 28 28 27 26 26 24 21 19 18 19 20 20 18 16 16 16 16 16 16 16 17 18 18 17 16 15 14 13 13 13 13 14 13
6 5 6 6 5 5 6 6 2 6 11 11 10 12 17 21 22 23 23 25 26 26 25 25 24 24 24 26 26 27 27 27 27 26 26 26 24 20 19 19 19 19 19 18 17 16 16 16 16 16 16 18 19 18 18 17 15 14 13 13 13 14 13
6 6 7 7 6 5 5 8 6 3 7 9 9 12 16 18 21 23 25 26 27 27 27 27 26 25 23 24 25 26 26 26 25 25 24 25 25 23 21 19 19 18 19 19 18 17 17 17 17 17 17 17 18 19 19 18 15 14 14 14 13 12 13
6 7 7 7 7 5 5 8 8 2 8 12 13 15 16 17 21 23 24 26 28 29 28 26 26 25 25 25 26 26 26 25 24 24 24 24 25 25 23 22 20 19 18 18 18 18 18 17 18 18 18 18 19 19 19 18 16 15 15 14 14 13 13
6 6 7 7 6 4 4 6 7 4 7 15 17 18 17 16 19 21 21 23 26 27 27 26 24 24 24 26 26 26 26 25 24 24 24 25 25 24 24 22 21 21 20 19 19 20 20 19 19 19 20 20 20 19 19 18 17 17 16 16 15 15 14
5 5 7 7 5 4 4 6 8 8 1 7 11 12 13 13 15 17 19 21 24 24 25 26 26 23 23 25 26 26 26 25 26 26 25 25 25 24 23 22 21 20 21 21 20 20 21 21 21 20 20 20 20 20 20 19 18 18 18 18 17 17 17
5 5 5 5 5 4 5 6 8 10 7 5 12 14 14 15 17 19 19 19 19 19 19 19 20 20 21 24 25 26 26 27 26 26 26 25 25 24 23 22 21 20 20 20 21 21 22 22 22 21 20 20 20 20 20 20 20 19 19 18 19 19 19
6 5 5 5 5 5 5 5 7 10 10 10 16 18 18 20 21 21 19 15 13 14 15 15 15 17 19 21 23 26 27 27 25 24 24 24 24 24 23 22 21 20 19 19 19 20 22 23 23 23 22 21 21 22 21 21 21 21 20 20 20 20 21
7 5 5 6 6 5 5 4 5 9 10 9 12 13 14 15 15 15 13 11 12 15 21 24 24 23 23 23 24 25 27 26 24 22 22 22 23 23 22 21 20 19 17 16 16 17 19 21 22 24 24 24 23 23 23 23 24 24 23 22 22 22 23
7 6 6 6 5 4 4 4 6 9 10 10 10 9 9 10 11 11 10 9 10 12 16 21 23 21 21 22 23 24 24 24 22 20 20 21 23 23 23 22 21 19 18 16 15 15 15 17 20 23 25 26 26 25 25 26 27 27 26 25 24 24 24
6 6 6 6 5 4 4 5 6 9 10 10 11 12 12 11 11 12 13 12 11 10 10 13 15 13 11 11 14 17 18 18 18 18 19 21 21 22 23 24 22 21 19 18 16 15 15 15 18 20 23 26 27 27 27 28 29 28 28 27 27 26 26
6 6 7 6 5 5 5 6 6 8 10 10 10 12 12 12 11 12 13 14 13 12 11 12 13 11 7 5 7 10 12 12 13 15 17 18 18 19 21 23 23 22 20 18 17 16 16 15 16 18 21 24 26 27 27 28 28 29 29 30 29 28 28
6 6 6 6 5 5 5 7 8 9 12 12 11 12 12 11 11 11 11 12 12 13 12 11 11 11 9 9 8 8 8 8 9 10 13 14 14 16 17 19 20 21 20 19 17 16 16 15 15 16 18 21 23 25 26 27 27 27 28 30 30 29 28
6 6 5 5 4 4 6 8 10 11 14 15 13 14 14 13 13 13 12 11 12 13 12 11 13 14 12 11 10 9 8 7 6 5 6 7 8 9 11 12 13 14 14 14 14 13 13 12 12 11 12 13 14 17 20 22 23 24 25 27 29 29 28
7 7 6 4 4 6 8 10 11 11 13 13 13 15 17 16 16 16 16 16 17 18 18 17 17 18 16 14 11 10 8 7 7 7 7 6 5 5 5 6 6 6 6 6 6 6 7 7 7 8 9 9 9 9 11 13 15 17 18 20 22 23 25
6 7 6 6 7 8 11 14 13 12 11 11 13 14 15 15 15 17 19 20 21 22 22 20 20 19 19 17 15 14 12 9 8 7 7 5 4 4 5 5 6 7 7 6 5 3 2 2 5 8 10 11 10 9 8 8 9 10 12 13 14 16 18
9 10 11 12 13 13 15 17 16 16 15 15 14 14 14 14 16 19 20 20 21 21 21 21 21 21 20 19 18 16 14 14 14 12 10 8 5 5 5 6 6 8 9 9 8 7 5 2 1 5 8 9 7 4 4 4 5 6 6 8 9 10 12
15 17 17 17 17 17 19 20 19 19 20 20 18 17 16 16 17 19 19 20 20 20 20 20 20 19 20 21 19 17 15 15 16 15 13 11 9 8 8 8 7 6 5 6 6 5 4 2 3 5 7 6 5 3 2 3 4 5 6 5 6 8 9
16 20 20 21 21 20 21 21 21 21 20 20 19 18 17 16 16 17 18 18 19 19 19 19 18 17 18 18 18 17 15 14 15 15 13 11 10 10 10 10 8 7 6 5 5 5 3 1 5 7 7 4 4 4 4 5 6 5 5 5 6 8 10
16 19 21 23 23 22 20 20 20 20 19 18 17 16 16 15 15 16 17 16 17 18 17 16 14 14 15 15 15 15 14 13 12 13 13 13 12 13 12 11 9 7 7 6 4 4 3 2 6 9 6 2 1 1 2 4 6 4 5 6 7 9 10
18 19 21 22 23 22 21 20 19 19 18 16 15 15 14 14 15 16 15 15 16 17 15 13 12 12 12 13 14 14 14 13 12 12 13 13 13 13 14 13 10 8 5 4 5 6 4 2 6 8 5 2 2 2 2 3 3 2 3 4 5 7 10
19 20 20 21 22 22 22 21 19 18 16 14 13 13 12 13 15 15 13 14 15 14 11 11 10 11 11 13 14 15 14 13 13 13 13 13 13 14 15 16 14 11 8 5 4 4 2 3 7 7 4 3 2 2 3 2 0 2 4 3 2 4 8
18 19 20 21 21 20 21 20 19 17 15 13 12 11 10 11 14 14 13 13 13 10 9 9 9 9 11 13 15 16 17 16 16 15 15 15 15 15 17 18 17 16 14 12 10 9 6 3 3 5 5 2 2 0 2 3 4 7 9 8 7 6 8
18 19 20 20 20 19 19 20 18 17 15 13 11 10 9 10 12 13 13 13 10 8 7 8 8 9 11 13 14 15 16 17 16 17 17 17 16 16 16 17 17 17 17 16 15 15 14 13 11 8 4 2 5 3 6 8 9 9 9 9 9 8 8
18 20 20 20 20 19 18 18 17 15 14 12 11 10 9 9 10 12 13 12 10 8 8 8 8 9 11 13 14 14 15 15 16 16 17 17 17 17 18 17 17 17 17 17 16 16 16 15 14 13 12 10 7 8 10 10 11 11 9 9 9 9 8
17 20 21 20 19 18 17 17 15 14 13 12 10 9 10 10 10 10 10 9 9 9 8 8 8 10 11 12 13 13 14 15 16 16 16 17 17 17 18 18 18 17 16 16 17 17 17 17 16 15 15 14 13 13 13 12 12 11 11 11 11 10 10
16 18 20 20 18 17 16 16 15 15 14 12 9 8 8 9 9 9 8 7 8 9 8 8 9 10 11 12 12 13 14 15 16 16 16 16 17 16 16 17 17 18 18 18 18 18 17 17 17 17 17 17 17 16 15 14 14 14 14 14 14 14 14
16 18 19 18 17 15 14 15 16 15 14 12 9 7 6 7 7 7 6 6 7 7 7 8 9 10 11 12 12 13 14 14 15 16 16 16 16 16 16 16 16 16 17 17 17 18 17 17 17 17 18 18 19 19 19 18 17 17 18 19 19 18 18
18 19 18 16 14 13 13 15 16 15 14 12 9 6 5 5 5 5 5 6 6 6 7 7 8 9 10 11 12 13 13 14 14 14 15 15 15 14 14 14 14 14 13 13 14 14 15 16 16 16 16 16 16 18 19 20 19 18 18 18 18 19 20
19 19 17 15 13 13 14 16 15 14 13 11 8 6 4 3 3 3 4 5 5 6 7 7 8 9 10 11 12 13 14 14 14 15 15 16 16 15 13 13 12 12 12 13 13 13 14 14 14 15 15 15 14 14 16 18 18 17 17 17 17 17 20
19 18 16 15 14 14 15 15 15 13 12 9 7 6 5 3 3 4 5 5 5 6 7 7 8 9 10 11 12 13 14 14 15 15 15 16 16 16 16 15 14 13 13 14 14 14 14 13 12 12 12 13 14 14 14 15 16 16 16 17 18 18 19
20 17 15 14 13 14 15 16 14 11 10 8 7 7 6 5 6 6 6 6 6 6 6 7 8 8 9 10 11 12 13 13 14 15 15 16 16 16 17 18 18 17 15 15 14 15 14 14 13 12 12 12 13 14 14 14 14 15 16 17 19 19 20

ECMWFFLT1_925_spd_096.txt.gz
Wind_Speed
10 10 7 3 4 5 7 13 18 19 22 24 25 27 28 28 28 29 30 32 33 32 33 33 32 32 31 30 29 27 25 23 21 20 20 19 19 17 16 15 15 15 14 14 13 13 13 11 12 12 11 11 11 11 10 9 8 7 7 8 7 6 6
11 12 10 6 4 4 6 12 16 18 20 21 23 25 27 28 28 29 30 32 33 33 34 33 33 32 32 30 29 28 27 25 23 21 20 19 19 17 16 15 15 14 14 13 13 12 13 12 11 12 12 12 11 10 10 10 9 8 8 8 8 8 7
10 12 12 10 7 5 6 10 13 16 19 19 21 23 25 28 30 31 31 32 32 32 32 33 33 32 31 30 30 29 27 26 24 22 20 19 18 17 16 15 15 14 14 13 13 12 13 13 12 12 12 12 11 10 10 10 10 9 8 8 9 9 8
8 10 12 11 7 4 4 6 6 9 15 19 21 23 25 27 29 31 31 32 32 31 32 33 33 32 31 30 29 29 28 27 24 22 20 19 17 16 16 15 15 14 14 13 12 12 12 13 13 12 12 13 12 11 11 11 11 9 9 9 9 10 9
6 6 6 6 6 5 4 6 4 4 9 15 19 21 23 25 27 28 29 30 31 33 33 33 33 32 31 29 28 29 29 28 24 21 21 20 18 17 16 16 14 14 14 13 12 12 12 13 12 12 12 13 13 12 11 11 11 10 9 9 10 10 10
7 6 7 6 5 5 6 10 12 10 8 12 17 19 21 23 25 27 28 29 30 30 30 30 30 31 31 29 28 28 28 28 25 22 21 21 20 19 18 16 15 14 14 14 13 12 12 13 12 12 12 12 13 13 12 11 11 10 10 10 10 11 11
9 7 8 7 5 4 5 9 14 15 12 10 13 18 22 24 25 27 28 27 28 28 28 28 29 30 31 30 28 28 28 28 27 24 22 22 21 21 20 18 17 15 14 14 14 13 12 13 12 12 12 12 12 13 13 12 11 11 11 11 11 12 12
10 8 8 8 5 4 3 6 10 15 15 12 12 17 23 25 25 26 27 27 27 27 28 28 29 30 30 29 29 28 28 28 28 26 24 23 23 23 22 21 19 16 14 15 15 14 13 12 12 12 12 12 12 13 13 13 13 13 12 13 12 12 12
8 8 8 7 5 3 2 2 4 9 14 15 12 14 20 24 26 27 27 27 26 27 29 29 29 30 29 29 29 29 28 28 27 26 25 25 25 24 23 23 21 17 15 15 15 15 13 12 12 12 12 12 12 13 13 14 14 14 14 14 13 13 12
6 6 7 6 5 4 3 4 5 6 10 12 11 13 17 21 24 26 27 27 27 28 27 26 25 26 27 28 28 28 28 28 27 26 26 25 25 25 25 24 22 19 17 16 16 16 15 14 13 13 13 13 13 13 13 13 14 14 14 14 14 14 13
5 5 6 6 6 4 3 4 5 6 10 13 16 17 19 21 23 25 26 27 27 24 21 19 19 21 22 24 26 27 27 27 27 27 26 25 24 24 24 24 23 21 18 17 17 17 16 15 15 15 15 14 14 14 14 13 13 14 14 14 14 14 14
4 5 6 6 5 5 4 3 3 5 9 14 18 20 21 22 22 22 22 22 21 20 21 21 21 21 22 22 23 24 25 25 26 26 26 25 24 24 24 24 24 23 21 19 18 18 17 17 16 17 16 15 14 14 14 14 14 14 15 14 14 14 14
4 5 6 5 4 4 3 3 3 4 9 14 17 20 19 18 17 17 17 17 17 20 24 26 26 26 24 23 22 24 24 24 25 25 26 25 24 23 23 23 23 23 22 21 20 20 19 19 19 18 18 17 15 14 14 14 15 15 16 15 15 15 15
4 5 5 4 4 4 4 3 2 1 4 7 11 15 16 13 13 16 17 18 19 22 24 26 26 25 22 20 19 20 21 20 20 20 21 23 24 23 23 23 23 22 21 21 20 20 20 20 20 20 19 18 17 16 15 15 15 15 16 16 16 16 16
4 4 4 4 4 4 5 5 5 5 4 2 2 9 12 11 13 16 15 16 18 20 22 25 27 26 24 22 19 17 16 17 18 17 16 17 19 21 22 23 23 22 22 21 21 20 19 18 18 18 19 20 19 18 18 17 17 16 15 16 16 17 17
4 4 4 5 4 4 5 6 7 8 8 8 6 4 7 9 12 13 12 11 14 17 20 22 23 22 22 22 20 19 19 19 20 20 19 18 16 16 18 20 22 21 21 20 20 19 17 16 15 15 16 18 19 19 19 19 18 17 17 17 17 17 18
5 5 5 5 4 5 5 6 8 9 10 11 10 10 9 7 8 10 10 9 10 13 15 16 16 15 15 17 18 19 19 19 18 18 20 21 20 17 16 16 18 19 20 19 19 17 15 13 14 14 14 15 17 18 18 19 18 18 18 18 18 19 19
5 5 6 5 5 6 5 6 8 10 11 13 15 17 18 19 18 16 11 8 8 9 11 12 13 14 14 15 16 17 17 18 17 15 16 18 20 21 18 15 13 14 15 14 12 14 15 14 13 13 13 14 15 16 18 18 18 18 18 18 18 19 20
6 6 6 6 6 6 6 6 9 11 14 17 19 20 21 21 22 20 16 16 16 14 12 10 9 10 10 9 10 13 14 15 15 14 13 14 16 16 15 14 11 11 12 10 8 8 10 12 13 13 12 13 14 15 16 17 17 18 18 18 18 19 19
6 6 6 6 6 7 6 7 10 13 16 19 21 23 24 23 22 22 21 22 22 21 19 17 15 14 12 11 10 9 9 10 10 11 12 12 12 12 11 12 10 7 11 14 13 12 10 10 11 12 11 11 11 12 13 14 15 16 17 18 18 19 19
5 6 6 6 6 6 8 9 11 14 17 20 22 25 26 25 24 25 25 26 25 24 23 21 19 18 17 16 16 15 14 13 13 13 13 12 10 10 9 9 11 12 12 13 16 17 16 13 10 10 10 10 10 9 9 9 10 11 12 13 15 15 17
5 5 5 6 7 8 9 10 12 15 17 20 23 26 27 26 27 27 27 27 27 26 24 23 21 20 21 21 19 18 17 17 16 15 13 12 12 11 10 8 8 11 12 14 15 16 15 12 10 10 10 10 9 8 6 5 5 5 6 7 8 8 9
8 8 8 10 12 12 13 13 14 16 19 21 23 25 25 26 26 27 27 26 25 25 26 26 24 22 21 21 20 19 18 17 18 17 15 15 15 14 13 12 10 8 7 9 11 9 8 8 8 8 9 9 7 5 4 4 4 3 4 4 5 5 5
12 14 13 14 15 15 15 16 16 17 19 21 22 21 22 23 24 26 27 25 24 24 25 25 23 21 20 20 20 19 17 15 16 16 16 16 16 14 13 12 11 8 7 6 6 4 3 2 2 3 5 6 5 3 4 5 5 4 3 3 4 4 5
12 15 15 16 16 16 16 17 18 19 20 21 20 19 19 19 21 25 26 25 25 24 24 23 20 19 19 19 19 19 17 14 13 13 14 15 14 12 11 11 10 9 7 7 7 5 4 4 3 1 1 1 3 3 4 4 3 2 2 2 3 4 5
14 16 17 16 17 17 18 18 19 19 19 19 18 17 16 16 19 23 24 24 24 23 22 21 19 17 18 17 18 18 18 17 16 14 15 15 13 10 8 8 8 8 7 5 5 4 4 5 2 1 2 2 4 4 4 3 1 0 2 2 3 4 4
17 18 18 18 18 19 20 20 20 19 18 16 15 15 14 15 19 22 22 23 23 21 20 18 17 16 17 18 18 19 18 19 19 19 19 18 15 12 9 7 7 7 6 5 3 3 3 4 3 1 2 3 3 4 6 6 5 4 4 3 3 3 4
17 17 18 18 19 20 21 21 20 18 17 15 14 13 13 15 19 20 20 21 21 19 17 17 16 16 17 18 19 20 20 20 20 20 20 18 17 16 14 12 10 8 7 6 5 4 3 3 3 3 3 3 3 6 8 8 7 7 8 6 5 4 5
16 16 16 17 18 19 20 21 19 18 16 14 13 13 12 14 18 19 20 20 18 16 15 15 14 15 17 18 19 20 19 19 19 18 18 17 17 17 17 17 16 14 12 11 11 10 8 6 6 8 8 6 7 9 9 9 8 8 8 8 7 6 5
15 16 16 17 17 17 19 20 19 17 15 13 12 12 12 13 16 18 19 18 15 13 13 13 13 14 16 17 18 18 18 17 17 17 17 16 16 16 17 17 17 17 16 15 15 15 15 13 12 11 10 10 11 11 11 11 11 9 8 7 7 7 6
14 16 17 17 17 17 18 18 17 16 15 13 12 12 12 12 13 16 17 15 13 12 12 12 13 14 15 16 16 17 16 16 16 15 15 15 14 15 16 15 15 16 16 15 15 16 15 15 15 15 13 12 12 12 13 13 12 11 10 8 7 7 6
14 16 18 18 17 18 18 18 16 16 16 14 11 11 11 11 12 14 14 12 11 11 11 11 13 14 15 15 14 14 14 14 15 14 14 14 13 13 14 14 14 15 15 15 16 16 15 15 15 14 14 13 13 12 13 13 12 11 10 9 8 7 7
15 16 18 19 18 18 17 16 16 15 15 14 12 10 11 11 11 12 11 9 9 9 9 10 13 13 14 14 13 13 13 13 14 13 14 14 14 14 14 13 13 14 15 16 16 15 15 15 15 14 14 14 13 12 12 12 12 12 11 11 11 10 10
15 16 17 18 17 16 15 15 15 14 13 13 11 9 9 9 9 9 8 8 8 7 8 10 12 13 13 13 13 13 14 14 14 13 13 14 14 14 14 13 13 14 15 15 15 15 14 14 13 13 12 12 12 12 12 12 12 13 13 13 13 13 12
16 17 17 17 15 13 13 14 13 12 11 10 8 7 7 7 7 6 7 7 7 6 8 10 11 12 12 12 12 13 13 13 14 13 13 12 13 13 13 12 12 12 12 12 12 12 12 12 11 11 10 10 10 11 12 12 12 12 12 12 13 13 14
18 18 17 16 15 13 13 13 13 12 11 8 6 5 5 5 6 6 6 7 7 7 8 9 10 11 11 12 12 12 12 12 12 12 12 11 11 10 10 10 10 10 10 10 9 9 9 10 10 10 9 9 9 9 9 10 10 10 10 10 11 12 12
22 20 19 18 17 16 15 15 14 13 11 9 6 4 3 3 4 5 5 6 6 7 7 8 9 9 10 10 10 10 10 10 10 10 10 9 9 9 9 8 8 8 8 8 8 8 8 8 8 9 9 10 9 8 7 7 8 9 9 10 10 10 11
24 23 22 20 19 19 18 18 16 14 13 11 8 6 5 5 5 5 5 5 5 6 7 7 7 7 7 8 8 8 9 9 9 9 8 8 8 9 9 9 9 8 8 7 7 7 7 7 7 7 8 8 9 9 8 8 8 9 9 10 10 11 11

ECMWFFLT1_925_spd_099.txt.gz
Wind_Speed
11 10 7 6 9 10 12 16 18 18 18 20 20 21 21 20 19 20 21 24 26 26 29 30 29 29 28 27 26 24 22 21 20 18 16 14 12 11 11 11 10 10 10 10 9 10 10 9 10 10 10 10 9 8 7 7 7 7 7 7 7 6 5
13 10 7 6 6 6 9 14 15 15 18 19 19 20 20 19 20 22 23 26 28 27 29 30 30 30 29 28 27 25 23 22 21 19 17 15 13 12 11 10 10 10 9 9 9 9 9 8 9 10 10 10 9 8 8 8 8 7 7 8 8 7 6
14 12 9 7 6 5 6 11 14 15 16 17 18 19 19 20 24 26 26 29 29 27 27 29 30 30 29 29 28 26 25 24 23 21 19 17 14 12 11 10 10 9 9 9 9 9 8 8 9 9 9 9 9 8 8 8 8 8 8 8 7 7 7
14 13 10 7 7 6 5 8 12 14 16 17 18 18 18 21 26 27 27 28 29 28 28 28 28 28 29 29 29 27 26 25 24 23 21 19 16 14 12 11 10 9 8 7 7 8 8 8 8 9 9 9 9 9 9 8 8 9 9 8 7 7 7
13 13 11 8 7 6 6 7 8 11 14 16 16 16 16 20 25 25 23 25 28 28 28 26 24 24 28 29 27 27 27 26 25 24 22 21 19 16 14 13 12 10 8 7 7 7 7 8 9 9 9 9 9 9 9 9 9 9 9 8 8 7 7
11 12 11 10 8 6 9 11 10 10 12 13 14 15 16 19 23 23 22 23 26 25 24 24 24 24 27 28 26 27 27 27 26 25 24 23 20 18 16 14 13 11 9 8 7 7 7 8 9 9 9 9 8 9 9 9 9 8 9 9 8 8 7
10 11 12 11 9 7 9 13 12 10 10 11 13 16 17 19 22 23 21 21 23 23 23 24 24 25 27 27 26 27 28 26 26 25 24 23 21 19 17 16 14 12 11 9 8 8 7 7 8 9 9 8 8 8 9 9 9 9 9 9 9 8 8
10 10 11 12 11 9 9 12 13 13 13 12 13 16 18 19 20 22 22 21 21 23 24 25 23 24 27 27 26 27 26 25 24 25 24 22 20 18 18 18 16 14 13 10 9 9 8 8 8 8 8 8 8 8 8 9 9 9 9 9 10 9 8
9 8 9 10 10 9 9 12 13 15 16 15 15 16 18 19 21 23 25 25 24 25 28 28 25 24 26 27 26 25 25 24 22 22 23 21 18 18 17 17 17 16 15 12 10 9 10 9 8 8 8 8 8 8 8 8 9 9 10 10 11 10 9
7 7 7 7 7 7 8 9 10 12 16 18 19 18 18 20 21 23 25 26 27 28 30 29 27 25 26 26 25 22 21 22 23 21 21 20 18 18 17 16 15 16 16 13 11 10 10 10 9 9 8 8 8 8 8 8 9 9 10 11 11 11 11
7 6 6 5 5 5 6 8 9 11 14 17 20 21 22 22 23 23 24 25 26 28 29 29 28 27 26 26 25 22 18 18 20 19 20 20 18 18 18 16 15 15 15 14 12 11 11 11 11 10 9 9 9 9 9 9 10 10 10 11 11 12 11
6 6 6 5 4 4 3 4 6 9 11 14 17 19 20 21 22 23 24 24 25 27 28 28 28 27 26 25 24 24 21 19 17 18 19 20 18 17 17 16 15 14 15 14 13 12 11 11 12 11 10 10 9 10 10 10 11 12 12 12 12 12 12
6 6 5 5 4 2 2 0 2 4 6 8 11 13 14 14 16 18 20 22 24 26 26 26 26 26 26 25 23 22 22 22 20 20 20 20 18 17 16 16 15 14 13 13 13 13 12 12 12 13 12 11 11 11 11 12 12 13 14 14 14 14 13
7 7 6 5 4 4 4 3 3 3 3 4 6 9 9 10 11 12 14 16 19 21 23 23 23 23 22 22 22 20 20 21 22 22 22 21 20 19 16 15 14 14 13 13 13 13 13 12 12 13 13 14 14 14 13 13 14 14 15 16 16 16 15
7 7 6 6 5 5 5 4 5 5 4 3 2 6 9 10 9 9 10 11 12 14 17 19 20 21 20 19 19 18 17 18 20 21 22 22 22 21 19 15 14 13 13 14 13 12 12 12 11 12 12 14 15 16 15 15 15 15 15 15 16 16 15
7 7 6 6 6 6 6 6 7 8 7 7 5 1 5 8 9 10 10 11 10 10 13 16 20 22 23 22 21 21 19 19 20 20 20 21 22 22 21 19 17 15 14 13 13 13 13 13 12 12 12 13 15 16 16 16 16 15 15 15 16 16 16
7 7 6 7 7 7 8 9 10 11 12 11 11 9 6 5 6 8 9 9 10 10 13 17 20 21 21 21 22 23 22 21 20 19 19 21 22 21 20 20 19 18 17 16 15 16 16 15 14 13 13 13 13 14 14 15 15 14 14 14 15 16 17
6 7 7 7 7 8 9 10 11 13 14 15 16 15 12 12 12 10 7 6 6 9 11 15 18 19 18 18 20 21 22 22 21 20 20 21 22 21 19 19 19 19 20 19 18 17 15 15 15 14 13 13 13 12 13 13 13 13 13 14 15 16 17
7 7 7 8 8 9 10 11 12 13 13 16 20 20 18 19 20 17 15 14 11 8 8 9 12 14 15 17 20 21 21 20 20 22 24 24 23 21 19 18 18 19 19 20 19 17 16 15 14 14 13 12 12 12 11 12 14 15 14 14 14 15 16
7 8 9 9 9 9 11 12 12 13 14 17 21 22 22 23 23 21 20 20 18 16 13 11 10 8 6 8 13 17 20 21 22 23 23 22 21 21 21 19 18 19 19 19 19 19 17 15 13 13 13 12 13 13 11 11 14 15 14 14 14 14 15
8 9 10 10 9 10 13 14 14 15 15 16 17 18 19 21 22 23 23 23 23 22 20 18 18 17 15 12 9 6 12 18 21 21 20 18 17 19 20 18 18 20 20 18 19 20 19 15 11 10 9 8 8 8 7 10 12 12 12 12 13 13 14
8 9 10 10 11 12 14 15 15 15 15 15 16 17 17 17 18 20 22 23 24 24 23 22 21 20 19 19 17 14 11 9 10 13 14 15 15 17 18 18 18 18 18 16 15 16 16 13 9 7 8 7 5 3 2 4 5 5 7 9 9 10 11
9 9 11 12 14 14 15 16 17 16 16 17 19 21 21 21 21 21 20 20 22 24 23 23 22 21 20 20 19 18 17 15 13 10 8 10 13 14 16 16 14 13 12 10 9 9 11 10 9 11 13 12 10 8 7 5 3 2 3 5 6 6 7
10 11 12 14 15 16 16 16 17 17 18 19 19 21 22 23 23 23 20 18 19 21 21 20 19 19 18 18 17 16 16 16 16 14 12 11 10 10 10 11 10 8 9 9 9 9 9 9 9 11 12 10 8 8 8 8 6 3 2 3 4 5 5
11 11 12 13 15 16 16 16 17 17 17 18 17 18 20 20 20 20 18 16 17 18 18 16 15 16 17 16 15 14 14 14 15 14 12 11 9 8 8 9 9 10 11 12 12 11 9 8 8 7 6 6 7 7 6 6 5 4 3 3 4 4 3
12 13 13 13 14 16 16 16 17 17 16 16 14 15 18 20 20 19 17 16 16 17 16 15 15 16 17 17 17 16 15 15 14 13 11 10 8 7 7 7 7 8 10 11 11 10 9 9 9 9 7 6 6 7 7 6 4 3 2 1 2 2 2
12 13 14 14 15 16 16 15 16 17 17 16 15 15 17 19 19 18 16 16 16 15 14 16 18 18 18 19 19 19 19 18 16 13 11 9 7 7 6 6 6 6 7 7 6 7 9 11 11 11 9 7 7 7 8 8 6 4 3 3 2 1 0
13 13 14 15 16 16 16 16 16 16 16 15 16 16 18 20 19 17 16 16 15 14 15 16 18 19 19 20 19 19 20 20 18 16 14 11 9 8 8 7 6 6 7 7 6 7 10 12 12 11 11 10 8 8 9 9 8 6 6 5 4 3 3
13 13 13 13 14 15 17 16 15 15 14 14 14 15 16 20 20 17 16 16 14 14 15 15 16 17 18 19 19 18 18 18 18 18 18 16 15 14 12 10 8 7 8 8 8 8 10 11 11 12 13 11 10 9 9 9 8 7 6 6 6 6 5
12 12 12 13 13 15 18 18 16 15 15 15 16 15 16 18 19 18 17 16 15 14 14 14 14 16 17 17 17 17 16 15 15 16 17 17 17 18 17 16 14 12 10 10 11 12 11 11 12 14 14 13 12 11 10 9 8 8 7 6 6 5 4
11 12 12 13 13 15 17 18 17 17 16 15 16 16 16 16 18 18 17 16 14 13 13 13 13 14 14 15 15 14 14 13 14 14 15 16 17 18 18 17 17 16 14 13 15 15 13 13 14 15 15 14 14 13 12 10 9 7 6 5 5 4 2
11 12 13 14 14 15 16 17 17 17 16 15 14 14 15 15 16 17 17 15 13 12 12 12 13 13 13 12 12 12 12 11 11 12 13 14 14 15 16 16 16 15 14 14 14 13 11 10 11 11 12 12 12 12 11 10 9 7 5 3 3 2 2
11 12 13 14 15 15 15 15 15 15 16 14 12 12 13 14 14 15 13 12 11 11 11 12 12 12 11 11 11 11 11 11 11 10 11 11 11 11 12 13 13 13 12 12 11 10 8 7 7 7 7 8 8 9 9 9 8 7 5 4 3 3 3
11 12 13 15 16 16 15 14 14 14 14 14 12 12 12 12 12 11 11 10 9 9 11 12 12 11 11 10 10 10 10 10 10 10 9 10 10 10 10 10 10 10 11 10 9 8 7 6 6 6 5 5 6 6 6 7 7 6 5 5 5 5 5
12 14 16 17 17 16 15 15 15 14 14 14 12 12 12 12 11 10 10 9 9 9 11 11 11 11 10 9 9 9 8 8 9 8 8 8 9 10 10 9 9 8 9 9 9 7 6 6 6 6 5 5 5 5 4 4 5 5 4 4 5 6 6
13 14 17 18 16 15 14 15 15 15 15 14 12 12 12 11 11 10 9 9 9 9 10 10 9 9 8 8 8 7 6 6 7 7 7 6 6 7 7 7 7 7 7 7 8 7 7 7 6 6 5 5 6 5 4 4 4 3 3 3 4 5 6
15 15 17 18 16 14 14 14 14 14 14 13 12 12 12 11 11 10 9 9 9 9 8 8 7 7 6 6 7 7 6 5 5 5 5 5 5 4 4 4 5 5 5 6 6 6 6 6 6 5 5 4 5 5 4 3 3 3 3 3 3 4 5
15 18 19 18 16 15 15 14 13 14 14 12 11 11 11 12 11 10 9 8 8 7 7 7 6 6 6 5 5 5 5 5 4 4 4 4 4 3 3 2 2 3 3 3 4 4 4 4 5 5 4 4 3 3 3 3 3 4 4 4 3 3 4

ECMWFFLT1_925_spd_102.txt.gz
Wind_Speed
15 13 12 11 11 12 14 16 17 17 17 17 17 17 16 16 16 16 15 16 17 17 17 17 17 16 15 15 14 14 13 12 11 10 10 9 7 7 6 6 5 5 5 5 4 5 5 6 6 7 7 7 7 7 7 7 7 6 6 6 5 5 5
15 13 12 12 11 11 15 17 17 17 17 17 16 16 16 16 17 17 16 17 18 18 18 18 18 17 16 15 15 14 14 13 12 11 10 9 9 8 7 6 6 5 5 5 4 4 5 6 6 7 7 7 7 7 7 7 7 7 6 6 6 6 5
14 13 11 10 9 9 12 15 17 17 17 16 16 16 16 17 18 18 17 17 18 18 17 18 18 18 16 15 15 14 14 14 13 12 12 11 10 10 8 7 6 6 6 6 5 5 6 6 7 7 7 7 6 7 7 7 7 7 6 6 6 6 6
14 14 12 9 7 5 5 7 12 14 15 15 16 15 16 17 17 16 16 16 17 18 18 18 18 18 17 16 15 14 14 15 14 13 13 12 11 10 9 8 8 7 6 6 6 6 6 6 7 7 7 7 6 6 6 6 6 6 6 6 6 6 6
14 15 13 11 9 6 6 7 10 12 14 14 13 13 14 16 15 15 15 14 15 16 16 16 16 16 17 16 15 14 14 14 14 14 13 12 11 10 10 9 8 8 7 7 6 6 6 7 7 8 8 8 7 7 7 7 6 6 6 6 6 6 6
14 14 14 13 12 10 10 11 9 9 11 13 13 13 13 15 15 14 14 13 14 15 14 15 15 16 16 16 16 15 14 14 14 14 13 12 12 11 11 10 9 8 8 7 7 7 7 7 7 8 8 8 8 8 8 8 7 7 7 7 6 6 6
13 14 13 12 12 12 13 14 11 8 7 7 9 12 13 14 13 14 15 14 14 15 15 16 16 16 16 16 16 15 15 15 15 14 14 13 13 13 12 11 10 9 8 8 7 7 7 8 8 8 8 8 8 8 7 8 8 7 7 7 7 7 6
12 13 13 12 13 13 14 14 12 10 9 5 2 5 9 12 12 12 14 14 14 15 16 17 16 16 16 15 15 16 16 16 15 15 14 14 14 14 13 12 11 10 9 8 8 8 8 8 8 8 9 8 8 8 8 8 8 9 8 8 8 7 7
10 12 12 12 13 12 13 14 11 11 12 10 7 5 5 8 9 10 11 12 12 13 15 16 16 16 16 15 15 16 16 16 15 14 14 14 15 15 14 13 12 12 11 10 9 9 9 9 9 9 9 9 9 8 8 9 9 9 9 9 8 8 7
7 9 10 12 12 11 13 15 14 13 15 18 19 16 11 8 7 7 8 10 12 13 14 14 14 14 15 16 16 16 16 15 15 15 14 14 14 15 15 14 13 13 13 12 11 10 10 10 9 9 9 9 9 9 9 9 9 9 9 9 9 9 8
6 5 7 10 11 11 13 14 14 13 13 16 18 17 17 16 13 10 9 9 10 12 13 13 12 13 14 15 15 15 15 15 15 15 15 14 14 15 15 14 14 14 14 14 13 11 11 11 10 10 10 10 10 10 10 9 9 9 9 9 9 9 9
6 6 6 7 7 8 9 12 13 13 13 15 15 15 17 19 19 20 20 18 13 10 11 13 12 12 13 13 13 14 15 15 15 14 15 15 14 14 14 14 14 14 14 14 14 13 12 12 12 11 11 11 11 10 10 10 9 9 9 9 9 9 9
7 6 6 6 6 6 6 7 8 9 10 12 14 16 17 18 20 22 24 24 21 15 12 13 14 14 14 13 13 14 14 15 15 14 14 14 14 14 14 14 14 14 14 14 14 14 14 14 13 12 12 12 12 11 11 10 10 10 10 9 9 9 9
8 8 7 6 6 6 6 6 6 6 6 8 9 11 14 17 20 23 23 23 24 20 16 14 15 15 15 15 15 15 14 14 14 13 13 13 13 13 13 13 14 14 13 13 14 15 15 15 14 13 13 13 12 12 12 11 11 11 11 10 10 10 9
8 9 8 7 7 6 6 6 5 5 5 6 6 7 10 12 15 19 21 22 23 23 21 19 17 16 15 15 16 16 15 14 13 12 12 13 13 13 14 14 13 13 13 13 14 14 15 15 15 14 14 13 13 13 13 13 12 12 12 11 11 10 10
9 9 9 8 8 7 6 6 6 5 4 4 5 6 8 10 11 13 15 17 19 21 22 22 22 20 19 18 19 18 17 17 15 13 12 12 12 13 13 14 14 14 14 13 14 14 14 14 14 15 14 14 14 14 14 14 13 13 13 13 11 10 10
9 9 9 9 9 8 7 7 7 6 5 4 2 1 2 3 5 8 11 12 15 17 19 20 22 23 23 24 22 21 19 19 18 16 14 13 12 11 12 13 13 13 14 14 13 13 13 14 14 15 14 14 14 14 15 14 13 14 15 14 12 11 10
9 9 10 10 10 9 9 8 8 8 7 7 7 7 6 5 5 4 4 5 8 13 15 15 16 17 20 22 22 21 21 21 19 19 18 17 14 11 11 12 12 13 14 14 13 13 13 14 14 14 14 14 14 15 15 13 12 13 13 12 13 13 12
9 9 10 10 10 10 10 9 9 10 10 10 9 9 8 6 7 7 5 5 5 5 6 6 8 9 11 14 15 17 19 20 18 18 19 19 19 16 12 10 10 12 14 14 14 13 13 15 15 14 14 14 13 13 13 10 9 12 12 11 12 12 12
10 10 10 10 10 10 10 11 10 10 12 12 11 11 10 9 10 9 8 9 8 7 7 5 3 2 2 5 8 12 15 17 17 17 17 18 20 20 17 13 11 12 13 12 12 12 13 14 15 13 14 13 13 13 10 7 7 10 11 12 12 12 13
11 11 10 9 10 11 11 12 12 12 12 12 12 12 12 12 12 12 12 13 13 13 11 10 8 6 5 2 2 8 14 16 18 19 18 18 18 18 17 16 14 14 14 12 10 11 12 13 13 14 14 14 14 12 9 9 11 11 12 12 12 12 13
11 10 10 10 11 12 12 13 13 13 12 12 11 12 12 12 12 13 14 15 16 17 15 13 12 11 9 8 6 1 6 10 14 16 17 18 17 16 16 16 15 15 15 13 11 10 11 13 14 14 13 13 14 10 6 9 12 12 11 12 11 11 11
11 12 13 13 13 13 13 14 14 13 13 13 13 12 12 12 12 13 14 14 14 15 15 15 14 13 13 13 12 9 5 2 5 8 10 12 13 15 18 20 20 18 17 16 15 13 13 14 15 12 10 10 10 8 6 6 9 9 10 10 9 8 7
13 13 15 15 15 14 14 14 14 14 14 14 14 13 12 13 13 13 13 13 13 13 13 14 13 12 13 13 12 12 11 9 8 8 7 7 6 7 12 17 21 21 19 16 15 14 13 13 12 8 9 11 9 8 6 6 7 7 8 8 8 8 7
14 15 14 14 14 14 13 13 13 13 14 14 13 12 11 12 12 13 13 13 13 13 13 13 12 11 11 11 11 12 13 13 13 12 11 11 10 8 6 8 14 19 18 15 14 13 13 12 9 6 7 9 9 7 5 5 5 5 6 6 7 8 7
13 15 14 13 14 14 12 11 11 12 13 13 12 12 11 11 13 13 13 12 13 14 13 12 11 11 11 11 12 12 12 13 13 13 12 11 10 10 9 8 6 8 10 12 12 12 12 11 10 8 8 8 9 7 6 6 5 3 3 3 4 5 5
11 13 14 14 13 12 11 10 10 11 12 11 10 10 10 11 12 13 12 12 13 14 13 12 11 12 13 13 13 12 12 11 12 12 12 10 9 9 9 8 8 8 9 11 12 12 12 11 11 13 13 11 8 7 7 7 5 3 2 2 1 3 4
11 11 14 14 12 11 10 10 10 11 11 10 10 10 10 11 12 13 12 13 13 12 11 11 11 12 13 14 13 13 12 12 11 11 11 10 10 9 9 9 8 8 9 12 14 14 14 15 15 16 16 13 10 8 8 8 6 5 4 4 3 3 3
13 12 13 13 11 11 10 10 10 10 10 10 10 10 11 11 12 12 12 12 12 10 10 10 10 11 12 12 13 13 12 12 13 12 11 11 11 10 10 9 8 8 9 10 12 14 16 16 15 14 14 13 10 8 7 7 6 6 5 5 5 5 4
13 13 13 12 11 11 10 10 10 10 10 10 10 10 10 11 12 12 12 11 10 9 9 9 9 10 10 10 10 10 10 11 12 12 13 12 11 10 10 10 9 9 9 8 8 11 13 12 10 10 10 10 9 8 7 6 6 6 5 5 5 4 4
13 13 12 12 11 10 10 10 11 11 10 10 10 10 9 10 11 12 11 10 9 8 9 8 8 8 9 8 8 8 8 9 10 11 11 10 10 10 10 9 10 10 9 7 7 9 9 8 8 8 8 8 8 8 7 6 6 6 5 5 4 4 3
13 13 13 13 12 10 10 11 11 11 11 11 10 10 9 9 10 10 9 8 8 8 8 7 7 7 7 7 7 7 6 7 7 8 8 8 8 9 8 8 9 9 8 7 7 7 7 6 6 7 7 7 7 7 6 5 5 6 5 4 3 3 3
12 12 13 13 13 11 11 11 10 10 11 10 9 9 9 9 9 8 7 7 7 7 7 7 7 7 7 6 6 6 6 6 6 6 6 6 6 6 7 8 8 8 9 8 7 6 6 5 5 4 4 4 5 5 5 4 4 5 5 5 4 3 3
11 11 12 12 12 11 10 10 10 10 10 10 8 8 8 8 8 7 6 6 6 6 7 7 7 7 6 6 5 5 5 5 5 5 5 6 6 6 7 7 7 8 9 8 7 6 5 4 4 3 2 3 3 2 3 3 4 5 4 3 3 4 4
11 11 11 10 10 9 9 10 11 11 10 10 8 7 7 7 7 7 6 6 6 6 6 6 6 6 6 5 5 5 4 4 4 4 4 5 6 7 8 7 6 7 8 8 7 6 5 4 4 3 3 3 3 2 1 3 4 3 2 3 4 4 4
12 12 11 10 9 8 9 10 10 11 11 10 8 8 8 7 7 7 6 6 6 6 6 5 4 5 5 5 5 5 4 4 4 4 4 4 4 6 6 7 6 5 6 6 6 5 4 4 3 3 3 4 4 3 2 3 2 1 2 2 3 3 4
15 14 13 11 10 10 10 11 11 11 11 9 8 8 8 8 7 7 7 6 6 6 5 4 4 4 5 5 5 5 5 4 4 4 3 4 3 3 3 4 5 5 5 5 5 4 4 4 4 3 3 4 5 3 3 2 2 1 1 2 3 3 4
16 16 16 13 11 11 12 11 11 11 11 10 9 9 8 8 8 7 7 7 6 6 6 5 4 4 4 4 5 5 4 4 4 4 3 3 3 2 1 1 2 3 3 3 3 3 4 4 4 3 2 2 3 2 1 1 1 1 2 2 3 3 4

ECMWFFLT1_925_spd_105.txt.gz
Wind_Speed
14 11 8 8 12 14 14 16 19 18 18 18 16 16 16 15 15 14 15 16 16 16 16 16 15 14 14 14 12 11 10 10 10 9 9 8 7 7 8 7 7 7 7 7 7 7 7 8 8 9 9 9 8 8 7 7 6 6 6 6 5 4 5
16 14 9 6 9 13 15 18 19 19 19 18 17 17 17 16 15 14 14 15 15 15 16 16 15 14 14 13 12 12 11 10 9 9 9 9 7 7 8 7 6 6 6 5 6 7 7 8 8 9 9 9 9 8 8 7 7 6 5 5 6 5 5
15 16 13 8 6 9 14 17 18 19 19 18 17 16 16 16 16 15 14 15 16 15 15 16 15 14 14 13 12 12 12 11 10 10 10 10 10 9 8 7 6 7 7 6 6 7 8 8 9 9 9 9 9 9 8 8 7 6 5 5 6 6 5
15 15 14 10 6 5 10 16 18 18 18 19 19 16 14 15 16 16 15 15 16 16 15 15 15 15 14 13 13 12 13 13 12 12 11 10 10 10 9 9 8 8 8 7 7 7 7 8 9 9 9 9 8 8 9 8 8 7 6 6 6 6 5
16 15 14 11 6 3 4 9 15 19 18 18 20 18 17 17 16 16 15 14 14 15 15 15 15 15 15 14 14 13 13 14 13 13 12 11 10 10 10 10 10 9 8 8 8 7 5 7 9 9 9 9 9 9 9 9 9 8 8 7 7 7 6
14 14 14 13 9 5 3 4 4 11 16 17 17 15 16 16 15 14 14 14 14 14 14 14 13 14 14 14 14 13 13 14 14 13 13 11 11 11 11 10 10 10 9 9 9 8 8 8 9 9 10 10 10 10 10 10 10 9 9 8 8 8 8
12 12 13 13 11 6 5 4 5 3 5 10 14 16 14 14 14 13 13 14 14 13 14 14 13 13 13 14 13 13 13 14 14 14 13 13 12 12 11 11 11 10 10 10 10 9 9 9 9 9 10 10 10 10 10 10 10 10 10 9 9 9 8
12 12 13 14 13 10 9 8 5 5 6 7 9 13 14 13 12 12 12 13 13 13 13 14 14 13 12 12 12 13 14 14 14 14 14 14 14 14 13 13 12 11 11 12 11 10 10 10 10 10 10 10 9 9 9 9 10 11 11 10 9 10 9
13 13 13 14 14 13 13 13 10 7 6 8 10 7 7 10 10 10 11 11 10 11 12 13 13 12 12 12 12 13 13 14 14 14 15 15 15 15 15 15 14 13 13 12 12 12 11 11 10 10 10 9 9 9 9 9 10 10 10 10 9 10 10
13 13 13 13 12 13 15 15 14 12 7 5 7 8 6 5 4 6 9 9 9 9 10 11 11 11 11 12 12 12 13 13 14 14 15 15 15 15 15 15 14 14 14 13 12 12 12 11 11 10 10 10 9 10 10 10 10 11 10 10 10 10 10
12 11 11 12 11 12 14 14 15 15 11 9 10 7 5 3 2 3 6 9 10 9 9 10 9 9 11 12 13 13 13 13 14 15 15 15 15 16 16 15 15 15 15 14 14 13 12 12 11 11 11 11 10 11 11 11 11 11 11 11 11 11 10
10 10 10 11 11 11 11 12 15 15 12 11 12 12 13 12 8 5 4 5 7 7 8 9 9 9 10 11 12 13 13 14 14 14 15 15 16 16 16 16 16 15 15 15 14 14 13 12 12 12 12 12 11 11 11 11 11 12 11 11 11 11 10
8 8 8 10 10 9 9 11 14 15 13 13 13 11 11 12 13 13 11 8 5 4 4 6 8 9 10 11 12 12 13 13 13 14 14 15 16 16 15 15 15 15 15 14 14 15 14 13 13 13 12 12 12 12 11 11 12 12 12 12 11 10 10
8 8 8 9 9 10 10 10 11 13 13 13 12 11 10 11 13 16 17 17 15 13 9 8 7 9 10 11 12 12 12 12 13 13 14 14 15 15 15 14 14 15 14 14 14 15 15 15 14 13 13 13 13 13 12 13 13 13 13 12 11 11 10
7 8 8 8 8 8 9 8 8 11 12 12 12 12 12 12 13 14 15 17 19 20 19 15 11 10 11 12 12 12 11 11 12 12 13 14 14 14 14 14 13 14 13 13 14 14 14 15 14 14 14 13 13 14 13 13 14 14 14 12 12 11 11
9 9 9 9 8 8 8 8 8 8 9 10 12 12 11 11 12 13 13 13 15 18 20 19 16 13 13 13 12 10 9 10 11 11 12 13 13 13 14 14 13 13 13 13 13 12 13 13 14 15 14 14 14 14 15 15 14 15 14 13 13 12 11
12 11 10 10 9 8 8 7 7 7 6 5 6 8 9 8 8 9 9 10 11 12 14 17 19 19 18 16 14 13 13 12 11 12 12 12 12 12 12 12 13 13 13 13 12 12 12 13 14 14 15 15 15 15 15 15 14 15 16 16 15 12 9
12 11 11 10 9 9 8 8 8 8 8 7 6 4 4 5 6 6 5 4 4 5 6 9 13 17 18 18 19 20 20 19 15 12 12 11 10 10 9 9 9 11 12 13 14 13 13 13 14 14 15 15 15 15 15 13 11 14 18 18 16 14 11
12 11 10 10 10 10 9 9 9 9 10 10 9 8 7 7 6 5 4 4 3 2 2 1 1 4 7 12 17 18 19 20 20 16 13 12 11 10 9 8 7 8 9 11 12 12 12 14 14 15 15 15 15 14 10 7 8 12 15 15 14 15 15
11 11 10 9 10 10 11 11 12 12 11 11 10 10 10 9 8 7 7 7 6 5 4 4 3 3 1 4 10 12 13 15 18 19 17 13 12 12 12 11 10 9 9 10 9 10 11 12 12 14 14 14 16 12 5 5 9 12 13 13 12 13 14
10 10 10 9 9 10 11 13 13 14 13 12 12 12 11 10 9 9 10 10 10 8 6 5 4 4 2 3 6 7 8 10 13 17 18 16 15 14 14 14 15 14 12 11 10 10 11 10 11 12 11 11 10 4 1 4 9 11 12 12 12 12 12
10 10 9 9 9 10 11 12 13 13 12 12 13 13 12 11 10 10 11 12 12 11 10 9 9 9 6 2 3 4 5 9 12 14 15 15 16 16 15 16 17 17 17 16 14 12 12 11 9 8 7 9 8 2 1 3 6 8 10 10 10 11 11
12 11 11 11 12 12 11 11 12 13 13 13 13 13 12 12 11 11 12 12 12 12 11 11 11 11 11 8 7 7 5 4 8 10 10 11 13 14 16 17 18 17 16 16 14 13 10 9 7 6 7 10 12 11 8 6 6 6 8 8 10 10 10
14 14 14 14 13 13 12 12 13 14 14 13 13 12 12 12 11 11 11 11 12 11 10 11 11 10 10 9 8 8 8 5 2 1 3 6 9 8 10 14 16 17 17 15 14 13 12 10 10 9 8 8 10 12 11 8 7 8 8 9 10 10 9
15 16 15 14 14 14 14 14 14 14 14 14 13 13 12 11 11 11 11 11 11 11 11 10 10 9 9 9 9 9 9 8 8 9 9 7 4 1 1 4 7 11 14 14 14 14 13 13 13 10 8 8 9 11 11 9 8 8 7 8 9 9 8
14 15 16 15 15 15 13 13 13 14 14 13 13 13 12 11 12 12 11 11 12 12 12 11 10 10 9 9 9 9 8 9 9 9 10 9 8 7 7 5 4 2 3 7 12 14 12 11 11 10 10 12 12 12 10 9 8 7 6 6 6 8 8
13 14 15 15 13 12 12 12 13 13 13 12 12 12 12 12 12 12 11 11 12 12 12 11 11 11 11 10 10 10 9 9 10 9 9 9 9 10 10 11 10 9 7 5 3 8 10 13 13 13 14 13 12 11 9 7 6 6 5 4 3 4 5
12 13 14 13 11 11 12 12 12 13 13 12 12 12 12 12 12 12 11 11 12 11 10 10 10 10 11 11 11 11 11 10 10 10 10 9 9 10 11 12 12 11 10 9 9 10 12 14 13 12 11 10 8 9 9 7 7 6 4 3 2 3 3
11 12 12 10 11 12 11 11 12 12 12 12 12 11 11 12 12 12 11 11 11 10 9 9 9 9 9 10 10 10 10 10 10 10 10 11 10 11 12 12 11 11 10 10 12 13 13 12 12 12 12 11 9 9 8 8 7 6 5 4 3 3 3
12 11 11 10 11 12 11 11 11 11 12 12 11 11 11 11 12 11 11 10 9 9 9 9 8 8 8 8 9 8 8 9 10 9 10 10 10 11 11 10 10 10 10 11 12 12 11 10 10 9 9 10 10 8 7 6 6 6 5 5 4 3 3
11 11 11 11 10 10 11 11 11 10 11 11 10 10 10 10 11 11 10 9 8 8 8 8 7 8 7 7 7 7 6 7 8 8 9 9 10 11 10 9 9 8 8 9 9 8 8 8 8 7 7 8 8 6 6 7 8 7 6 5 5 6 5
10 10 11 11 10 8 9 11 10 10 10 10 10 10 9 9 10 9 8 7 7 7 7 7 7 7 6 6 6 6 6 6 6 6 7 7 8 9 9 9 8 7 7 7 7 6 6 6 6 6 6 6 6 5 5 7 8 7 7 8 8 8 7
7 8 9 10 9 8 8 9 9 9 9 9 9 9 9 9 8 8 7 6 6 7 6 5 6 5 5 6 6 6 6 6 6 6 6 7 7 8 9 9 8 7 7 7 6 5 5 4 4 5 5 5 5 5 5 6 7 6 6 7 8 7 7
5 5 7 8 7 6 6 7 8 9 8 8 7 7 8 7 7 6 6 6 6 6 5 5 5 5 5 5 5 5 4 4 5 5 6 7 8 9 9 9 8 8 8 7 6 6 4 4 5 6 5 4 4 2 2 5 7 6 4 5 5 4 4
6 5 6 7 6 5 5 7 8 7 7 7 6 7 7 7 6 6 6 5 5 5 5 5 4 3 3 3 4 4 3 3 4 5 4 6 7 8 9 8 8 8 9 8 7 6 5 5 5 6 5 5 4 3 3 6 8 6 4 5 5 4 3
10 9 8 7 7 6 6 7 7 7 6 5 5 5 6 6 6 5 5 5 5 4 4 3 2 2 3 3 4 5 4 4 5 5 4 4 6 7 8 7 6 6 7 7 6 4 4 4 4 5 6 6 4 3 4 6 6 4 4 4 4 4 3
11 12 12 11 9 8 8 8 7 7 7 6 5 5 5 5 5 5 5 5 4 4 4 3 2 3 4 5 5 6 6 5 5 5 5 5 5 4 6 7 6 6 6 7 7 6 5 4 3 3 4 5 5 3 3 3 3 3 3 3 3 3 3
12 13 14 14 12 12 11 10 9 9 8 7 7 6 6 6 6 5 5 5 4 4 4 3 3 3 4 5 5 5 5 5 5 5 4 4 4 3 1 2 4 5 5 6 6 6 6 6 5 4 2 3 3 2 2 3 3 3 3 3 3 3 3

ECMWFFLT1_925_spd_108.txt.gz
Wind_Speed
12 11 8 7 10 11 10 14 17 18 20 19 19 21 22 24 24 21 22 23 22 21 20 20 19 19 19 18 18 16 15 16 16 14 12 11 11 11 10 10 10 10 10 10 9 10 10 9 9 10 10 9 8 8 7 7 7 5 4 4 5 4 3
12 11 9 9 9 8 9 15 16 16 20 19 19 19 20 27 28 23 23 24 23 22 21 20 19 19 19 18 17 16 15 16 17 16 13 11 10 11 10 10 9 9 10 9 9 10 9 8 9 9 10 9 9 9 9 8 8 7 6 6 5 5 4
9 10 10 8 7 8 9 14 18 18 19 19 20 19 19 26 29 26 24 24 23 22 21 21 20 18 18 17 18 17 16 16 17 16 14 12 10 10 10 11 11 10 10 9 9 10 9 9 9 9 9 10 10 10 10 9 8 8 8 8 7 6 6
11 11 9 5 4 7 9 13 17 19 19 20 20 19 19 22 25 26 26 24 24 23 21 21 20 19 18 17 17 18 17 17 17 15 16 15 13 11 12 13 11 11 11 10 10 11 10 10 10 10 10 10 10 11 11 10 9 9 8 9 8 7 6
13 12 9 6 4 4 7 12 15 17 20 21 18 16 16 19 21 23 24 24 23 22 22 21 20 19 19 17 16 16 17 17 17 16 17 17 16 15 15 14 12 12 13 12 10 10 11 11 11 11 12 11 10 11 11 11 10 9 9 9 7 7 6
14 13 10 8 5 2 4 11 15 17 18 19 18 15 13 15 17 18 19 22 23 22 21 22 21 20 19 18 16 16 16 16 16 16 16 17 17 16 15 15 14 12 13 13 12 11 10 11 12 12 12 12 11 11 11 11 10 10 10 9 9 8 8
14 12 10 9 7 3 4 8 12 14 15 17 18 17 16 13 10 11 12 14 18 21 21 20 20 20 19 17 17 16 16 16 16 15 15 15 16 16 16 16 14 13 13 13 13 11 10 11 12 12 12 12 12 11 11 11 11 11 10 10 10 10 9
14 13 12 10 9 7 6 8 10 12 16 19 18 16 17 13 8 9 7 5 9 14 18 18 16 17 18 17 16 16 15 15 15 15 15 15 15 16 16 16 15 14 14 13 13 12 11 11 11 12 13 12 12 12 12 12 12 11 10 10 10 10 10
13 14 14 13 11 9 9 9 10 15 20 20 17 16 17 15 13 12 9 5 13 14 15 17 16 15 17 17 16 16 15 15 15 15 15 14 14 15 15 15 16 15 15 15 14 12 12 12 11 12 12 12 12 12 12 12 13 13 12 12 12 12 11
7 9 12 13 12 9 10 11 10 14 18 18 17 17 17 19 19 17 13 10 18 14 11 14 14 13 13 14 14 15 15 15 14 14 14 14 14 14 14 14 14 14 14 14 14 13 13 12 12 12 12 12 11 11 11 11 12 13 13 13 13 12 11
2 2 5 10 12 10 10 10 8 9 13 16 18 18 16 16 17 17 17 17 17 12 10 11 13 12 11 11 12 12 13 14 14 14 15 15 14 14 13 13 13 13 14 14 13 14 14 14 13 12 13 13 11 11 12 11 12 12 13 12 12 12 11
4 2 3 6 9 9 9 8 8 8 10 12 15 17 16 16 15 13 14 13 11 10 10 9 10 12 11 12 12 12 12 11 11 13 14 14 13 13 13 13 13 13 13 13 14 14 15 15 13 12 13 13 12 12 13 13 12 12 13 12 12 12 12
9 6 4 4 4 5 7 7 8 9 10 10 11 13 12 13 16 14 11 8 6 8 9 8 8 8 9 11 12 12 11 10 9 10 10 11 12 11 12 13 13 14 14 14 13 13 14 14 15 15 15 14 13 13 13 13 13 13 13 12 11 11 12
8 6 5 5 6 7 8 7 8 10 11 10 10 10 9 10 12 13 11 8 5 5 6 6 5 5 6 7 7 8 10 11 10 9 8 9 10 10 11 12 12 12 13 14 14 14 13 14 16 16 15 14 14 13 13 13 13 13 13 13 12 11 11
8 6 5 5 7 7 6 5 6 9 12 12 10 9 9 9 10 11 10 8 7 5 3 2 2 2 3 5 5 4 5 7 8 8 9 9 8 8 9 11 12 11 11 11 12 13 13 14 14 14 14 15 15 14 13 13 13 13 13 14 14 13 12
7 7 5 5 6 6 5 4 4 5 8 11 11 10 9 9 9 10 11 11 12 12 11 10 8 6 4 4 5 3 2 5 7 9 10 10 9 8 8 10 11 11 10 11 11 12 12 13 14 14 14 15 15 15 13 11 12 13 13 14 14 13 12
7 9 8 7 9 8 6 7 6 5 5 6 8 10 10 10 9 9 9 9 9 11 12 12 12 12 10 7 6 4 2 4 6 8 10 10 11 12 11 10 11 13 14 13 11 11 11 11 12 13 12 13 14 14 11 9 11 14 14 16 16 13 12
6 8 9 8 9 10 8 9 10 9 8 7 7 7 8 9 9 7 7 6 4 5 6 6 6 8 11 10 9 9 8 8 8 8 9 9 10 12 13 14 13 11 12 14 14 12 10 9 9 9 11 12 11 11 11 10 12 14 14 17 18 15 14
5 7 10 10 10 10 10 10 10 9 10 10 10 11 11 11 11 10 8 7 6 5 4 3 3 2 3 4 6 8 11 13 13 12 12 11 10 10 10 12 14 14 13 10 10 13 12 11 10 9 10 12 7 4 11 11 13 13 14 17 20 19 17
8 10 11 10 10 10 10 10 11 11 12 12 11 12 13 14 13 11 8 7 7 6 5 5 4 4 3 2 1 3 5 8 9 11 13 13 12 11 11 12 12 10 9 10 10 10 10 8 8 8 9 9 7 1 6 7 9 11 12 15 20 20 19
10 12 11 9 10 10 10 10 11 13 13 13 13 12 11 13 14 12 11 10 9 8 7 7 7 7 5 4 2 0 1 3 5 7 9 11 12 12 11 12 11 9 8 10 11 9 7 5 4 4 6 7 5 3 3 4 6 8 9 12 16 16 15
10 12 11 9 9 10 11 11 11 12 13 13 14 13 13 13 14 13 13 12 11 11 11 10 11 10 9 8 7 4 2 1 4 5 7 8 9 11 12 11 11 10 10 10 11 10 7 5 5 4 3 4 3 4 6 5 6 7 8 11 13 12 12
12 13 12 11 11 11 14 15 14 13 13 14 14 14 14 14 14 14 14 13 13 13 12 12 12 12 11 10 9 7 6 2 1 3 4 5 6 8 10 12 12 13 13 12 12 12 10 9 8 6 5 3 2 5 8 8 7 7 8 10 11 11 9
15 16 14 13 13 14 14 15 15 14 15 16 14 13 13 14 15 14 13 13 14 13 13 12 12 12 12 11 10 10 10 8 4 2 0 1 4 6 7 8 11 12 13 13 13 13 13 14 11 8 6 3 3 7 9 8 8 9 9 10 10 9 8
15 15 13 13 15 15 14 14 15 15 15 15 15 14 13 14 14 13 11 11 13 13 12 11 10 10 11 11 10 10 10 10 9 7 7 6 3 0 1 3 6 9 12 13 13 12 12 12 10 8 5 3 4 7 7 7 8 8 9 10 10 8 7
14 15 15 14 15 15 14 15 16 16 15 15 16 16 15 13 13 13 13 13 13 13 12 11 10 12 13 12 10 10 9 9 10 11 11 11 10 9 7 5 1 3 7 10 11 11 11 10 9 7 7 7 6 6 5 5 5 5 6 7 6 6 6
15 15 14 13 14 14 14 15 15 16 16 15 14 15 15 14 14 14 13 13 13 13 13 11 11 13 14 13 11 11 11 10 10 10 10 11 13 13 12 11 9 6 3 2 5 7 7 8 8 9 9 9 8 6 5 4 4 4 3 3 3 4 5
15 13 13 14 14 14 14 15 15 16 16 15 14 15 15 15 15 14 14 14 14 13 12 11 11 12 13 13 12 11 11 11 11 11 11 11 12 12 12 11 11 11 11 10 10 12 12 11 11 10 10 9 7 7 6 6 5 5 4 4 5 6 5
12 12 13 13 13 13 13 14 15 16 15 15 15 15 14 15 15 14 14 14 13 11 10 10 10 10 10 11 12 11 11 11 11 11 11 11 11 11 11 11 11 12 13 14 15 16 15 13 13 12 11 10 9 8 7 7 7 7 7 6 6 7 8
10 10 12 12 13 13 13 14 14 14 14 14 15 15 15 15 14 13 13 13 11 10 9 9 8 9 9 9 9 9 9 10 10 10 10 11 10 10 10 10 11 11 12 13 14 15 14 13 13 12 12 10 9 9 8 8 8 8 8 8 7 7 7
9 10 12 13 12 11 12 13 14 14 14 14 14 14 14 14 14 13 12 11 9 9 9 8 8 8 8 8 7 7 7 8 9 9 9 9 10 10 9 9 10 10 9 10 11 11 11 11 11 11 11 10 10 10 9 10 10 10 10 12 11 10 8
10 11 12 12 11 11 11 13 14 13 13 14 13 13 13 13 13 11 9 8 8 8 7 7 7 8 7 7 6 6 5 6 8 8 9 9 10 10 10 9 10 10 9 8 9 10 8 8 8 8 9 9 8 8 9 10 10 9 10 12 12 12 12
10 13 12 10 9 9 9 11 13 12 12 12 12 11 10 11 11 10 8 7 7 7 6 6 6 6 6 6 6 6 7 8 7 8 9 10 11 11 11 10 9 10 11 11 11 8 6 5 5 6 8 9 6 5 9 10 8 8 9 9 10 10 10
10 11 12 10 6 6 9 12 12 11 11 10 10 10 9 9 9 9 9 8 7 6 6 6 6 5 5 5 5 5 4 5 6 7 8 9 10 11 12 12 10 9 10 12 12 11 9 7 8 9 10 10 7 6 8 9 7 7 7 7 7 6 6
9 9 9 8 5 6 10 13 11 10 10 8 8 8 8 8 8 8 8 7 6 5 5 5 4 2 2 3 4 4 3 4 5 7 7 8 9 10 11 12 10 9 9 9 9 10 10 9 10 11 10 9 8 9 9 9 8 6 6 5 4 3 2
5 5 6 6 4 6 10 11 9 9 9 7 6 6 6 7 7 7 6 6 4 4 3 3 2 2 2 4 6 7 6 5 6 7 7 8 10 10 9 8 7 7 7 6 5 6 6 6 8 9 7 6 6 6 6 6 6 5 4 4 4 2 2
6 5 5 6 5 6 8 9 8 9 8 6 5 5 5 6 6 5 5 5 3 3 3 3 3 4 5 6 7 8 9 8 7 7 7 7 7 8 7 7 6 7 8 7 6 4 4 4 4 4 4 4 5 5 5 5 4 4 3 3 2 2 2
8 8 8 8 7 8 9 9 9 9 8 7 6 6 5 5 5 4 5 4 3 3 3 2 3 4 5 5 5 5 7 7 6 6 7 6 5 4 3 5 7 7 8 8 7 7 6 6 5 5 4 3 3 3 4 5 4 3 2 2 1 1 1

ECMWFFLT1_925_spd_111.txt.gz
Wind_Speed
10 8 6 6 7 3 4 12 18 21 20 21 26 27 29 30 29 29 28 28 29 28 27 28 26 24 22 21 21 19 18 20 20 19 17 17 17 16 16 14 13 13 13 13 13 12 12 10 9 12 12 9 9 9 8 9 9 8 7 5 5 6 5
12 10 5 5 7 4 3 12 19 19 18 21 26 27 28 31 30 29 29 28 28 28 28 28 27 26 23 21 21 20 19 20 20 19 17 17 17 16 15 14 13 13 13 12 12 12 12 11 10 12 12 10 9 10 10 9 10 9 7 6 6 7 7
12 10 7 5 7 7 5 11 18 20 18 18 23 26 29 31 31 31 30 29 28 27 28 28 27 26 25 22 21 20 20 20 20 20 17 16 17 15 15 15 14 13 12 12 13 12 12 12 10 10 11 10 8 9 10 9 9 9 8 7 6 7 8
11 9 8 7 6 7 7 9 12 19 23 22 24 27 30 32 31 32 32 30 29 27 27 27 26 26 25 23 22 21 21 21 21 20 18 17 16 15 16 16 14 13 12 12 12 11 12 13 11 10 11 10 8 9 11 10 8 8 9 9 9 8 7
11 9 8 8 7 6 7 7 7 11 19 21 26 30 32 32 31 31 31 30 29 27 27 27 25 25 24 22 22 22 21 21 21 20 19 18 17 16 16 17 15 13 13 12 12 12 13 13 12 12 12 11 9 10 11 11 9 9 9 10 10 9 7
10 9 7 8 8 6 8 13 15 17 20 18 24 30 32 31 30 30 30 30 29 26 25 25 23 23 23 22 21 22 21 21 21 20 19 19 18 17 16 15 15 14 13 13 13 13 13 13 13 13 13 13 12 11 11 11 11 11 10 10 10 10 9
10 9 7 6 7 6 9 18 24 25 24 19 24 28 29 28 29 30 29 29 28 26 25 25 24 23 23 22 21 21 20 20 20 19 19 19 18 17 15 14 15 15 13 13 14 13 12 12 13 14 13 14 14 12 12 12 12 12 12 11 11 10 10
11 10 8 6 6 5 7 17 23 24 24 23 26 30 27 26 27 28 28 28 27 26 25 24 23 23 24 23 22 22 21 20 20 19 18 18 18 17 17 15 15 14 13 13 14 12 11 12 13 14 14 13 13 13 13 14 13 12 13 13 12 11 11
10 10 8 4 3 3 4 12 18 21 25 26 28 30 28 27 28 29 29 29 27 26 26 24 22 22 24 24 22 22 24 23 21 20 19 18 18 20 19 17 16 15 14 13 14 13 13 12 12 13 14 13 13 14 14 14 14 14 14 14 13 13 13
9 10 8 4 2 2 0 8 14 17 21 25 26 27 27 27 28 28 28 28 28 27 25 23 20 19 22 25 23 21 23 24 22 21 21 20 19 19 19 17 16 16 16 15 15 14 15 15 14 13 13 14 14 14 14 14 14 14 15 15 14 14 14
10 11 9 7 5 3 0 4 11 15 17 21 22 23 24 26 26 26 26 28 27 26 24 20 18 18 18 21 24 21 19 21 22 21 20 19 18 18 18 18 16 15 16 17 17 16 16 16 16 14 14 15 14 14 14 13 13 13 15 15 15 14 13
7 9 11 10 9 8 6 4 8 13 16 20 22 21 21 22 24 24 23 25 24 23 21 19 17 17 15 16 21 24 22 20 21 21 20 19 18 18 18 19 18 18 18 18 18 19 19 17 17 16 15 15 14 13 13 13 12 13 14 14 14 13 12
6 5 7 8 8 8 8 5 7 9 10 11 16 21 22 20 20 21 20 20 21 20 20 18 16 16 16 17 17 18 19 18 18 19 19 19 18 18 18 17 18 19 21 21 21 20 18 17 17 17 16 15 16 15 14 14 14 13 13 13 13 13 13
9 9 6 1 4 6 9 9 9 12 14 12 10 14 21 22 20 20 21 19 19 19 18 18 18 17 16 16 13 9 6 8 13 14 14 15 14 14 15 14 12 15 16 18 21 20 17 17 18 18 18 16 16 17 16 15 15 15 14 13 14 13 13
8 8 7 4 3 2 7 9 9 13 18 18 15 14 17 21 22 22 23 22 21 20 18 17 17 15 12 11 13 12 8 7 9 12 12 13 10 9 12 11 8 10 10 10 14 15 14 15 16 17 18 17 16 17 17 16 15 15 15 14 15 14 13
6 6 6 4 1 3 3 5 5 8 13 17 20 18 13 14 18 19 20 19 17 17 17 17 16 13 11 9 10 13 11 11 11 11 12 13 11 8 10 10 7 7 8 8 10 10 9 11 12 11 13 16 17 17 17 16 14 14 15 14 14 14 15
5 6 5 5 5 6 6 5 6 5 5 5 8 8 5 3 4 5 7 10 10 9 8 11 13 12 12 11 9 9 9 8 9 10 11 12 13 11 11 10 8 7 7 8 10 10 8 8 10 9 5 9 15 17 16 15 14 14 15 15 14 14 15
3 2 3 3 7 8 7 6 6 7 9 7 6 8 7 5 5 5 3 4 6 7 6 7 9 8 8 10 9 8 7 6 6 7 8 9 10 11 11 10 9 8 7 7 8 9 9 7 9 10 7 4 9 14 14 14 15 15 15 14 14 15 16
6 5 5 6 7 9 9 7 6 11 16 14 11 11 10 10 12 11 9 6 6 6 6 8 8 8 8 9 9 8 7 7 7 7 7 7 7 8 9 9 9 9 8 7 6 7 9 8 7 7 8 7 7 11 13 15 17 16 15 15 14 14 16
8 8 8 7 6 6 8 9 9 12 16 17 16 16 13 12 12 11 11 10 8 7 8 8 9 9 8 7 6 6 7 8 9 10 10 9 8 7 8 8 8 8 7 6 5 5 7 8 6 6 9 11 11 11 10 11 14 14 14 14 14 14 15
9 9 7 6 5 5 6 9 11 12 13 15 17 18 16 17 16 14 13 12 11 10 8 7 8 9 8 7 5 5 5 6 7 8 9 9 8 9 9 9 8 8 7 6 6 6 7 7 7 7 9 10 11 11 10 8 9 11 11 12 12 13 13
7 8 7 5 6 7 9 11 13 13 13 13 14 16 18 18 18 17 16 15 15 15 13 10 9 9 8 6 4 3 3 4 5 5 6 6 7 7 8 10 10 9 8 6 5 6 7 7 7 7 6 8 9 10 11 11 10 9 10 10 10 10 8
7 8 9 8 7 6 10 14 15 15 14 13 13 16 19 19 19 20 20 18 17 17 15 13 12 12 11 10 7 5 3 4 4 5 5 6 6 6 7 9 9 8 9 8 6 6 6 5 6 6 6 7 9 9 10 11 12 11 10 10 10 8 5
11 13 14 15 12 10 11 14 12 11 13 14 14 16 17 18 19 20 20 18 17 16 14 13 14 15 15 15 13 11 9 6 5 4 4 4 4 5 6 7 8 9 10 10 9 9 9 8 7 6 5 6 8 9 9 10 10 11 11 11 12 10 6
12 15 17 18 16 13 14 15 13 14 16 15 11 11 14 16 17 18 18 17 16 16 15 13 13 13 13 13 13 14 14 12 10 8 7 5 4 3 3 4 6 9 10 10 9 10 11 12 11 9 8 8 9 9 10 10 10 10 11 11 11 10 9
10 13 16 17 17 16 17 17 18 19 20 17 13 14 16 18 19 20 19 17 15 16 16 16 15 14 14 14 12 11 12 13 14 14 13 12 10 8 6 3 3 7 10 10 10 9 8 9 11 11 10 9 9 8 8 8 8 9 10 10 10 10 11
12 14 16 16 16 18 20 19 20 21 20 19 18 19 19 19 19 19 19 17 16 16 16 16 16 15 15 15 14 12 12 12 12 13 14 14 13 12 10 8 5 3 5 7 9 9 8 9 12 12 10 9 8 6 6 5 4 5 6 7 8 9 10
14 16 17 16 17 19 20 20 20 19 19 18 18 18 19 20 20 18 17 18 17 15 15 15 15 14 14 14 14 14 14 13 12 12 12 12 13 13 12 11 10 9 8 8 8 8 10 11 12 11 10 9 7 5 5 4 3 4 4 5 6 8 10
13 14 16 19 22 23 21 20 19 17 16 16 15 16 17 19 19 17 17 17 15 13 13 13 12 13 13 13 13 14 13 13 12 13 13 13 13 15 15 14 14 14 13 12 12 13 14 12 11 11 11 10 8 7 6 6 5 5 6 8 8 9 10
12 15 19 21 22 22 20 19 18 16 14 14 14 15 15 16 17 17 16 15 13 12 12 12 11 11 11 11 12 12 13 12 12 13 14 14 13 14 15 14 15 15 15 15 15 16 16 14 12 13 13 12 11 10 9 9 8 7 8 9 9 9 9
14 17 18 18 19 20 20 20 19 17 15 14 13 13 13 13 15 15 13 12 11 11 12 12 12 11 10 10 10 10 11 12 13 12 13 14 14 14 13 13 13 12 12 13 14 15 16 15 15 15 15 15 14 13 11 10 10 10 10 9 9 10 10
16 17 15 16 18 18 17 17 17 17 16 15 13 12 12 12 12 12 12 11 10 11 11 11 11 10 10 10 10 9 9 11 13 13 13 13 13 13 13 13 14 13 11 10 11 11 11 12 14 15 15 15 15 14 12 10 9 10 10 10 9 10 9
15 16 13 12 14 17 17 16 16 15 15 14 12 11 11 11 11 11 10 9 9 8 8 9 9 9 8 9 11 12 12 13 13 14 14 13 12 11 11 11 12 13 13 13 12 12 11 11 12 12 13 13 13 11 9 8 8 8 8 8 8 8 7
14 15 13 10 12 18 19 17 15 14 13 12 11 11 11 10 9 9 9 8 8 8 8 8 7 7 7 8 9 10 11 13 12 12 13 13 11 11 11 10 10 11 13 14 14 14 15 15 14 14 13 13 11 9 8 7 7 7 6 6 6 5 3
13 15 15 14 16 19 19 17 14 12 11 10 10 10 10 9 8 6 6 7 7 8 7 5 3 4 7 8 9 9 11 13 12 11 12 12 11 11 11 11 10 9 10 11 12 12 12 13 13 13 13 13 10 7 6 6 6 5 5 4 3 3 2
11 12 14 16 17 17 17 16 14 12 10 8 8 7 7 8 7 5 5 5 5 5 4 4 5 9 11 11 13 15 16 17 14 12 11 12 11 10 10 9 9 9 9 9 9 9 8 8 9 9 8 9 8 6 4 5 4 3 3 3 2 2 2
9 8 9 12 14 14 14 13 12 12 10 8 7 7 7 6 6 5 4 4 3 3 4 6 9 12 12 11 13 13 14 15 15 12 11 9 8 8 9 9 10 10 10 9 9 8 7 7 7 6 5 4 5 4 3 3 3 2 1 1 1 2 3
7 6 5 8 10 12 12 12 11 11 11 10 9 8 7 6 6 4 3 3 4 4 3 3 5 8 8 10 11 11 11 11 11 11 10 8 6 6 6 8 10 10 10 10 10 10 10 9 8 8 7 6 5 4 3 2 2 1 0 1 2 2 3

ECMWFFLT1_925_spd_114.txt.gz
Wind_Speed
12 9 7 6 9 12 14 19 24 25 26 28 28 30 31 32 32 31 31 31 30 29 29 29 28 28 28 27 26 24 23 24 24 23 22 22 22 21 20 20 20 19 19 19 18 17 15 13 12 11 11 11 11 10 10 10 9 8 7 6 6 6 6
13 10 8 7 8 10 15 22 26 26 27 28 28 30 32 32 32 32 31 32 31 30 30 29 29 28 28 27 25 24 23 23 23 23 23 22 21 21 20 20 20 19 18 18 18 17 16 14 13 13 12 12 13 12 12 11 11 10 9 8 7 7 7
13 12 9 8 9 10 13 20 24 26 28 27 28 31 32 33 34 34 33 33 32 31 30 29 28 28 27 26 25 24 23 22 23 23 23 23 22 20 20 19 19 18 17 17 17 17 17 15 14 14 14 14 14 12 12 12 11 10 10 10 9 8 9
14 13 10 9 11 10 12 18 22 25 28 28 30 32 33 34 35 35 35 35 33 32 31 31 29 28 28 27 25 24 23 22 23 23 23 23 21 20 20 19 18 17 16 16 15 15 16 15 14 14 13 15 15 13 11 11 9 9 10 11 9 8 9
15 13 9 9 11 10 10 15 20 22 25 26 28 33 35 36 35 34 35 36 35 34 33 32 30 28 28 27 25 25 24 23 23 22 22 21 20 20 20 19 18 17 16 16 15 14 15 14 15 15 13 14 15 12 10 10 9 8 9 10 10 9 8
14 12 10 9 10 9 9 15 20 22 25 27 27 29 33 35 35 34 34 34 34 34 33 32 31 29 28 28 26 25 24 24 23 22 22 21 20 20 20 19 19 18 17 17 16 15 15 15 15 15 13 13 14 12 10 11 10 9 8 9 10 10 9
12 11 10 9 9 9 9 14 20 21 25 30 30 26 27 31 34 34 34 34 33 33 32 32 31 29 29 29 28 26 25 24 23 23 23 22 21 20 19 19 20 19 17 17 16 16 15 16 16 16 14 14 14 13 12 12 12 10 9 9 9 9 9
13 11 10 9 9 9 9 13 19 21 23 27 29 25 23 26 31 33 32 33 33 32 32 32 31 30 30 29 28 27 26 25 24 23 23 23 22 21 20 20 20 19 18 17 17 16 16 17 18 17 16 16 16 15 14 13 12 11 12 12 11 11 10
11 10 10 9 9 8 9 13 18 22 24 24 26 28 26 26 29 33 34 34 33 33 33 33 31 30 29 29 29 27 25 25 24 23 23 23 23 22 21 21 20 19 20 19 17 17 17 17 17 17 17 17 16 16 15 14 14 13 13 13 13 12 12
8 8 7 7 6 5 8 13 16 19 21 22 25 30 31 29 30 32 33 33 33 33 33 32 30 29 28 28 28 27 25 25 25 24 24 23 23 23 22 21 21 20 21 19 17 17 17 17 17 16 17 17 16 15 15 15 15 15 15 15 14 14 13
6 6 4 5 4 4 4 7 11 15 19 21 25 30 31 31 32 33 34 34 34 33 32 32 30 29 29 29 27 26 25 24 24 24 24 24 23 22 22 21 21 21 21 20 19 18 18 18 17 16 16 17 16 15 15 15 15 15 16 15 15 16 15
6 6 7 8 7 7 7 4 2 8 15 20 25 29 30 31 32 33 33 33 34 33 32 32 31 29 30 29 26 24 24 23 22 21 22 24 23 22 22 22 22 22 22 21 21 20 19 19 19 18 17 17 16 16 16 15 15 15 15 15 15 16 15
5 6 6 7 7 7 7 5 2 5 11 15 19 24 27 29 32 34 35 35 35 35 34 32 30 28 28 28 25 22 24 26 25 21 21 24 24 23 22 23 23 23 23 23 23 22 21 21 21 20 20 18 17 16 16 16 15 15 15 14 14 14 14
7 6 5 5 6 6 7 6 4 5 8 8 4 5 7 8 9 13 17 20 24 30 33 33 30 27 25 26 24 21 22 24 25 24 24 25 25 25 24 24 25 25 24 23 24 24 23 22 22 21 21 20 19 17 17 16 16 15 15 14 14 14 13
8 7 6 5 6 6 6 5 6 8 12 17 17 15 18 20 15 12 11 8 6 7 14 22 26 26 24 24 23 21 22 22 22 22 21 22 23 22 20 20 23 27 27 25 24 24 24 24 23 22 22 21 20 19 19 18 17 16 15 15 14 13 13
7 7 7 6 6 7 7 7 8 11 14 15 16 18 19 17 13 12 11 10 7 4 3 5 11 14 16 19 20 20 21 22 22 19 16 16 19 18 16 15 17 21 24 25 25 25 25 25 24 23 22 22 22 20 20 20 18 17 16 16 15 14 14
6 7 8 7 6 7 8 7 9 11 14 15 18 21 20 17 17 18 17 17 15 12 10 9 9 8 7 7 11 16 20 22 21 18 14 13 16 17 15 14 14 15 17 19 22 23 25 25 24 23 22 21 21 21 20 20 20 18 17 17 17 16 15
5 6 7 7 5 6 6 6 7 10 12 15 18 21 22 22 21 22 23 22 17 17 18 17 15 14 11 7 6 9 13 15 16 15 14 13 14 14 13 13 13 13 13 15 17 18 20 21 22 22 22 21 21 20 20 20 20 20 18 17 17 17 16
5 4 4 5 5 5 5 5 6 8 9 11 14 15 18 21 21 20 21 21 18 18 19 17 15 18 19 15 11 9 6 6 7 8 8 8 9 9 9 9 9 10 11 12 13 14 15 16 19 20 21 20 20 21 20 20 20 20 19 18 17 17 17
6 4 3 3 5 6 7 9 11 12 12 11 10 11 13 16 18 17 15 15 15 17 18 15 12 13 15 14 14 14 10 8 7 6 7 6 5 6 7 7 7 8 9 10 11 12 13 14 16 18 18 18 18 19 20 20 21 21 19 19 18 18 18
6 6 5 5 5 5 7 12 14 14 15 14 12 12 12 12 14 13 11 11 12 14 17 16 13 11 10 10 11 13 13 13 12 13 15 13 10 9 8 8 8 8 8 9 10 12 13 14 15 16 17 17 17 17 18 19 20 20 19 18 18 18 18
6 7 6 6 5 3 3 7 12 15 17 17 16 15 13 12 13 13 13 13 13 14 15 14 13 12 10 9 8 8 10 11 11 11 12 12 11 8 5 5 6 7 9 9 10 12 12 12 13 13 14 16 16 17 17 18 18 18 17 15 15 15 15
8 8 9 10 9 6 4 5 10 15 17 18 19 17 15 15 16 17 16 15 13 12 11 9 8 6 5 5 5 4 5 6 7 8 9 10 11 10 9 10 10 10 11 12 12 13 13 12 12 14 14 14 15 16 17 17 17 16 15 12 11 12 12
11 11 12 14 14 14 13 12 12 15 17 18 19 18 17 17 18 19 19 18 15 15 14 12 10 8 6 5 4 4 4 3 3 5 9 11 9 9 11 14 14 13 12 12 12 12 12 13 13 14 12 11 12 15 16 16 15 15 14 12 10 10 11
12 15 15 14 14 17 18 18 19 19 18 19 19 18 18 19 19 20 20 20 18 16 16 15 14 13 12 11 9 8 7 5 3 3 9 10 8 8 9 10 12 12 12 13 12 11 12 12 11 11 12 14 14 14 14 14 14 14 14 12 11 12 13
13 17 17 14 14 18 21 22 21 20 19 20 19 19 21 22 21 19 18 19 19 16 14 14 12 12 12 11 11 12 13 11 7 5 6 6 6 7 8 8 10 10 11 11 11 11 11 12 11 13 17 17 15 13 12 11 11 12 12 12 10 11 13
13 17 19 17 16 20 22 23 22 20 18 18 17 17 19 21 21 19 18 20 21 18 16 15 13 12 11 10 10 12 13 11 9 7 7 6 5 4 4 3 5 7 9 9 8 7 8 13 16 17 17 15 12 11 10 9 9 9 10 11 10 10 11
11 16 21 21 20 21 22 22 22 22 19 17 16 16 18 21 21 20 19 20 20 18 15 14 13 12 12 12 11 11 11 10 8 7 8 8 8 9 9 8 6 4 3 5 5 4 8 12 15 15 13 10 8 7 7 6 6 5 6 7 9 10 11
13 15 18 19 20 22 23 21 21 21 19 18 17 17 18 20 20 19 18 17 15 15 15 13 12 12 12 13 12 11 11 10 8 8 10 11 12 12 12 12 11 10 8 7 8 9 11 12 12 13 12 10 8 6 5 3 3 3 3 4 6 9 10
15 14 15 16 18 21 23 22 20 19 18 17 17 17 18 20 20 19 17 14 11 12 12 12 12 12 12 12 12 12 13 13 12 11 11 12 13 13 13 12 12 12 12 12 12 13 14 13 12 12 12 11 10 9 7 5 4 3 3 2 3 3 4
15 15 16 17 18 20 21 21 20 19 17 15 15 15 15 16 16 16 15 13 11 11 11 11 11 10 10 11 12 12 14 14 14 13 12 11 10 10 10 11 11 11 12 12 13 15 15 14 12 12 13 13 11 10 8 6 5 5 5 4 4 4 4
14 15 17 18 19 20 21 21 20 19 17 14 13 13 12 12 13 13 11 10 11 11 11 11 11 10 9 10 11 12 13 15 15 15 14 13 11 10 9 9 9 9 10 10 12 14 15 14 13 13 14 13 11 9 8 6 6 7 7 6 5 6 6
12 13 15 17 18 19 20 20 18 16 15 14 12 11 10 10 11 10 9 8 8 9 9 9 9 9 8 8 11 12 13 14 14 14 14 13 13 13 12 11 10 10 10 10 11 11 11 12 12 12 11 10 9 8 7 7 7 7 7 7 6 6 5
12 13 14 16 18 19 19 20 18 16 15 14 12 10 10 10 9 7 6 7 6 6 7 7 7 6 6 8 12 15 14 14 13 13 12 11 11 12 13 12 12 12 13 12 11 10 9 9 9 8 7 7 7 6 5 5 5 5 6 6 5 5 4
15 17 17 17 17 18 17 18 17 17 16 14 12 10 9 8 7 5 5 6 5 4 4 4 4 5 6 9 14 16 16 15 13 11 10 10 10 12 13 13 12 12 13 13 11 10 9 8 8 6 5 5 5 4 3 4 4 4 5 5 5 5 5
16 17 17 16 16 16 16 14 13 13 13 12 10 9 8 7 6 5 6 7 5 3 3 4 6 8 10 12 15 16 15 15 14 13 12 11 11 13 14 14 12 11 11 11 10 9 8 8 8 6 4 3 3 3 2 2 2 3 4 4 5 6 6
16 16 16 16 16 15 14 12 11 10 11 10 8 7 7 6 5 4 5 6 5 4 5 7 10 12 12 13 14 14 14 14 13 13 13 12 11 12 14 15 14 13 12 11 10 9 8 8 8 6 4 3 3 2 1 1 1 2 3 4 5 5 6
12 13 13 12 12 12 12 11 10 9 9 9 8 7 6 5 3 2 2 3 5 5 5 6 9 11 12 13 13 12 12 12 12 11 11 10 10 10 11 13 15 14 13 12 11 11 10 9 9 7 5 4 3 3 2 2 2 2 3 4 5 6 7

ECMWFFLT1_925_spd_117.txt.gz
Wind_Speed
11 9 8 9 12 13 13 18 23 24 25 27 28 29 29 29 30 31 31 31 31 30 30 29 28 29 28 26 25 24 25 25 25 25 25 25 24 24 23 23 22 21 21 20 19 18 18 16 14 13 12 12 12 12 11 10 10 10 9 7 6 6 6
12 10 8 8 11 13 15 21 24 25 26 27 28 29 29 29 30 31 31 31 31 31 31 31 30 30 29 27 26 25 25 26 26 26 26 25 24 24 23 23 22 21 21 21 19 19 18 17 15 14 12 12 13 12 11 11 11 11 11 10 9 8 7
13 12 10 8 11 13 15 20 24 26 27 28 28 29 29 30 32 33 32 32 32 31 32 32 31 30 29 28 27 26 26 26 26 26 25 25 24 24 23 23 22 21 20 20 20 19 19 17 15 15 14 13 13 13 13 13 13 13 13 12 11 10 9
13 13 11 9 11 13 15 19 23 25 27 29 30 31 32 32 33 34 33 33 33 32 32 33 32 31 30 29 28 28 27 27 26 26 25 24 23 23 23 23 22 21 20 20 19 19 19 18 17 16 15 15 14 15 15 15 15 14 13 13 13 12 10
14 13 11 9 10 11 13 18 23 26 27 29 31 33 34 34 34 33 34 34 34 34 34 34 33 31 31 30 29 29 28 27 26 25 25 25 24 23 22 22 22 21 21 20 19 19 20 19 19 18 16 16 16 16 17 17 16 14 12 12 13 13 11
13 13 12 10 9 11 12 18 25 28 28 29 31 33 33 34 33 33 34 34 34 34 33 32 32 31 31 30 29 29 28 28 26 25 25 24 24 23 23 22 22 21 20 20 19 19 19 18 18 19 17 16 16 16 17 17 15 13 12 11 11 12 12
12 12 12 10 9 9 11 16 23 27 28 30 30 30 31 32 33 34 34 34 34 33 32 31 31 31 30 30 29 28 28 27 26 25 24 24 24 23 23 22 22 21 20 19 18 18 18 17 17 17 17 16 16 15 16 16 14 13 13 12 11 11 10
12 12 12 11 8 8 9 15 21 24 26 26 27 28 30 32 32 32 32 34 34 32 32 32 32 31 31 30 29 29 28 27 26 25 24 24 23 22 22 22 22 21 19 19 18 18 18 17 17 17 16 16 15 15 15 16 14 13 14 13 12 11 10
10 10 9 7 5 4 3 5 12 18 23 25 26 28 30 31 32 32 33 34 33 33 33 33 32 32 31 30 30 29 28 27 26 25 24 24 24 23 22 22 21 20 20 20 19 18 18 17 17 17 17 16 16 15 16 16 15 14 14 14 13 12 11
6 6 6 7 7 7 7 5 2 6 14 20 25 28 29 30 30 31 32 32 32 33 34 33 32 31 31 30 29 28 28 27 26 25 25 25 25 24 23 22 21 20 20 20 20 19 19 19 18 18 18 18 18 17 17 17 16 16 15 15 14 13 12
6 6 7 7 6 8 10 9 6 8 13 17 20 24 26 29 31 32 32 31 32 34 34 34 32 30 29 29 28 27 27 27 26 26 26 26 26 25 24 23 22 21 20 20 20 20 20 19 19 19 19 19 19 19 19 18 17 17 17 16 15 15 14
5 6 7 7 6 6 8 10 10 13 15 11 8 7 5 8 14 19 23 23 21 21 24 27 30 30 30 28 28 28 28 28 28 27 26 26 25 24 24 23 23 22 21 21 21 21 21 20 20 19 20 20 19 18 18 18 17 17 17 16 16 16 15
3 4 7 7 6 7 9 9 9 11 12 10 9 9 7 4 3 5 8 9 7 5 4 7 13 19 24 27 27 27 28 28 28 27 27 27 26 24 23 23 23 23 22 22 22 23 22 22 21 20 21 21 20 19 18 18 18 17 17 16 15 16 15
6 5 4 2 4 5 7 9 9 11 14 16 17 17 17 16 14 13 12 11 9 11 12 12 13 13 16 21 25 27 28 29 28 27 26 26 26 25 24 23 23 23 22 22 23 24 23 23 22 22 22 22 21 20 19 18 18 18 17 16 15 15 15
5 2 2 2 3 3 5 6 6 8 11 15 19 19 20 21 20 19 19 19 20 22 24 25 26 24 21 19 19 20 21 23 25 27 29 29 28 26 25 25 25 24 24 23 23 24 23 23 24 23 23 23 23 22 21 20 19 19 18 17 16 15 15
2 4 4 4 4 4 4 5 4 5 8 13 18 21 23 24 24 23 22 23 24 25 24 24 26 29 28 25 22 20 18 15 14 15 18 22 25 25 23 24 26 26 25 25 25 25 25 25 25 25 24 23 23 23 23 22 21 19 19 18 16 16 15
0 4 3 2 1 1 4 5 6 6 7 11 16 20 22 23 24 24 24 24 25 26 24 23 24 27 29 29 27 24 22 20 16 11 9 9 9 13 15 16 21 25 27 26 25 26 27 27 27 26 25 24 24 24 24 24 22 21 20 19 17 17 17
1 2 4 4 3 2 2 3 5 6 8 12 15 18 21 21 22 23 23 25 27 27 24 22 23 26 27 27 25 22 21 23 23 20 14 8 6 8 12 14 13 16 21 24 26 26 28 29 29 28 27 26 25 25 25 24 23 22 20 20 19 18 18
3 3 4 4 5 4 3 2 4 5 8 12 14 16 18 20 22 23 22 22 23 23 20 17 17 18 19 19 20 20 21 23 24 23 21 17 12 10 12 13 12 9 10 14 19 24 28 29 29 28 27 27 26 26 25 24 23 22 22 21 20 19 19
4 4 5 5 5 5 4 3 5 4 2 6 10 14 17 18 21 21 20 19 19 18 16 14 11 10 9 8 12 15 17 19 20 19 18 17 15 13 11 11 12 12 10 8 11 17 22 25 27 26 25 25 24 24 23 23 23 23 22 22 21 20 20
6 5 5 5 5 5 5 5 6 7 6 8 11 14 18 18 19 20 19 19 19 19 18 16 15 12 8 6 7 9 11 11 12 14 15 14 14 16 16 15 15 16 16 14 13 13 15 18 20 21 21 21 21 21 22 23 23 23 22 22 21 21 20
6 6 6 5 5 5 7 9 9 9 9 10 12 15 19 19 19 19 18 18 19 18 17 15 13 12 10 7 7 7 7 8 9 10 12 12 13 15 16 14 14 13 13 15 16 15 14 14 13 14 16 17 18 19 20 21 22 22 22 21 21 21 21
7 8 7 7 7 7 9 11 12 12 12 12 13 15 17 17 18 19 17 16 15 15 13 10 9 8 7 6 5 6 7 7 8 10 11 11 12 13 13 12 12 11 9 10 12 12 13 13 13 14 15 16 16 17 18 19 20 20 19 20 20 20 20
11 12 11 11 12 13 15 16 15 16 17 17 17 15 15 15 17 18 17 15 14 13 13 12 10 9 8 6 5 5 6 7 8 9 9 9 9 10 11 11 12 14 13 12 12 11 13 15 17 15 13 14 15 16 16 15 15 14 14 14 16 17 17
12 14 14 13 14 15 16 17 18 19 21 22 20 18 18 18 18 18 16 13 13 14 15 14 11 9 8 7 6 4 4 5 5 6 6 6 7 9 9 8 9 11 13 14 15 15 15 18 18 13 10 11 12 11 11 10 9 10 10 11 12 13 14
12 14 14 14 15 16 16 17 19 19 20 20 19 18 18 18 18 17 15 13 14 15 16 15 13 12 11 10 8 7 5 4 4 4 4 5 7 8 8 8 7 7 9 11 13 16 17 18 17 13 11 12 11 9 8 6 7 9 11 11 11 12 13
15 15 14 13 14 16 18 18 19 19 17 16 17 17 17 17 18 17 15 13 13 12 13 14 13 13 13 12 11 10 8 7 5 2 1 0 3 4 4 5 5 4 4 3 6 11 15 13 11 11 11 12 12 10 5 4 6 10 11 10 10 12 14
14 13 14 14 14 15 16 16 17 18 16 14 15 16 16 18 19 18 16 13 12 11 10 10 10 11 12 12 12 12 10 9 7 5 5 5 3 2 3 3 3 4 2 4 6 9 12 10 8 9 8 7 7 5 1 0 3 6 7 6 8 11 12
10 10 12 13 12 12 14 14 14 15 14 13 14 15 15 17 19 20 19 14 10 9 9 8 9 10 10 11 11 9 8 8 7 7 8 8 6 5 7 8 8 9 8 8 11 12 11 9 8 7 5 5 4 1 1 1 1 1 3 3 5 7 8
8 10 12 12 12 13 15 15 14 14 13 12 13 14 14 14 16 19 18 12 8 8 8 8 9 10 10 10 8 7 7 8 9 9 10 9 7 8 10 11 10 11 10 10 12 13 12 9 7 6 6 8 8 6 5 4 4 4 3 3 3 4 5
9 11 13 13 13 15 16 17 16 16 15 13 13 14 14 15 16 16 14 9 7 7 7 7 8 9 10 10 9 8 8 9 9 9 8 7 8 10 12 12 12 12 11 10 11 12 11 10 8 7 8 9 9 9 8 7 6 5 5 5 4 5 5
10 12 14 14 14 15 16 16 17 17 16 14 13 13 13 14 15 15 12 10 9 8 6 6 7 8 10 10 9 9 8 8 8 7 6 6 7 8 9 10 11 13 13 12 12 12 11 11 11 10 9 8 8 9 8 8 7 7 6 6 6 6 6
10 12 14 14 14 14 15 16 15 15 15 14 12 11 11 11 12 11 10 9 9 8 7 6 6 7 8 9 9 9 8 8 8 7 7 7 7 7 7 7 7 9 11 12 12 12 12 11 10 9 8 7 7 7 7 7 7 7 7 7 7 7 7
12 13 14 14 15 15 15 14 13 12 12 12 10 9 9 9 8 7 6 6 6 6 6 6 5 6 7 9 9 8 8 8 8 7 7 8 8 8 8 8 7 8 9 9 9 9 10 10 9 8 7 7 6 5 5 6 6 6 7 8 8 8 7
13 14 14 13 13 14 14 13 12 11 11 10 9 8 7 7 6 4 4 4 4 3 3 4 4 5 8 11 11 9 8 8 7 6 6 7 7 8 10 10 10 9 9 8 7 6 6 7 7 6 5 4 3 3 3 4 4 6 7 7 8 8 8
14 13 13 12 11 11 11 11 10 10 10 9 7 6 6 5 5 4 4 4 3 2 2 2 3 5 8 11 11 11 10 8 6 5 5 5 6 7 9 10 10 10 10 10 9 7 6 5 6 6 4 2 2 2 1 2 3 4 5 6 7 8 8
15 14 13 13 12 11 10 9 8 7 7 7 5 4 4 5 5 5 4 4 4 3 3 2 3 5 7 9 10 11 10 8 7 7 7 7 7 7 8 9 9 9 9 9 8 7 6 5 5 4 3 1 1 1 1 2 2 3 4 5 6 7 7
13 13 12 12 12 11 10 9 7 5 5 4 3 2 2 3 4 4 4 3 3 3 3 2 3 5 7 9 10 10 9 9 9 9 9 8 8 8 8 9 10 10 9 9 8 8 7 6 6 5 5 4 4 3 2 2 2 2 3 4 5 6 6

ECMWFFLT1_925_spd_123.txt.gz
Wind_Speed
12 13 12 11 12 13 13 17 19 19 20 21 21 22 22 21 21 20 21 26 29 28 29 29 28 28 27 27 27 26 25 23 21 19 19 20 18 17 17 16 15 15 13 11 11 11 11 12 12 11 11 10 9 8 8 8 8 8 7 7 5 5 4
13 13 12 11 12 13 14 18 19 19 20 21 21 22 23 22 22 22 23 27 30 29 29 30 30 30 29 28 27 27 27 25 23 21 20 20 20 18 17 17 16 16 15 13 12 12 11 12 13 13 12 10 10 9 9 8 9 9 8 8 7 6 6
13 12 11 11 12 12 14 17 19 19 20 21 22 22 23 22 24 26 26 28 30 28 27 29 31 31 30 29 28 28 28 26 24 23 21 20 20 18 18 18 17 16 16 15 14 13 12 12 12 13 12 11 10 10 9 9 9 9 9 9 8 7 7
11 11 10 10 11 12 13 17 19 20 21 22 23 24 24 25 27 28 28 29 29 28 27 28 28 29 30 30 29 28 28 27 25 23 21 19 19 19 18 18 18 17 16 16 15 14 13 13 13 13 13 13 12 11 11 10 10 10 11 10 9 8 8
8 10 10 10 11 10 12 16 19 21 21 22 23 23 24 26 26 26 26 27 28 28 28 27 25 23 26 28 27 27 28 28 26 24 21 20 20 20 19 19 18 18 17 16 15 14 14 13 13 13 13 13 12 12 11 11 10 11 12 12 10 9 8
9 9 9 8 9 8 10 16 20 21 22 23 23 23 23 23 23 23 24 25 26 25 24 25 24 22 24 26 24 25 27 28 28 25 22 22 22 21 19 19 18 17 16 16 15 15 14 14 13 12 12 12 11 11 11 11 11 11 12 13 12 11 9
8 8 7 6 6 7 9 13 18 20 21 21 21 21 21 21 22 23 23 23 25 24 22 24 25 24 24 25 23 24 27 28 28 25 23 22 22 20 19 18 18 16 15 15 16 15 14 14 14 13 12 12 12 12 12 13 13 12 13 14 14 14 12
8 7 6 6 7 8 9 11 15 16 17 18 18 19 21 21 21 22 23 23 24 24 23 24 24 23 23 24 24 25 26 26 26 26 23 21 20 19 18 17 17 17 16 15 15 15 14 14 13 13 13 12 12 13 13 14 15 14 13 14 14 13 11
9 7 6 6 6 7 7 10 12 14 15 17 17 19 21 21 21 23 24 23 23 23 24 24 23 22 23 24 25 25 24 24 24 25 23 20 18 17 16 15 16 16 16 14 13 13 14 13 12 13 14 13 13 13 13 14 15 15 15 15 14 14 12
7 7 6 5 5 4 4 5 7 10 13 15 16 18 19 19 21 22 22 21 21 22 23 23 21 20 24 27 27 24 23 22 22 22 21 19 17 17 16 15 14 15 15 13 12 12 13 13 13 13 14 13 13 14 14 14 15 15 15 15 15 14 13
3 5 5 5 5 4 3 3 4 6 8 11 13 14 15 15 16 16 18 21 22 21 22 24 23 22 24 26 25 22 21 20 20 20 20 19 18 17 17 16 14 15 15 14 13 13 12 13 13 13 14 14 13 14 14 14 15 15 15 14 14 15 14
5 5 5 4 5 5 4 4 4 5 6 7 9 10 12 14 15 13 14 18 19 20 24 29 29 26 24 22 21 20 19 18 19 19 20 20 18 17 17 17 16 15 15 15 15 14 13 13 13 14 15 15 14 14 14 15 15 15 15 14 14 15 14
7 8 7 6 5 5 5 5 6 7 9 11 12 13 16 18 19 17 17 17 15 14 19 25 27 27 26 23 21 20 20 20 20 19 19 19 18 17 17 17 16 16 15 15 14 14 14 14 14 14 15 15 15 15 15 15 15 15 16 15 15 15 15
8 8 7 7 5 5 5 5 6 7 10 13 16 18 19 20 21 22 23 23 22 21 20 20 20 23 24 23 22 22 22 22 21 19 19 19 18 16 16 15 15 14 13 13 13 13 13 13 13 14 13 14 14 14 14 15 14 14 15 15 15 15 15
8 7 6 6 5 4 4 4 4 5 7 10 14 17 20 21 21 22 24 25 27 30 29 25 22 21 21 21 23 25 24 23 21 18 18 19 17 16 16 16 16 16 15 13 12 12 12 12 12 11 12 12 13 13 13 13 13 14 14 15 15 14 14
6 6 5 4 3 2 2 1 1 2 4 7 10 14 18 20 21 21 22 23 26 29 30 29 26 23 22 21 23 23 22 22 21 19 18 18 18 19 20 20 20 19 17 16 14 13 13 12 11 11 10 10 11 12 13 13 14 14 15 15 14 14 14
6 6 5 5 3 1 2 2 0 2 4 7 10 13 15 17 18 19 18 20 24 27 28 28 28 26 24 23 23 20 19 21 20 19 19 20 21 23 24 23 21 20 18 17 16 16 15 14 13 11 10 10 10 11 13 13 14 15 14 14 14 13 14
7 7 7 7 5 4 3 3 2 3 5 7 8 11 14 15 17 18 18 18 20 22 25 27 27 26 26 26 23 19 19 19 19 18 19 21 24 25 24 23 22 20 19 17 16 16 16 15 14 13 12 11 10 11 12 13 14 14 13 14 14 14 14
8 8 8 7 6 6 5 5 4 4 5 6 7 9 12 15 17 19 20 19 19 21 23 25 25 23 22 21 21 20 20 20 20 20 21 22 24 25 24 23 22 21 20 19 18 17 16 15 14 14 13 12 12 14 13 13 15 15 14 15 16 16 16
8 8 7 8 8 7 7 7 6 5 6 6 7 8 10 12 16 18 19 17 18 20 22 24 24 22 20 20 21 21 22 23 23 24 24 24 24 23 22 21 20 20 19 19 18 18 16 16 14 14 13 13 13 13 11 12 16 16 15 15 15 16 17
8 8 8 9 10 10 11 11 10 8 7 6 7 9 10 12 15 17 17 17 17 18 20 24 25 23 23 24 22 19 19 20 20 20 19 20 20 20 20 19 17 17 16 16 16 15 14 13 12 11 11 11 10 9 10 13 16 16 15 15 15 15 16
9 10 10 10 11 12 14 15 14 14 13 13 11 9 10 11 12 13 15 17 17 16 17 21 23 23 22 21 19 17 18 17 15 13 12 13 14 14 14 13 12 12 12 12 12 12 11 10 8 7 8 9 8 8 9 12 13 13 14 14 14 14 15
11 12 13 13 13 14 16 17 17 18 19 20 19 16 14 10 8 11 13 15 17 18 18 19 21 23 22 21 19 19 18 15 13 11 10 11 10 8 6 5 6 8 9 9 9 9 9 8 7 7 7 8 8 9 9 10 10 11 12 12 12 13 14
13 15 15 15 15 15 16 18 18 17 18 21 23 22 21 20 13 4 1 5 9 13 15 17 19 22 21 20 19 18 15 13 12 12 11 10 9 8 8 8 9 11 10 7 6 7 7 7 7 7 8 8 8 8 8 9 10 10 9 9 10 10 11
14 15 15 15 15 15 16 16 17 18 19 22 26 26 27 28 27 23 19 14 10 9 9 11 15 18 18 17 15 14 12 11 11 12 10 8 7 7 8 8 8 9 8 5 4 6 6 5 5 6 6 5 5 6 7 7 8 8 8 8 8 8 7
13 13 13 14 13 14 15 17 18 20 20 21 24 28 31 32 30 29 28 26 24 21 17 15 15 15 16 17 16 14 13 12 11 10 8 7 6 5 5 6 7 6 6 6 5 6 7 4 4 4 4 3 4 4 4 4 5 5 6 6 6 7 5
11 11 12 13 12 12 15 17 18 19 20 21 23 27 32 35 32 27 25 28 30 28 24 23 23 21 21 22 21 19 17 15 13 11 10 8 5 3 2 3 3 4 5 6 4 4 5 5 4 4 4 3 2 2 1 0 1 2 4 4 4 5 5
10 11 12 12 12 12 14 15 18 20 21 22 24 26 30 34 33 29 26 26 26 25 25 26 26 26 28 27 26 25 23 20 17 14 12 10 7 4 4 4 2 1 2 2 2 3 4 5 5 5 6 6 5 4 4 3 1 1 1 2 2 3 3
9 10 11 11 12 12 13 14 16 18 18 21 24 26 28 30 30 29 28 26 24 24 26 25 25 27 30 29 28 28 27 24 21 19 17 15 13 12 11 11 10 9 8 7 7 8 8 7 7 8 9 8 7 7 7 5 4 4 4 4 3 2 2
9 9 10 10 11 12 13 14 15 15 16 18 21 23 23 23 23 24 25 23 21 20 23 24 24 23 26 27 27 27 28 26 23 21 20 20 20 20 19 18 17 15 13 13 14 14 13 11 10 10 11 11 10 9 8 7 6 6 7 7 6 5 4
8 9 9 10 10 11 12 14 14 15 15 16 18 20 21 19 18 18 18 18 17 16 17 20 20 19 21 24 25 24 24 23 21 19 18 19 21 21 20 20 20 18 17 18 19 17 15 13 11 11 12 12 11 9 8 8 8 8 8 7 7 7 7
7 8 9 10 10 10 11 13 14 14 15 15 15 17 19 19 18 15 13 13 14 14 14 14 15 16 18 20 20 20 19 19 17 15 14 15 16 16 16 18 20 20 19 19 18 16 15 14 12 11 12 11 10 9 8 8 8 8 7 7 7 8 9
7 7 8 9 10 10 10 12 13 14 14 15 14 15 17 19 19 17 14 12 11 11 12 13 14 15 16 16 17 17 17 16 15 12 12 12 12 13 15 16 18 19 18 16 14 12 12 12 10 9 9 8 8 8 7 8 8 9 9 10 10 11 11
7 7 8 10 11 11 11 11 12 13 14 14 15 16 18 19 19 18 16 15 12 10 11 12 13 14 15 15 15 16 15 15 14 12 11 11 10 11 13 13 14 16 16 14 12 9 8 8 8 7 6 6 6 6 6 7 9 11 12 12 13 13 12
8 8 9 11 12 13 13 12 12 13 14 14 16 18 20 21 20 19 18 17 15 13 12 11 12 13 13 13 14 14 13 13 13 12 12 11 12 13 13 13 14 14 13 12 10 8 7 7 7 6 5 4 4 4 4 5 7 9 11 11 12 12 12
9 9 10 11 11 12 13 13 12 13 13 14 16 18 19 20 20 20 19 18 17 16 15 12 10 11 11 11 12 12 11 12 11 11 11 12 13 15 16 15 15 14 13 12 10 9 8 7 7 7 6 5 4 4 4 4 5 7 8 9 9 10 10
9 9 9 9 9 10 10 11 11 11 12 13 14 16 17 18 19 20 19 18 16 15 15 14 13 11 9 9 9 9 10 10 10 10 10 11 12 14 15 16 15 14 13 12 11 10 10 10 10 10 9 8 8 7 7 7 7 7 7 8 8 9 9
11 11 10 10 10 9 9 10 10 11 11 11 12 13 13 14 16 17 18 18 16 14 14 15 14 11 9 8 8 9 9 9 9 9 9 9 9 10 12 14 14 14 13 12 12 12 12 12 13 13 13 13 12 11 10 9 9 8 9 9 10 10 11

ECMWFFLT1_925_spd_126.txt.gz
Wind_Speed
17 16 15 13 13 14 14 16 18 18 19 19 19 20 20 19 18 17 17 19 20 21 21 20 20 20 20 20 19 18 17 16 16 14 13 13 12 11 11 10 10 10 10 10 9 9 9 8 8 8 7 7 7 6 6 6 6 6 6 5 5 5 5
16 16 15 14 13 14 15 18 19 19 20 20 20 20 21 20 20 19 18 19 20 21 21 21 20 20 20 20 19 19 18 17 16 15 14 13 12 12 11 11 10 10 10 10 9 9 9 9 9 9 8 8 8 7 7 7 6 7 6 6 6 6 5
14 14 14 15 14 13 15 18 19 20 20 20 19 20 20 21 21 21 20 20 21 21 21 21 21 21 20 19 19 19 19 19 18 17 16 14 14 13 13 11 11 11 10 10 9 9 9 9 9 9 9 9 8 8 8 7 7 7 7 6 7 7 6
14 14 14 14 14 12 14 17 19 19 20 20 20 20 21 22 22 21 21 20 21 22 22 22 22 21 20 20 19 19 19 20 19 18 17 16 15 14 13 13 12 12 11 11 10 10 9 9 9 10 10 9 9 8 8 8 8 8 7 7 8 7 6
14 15 13 13 12 11 12 16 19 20 20 20 20 20 21 22 22 21 21 20 21 22 23 22 21 21 21 20 19 19 19 20 20 19 18 17 16 14 14 14 13 13 12 11 11 11 10 10 10 10 10 10 10 10 9 9 9 8 8 9 8 8 8
12 13 12 11 10 10 12 15 19 20 20 20 20 20 21 21 21 21 21 21 21 21 21 21 21 20 21 20 20 19 19 20 20 20 19 17 16 16 15 14 14 13 13 13 12 12 11 11 11 11 11 11 11 11 11 10 10 9 9 9 9 9 9
9 11 11 10 9 9 11 15 18 18 18 19 19 19 20 20 20 21 21 21 22 22 21 21 21 21 20 20 20 19 19 19 20 20 20 19 17 16 16 15 14 14 14 13 13 13 13 13 12 12 12 12 12 11 11 10 9 9 9 9 9 9 10
7 8 8 8 9 10 11 13 15 16 16 16 17 17 18 19 19 20 21 21 21 21 21 21 21 21 20 20 20 20 19 19 19 20 20 19 18 18 17 16 15 15 14 14 14 14 14 14 14 14 13 13 12 12 11 10 10 11 11 10 10 10 11
7 6 5 5 8 10 10 11 12 13 13 14 15 15 15 16 17 17 19 19 19 20 21 21 20 20 20 19 20 20 20 19 19 20 20 21 20 18 18 17 16 16 16 16 15 15 15 15 15 15 15 14 13 13 12 12 12 12 12 12 11 11 11
8 7 6 5 6 6 7 9 10 11 13 14 15 15 14 15 15 14 15 16 17 18 20 20 19 19 19 19 19 19 19 19 19 19 20 21 20 19 18 18 17 17 17 17 16 16 15 15 15 15 15 15 14 14 14 13 13 13 13 13 12 11 12
7 7 6 7 7 6 6 7 9 11 13 14 15 15 15 15 15 14 14 15 15 15 16 16 16 17 18 19 19 19 19 20 20 20 21 21 20 19 19 18 17 17 17 17 17 16 15 15 15 14 14 15 15 14 14 14 14 14 13 13 12 12 12
5 5 5 6 6 5 5 5 7 10 12 13 14 15 16 16 17 17 17 17 17 16 16 16 15 14 15 16 18 19 20 20 20 20 20 21 20 20 19 19 18 17 16 16 16 16 15 14 14 14 14 14 14 14 14 14 14 13 13 13 12 12 12
4 5 6 6 5 4 3 3 4 6 9 11 12 13 14 15 16 16 17 18 18 18 19 19 18 17 17 16 16 16 18 20 20 20 20 20 20 20 19 18 18 17 16 16 15 15 15 15 14 14 14 14 14 14 14 13 13 12 12 12 12 12 12
5 6 7 7 7 6 4 3 2 3 5 6 8 11 12 14 14 14 14 15 16 17 17 17 19 20 20 19 18 16 18 19 18 17 18 19 19 19 19 18 17 17 16 15 15 15 15 15 15 14 14 14 14 14 14 14 14 13 13 12 12 12 12
5 6 7 8 8 7 5 4 3 2 3 4 5 8 10 12 13 14 16 15 16 18 19 18 18 19 19 19 19 20 21 20 18 17 16 17 18 19 19 18 17 16 15 15 15 15 15 15 15 14 14 14 14 15 15 15 15 14 14 13 13 13 12
4 5 6 7 7 6 5 4 4 4 4 5 6 7 8 11 12 13 16 17 18 22 23 21 19 18 18 18 19 23 24 22 20 19 17 16 18 17 17 17 17 16 16 15 15 14 14 14 14 14 14 14 14 15 15 15 15 14 15 14 13 12 12
7 8 8 7 6 5 4 3 3 3 3 4 5 6 8 11 12 12 13 15 17 19 21 23 22 20 19 18 20 22 22 21 21 21 19 18 18 18 18 17 16 16 16 16 16 15 14 14 15 15 15 15 15 15 15 16 15 14 15 16 15 13 12
7 8 9 9 8 8 6 5 3 3 2 0 2 4 7 8 10 11 11 13 15 16 17 20 22 22 21 21 22 22 21 22 21 19 19 18 18 19 19 15 13 14 15 16 15 15 15 15 15 15 15 15 15 16 16 15 14 14 15 15 15 14 13
7 10 12 11 11 10 9 9 8 8 7 5 4 3 5 6 8 9 10 12 14 15 17 18 18 19 19 20 22 22 21 21 21 20 19 18 17 17 18 16 14 12 13 14 14 13 14 15 15 15 16 15 15 16 15 13 12 13 15 15 15 15 14
10 12 12 12 12 12 12 12 12 13 12 10 8 7 6 5 6 9 10 12 13 14 17 17 15 16 17 17 18 21 21 19 20 21 21 18 17 16 16 17 16 13 11 11 12 11 12 13 14 14 15 15 15 14 12 11 13 15 15 15 15 15 15
11 12 12 12 12 12 13 15 15 14 13 11 9 8 7 6 6 7 8 9 11 12 14 16 18 20 20 18 17 19 21 19 19 21 20 18 17 17 17 16 15 14 12 10 10 10 9 11 12 13 14 14 15 14 11 11 14 16 15 15 14 14 15
11 12 12 11 12 13 15 16 15 14 13 12 11 9 8 7 5 5 5 7 10 12 12 14 19 22 23 22 20 19 20 20 19 18 16 17 17 16 16 17 17 17 14 10 9 9 8 9 11 12 12 11 12 12 10 10 13 14 13 13 13 13 12
11 12 12 13 14 15 16 16 16 14 14 14 15 14 12 10 6 4 3 3 6 9 10 12 16 19 20 21 19 18 19 20 19 18 16 16 17 17 16 16 18 19 15 11 9 7 7 7 8 9 7 6 6 5 2 4 8 10 10 10 10 9 9
12 13 14 15 15 16 16 17 17 16 16 17 19 20 19 16 14 13 11 9 8 7 5 3 6 10 15 18 17 17 16 15 15 17 18 18 17 17 17 16 16 16 14 13 10 6 6 7 7 7 4 4 6 4 4 6 7 6 6 7 7 6 5
12 14 15 16 16 17 17 17 18 19 19 20 21 23 24 23 23 22 21 20 20 20 20 17 13 7 2 8 12 14 15 14 13 14 16 17 16 16 16 16 14 13 11 10 9 5 4 5 6 6 6 4 6 7 3 4 7 5 3 4 4 4 4
12 13 14 16 15 15 16 17 19 21 22 22 21 22 23 26 28 26 25 26 26 25 24 23 21 19 17 13 9 7 5 6 7 7 8 11 13 13 13 13 12 10 8 8 8 6 4 4 3 3 3 3 3 4 4 3 4 4 4 4 4 4 4
14 13 14 14 14 14 15 17 20 22 22 21 21 20 21 25 27 26 25 27 29 28 27 26 26 25 26 25 23 22 20 17 15 14 12 12 12 11 10 10 10 9 7 6 6 6 6 6 5 4 4 5 4 3 3 1 1 3 4 4 4 4 3
13 13 14 14 14 14 16 17 19 21 21 20 20 19 20 23 24 23 23 25 25 24 27 30 32 31 31 30 29 28 26 25 23 21 19 17 15 14 11 9 8 8 7 6 7 9 11 10 9 8 8 7 6 5 4 4 3 1 2 3 3 2 1
11 12 13 14 14 15 16 18 19 20 19 19 19 19 20 22 22 21 22 22 20 19 24 29 31 31 31 31 31 30 27 25 26 26 24 20 18 18 16 13 11 11 11 11 12 14 14 13 10 10 9 9 8 8 8 7 6 4 4 5 4 4 3
11 11 13 14 15 15 16 17 18 19 18 18 18 18 20 21 21 21 21 19 17 18 23 26 27 28 28 27 28 28 25 22 24 26 25 21 19 19 19 17 15 15 15 16 16 16 15 14 12 11 10 10 11 11 10 9 9 8 8 8 8 8 7
12 12 13 14 14 14 15 16 17 17 18 17 17 17 18 19 19 19 17 15 15 17 19 20 20 21 21 20 21 23 22 21 21 23 24 24 22 19 18 18 17 16 18 19 19 17 17 15 13 11 11 12 13 13 12 11 10 10 9 9 9 9 8
12 13 13 13 13 14 15 16 17 17 17 16 16 16 17 16 16 16 14 12 12 13 14 15 15 15 15 16 16 16 16 17 18 19 22 24 22 17 15 15 16 17 19 19 18 17 17 16 14 12 12 15 15 13 11 10 9 8 8 8 8 8 7
12 12 12 12 13 14 15 16 17 17 16 16 16 16 16 16 15 13 12 12 12 12 12 13 13 12 12 14 14 13 13 14 15 16 18 20 20 18 16 14 13 14 14 14 13 13 12 12 11 10 11 14 13 11 10 9 8 9 8 8 8 7 7
12 12 12 13 13 14 15 16 16 16 17 16 15 16 16 15 15 13 12 11 11 11 11 12 11 11 11 11 11 11 11 12 13 14 15 17 17 18 17 15 13 12 11 10 9 8 7 6 7 7 9 10 9 7 6 6 7 9 8 7 7 7 7
12 13 12 13 13 13 14 15 15 15 16 15 15 16 15 15 14 13 12 11 10 10 10 10 10 10 10 10 11 10 10 10 11 12 13 15 16 16 16 15 14 13 12 11 10 8 5 5 5 6 7 7 5 4 3 3 3 5 6 6 6 7 7
12 12 12 12 12 12 13 13 13 14 15 14 14 15 15 15 14 13 12 11 10 9 9 8 8 9 9 10 10 10 9 10 10 9 10 11 13 14 15 14 13 13 12 12 11 9 8 7 7 7 6 6 5 4 4 3 2 4 6 7 7 8 8
10 10 10 11 11 12 12 12 12 13 13 13 13 13 14 14 14 13 12 11 10 10 9 8 8 9 9 10 10 9 9 9 9 9 8 8 9 10 12 12 13 13 13 12 11 11 11 11 11 10 9 8 7 7 6 6 5 6 8 9 9 10 10
9 9 9 9 10 10 10 10 10 11 12 11 12 12 12 13 13 13 12 12 11 10 10 9 8 8 9 9 8 8 7 8 7 7 7 7 7 8 9 9 10 11 12 12 12 13 13 14 14 13 13 12 11 10 9 9 10 10 11 12 12 13 13

ECMWFFLT1_925_spd_129.txt.gz
Wind_Speed
16 15 15 14 15 16 15 17 20 20 20 19 19 20 19 18 18 18 18 20 21 21 21 20 19 19 19 18 17 16 15 15 14 14 13 13 12 12 12 12 12 12 11 11 11 11 10 10 9 9 9 9 9 8 7 7 7 6 6 6 7 7 7
16 15 14 14 15 17 17 19 21 21 20 20 20 20 20 19 18 18 18 20 21 21 21 21 20 20 20 19 18 17 16 16 15 15 14 14 13 13 12 12 11 11 11 10 10 10 10 10 10 10 9 9 9 9 8 8 8 8 7 7 7 8 8
14 15 15 14 14 16 17 18 21 21 21 21 21 21 21 20 20 18 18 19 21 21 21 21 20 20 19 19 18 18 17 17 16 16 15 14 14 13 13 12 11 11 11 11 10 10 11 11 11 11 11 11 10 10 10 9 9 9 8 8 8 8 9
14 14 14 15 15 15 15 17 21 21 22 22 22 22 21 21 20 19 18 19 20 21 21 21 21 20 19 19 18 18 18 18 17 17 16 15 14 14 13 13 12 12 12 12 11 11 11 11 12 12 12 12 11 11 11 10 10 10 10 9 10 10 9
12 13 13 15 15 14 13 14 19 22 22 23 23 21 21 21 21 20 19 18 18 20 20 21 21 20 19 19 18 18 19 19 18 17 17 16 14 14 14 14 14 13 12 12 12 12 12 11 12 12 13 13 13 12 12 11 11 11 10 10 10 10 10
8 11 13 14 13 14 13 13 18 23 22 22 21 21 20 21 21 21 20 19 18 18 19 19 20 20 20 19 19 18 18 19 19 18 17 17 16 15 15 14 14 14 14 13 13 13 13 13 13 13 13 14 14 14 14 13 13 12 12 12 11 11 11
6 10 11 13 14 15 15 15 18 22 22 21 20 21 21 21 21 21 20 19 19 18 18 19 19 19 19 19 19 18 18 19 19 19 18 18 17 16 15 15 14 14 14 14 14 14 14 14 14 14 14 14 14 15 15 14 14 13 13 13 12 12 12
3 7 7 11 16 17 16 16 17 20 20 18 17 19 21 21 20 20 19 18 19 18 17 18 18 18 19 19 19 19 19 19 19 19 19 19 18 18 17 16 15 15 14 14 14 14 14 14 14 15 15 15 15 14 14 14 14 14 13 13 13 12 13
2 4 2 6 10 14 16 17 17 17 18 17 18 19 20 19 18 19 18 17 17 17 17 17 17 17 17 18 18 18 17 17 18 19 19 20 19 19 19 17 16 16 16 15 15 15 15 15 14 14 14 14 14 14 14 14 14 14 14 14 14 13 13
2 4 5 4 5 5 11 16 16 14 17 19 19 17 17 16 15 16 17 16 15 16 17 17 15 15 16 17 17 17 16 17 17 18 19 20 20 19 19 18 18 17 17 17 16 15 15 15 15 14 14 14 14 14 14 14 14 15 15 15 15 15 15
5 2 5 5 1 5 4 8 11 11 14 15 15 14 15 15 14 14 15 16 15 15 16 16 15 14 14 16 16 15 16 17 16 16 17 18 19 20 19 18 18 18 18 17 17 17 16 15 15 15 14 14 15 15 15 15 15 16 16 16 16 15 15
5 2 1 4 3 0 4 3 6 9 11 11 12 12 13 13 13 14 15 16 17 16 16 17 16 15 14 15 16 15 16 17 15 14 16 15 15 17 18 19 18 18 17 17 17 18 17 16 15 15 15 15 15 15 15 15 16 16 16 17 16 15 15
6 2 1 1 4 5 3 1 3 7 10 9 9 10 10 12 13 15 15 16 16 16 17 17 18 17 16 15 15 15 16 17 15 16 20 18 16 16 17 17 17 18 18 18 18 17 18 18 16 15 15 15 16 16 16 15 16 16 16 16 16 15 15
8 4 1 2 4 5 4 4 4 4 7 7 7 8 9 10 11 12 12 13 14 14 15 15 16 16 16 17 16 15 16 17 16 18 22 22 20 20 18 17 16 14 15 16 18 18 18 18 17 16 16 16 16 17 17 16 17 17 16 16 16 15 14
11 6 2 1 2 2 2 3 3 3 4 4 5 7 8 8 8 8 9 9 10 12 12 13 14 15 15 15 16 15 14 14 16 20 22 22 22 22 22 21 18 15 15 18 17 17 17 17 18 17 17 17 16 16 17 18 18 16 15 15 15 14 14
11 7 4 2 1 2 3 3 3 2 2 2 2 3 5 6 6 6 8 8 9 11 11 11 12 13 14 14 15 14 12 12 16 21 23 23 23 22 21 21 20 19 18 20 19 15 14 16 18 17 17 17 17 17 18 17 15 14 14 15 14 13 13
9 8 9 7 4 4 5 4 3 2 2 2 1 0 1 2 3 5 7 8 9 10 10 10 11 12 13 14 14 14 12 12 15 20 22 23 24 23 21 20 19 20 21 18 15 14 13 13 15 16 17 16 16 18 16 13 12 13 16 18 17 15 13
8 10 12 11 10 10 10 9 8 7 6 5 3 1 1 1 2 4 5 7 8 9 10 11 12 13 14 15 16 15 13 12 13 17 21 22 23 22 21 22 21 20 20 18 17 16 13 13 17 17 16 17 18 14 6 3 6 10 13 16 17 16 14
9 11 11 11 11 12 11 11 12 12 12 10 8 6 3 2 2 3 4 5 6 7 9 11 12 14 14 15 16 15 13 12 12 13 16 17 19 20 20 21 21 21 20 20 19 18 16 15 17 18 16 15 13 7 6 4 5 8 12 14 14 17 17
9 11 11 10 11 10 10 11 11 11 12 11 9 7 5 3 1 2 3 4 5 6 8 9 10 11 12 12 14 14 14 15 15 15 16 16 17 18 19 18 19 20 20 19 18 18 16 15 14 15 17 16 13 10 8 5 7 9 12 14 14 18 20
9 11 11 11 10 8 9 11 12 11 11 9 8 6 4 2 1 3 4 5 6 7 8 8 8 10 11 12 14 14 14 15 16 16 17 18 18 18 16 15 16 17 18 18 17 18 17 15 13 13 14 14 13 10 5 4 7 10 11 14 16 18 19
10 11 11 11 10 8 9 11 11 11 10 9 7 7 6 4 1 2 3 3 5 6 7 7 7 8 9 9 11 13 13 13 15 16 17 17 18 18 17 16 17 18 18 18 17 17 16 13 11 10 11 11 10 10 8 8 10 10 10 12 14 15 16
11 12 12 12 11 11 11 11 11 11 11 11 11 10 9 9 7 5 5 6 6 5 4 3 3 4 6 6 7 9 12 12 13 16 17 17 18 18 17 16 18 19 18 17 15 13 12 11 10 9 9 8 5 4 6 6 7 8 8 10 11 12 13
14 14 13 13 13 13 13 13 12 12 13 15 15 14 12 12 13 14 14 14 14 14 15 13 11 9 6 5 6 7 10 11 12 14 17 19 19 19 18 17 16 15 16 16 13 10 10 9 9 7 7 6 5 5 6 4 3 4 6 7 7 9 10
15 15 13 11 12 14 14 14 14 14 14 16 17 16 16 16 17 18 18 17 17 18 18 17 15 14 12 8 5 4 5 7 9 11 13 15 15 17 18 18 16 13 13 14 12 10 9 8 7 7 8 8 7 7 6 4 3 3 4 5 6 8 7
14 14 12 11 14 17 16 15 15 15 16 16 16 16 17 18 19 20 19 19 19 19 18 17 16 16 15 13 11 9 7 5 3 2 4 6 8 9 8 9 13 12 11 12 11 9 9 8 7 8 8 7 7 7 6 3 3 3 4 4 4 4 2
14 13 11 12 17 19 17 15 15 16 16 16 16 17 18 19 20 20 19 20 21 20 18 17 18 19 19 17 17 17 16 14 13 10 8 4 2 3 1 4 9 11 11 11 10 10 12 12 11 10 9 7 6 6 6 4 2 1 1 2 2 2 1
13 12 12 13 15 16 15 15 16 17 17 17 17 17 18 19 19 19 19 21 21 19 19 19 20 21 22 21 20 19 19 19 18 16 14 12 10 9 9 9 10 11 11 11 11 13 14 14 13 11 10 8 6 5 5 4 3 2 1 2 2 1 1
11 11 13 14 12 13 14 14 15 17 18 18 17 17 18 18 19 19 19 19 18 15 17 19 19 21 23 25 23 20 19 19 19 19 19 17 15 15 15 14 14 13 12 12 12 13 12 12 12 12 11 10 9 8 7 6 5 4 3 2 2 3 3
12 11 13 14 13 14 15 14 15 16 16 18 18 17 18 18 18 18 18 17 16 14 14 15 16 18 19 21 22 22 21 21 20 19 20 19 17 16 17 17 17 16 16 16 15 14 13 12 11 12 12 11 11 10 9 8 6 4 4 4 4 5 6
13 12 12 13 13 13 14 14 15 16 16 17 17 16 17 17 17 17 17 15 14 15 15 14 14 15 15 16 17 19 20 22 21 19 18 17 17 18 17 17 18 17 17 17 16 15 15 13 12 13 12 10 9 9 9 9 7 5 4 5 5 6 7
12 12 13 13 12 12 13 14 15 16 16 16 15 16 16 15 14 15 15 13 14 15 15 15 15 15 15 15 15 14 15 16 16 15 15 15 15 16 16 16 16 17 17 16 15 14 14 14 14 12 11 9 7 7 9 8 7 6 5 6 6 7 7
12 13 13 13 13 13 14 14 15 15 16 15 15 14 14 13 13 13 13 12 12 12 13 14 15 15 15 14 14 14 13 13 13 13 13 13 12 13 14 14 13 13 13 13 12 11 10 10 9 7 6 6 5 5 7 8 8 8 7 7 7 8 8
12 13 13 14 14 14 14 15 15 15 15 14 13 13 13 13 13 12 11 12 11 11 12 12 12 13 13 13 12 12 12 12 12 13 14 15 15 14 13 13 12 12 12 10 9 8 6 5 4 4 4 4 3 4 4 5 7 7 7 7 7 7 7
12 13 13 13 14 14 14 14 14 14 14 13 13 13 13 13 12 11 10 10 9 9 9 9 9 10 11 11 11 11 10 11 11 11 13 16 17 17 16 14 12 11 11 10 8 6 5 4 3 3 4 4 2 2 2 2 4 4 4 4 4 5 5
11 12 12 13 13 13 14 13 13 13 13 12 12 12 12 12 11 11 10 9 8 8 8 7 7 8 9 10 10 9 9 10 10 10 10 11 13 15 15 15 13 12 12 11 9 7 6 4 3 3 4 4 3 2 2 2 2 3 4 4 4 4 5
10 11 11 11 12 12 13 12 12 13 12 12 11 12 12 12 11 11 11 10 9 9 9 8 9 10 10 10 10 10 9 9 10 9 9 9 9 10 11 12 13 14 13 12 12 11 10 9 7 5 5 5 6 5 5 5 6 6 7 7 7 8 8
10 9 9 9 10 11 11 11 11 11 11 11 11 11 11 11 11 11 11 11 10 10 9 9 8 9 9 9 9 8 8 8 8 8 8 8 8 7 7 8 10 12 12 12 13 13 13 12 11 9 8 8 8 8 8 9 9 9 10 10 10 11 11